<?xml version="1.0" encoding="UTF-8" standalone="no" ?>
<gpx xmlns="http://www.topografix.com/GPX/1/1" xmlns:xsi="http://www.w3.org/2001/XMLSchema-instance" xsi:schemaLocation="http://www.topografix.com/GPX/1/1 http://www.topografix.com/GPX/1/1/gpx.xsd" version="1.1" creator="VisuGPX - https://www.visugpx.com">
  <metadata>
    <name>Wallabies Tet Adriatique Juillet 2025/1</name>
    <desc><![CDATA[Les Wallabies Adriatique 2025]]></desc>
  </metadata>
  <trk>
    <name><![CDATA[6.2 HARD+ ACT MNE_AL]]></name>
    <extensions>
      <line xmlns="http://www.topografix.com/GPX/gpx_style/0/2">
        <color>ff2600</color>
        <width>4</width>
      </line>
    </extensions>
    <trkseg>
      <trkpt lat="40.24412" lon="20.43182">
        <ele>323.14001464844</ele>
        <time>2024-09-27T11:54:33.000Z</time>
      </trkpt>
      <trkpt lat="40.24394" lon="20.4316">
        <ele>323.14001464844</ele>
        <time>2024-09-27T11:54:40.000Z</time>
      </trkpt>
      <trkpt lat="40.24379" lon="20.43141">
        <ele>323.14001464844</ele>
        <time>2024-09-27T11:54:48.000Z</time>
      </trkpt>
      <trkpt lat="40.24362" lon="20.43109">
        <ele>323.14001464844</ele>
        <time>2024-09-27T11:54:58.000Z</time>
      </trkpt>
      <trkpt lat="40.24357" lon="20.43103">
        <ele>323.14001464844</ele>
        <time>2024-09-27T11:55:07.000Z</time>
      </trkpt>
      <trkpt lat="40.24353" lon="20.43094">
        <ele>323.14001464844</ele>
        <time>2024-09-27T11:55:09.000Z</time>
      </trkpt>
      <trkpt lat="40.2435" lon="20.43076">
        <ele>322.66000366211</ele>
        <time>2024-09-27T11:55:12.000Z</time>
      </trkpt>
      <trkpt lat="40.24349" lon="20.43073">
        <ele>322.66000366211</ele>
        <time>2024-09-27T11:55:13.000Z</time>
      </trkpt>
      <trkpt lat="40.24348" lon="20.43066">
        <ele>322.17999267578</ele>
        <time>2024-09-27T11:55:14.000Z</time>
      </trkpt>
      <trkpt lat="40.24346" lon="20.43059">
        <ele>322.17999267578</ele>
        <time>2024-09-27T11:55:15.000Z</time>
      </trkpt>
      <trkpt lat="40.24343" lon="20.43053">
        <ele>322.66000366211</ele>
        <time>2024-09-27T11:55:16.000Z</time>
      </trkpt>
      <trkpt lat="40.2434" lon="20.43049">
        <ele>322.66000366211</ele>
        <time>2024-09-27T11:55:17.000Z</time>
      </trkpt>
      <trkpt lat="40.24336" lon="20.43047">
        <ele>322.66000366211</ele>
        <time>2024-09-27T11:55:18.000Z</time>
      </trkpt>
      <trkpt lat="40.24331" lon="20.43046">
        <ele>322.66000366211</ele>
        <time>2024-09-27T11:55:19.000Z</time>
      </trkpt>
      <trkpt lat="40.24325" lon="20.43046">
        <ele>323.14001464844</ele>
        <time>2024-09-27T11:55:20.000Z</time>
      </trkpt>
      <trkpt lat="40.24317" lon="20.43045">
        <ele>322.66000366211</ele>
        <time>2024-09-27T11:55:21.000Z</time>
      </trkpt>
      <trkpt lat="40.24315" lon="20.43045">
        <ele>322.66000366211</ele>
        <time>2024-09-27T11:55:22.000Z</time>
      </trkpt>
      <trkpt lat="40.24308" lon="20.43044">
        <ele>322.66000366211</ele>
        <time>2024-09-27T11:55:23.000Z</time>
      </trkpt>
      <trkpt lat="40.24303" lon="20.43042">
        <ele>322.66000366211</ele>
        <time>2024-09-27T11:55:24.000Z</time>
      </trkpt>
      <trkpt lat="40.24297" lon="20.43041">
        <ele>322.66000366211</ele>
        <time>2024-09-27T11:55:25.000Z</time>
      </trkpt>
      <trkpt lat="40.24287" lon="20.4304">
        <ele>322.66000366211</ele>
        <time>2024-09-27T11:55:26.000Z</time>
      </trkpt>
      <trkpt lat="40.24286" lon="20.4304">
        <ele>322.66000366211</ele>
        <time>2024-09-27T11:55:27.000Z</time>
      </trkpt>
      <trkpt lat="40.24279" lon="20.43038">
        <ele>322.17999267578</ele>
        <time>2024-09-27T11:55:28.000Z</time>
      </trkpt>
      <trkpt lat="40.24274" lon="20.43036">
        <ele>322.17999267578</ele>
        <time>2024-09-27T11:55:29.000Z</time>
      </trkpt>
      <trkpt lat="40.24267" lon="20.43035">
        <ele>321.70001220703</ele>
        <time>2024-09-27T11:55:30.000Z</time>
      </trkpt>
      <trkpt lat="40.24261" lon="20.43033">
        <ele>321.2200012207</ele>
        <time>2024-09-27T11:55:31.000Z</time>
      </trkpt>
      <trkpt lat="40.24254" lon="20.43032">
        <ele>321.2200012207</ele>
        <time>2024-09-27T11:55:32.000Z</time>
      </trkpt>
      <trkpt lat="40.24249" lon="20.4303">
        <ele>320.73999023438</ele>
        <time>2024-09-27T11:55:33.000Z</time>
      </trkpt>
      <trkpt lat="40.24242" lon="20.43027">
        <ele>320.73999023438</ele>
        <time>2024-09-27T11:55:34.000Z</time>
      </trkpt>
      <trkpt lat="40.24233" lon="20.43024">
        <ele>320.26000976562</ele>
        <time>2024-09-27T11:55:35.000Z</time>
      </trkpt>
      <trkpt lat="40.2422" lon="20.43019">
        <ele>319.7799987793</ele>
        <time>2024-09-27T11:55:37.000Z</time>
      </trkpt>
      <trkpt lat="40.24217" lon="20.43018">
        <ele>319.7799987793</ele>
        <time>2024-09-27T11:55:38.000Z</time>
      </trkpt>
      <trkpt lat="40.24211" lon="20.43015">
        <ele>319.7799987793</ele>
        <time>2024-09-27T11:55:39.000Z</time>
      </trkpt>
      <trkpt lat="40.24205" lon="20.43013">
        <ele>319.7799987793</ele>
        <time>2024-09-27T11:55:40.000Z</time>
      </trkpt>
      <trkpt lat="40.24199" lon="20.43012">
        <ele>319.7799987793</ele>
        <time>2024-09-27T11:55:41.000Z</time>
      </trkpt>
      <trkpt lat="40.24193" lon="20.43011">
        <ele>319.7799987793</ele>
        <time>2024-09-27T11:55:42.000Z</time>
      </trkpt>
      <trkpt lat="40.24184" lon="20.4301">
        <ele>319.7799987793</ele>
        <time>2024-09-27T11:55:43.000Z</time>
      </trkpt>
      <trkpt lat="40.2418" lon="20.4301">
        <ele>319.7799987793</ele>
        <time>2024-09-27T11:55:44.000Z</time>
      </trkpt>
      <trkpt lat="40.24174" lon="20.43009">
        <ele>319.29998779297</ele>
        <time>2024-09-27T11:55:45.000Z</time>
      </trkpt>
      <trkpt lat="40.24168" lon="20.43009">
        <ele>319.29998779297</ele>
        <time>2024-09-27T11:55:46.000Z</time>
      </trkpt>
      <trkpt lat="40.24161" lon="20.43008">
        <ele>318.80999755859</ele>
        <time>2024-09-27T11:55:47.000Z</time>
      </trkpt>
      <trkpt lat="40.24155" lon="20.43008">
        <ele>318.80999755859</ele>
        <time>2024-09-27T11:55:48.000Z</time>
      </trkpt>
      <trkpt lat="40.2415" lon="20.43008">
        <ele>318.32998657227</ele>
        <time>2024-09-27T11:55:49.000Z</time>
      </trkpt>
      <trkpt lat="40.24144" lon="20.43007">
        <ele>318.32998657227</ele>
        <time>2024-09-27T11:55:50.000Z</time>
      </trkpt>
      <trkpt lat="40.24139" lon="20.43006">
        <ele>318.32998657227</ele>
        <time>2024-09-27T11:55:51.000Z</time>
      </trkpt>
      <trkpt lat="40.24133" lon="20.43005">
        <ele>317.85000610352</ele>
        <time>2024-09-27T11:55:52.000Z</time>
      </trkpt>
      <trkpt lat="40.24129" lon="20.43005">
        <ele>317.85000610352</ele>
        <time>2024-09-27T11:55:53.000Z</time>
      </trkpt>
      <trkpt lat="40.24125" lon="20.43006">
        <ele>317.85000610352</ele>
        <time>2024-09-27T11:55:54.000Z</time>
      </trkpt>
      <trkpt lat="40.24121" lon="20.43007">
        <ele>317.36999511719</ele>
        <time>2024-09-27T11:55:55.000Z</time>
      </trkpt>
      <trkpt lat="40.24116" lon="20.43008">
        <ele>317.36999511719</ele>
        <time>2024-09-27T11:55:56.000Z</time>
      </trkpt>
      <trkpt lat="40.24108" lon="20.43011">
        <ele>317.85000610352</ele>
        <time>2024-09-27T11:55:57.000Z</time>
      </trkpt>
      <trkpt lat="40.24099" lon="20.43015">
        <ele>317.85000610352</ele>
        <time>2024-09-27T11:55:59.000Z</time>
      </trkpt>
      <trkpt lat="40.24098" lon="20.43015">
        <ele>317.85000610352</ele>
        <time>2024-09-27T11:56:00.000Z</time>
      </trkpt>
      <trkpt lat="40.24093" lon="20.43017">
        <ele>317.85000610352</ele>
        <time>2024-09-27T11:56:01.000Z</time>
      </trkpt>
      <trkpt lat="40.24089" lon="20.43016">
        <ele>317.85000610352</ele>
        <time>2024-09-27T11:56:02.000Z</time>
      </trkpt>
      <trkpt lat="40.24071" lon="20.43024">
        <ele>318.32998657227</ele>
        <time>2024-09-27T11:56:09.000Z</time>
      </trkpt>
      <trkpt lat="40.24074" lon="20.43045">
        <ele>318.80999755859</ele>
        <time>2024-09-27T11:56:13.000Z</time>
      </trkpt>
      <trkpt lat="40.24076" lon="20.43048">
        <ele>318.80999755859</ele>
        <time>2024-09-27T11:56:14.000Z</time>
      </trkpt>
      <trkpt lat="40.24077" lon="20.43052">
        <ele>318.80999755859</ele>
        <time>2024-09-27T11:56:15.000Z</time>
      </trkpt>
      <trkpt lat="40.24078" lon="20.43057">
        <ele>318.80999755859</ele>
        <time>2024-09-27T11:56:16.000Z</time>
      </trkpt>
      <trkpt lat="40.24081" lon="20.43066">
        <ele>318.80999755859</ele>
        <time>2024-09-27T11:56:17.000Z</time>
      </trkpt>
      <trkpt lat="40.24082" lon="20.43071">
        <ele>318.32998657227</ele>
        <time>2024-09-27T11:56:18.000Z</time>
      </trkpt>
      <trkpt lat="40.24084" lon="20.43077">
        <ele>318.32998657227</ele>
        <time>2024-09-27T11:56:19.000Z</time>
      </trkpt>
      <trkpt lat="40.24085" lon="20.43084">
        <ele>318.32998657227</ele>
        <time>2024-09-27T11:56:20.000Z</time>
      </trkpt>
      <trkpt lat="40.24087" lon="20.43091">
        <ele>318.32998657227</ele>
        <time>2024-09-27T11:56:21.000Z</time>
      </trkpt>
      <trkpt lat="40.24088" lon="20.43098">
        <ele>318.32998657227</ele>
        <time>2024-09-27T11:56:22.000Z</time>
      </trkpt>
      <trkpt lat="40.2409" lon="20.43104">
        <ele>318.32998657227</ele>
        <time>2024-09-27T11:56:23.000Z</time>
      </trkpt>
      <trkpt lat="40.24092" lon="20.43111">
        <ele>318.32998657227</ele>
        <time>2024-09-27T11:56:24.000Z</time>
      </trkpt>
      <trkpt lat="40.24094" lon="20.43121">
        <ele>318.80999755859</ele>
        <time>2024-09-27T11:56:25.000Z</time>
      </trkpt>
      <trkpt lat="40.24096" lon="20.43129">
        <ele>318.80999755859</ele>
        <time>2024-09-27T11:56:26.000Z</time>
      </trkpt>
      <trkpt lat="40.24096" lon="20.43133">
        <ele>318.80999755859</ele>
        <time>2024-09-27T11:56:27.000Z</time>
      </trkpt>
      <trkpt lat="40.24113" lon="20.43163">
        <ele>319.7799987793</ele>
        <time>2024-09-27T11:56:34.000Z</time>
      </trkpt>
      <trkpt lat="40.24114" lon="20.43163">
        <ele>319.7799987793</ele>
        <time>2024-09-27T11:56:35.000Z</time>
      </trkpt>
      <trkpt lat="40.24119" lon="20.43163">
        <ele>319.7799987793</ele>
        <time>2024-09-27T11:56:36.000Z</time>
      </trkpt>
      <trkpt lat="40.24126" lon="20.43163">
        <ele>320.26000976562</ele>
        <time>2024-09-27T11:56:37.000Z</time>
      </trkpt>
      <trkpt lat="40.24129" lon="20.43162">
        <ele>321.2200012207</ele>
        <time>2024-09-27T11:56:38.000Z</time>
      </trkpt>
      <trkpt lat="40.24135" lon="20.43162">
        <ele>321.70001220703</ele>
        <time>2024-09-27T11:56:39.000Z</time>
      </trkpt>
      <trkpt lat="40.24163" lon="20.43163">
        <ele>325.54000854492</ele>
        <time>2024-09-27T11:56:43.000Z</time>
      </trkpt>
      <trkpt lat="40.24167" lon="20.43163">
        <ele>326.5</ele>
        <time>2024-09-27T11:56:44.000Z</time>
      </trkpt>
      <trkpt lat="40.24177" lon="20.43164">
        <ele>327.4700012207</ele>
        <time>2024-09-27T11:56:45.000Z</time>
      </trkpt>
      <trkpt lat="40.24181" lon="20.43164">
        <ele>327.95001220703</ele>
        <time>2024-09-27T11:56:46.000Z</time>
      </trkpt>
      <trkpt lat="40.24186" lon="20.43165">
        <ele>328.42999267578</ele>
        <time>2024-09-27T11:56:47.000Z</time>
      </trkpt>
      <trkpt lat="40.24195" lon="20.43165">
        <ele>329.86999511719</ele>
        <time>2024-09-27T11:56:48.000Z</time>
      </trkpt>
      <trkpt lat="40.24201" lon="20.43165">
        <ele>330.82998657227</ele>
        <time>2024-09-27T11:56:49.000Z</time>
      </trkpt>
      <trkpt lat="40.24206" lon="20.43165">
        <ele>331.79000854492</ele>
        <time>2024-09-27T11:56:50.000Z</time>
      </trkpt>
      <trkpt lat="40.24213" lon="20.43167">
        <ele>332.75</ele>
        <time>2024-09-27T11:56:51.000Z</time>
      </trkpt>
      <trkpt lat="40.2422" lon="20.4317">
        <ele>334.20001220703</ele>
        <time>2024-09-27T11:56:52.000Z</time>
      </trkpt>
      <trkpt lat="40.24226" lon="20.43172">
        <ele>335.64001464844</ele>
        <time>2024-09-27T11:56:53.000Z</time>
      </trkpt>
      <trkpt lat="40.24237" lon="20.43175">
        <ele>337.55999755859</ele>
        <time>2024-09-27T11:56:54.000Z</time>
      </trkpt>
      <trkpt lat="40.2424" lon="20.43176">
        <ele>338.51998901367</ele>
        <time>2024-09-27T11:56:55.000Z</time>
      </trkpt>
      <trkpt lat="40.24246" lon="20.43178">
        <ele>339.48001098633</ele>
        <time>2024-09-27T11:56:56.000Z</time>
      </trkpt>
      <trkpt lat="40.24254" lon="20.4318">
        <ele>340.92001342773</ele>
        <time>2024-09-27T11:56:57.000Z</time>
      </trkpt>
      <trkpt lat="40.2426" lon="20.43182">
        <ele>341.89001464844</ele>
        <time>2024-09-27T11:56:58.000Z</time>
      </trkpt>
      <trkpt lat="40.24268" lon="20.43185">
        <ele>343.32998657227</ele>
        <time>2024-09-27T11:56:59.000Z</time>
      </trkpt>
      <trkpt lat="40.24277" lon="20.43189">
        <ele>344.76998901367</ele>
        <time>2024-09-27T11:57:00.000Z</time>
      </trkpt>
      <trkpt lat="40.2428" lon="20.43191">
        <ele>345.73001098633</ele>
        <time>2024-09-27T11:57:01.000Z</time>
      </trkpt>
      <trkpt lat="40.24287" lon="20.43195">
        <ele>347.17001342773</ele>
        <time>2024-09-27T11:57:02.000Z</time>
      </trkpt>
      <trkpt lat="40.24294" lon="20.43201">
        <ele>348.61999511719</ele>
        <time>2024-09-27T11:57:03.000Z</time>
      </trkpt>
      <trkpt lat="40.24299" lon="20.43205">
        <ele>350.05999755859</ele>
        <time>2024-09-27T11:57:04.000Z</time>
      </trkpt>
      <trkpt lat="40.24306" lon="20.43211">
        <ele>351.01998901367</ele>
        <time>2024-09-27T11:57:05.000Z</time>
      </trkpt>
      <trkpt lat="40.24311" lon="20.43216">
        <ele>351.98001098633</ele>
        <time>2024-09-27T11:57:06.000Z</time>
      </trkpt>
      <trkpt lat="40.24317" lon="20.43223">
        <ele>353.89999389648</ele>
        <time>2024-09-27T11:57:07.000Z</time>
      </trkpt>
      <trkpt lat="40.24322" lon="20.43228">
        <ele>354.85998535156</ele>
        <time>2024-09-27T11:57:08.000Z</time>
      </trkpt>
      <trkpt lat="40.24326" lon="20.43234">
        <ele>355.82998657227</ele>
        <time>2024-09-27T11:57:09.000Z</time>
      </trkpt>
      <trkpt lat="40.2433" lon="20.43239">
        <ele>356.30999755859</ele>
        <time>2024-09-27T11:57:10.000Z</time>
      </trkpt>
      <trkpt lat="40.24334" lon="20.43246">
        <ele>357.26998901367</ele>
        <time>2024-09-27T11:57:11.000Z</time>
      </trkpt>
      <trkpt lat="40.24337" lon="20.43255">
        <ele>357.75</ele>
        <time>2024-09-27T11:57:12.000Z</time>
      </trkpt>
      <trkpt lat="40.24341" lon="20.43264">
        <ele>358.23001098633</ele>
        <time>2024-09-27T11:57:13.000Z</time>
      </trkpt>
      <trkpt lat="40.24344" lon="20.43272">
        <ele>358.70999145508</ele>
        <time>2024-09-27T11:57:14.000Z</time>
      </trkpt>
      <trkpt lat="40.24347" lon="20.43283">
        <ele>359.67001342773</ele>
        <time>2024-09-27T11:57:15.000Z</time>
      </trkpt>
      <trkpt lat="40.2435" lon="20.43291">
        <ele>360.63000488281</ele>
        <time>2024-09-27T11:57:16.000Z</time>
      </trkpt>
      <trkpt lat="40.24353" lon="20.43298">
        <ele>361.10998535156</ele>
        <time>2024-09-27T11:57:17.000Z</time>
      </trkpt>
      <trkpt lat="40.24356" lon="20.4331">
        <ele>362.07000732422</ele>
        <time>2024-09-27T11:57:18.000Z</time>
      </trkpt>
      <trkpt lat="40.24357" lon="20.43317">
        <ele>362.54998779297</ele>
        <time>2024-09-27T11:57:19.000Z</time>
      </trkpt>
      <trkpt lat="40.2436" lon="20.43327">
        <ele>363.51998901367</ele>
        <time>2024-09-27T11:57:20.000Z</time>
      </trkpt>
      <trkpt lat="40.24362" lon="20.43337">
        <ele>364</ele>
        <time>2024-09-27T11:57:21.000Z</time>
      </trkpt>
      <trkpt lat="40.24364" lon="20.43344">
        <ele>364.48001098633</ele>
        <time>2024-09-27T11:57:22.000Z</time>
      </trkpt>
      <trkpt lat="40.24365" lon="20.43353">
        <ele>364.95999145508</ele>
        <time>2024-09-27T11:57:23.000Z</time>
      </trkpt>
      <trkpt lat="40.24365" lon="20.43361">
        <ele>365.44000244141</ele>
        <time>2024-09-27T11:57:24.000Z</time>
      </trkpt>
      <trkpt lat="40.24361" lon="20.43373">
        <ele>366.39999389648</ele>
        <time>2024-09-27T11:57:25.000Z</time>
      </trkpt>
      <trkpt lat="40.24361" lon="20.43376">
        <ele>366.39999389648</ele>
        <time>2024-09-27T11:57:26.000Z</time>
      </trkpt>
      <trkpt lat="40.2436" lon="20.43382">
        <ele>367.35998535156</ele>
        <time>2024-09-27T11:57:27.000Z</time>
      </trkpt>
      <trkpt lat="40.24361" lon="20.43388">
        <ele>367.83999633789</ele>
        <time>2024-09-27T11:57:28.000Z</time>
      </trkpt>
      <trkpt lat="40.24363" lon="20.43392">
        <ele>367.35998535156</ele>
        <time>2024-09-27T11:57:29.000Z</time>
      </trkpt>
      <trkpt lat="40.24366" lon="20.43397">
        <ele>367.35998535156</ele>
        <time>2024-09-27T11:57:30.000Z</time>
      </trkpt>
      <trkpt lat="40.2437" lon="20.43401">
        <ele>367.35998535156</ele>
        <time>2024-09-27T11:57:31.000Z</time>
      </trkpt>
      <trkpt lat="40.24377" lon="20.43404">
        <ele>367.35998535156</ele>
        <time>2024-09-27T11:57:32.000Z</time>
      </trkpt>
      <trkpt lat="40.24383" lon="20.43405">
        <ele>367.83999633789</ele>
        <time>2024-09-27T11:57:33.000Z</time>
      </trkpt>
      <trkpt lat="40.24388" lon="20.43404">
        <ele>368.32000732422</ele>
        <time>2024-09-27T11:57:34.000Z</time>
      </trkpt>
      <trkpt lat="40.24395" lon="20.43402">
        <ele>368.79998779297</ele>
        <time>2024-09-27T11:57:35.000Z</time>
      </trkpt>
      <trkpt lat="40.24403" lon="20.434">
        <ele>369.2799987793</ele>
        <time>2024-09-27T11:57:36.000Z</time>
      </trkpt>
      <trkpt lat="40.24405" lon="20.434">
        <ele>369.2799987793</ele>
        <time>2024-09-27T11:57:37.000Z</time>
      </trkpt>
      <trkpt lat="40.24411" lon="20.43399">
        <ele>369.76000976562</ele>
        <time>2024-09-27T11:57:38.000Z</time>
      </trkpt>
      <trkpt lat="40.24417" lon="20.434">
        <ele>370.23999023438</ele>
        <time>2024-09-27T11:57:39.000Z</time>
      </trkpt>
      <trkpt lat="40.24422" lon="20.43402">
        <ele>370.23999023438</ele>
        <time>2024-09-27T11:57:40.000Z</time>
      </trkpt>
      <trkpt lat="40.24426" lon="20.43406">
        <ele>370.23999023438</ele>
        <time>2024-09-27T11:57:41.000Z</time>
      </trkpt>
      <trkpt lat="40.24429" lon="20.43412">
        <ele>370.73001098633</ele>
        <time>2024-09-27T11:57:42.000Z</time>
      </trkpt>
      <trkpt lat="40.24432" lon="20.43419">
        <ele>370.73001098633</ele>
        <time>2024-09-27T11:57:43.000Z</time>
      </trkpt>
      <trkpt lat="40.24432" lon="20.43427">
        <ele>371.20999145508</ele>
        <time>2024-09-27T11:57:44.000Z</time>
      </trkpt>
      <trkpt lat="40.2443" lon="20.43434">
        <ele>371.20999145508</ele>
        <time>2024-09-27T11:57:45.000Z</time>
      </trkpt>
      <trkpt lat="40.24427" lon="20.43441">
        <ele>372.17001342773</ele>
        <time>2024-09-27T11:57:46.000Z</time>
      </trkpt>
      <trkpt lat="40.24421" lon="20.43448">
        <ele>372.64999389648</ele>
        <time>2024-09-27T11:57:47.000Z</time>
      </trkpt>
      <trkpt lat="40.24416" lon="20.43454">
        <ele>372.64999389648</ele>
        <time>2024-09-27T11:57:48.000Z</time>
      </trkpt>
      <trkpt lat="40.24409" lon="20.4346">
        <ele>373.60998535156</ele>
        <time>2024-09-27T11:57:49.000Z</time>
      </trkpt>
      <trkpt lat="40.24402" lon="20.43465">
        <ele>374.08999633789</ele>
        <time>2024-09-27T11:57:50.000Z</time>
      </trkpt>
      <trkpt lat="40.24397" lon="20.4347">
        <ele>374.57000732422</ele>
        <time>2024-09-27T11:57:51.000Z</time>
      </trkpt>
      <trkpt lat="40.24391" lon="20.43476">
        <ele>375.04998779297</ele>
        <time>2024-09-27T11:57:52.000Z</time>
      </trkpt>
      <trkpt lat="40.24387" lon="20.43485">
        <ele>375.5299987793</ele>
        <time>2024-09-27T11:57:53.000Z</time>
      </trkpt>
      <trkpt lat="40.24383" lon="20.43498">
        <ele>376.48999023438</ele>
        <time>2024-09-27T11:57:54.000Z</time>
      </trkpt>
      <trkpt lat="40.24381" lon="20.43509">
        <ele>377.45001220703</ele>
        <time>2024-09-27T11:57:55.000Z</time>
      </trkpt>
      <trkpt lat="40.24381" lon="20.43514">
        <ele>378.42001342773</ele>
        <time>2024-09-27T11:57:56.000Z</time>
      </trkpt>
      <trkpt lat="40.2438" lon="20.43526">
        <ele>380.33999633789</ele>
        <time>2024-09-27T11:57:57.000Z</time>
      </trkpt>
      <trkpt lat="40.2438" lon="20.43535">
        <ele>381.29998779297</ele>
        <time>2024-09-27T11:57:58.000Z</time>
      </trkpt>
      <trkpt lat="40.24382" lon="20.43554">
        <ele>383.2200012207</ele>
        <time>2024-09-27T11:57:59.000Z</time>
      </trkpt>
      <trkpt lat="40.24382" lon="20.43556">
        <ele>383.2200012207</ele>
        <time>2024-09-27T11:58:00.000Z</time>
      </trkpt>
      <trkpt lat="40.24381" lon="20.43566">
        <ele>385.14999389648</ele>
        <time>2024-09-27T11:58:01.000Z</time>
      </trkpt>
      <trkpt lat="40.24379" lon="20.43576">
        <ele>386.10998535156</ele>
        <time>2024-09-27T11:58:02.000Z</time>
      </trkpt>
      <trkpt lat="40.24376" lon="20.43584">
        <ele>386.58999633789</ele>
        <time>2024-09-27T11:58:03.000Z</time>
      </trkpt>
      <trkpt lat="40.24372" lon="20.43594">
        <ele>388.0299987793</ele>
        <time>2024-09-27T11:58:04.000Z</time>
      </trkpt>
      <trkpt lat="40.24365" lon="20.43605">
        <ele>389.4700012207</ele>
        <time>2024-09-27T11:58:05.000Z</time>
      </trkpt>
      <trkpt lat="40.24359" lon="20.43613">
        <ele>390.42999267578</ele>
        <time>2024-09-27T11:58:06.000Z</time>
      </trkpt>
      <trkpt lat="40.24337" lon="20.43641">
        <ele>393.32000732422</ele>
        <time>2024-09-27T11:58:09.000Z</time>
      </trkpt>
      <trkpt lat="40.24335" lon="20.43644">
        <ele>393.79998779297</ele>
        <time>2024-09-27T11:58:10.000Z</time>
      </trkpt>
      <trkpt lat="40.24328" lon="20.43656">
        <ele>395.7200012207</ele>
        <time>2024-09-27T11:58:11.000Z</time>
      </trkpt>
      <trkpt lat="40.24326" lon="20.4366">
        <ele>396.20001220703</ele>
        <time>2024-09-27T11:58:12.000Z</time>
      </trkpt>
      <trkpt lat="40.24323" lon="20.4367">
        <ele>397.16000366211</ele>
        <time>2024-09-27T11:58:13.000Z</time>
      </trkpt>
      <trkpt lat="40.24321" lon="20.4368">
        <ele>398.60000610352</ele>
        <time>2024-09-27T11:58:14.000Z</time>
      </trkpt>
      <trkpt lat="40.24315" lon="20.43723">
        <ele>403.41000366211</ele>
        <time>2024-09-27T11:58:18.000Z</time>
      </trkpt>
      <trkpt lat="40.24315" lon="20.4373">
        <ele>403.89001464844</ele>
        <time>2024-09-27T11:58:19.000Z</time>
      </trkpt>
      <trkpt lat="40.24316" lon="20.43738">
        <ele>405.32998657227</ele>
        <time>2024-09-27T11:58:20.000Z</time>
      </trkpt>
      <trkpt lat="40.24319" lon="20.43745">
        <ele>406.76998901367</ele>
        <time>2024-09-27T11:58:21.000Z</time>
      </trkpt>
      <trkpt lat="40.24323" lon="20.43755">
        <ele>408.70001220703</ele>
        <time>2024-09-27T11:58:22.000Z</time>
      </trkpt>
      <trkpt lat="40.2433" lon="20.43767">
        <ele>410.14001464844</ele>
        <time>2024-09-27T11:58:23.000Z</time>
      </trkpt>
      <trkpt lat="40.24332" lon="20.4377">
        <ele>410.61999511719</ele>
        <time>2024-09-27T11:58:24.000Z</time>
      </trkpt>
      <trkpt lat="40.24337" lon="20.43779">
        <ele>412.05999755859</ele>
        <time>2024-09-27T11:58:25.000Z</time>
      </trkpt>
      <trkpt lat="40.24342" lon="20.43784">
        <ele>413.01998901367</ele>
        <time>2024-09-27T11:58:26.000Z</time>
      </trkpt>
      <trkpt lat="40.2435" lon="20.4379">
        <ele>414.95001220703</ele>
        <time>2024-09-27T11:58:27.000Z</time>
      </trkpt>
      <trkpt lat="40.24363" lon="20.43799">
        <ele>415.91000366211</ele>
        <time>2024-09-27T11:58:28.000Z</time>
      </trkpt>
      <trkpt lat="40.24368" lon="20.43802">
        <ele>416.86999511719</ele>
        <time>2024-09-27T11:58:29.000Z</time>
      </trkpt>
      <trkpt lat="40.24371" lon="20.43804">
        <ele>417.35000610352</ele>
        <time>2024-09-27T11:58:30.000Z</time>
      </trkpt>
      <trkpt lat="40.24378" lon="20.43811">
        <ele>418.30999755859</ele>
        <time>2024-09-27T11:58:31.000Z</time>
      </trkpt>
      <trkpt lat="40.24393" lon="20.43823">
        <ele>420.23001098633</ele>
        <time>2024-09-27T11:58:33.000Z</time>
      </trkpt>
      <trkpt lat="40.24398" lon="20.43829">
        <ele>421.19000244141</ele>
        <time>2024-09-27T11:58:34.000Z</time>
      </trkpt>
      <trkpt lat="40.24401" lon="20.43835">
        <ele>421.19000244141</ele>
        <time>2024-09-27T11:58:35.000Z</time>
      </trkpt>
      <trkpt lat="40.24402" lon="20.43843">
        <ele>421.67999267578</ele>
        <time>2024-09-27T11:58:36.000Z</time>
      </trkpt>
      <trkpt lat="40.24402" lon="20.43851">
        <ele>422.16000366211</ele>
        <time>2024-09-27T11:58:37.000Z</time>
      </trkpt>
      <trkpt lat="40.244" lon="20.43861">
        <ele>421.67999267578</ele>
        <time>2024-09-27T11:58:38.000Z</time>
      </trkpt>
      <trkpt lat="40.24398" lon="20.43868">
        <ele>422.16000366211</ele>
        <time>2024-09-27T11:58:39.000Z</time>
      </trkpt>
      <trkpt lat="40.24394" lon="20.43876">
        <ele>422.64001464844</ele>
        <time>2024-09-27T11:58:40.000Z</time>
      </trkpt>
      <trkpt lat="40.24388" lon="20.43889">
        <ele>423.11999511719</ele>
        <time>2024-09-27T11:58:41.000Z</time>
      </trkpt>
      <trkpt lat="40.24385" lon="20.43896">
        <ele>423.11999511719</ele>
        <time>2024-09-27T11:58:42.000Z</time>
      </trkpt>
      <trkpt lat="40.24385" lon="20.43898">
        <ele>423.60000610352</ele>
        <time>2024-09-27T11:58:43.000Z</time>
      </trkpt>
      <trkpt lat="40.24384" lon="20.43906">
        <ele>424.07998657227</ele>
        <time>2024-09-27T11:58:44.000Z</time>
      </trkpt>
      <trkpt lat="40.24383" lon="20.43912">
        <ele>424.55999755859</ele>
        <time>2024-09-27T11:58:45.000Z</time>
      </trkpt>
      <trkpt lat="40.24382" lon="20.4392">
        <ele>425.51998901367</ele>
        <time>2024-09-27T11:58:46.000Z</time>
      </trkpt>
      <trkpt lat="40.24381" lon="20.43931">
        <ele>426</ele>
        <time>2024-09-27T11:58:53.000Z</time>
      </trkpt>
      <trkpt lat="40.24381" lon="20.4394">
        <ele>426</ele>
        <time>2024-09-27T11:59:27.000Z</time>
      </trkpt>
      <trkpt lat="40.24381" lon="20.43945">
        <ele>426</ele>
        <time>2024-09-27T11:59:28.000Z</time>
      </trkpt>
      <trkpt lat="40.24382" lon="20.43951">
        <ele>426.48001098633</ele>
        <time>2024-09-27T11:59:29.000Z</time>
      </trkpt>
      <trkpt lat="40.24384" lon="20.43958">
        <ele>426.48001098633</ele>
        <time>2024-09-27T11:59:30.000Z</time>
      </trkpt>
      <trkpt lat="40.24386" lon="20.43964">
        <ele>426.95999145508</ele>
        <time>2024-09-27T11:59:31.000Z</time>
      </trkpt>
      <trkpt lat="40.24387" lon="20.43971">
        <ele>427.44000244141</ele>
        <time>2024-09-27T11:59:32.000Z</time>
      </trkpt>
      <trkpt lat="40.24388" lon="20.43978">
        <ele>427.44000244141</ele>
        <time>2024-09-27T11:59:33.000Z</time>
      </trkpt>
      <trkpt lat="40.24388" lon="20.43986">
        <ele>427.92001342773</ele>
        <time>2024-09-27T11:59:34.000Z</time>
      </trkpt>
      <trkpt lat="40.24386" lon="20.43997">
        <ele>428.39999389648</ele>
        <time>2024-09-27T11:59:35.000Z</time>
      </trkpt>
      <trkpt lat="40.24385" lon="20.44002">
        <ele>428.89001464844</ele>
        <time>2024-09-27T11:59:36.000Z</time>
      </trkpt>
      <trkpt lat="40.24383" lon="20.44009">
        <ele>429.85000610352</ele>
        <time>2024-09-27T11:59:37.000Z</time>
      </trkpt>
      <trkpt lat="40.24384" lon="20.44017">
        <ele>430.80999755859</ele>
        <time>2024-09-27T11:59:38.000Z</time>
      </trkpt>
      <trkpt lat="40.24386" lon="20.44024">
        <ele>431.76998901367</ele>
        <time>2024-09-27T11:59:39.000Z</time>
      </trkpt>
      <trkpt lat="40.24389" lon="20.4403">
        <ele>432.25</ele>
        <time>2024-09-27T11:59:40.000Z</time>
      </trkpt>
      <trkpt lat="40.24393" lon="20.44033">
        <ele>433.69000244141</ele>
        <time>2024-09-27T11:59:41.000Z</time>
      </trkpt>
      <trkpt lat="40.24398" lon="20.44034">
        <ele>435.13000488281</ele>
        <time>2024-09-27T11:59:42.000Z</time>
      </trkpt>
      <trkpt lat="40.24402" lon="20.44031">
        <ele>435.60998535156</ele>
        <time>2024-09-27T11:59:43.000Z</time>
      </trkpt>
      <trkpt lat="40.24404" lon="20.44027">
        <ele>436.57998657227</ele>
        <time>2024-09-27T11:59:44.000Z</time>
      </trkpt>
      <trkpt lat="40.24406" lon="20.4402">
        <ele>437.05999755859</ele>
        <time>2024-09-27T11:59:45.000Z</time>
      </trkpt>
      <trkpt lat="40.2441" lon="20.44005">
        <ele>437.54000854492</ele>
        <time>2024-09-27T11:59:46.000Z</time>
      </trkpt>
      <trkpt lat="40.24411" lon="20.44001">
        <ele>437.54000854492</ele>
        <time>2024-09-27T11:59:47.000Z</time>
      </trkpt>
      <trkpt lat="40.24424" lon="20.43964">
        <ele>438.98001098633</ele>
        <time>2024-09-27T11:59:50.000Z</time>
      </trkpt>
      <trkpt lat="40.24428" lon="20.43955">
        <ele>439.94000244141</ele>
        <time>2024-09-27T11:59:51.000Z</time>
      </trkpt>
      <trkpt lat="40.24432" lon="20.43947">
        <ele>439.94000244141</ele>
        <time>2024-09-27T11:59:52.000Z</time>
      </trkpt>
      <trkpt lat="40.24436" lon="20.43939">
        <ele>440.42001342773</ele>
        <time>2024-09-27T11:59:53.000Z</time>
      </trkpt>
      <trkpt lat="40.2444" lon="20.43934">
        <ele>440.89999389648</ele>
        <time>2024-09-27T11:59:54.000Z</time>
      </trkpt>
      <trkpt lat="40.24444" lon="20.43931">
        <ele>440.89999389648</ele>
        <time>2024-09-27T11:59:55.000Z</time>
      </trkpt>
      <trkpt lat="40.2445" lon="20.43929">
        <ele>441.85998535156</ele>
        <time>2024-09-27T11:59:56.000Z</time>
      </trkpt>
      <trkpt lat="40.24453" lon="20.43931">
        <ele>442.33999633789</ele>
        <time>2024-09-27T11:59:57.000Z</time>
      </trkpt>
      <trkpt lat="40.24455" lon="20.43935">
        <ele>442.82000732422</ele>
        <time>2024-09-27T11:59:58.000Z</time>
      </trkpt>
      <trkpt lat="40.24456" lon="20.4394">
        <ele>443.79000854492</ele>
        <time>2024-09-27T11:59:59.000Z</time>
      </trkpt>
      <trkpt lat="40.24454" lon="20.43947">
        <ele>444.26998901367</ele>
        <time>2024-09-27T12:00:00.000Z</time>
      </trkpt>
      <trkpt lat="40.24451" lon="20.43954">
        <ele>445.23001098633</ele>
        <time>2024-09-27T12:00:01.000Z</time>
      </trkpt>
      <trkpt lat="40.24449" lon="20.43962">
        <ele>445.70999145508</ele>
        <time>2024-09-27T12:00:02.000Z</time>
      </trkpt>
      <trkpt lat="40.24448" lon="20.43972">
        <ele>446.67001342773</ele>
        <time>2024-09-27T12:00:03.000Z</time>
      </trkpt>
      <trkpt lat="40.24445" lon="20.43997">
        <ele>448.58999633789</ele>
        <time>2024-09-27T12:00:05.000Z</time>
      </trkpt>
      <trkpt lat="40.24444" lon="20.44004">
        <ele>449.07000732422</ele>
        <time>2024-09-27T12:00:06.000Z</time>
      </trkpt>
      <trkpt lat="40.24441" lon="20.44015">
        <ele>450.0299987793</ele>
        <time>2024-09-27T12:00:07.000Z</time>
      </trkpt>
      <trkpt lat="40.24438" lon="20.44027">
        <ele>451</ele>
        <time>2024-09-27T12:00:08.000Z</time>
      </trkpt>
      <trkpt lat="40.24435" lon="20.44035">
        <ele>451.95999145508</ele>
        <time>2024-09-27T12:00:09.000Z</time>
      </trkpt>
      <trkpt lat="40.24432" lon="20.44045">
        <ele>452.92001342773</ele>
        <time>2024-09-27T12:00:10.000Z</time>
      </trkpt>
      <trkpt lat="40.24429" lon="20.44053">
        <ele>453.88000488281</ele>
        <time>2024-09-27T12:00:11.000Z</time>
      </trkpt>
      <trkpt lat="40.24424" lon="20.44059">
        <ele>454.83999633789</ele>
        <time>2024-09-27T12:00:12.000Z</time>
      </trkpt>
      <trkpt lat="40.24416" lon="20.44066">
        <ele>455.79998779297</ele>
        <time>2024-09-27T12:00:13.000Z</time>
      </trkpt>
      <trkpt lat="40.24411" lon="20.44072">
        <ele>457.23999023438</ele>
        <time>2024-09-27T12:00:14.000Z</time>
      </trkpt>
      <trkpt lat="40.24405" lon="20.44078">
        <ele>458.20999145508</ele>
        <time>2024-09-27T12:00:15.000Z</time>
      </trkpt>
      <trkpt lat="40.24402" lon="20.44084">
        <ele>459.17001342773</ele>
        <time>2024-09-27T12:00:16.000Z</time>
      </trkpt>
      <trkpt lat="40.24397" lon="20.44094">
        <ele>460.60998535156</ele>
        <time>2024-09-27T12:00:17.000Z</time>
      </trkpt>
      <trkpt lat="40.24394" lon="20.441">
        <ele>462.04998779297</ele>
        <time>2024-09-27T12:00:18.000Z</time>
      </trkpt>
      <trkpt lat="40.24389" lon="20.4411">
        <ele>463.01000976562</ele>
        <time>2024-09-27T12:00:19.000Z</time>
      </trkpt>
      <trkpt lat="40.24386" lon="20.44119">
        <ele>464.45001220703</ele>
        <time>2024-09-27T12:00:20.000Z</time>
      </trkpt>
      <trkpt lat="40.24379" lon="20.44136">
        <ele>466.85998535156</ele>
        <time>2024-09-27T12:00:21.000Z</time>
      </trkpt>
      <trkpt lat="40.24378" lon="20.4414">
        <ele>467.82000732422</ele>
        <time>2024-09-27T12:00:22.000Z</time>
      </trkpt>
      <trkpt lat="40.24374" lon="20.44147">
        <ele>468.7799987793</ele>
        <time>2024-09-27T12:00:23.000Z</time>
      </trkpt>
      <trkpt lat="40.24368" lon="20.44157">
        <ele>469.73999023438</ele>
        <time>2024-09-27T12:00:24.000Z</time>
      </trkpt>
      <trkpt lat="40.24363" lon="20.44166">
        <ele>470.2200012207</ele>
        <time>2024-09-27T12:00:25.000Z</time>
      </trkpt>
      <trkpt lat="40.2436" lon="20.44172">
        <ele>470.70001220703</ele>
        <time>2024-09-27T12:00:26.000Z</time>
      </trkpt>
      <trkpt lat="40.24357" lon="20.4418">
        <ele>471.17999267578</ele>
        <time>2024-09-27T12:00:27.000Z</time>
      </trkpt>
      <trkpt lat="40.24355" lon="20.44187">
        <ele>471.66000366211</ele>
        <time>2024-09-27T12:00:28.000Z</time>
      </trkpt>
      <trkpt lat="40.24356" lon="20.44193">
        <ele>472.14001464844</ele>
        <time>2024-09-27T12:00:29.000Z</time>
      </trkpt>
      <trkpt lat="40.24365" lon="20.44199">
        <ele>473.58999633789</ele>
        <time>2024-09-27T12:00:31.000Z</time>
      </trkpt>
      <trkpt lat="40.24365" lon="20.44199">
        <ele>473.58999633789</ele>
        <time>2024-09-27T12:00:32.000Z</time>
      </trkpt>
      <trkpt lat="40.24369" lon="20.44196">
        <ele>474.07000732422</ele>
        <time>2024-09-27T12:00:33.000Z</time>
      </trkpt>
      <trkpt lat="40.24371" lon="20.44189">
        <ele>475.0299987793</ele>
        <time>2024-09-27T12:00:34.000Z</time>
      </trkpt>
      <trkpt lat="40.24374" lon="20.4418">
        <ele>475.98999023438</ele>
        <time>2024-09-27T12:00:35.000Z</time>
      </trkpt>
      <trkpt lat="40.24377" lon="20.44173">
        <ele>476.4700012207</ele>
        <time>2024-09-27T12:00:36.000Z</time>
      </trkpt>
      <trkpt lat="40.24382" lon="20.44166">
        <ele>476.95001220703</ele>
        <time>2024-09-27T12:00:37.000Z</time>
      </trkpt>
      <trkpt lat="40.24389" lon="20.4416">
        <ele>477.42999267578</ele>
        <time>2024-09-27T12:00:38.000Z</time>
      </trkpt>
      <trkpt lat="40.24397" lon="20.44155">
        <ele>477.91000366211</ele>
        <time>2024-09-27T12:00:39.000Z</time>
      </trkpt>
      <trkpt lat="40.24405" lon="20.4415">
        <ele>478.39001464844</ele>
        <time>2024-09-27T12:00:40.000Z</time>
      </trkpt>
      <trkpt lat="40.24412" lon="20.44146">
        <ele>479.35000610352</ele>
        <time>2024-09-27T12:00:41.000Z</time>
      </trkpt>
      <trkpt lat="40.2442" lon="20.44142">
        <ele>480.79998779297</ele>
        <time>2024-09-27T12:00:42.000Z</time>
      </trkpt>
      <trkpt lat="40.24429" lon="20.44137">
        <ele>481.76000976562</ele>
        <time>2024-09-27T12:00:43.000Z</time>
      </trkpt>
      <trkpt lat="40.24436" lon="20.44133">
        <ele>482.23999023438</ele>
        <time>2024-09-27T12:00:44.000Z</time>
      </trkpt>
      <trkpt lat="40.2445" lon="20.44126">
        <ele>482.23999023438</ele>
        <time>2024-09-27T12:00:45.000Z</time>
      </trkpt>
      <trkpt lat="40.24452" lon="20.44126">
        <ele>482.23999023438</ele>
        <time>2024-09-27T12:00:46.000Z</time>
      </trkpt>
      <trkpt lat="40.24458" lon="20.44123">
        <ele>482.7200012207</ele>
        <time>2024-09-27T12:00:47.000Z</time>
      </trkpt>
      <trkpt lat="40.24465" lon="20.44119">
        <ele>482.7200012207</ele>
        <time>2024-09-27T12:00:48.000Z</time>
      </trkpt>
      <trkpt lat="40.24471" lon="20.44113">
        <ele>483.20001220703</ele>
        <time>2024-09-27T12:00:49.000Z</time>
      </trkpt>
      <trkpt lat="40.24476" lon="20.44106">
        <ele>483.20001220703</ele>
        <time>2024-09-27T12:00:50.000Z</time>
      </trkpt>
      <trkpt lat="40.24484" lon="20.44094">
        <ele>484.16000366211</ele>
        <time>2024-09-27T12:00:51.000Z</time>
      </trkpt>
      <trkpt lat="40.24487" lon="20.4409">
        <ele>484.16000366211</ele>
        <time>2024-09-27T12:00:52.000Z</time>
      </trkpt>
      <trkpt lat="40.24493" lon="20.44081">
        <ele>485.11999511719</ele>
        <time>2024-09-27T12:00:53.000Z</time>
      </trkpt>
      <trkpt lat="40.245" lon="20.44074">
        <ele>485.60000610352</ele>
        <time>2024-09-27T12:00:54.000Z</time>
      </trkpt>
      <trkpt lat="40.24513" lon="20.44063">
        <ele>487.04998779297</ele>
        <time>2024-09-27T12:00:56.000Z</time>
      </trkpt>
      <trkpt lat="40.24519" lon="20.4406">
        <ele>487.5299987793</ele>
        <time>2024-09-27T12:00:57.000Z</time>
      </trkpt>
      <trkpt lat="40.24525" lon="20.4406">
        <ele>488.01000976562</ele>
        <time>2024-09-27T12:00:58.000Z</time>
      </trkpt>
      <trkpt lat="40.24532" lon="20.44062">
        <ele>488.9700012207</ele>
        <time>2024-09-27T12:00:59.000Z</time>
      </trkpt>
      <trkpt lat="40.24538" lon="20.44063">
        <ele>489.45001220703</ele>
        <time>2024-09-27T12:01:00.000Z</time>
      </trkpt>
      <trkpt lat="40.24547" lon="20.44066">
        <ele>489.92999267578</ele>
        <time>2024-09-27T12:01:01.000Z</time>
      </trkpt>
      <trkpt lat="40.24554" lon="20.4407">
        <ele>490.89001464844</ele>
        <time>2024-09-27T12:01:02.000Z</time>
      </trkpt>
      <trkpt lat="40.24562" lon="20.44073">
        <ele>491.85000610352</ele>
        <time>2024-09-27T12:01:03.000Z</time>
      </trkpt>
      <trkpt lat="40.24568" lon="20.44075">
        <ele>492.32998657227</ele>
        <time>2024-09-27T12:01:04.000Z</time>
      </trkpt>
      <trkpt lat="40.24575" lon="20.44076">
        <ele>493.29000854492</ele>
        <time>2024-09-27T12:01:05.000Z</time>
      </trkpt>
      <trkpt lat="40.2458" lon="20.44078">
        <ele>494.26000976562</ele>
        <time>2024-09-27T12:01:06.000Z</time>
      </trkpt>
      <trkpt lat="40.24583" lon="20.44083">
        <ele>495.2200012207</ele>
        <time>2024-09-27T12:01:07.000Z</time>
      </trkpt>
      <trkpt lat="40.24585" lon="20.44089">
        <ele>495.70001220703</ele>
        <time>2024-09-27T12:01:08.000Z</time>
      </trkpt>
      <trkpt lat="40.24584" lon="20.44095">
        <ele>496.66000366211</ele>
        <time>2024-09-27T12:01:09.000Z</time>
      </trkpt>
      <trkpt lat="40.24582" lon="20.441">
        <ele>497.61999511719</ele>
        <time>2024-09-27T12:01:10.000Z</time>
      </trkpt>
      <trkpt lat="40.24577" lon="20.44103">
        <ele>498.10000610352</ele>
        <time>2024-09-27T12:01:11.000Z</time>
      </trkpt>
      <trkpt lat="40.24572" lon="20.44103">
        <ele>498.57998657227</ele>
        <time>2024-09-27T12:01:12.000Z</time>
      </trkpt>
      <trkpt lat="40.24557" lon="20.44097">
        <ele>497.61999511719</ele>
        <time>2024-09-27T12:01:14.000Z</time>
      </trkpt>
      <trkpt lat="40.24551" lon="20.44095">
        <ele>496.66000366211</ele>
        <time>2024-09-27T12:01:15.000Z</time>
      </trkpt>
      <trkpt lat="40.24544" lon="20.44095">
        <ele>496.66000366211</ele>
        <time>2024-09-27T12:01:16.000Z</time>
      </trkpt>
      <trkpt lat="40.24538" lon="20.44097">
        <ele>496.17999267578</ele>
        <time>2024-09-27T12:01:17.000Z</time>
      </trkpt>
      <trkpt lat="40.24533" lon="20.44101">
        <ele>496.66000366211</ele>
        <time>2024-09-27T12:01:18.000Z</time>
      </trkpt>
      <trkpt lat="40.24527" lon="20.4411">
        <ele>497.14001464844</ele>
        <time>2024-09-27T12:01:19.000Z</time>
      </trkpt>
      <trkpt lat="40.24522" lon="20.44117">
        <ele>498.10000610352</ele>
        <time>2024-09-27T12:01:20.000Z</time>
      </trkpt>
      <trkpt lat="40.24516" lon="20.44124">
        <ele>499.05999755859</ele>
        <time>2024-09-27T12:01:21.000Z</time>
      </trkpt>
      <trkpt lat="40.24509" lon="20.44133">
        <ele>500.5</ele>
        <time>2024-09-27T12:01:22.000Z</time>
      </trkpt>
      <trkpt lat="40.24502" lon="20.44139">
        <ele>501.45999145508</ele>
        <time>2024-09-27T12:01:23.000Z</time>
      </trkpt>
      <trkpt lat="40.24491" lon="20.44148">
        <ele>502.42999267578</ele>
        <time>2024-09-27T12:01:24.000Z</time>
      </trkpt>
      <trkpt lat="40.24487" lon="20.44151">
        <ele>502.42999267578</ele>
        <time>2024-09-27T12:01:25.000Z</time>
      </trkpt>
      <trkpt lat="40.2448" lon="20.44159">
        <ele>503.39001464844</ele>
        <time>2024-09-27T12:01:26.000Z</time>
      </trkpt>
      <trkpt lat="40.24477" lon="20.44165">
        <ele>503.86999511719</ele>
        <time>2024-09-27T12:01:27.000Z</time>
      </trkpt>
      <trkpt lat="40.24475" lon="20.44171">
        <ele>504.82998657227</ele>
        <time>2024-09-27T12:01:28.000Z</time>
      </trkpt>
      <trkpt lat="40.24475" lon="20.44178">
        <ele>505.30999755859</ele>
        <time>2024-09-27T12:01:29.000Z</time>
      </trkpt>
      <trkpt lat="40.24477" lon="20.44183">
        <ele>506.26998901367</ele>
        <time>2024-09-27T12:01:30.000Z</time>
      </trkpt>
      <trkpt lat="40.24482" lon="20.44185">
        <ele>507.23001098633</ele>
        <time>2024-09-27T12:01:31.000Z</time>
      </trkpt>
      <trkpt lat="40.24485" lon="20.44184">
        <ele>507.70999145508</ele>
        <time>2024-09-27T12:01:32.000Z</time>
      </trkpt>
      <trkpt lat="40.2449" lon="20.4418">
        <ele>508.19000244141</ele>
        <time>2024-09-27T12:01:33.000Z</time>
      </trkpt>
      <trkpt lat="40.24495" lon="20.44172">
        <ele>508.67001342773</ele>
        <time>2024-09-27T12:01:34.000Z</time>
      </trkpt>
      <trkpt lat="40.24499" lon="20.44167">
        <ele>509.64001464844</ele>
        <time>2024-09-27T12:01:35.000Z</time>
      </trkpt>
      <trkpt lat="40.24505" lon="20.44162">
        <ele>510.11999511719</ele>
        <time>2024-09-27T12:01:36.000Z</time>
      </trkpt>
      <trkpt lat="40.24513" lon="20.44159">
        <ele>510.60000610352</ele>
        <time>2024-09-27T12:01:37.000Z</time>
      </trkpt>
      <trkpt lat="40.24519" lon="20.44156">
        <ele>511.07998657227</ele>
        <time>2024-09-27T12:01:38.000Z</time>
      </trkpt>
      <trkpt lat="40.24529" lon="20.44152">
        <ele>512.03997802734</ele>
        <time>2024-09-27T12:01:39.000Z</time>
      </trkpt>
      <trkpt lat="40.24534" lon="20.44148">
        <ele>512.52001953125</ele>
        <time>2024-09-27T12:01:40.000Z</time>
      </trkpt>
      <trkpt lat="40.24542" lon="20.44144">
        <ele>513.47998046875</ele>
        <time>2024-09-27T12:01:41.000Z</time>
      </trkpt>
      <trkpt lat="40.24549" lon="20.44142">
        <ele>513.96002197266</ele>
        <time>2024-09-27T12:01:42.000Z</time>
      </trkpt>
      <trkpt lat="40.24555" lon="20.44143">
        <ele>514.91998291016</ele>
        <time>2024-09-27T12:01:43.000Z</time>
      </trkpt>
      <trkpt lat="40.24561" lon="20.44146">
        <ele>515.40002441406</ele>
        <time>2024-09-27T12:01:44.000Z</time>
      </trkpt>
      <trkpt lat="40.24566" lon="20.44151">
        <ele>515.88000488281</ele>
        <time>2024-09-27T12:01:45.000Z</time>
      </trkpt>
      <trkpt lat="40.24574" lon="20.44157">
        <ele>516.36999511719</ele>
        <time>2024-09-27T12:01:46.000Z</time>
      </trkpt>
      <trkpt lat="40.24581" lon="20.44161">
        <ele>516.84997558594</ele>
        <time>2024-09-27T12:01:47.000Z</time>
      </trkpt>
      <trkpt lat="40.2459" lon="20.44164">
        <ele>517.33001708984</ele>
        <time>2024-09-27T12:01:48.000Z</time>
      </trkpt>
      <trkpt lat="40.24599" lon="20.44165">
        <ele>517.80999755859</ele>
        <time>2024-09-27T12:01:49.000Z</time>
      </trkpt>
      <trkpt lat="40.24607" lon="20.44165">
        <ele>517.80999755859</ele>
        <time>2024-09-27T12:01:50.000Z</time>
      </trkpt>
      <trkpt lat="40.24615" lon="20.44164">
        <ele>518.28997802734</ele>
        <time>2024-09-27T12:01:51.000Z</time>
      </trkpt>
      <trkpt lat="40.24626" lon="20.44164">
        <ele>519.25</ele>
        <time>2024-09-27T12:01:52.000Z</time>
      </trkpt>
      <trkpt lat="40.24633" lon="20.44165">
        <ele>519.72998046875</ele>
        <time>2024-09-27T12:01:53.000Z</time>
      </trkpt>
      <trkpt lat="40.24641" lon="20.44168">
        <ele>520.21002197266</ele>
        <time>2024-09-27T12:01:54.000Z</time>
      </trkpt>
      <trkpt lat="40.24649" lon="20.44174">
        <ele>520.69000244141</ele>
        <time>2024-09-27T12:01:55.000Z</time>
      </trkpt>
      <trkpt lat="40.24656" lon="20.4418">
        <ele>521.65002441406</ele>
        <time>2024-09-27T12:01:56.000Z</time>
      </trkpt>
      <trkpt lat="40.24661" lon="20.44187">
        <ele>522.13000488281</ele>
        <time>2024-09-27T12:01:57.000Z</time>
      </trkpt>
      <trkpt lat="40.24666" lon="20.44194">
        <ele>522.60998535156</ele>
        <time>2024-09-27T12:01:58.000Z</time>
      </trkpt>
      <trkpt lat="40.2467" lon="20.44201">
        <ele>522.60998535156</ele>
        <time>2024-09-27T12:01:59.000Z</time>
      </trkpt>
      <trkpt lat="40.24673" lon="20.44209">
        <ele>522.60998535156</ele>
        <time>2024-09-27T12:02:00.000Z</time>
      </trkpt>
      <trkpt lat="40.24677" lon="20.44216">
        <ele>522.60998535156</ele>
        <time>2024-09-27T12:02:01.000Z</time>
      </trkpt>
      <trkpt lat="40.24681" lon="20.44223">
        <ele>522.60998535156</ele>
        <time>2024-09-27T12:02:02.000Z</time>
      </trkpt>
      <trkpt lat="40.24685" lon="20.44231">
        <ele>523.09002685547</ele>
        <time>2024-09-27T12:02:03.000Z</time>
      </trkpt>
      <trkpt lat="40.24691" lon="20.44242">
        <ele>523.58001708984</ele>
        <time>2024-09-27T12:02:04.000Z</time>
      </trkpt>
      <trkpt lat="40.24694" lon="20.44247">
        <ele>523.58001708984</ele>
        <time>2024-09-27T12:02:05.000Z</time>
      </trkpt>
      <trkpt lat="40.24698" lon="20.44257">
        <ele>524.53997802734</ele>
        <time>2024-09-27T12:02:06.000Z</time>
      </trkpt>
      <trkpt lat="40.24701" lon="20.44266">
        <ele>525.02001953125</ele>
        <time>2024-09-27T12:02:07.000Z</time>
      </trkpt>
      <trkpt lat="40.24705" lon="20.44278">
        <ele>526.94000244141</ele>
        <time>2024-09-27T12:02:08.000Z</time>
      </trkpt>
      <trkpt lat="40.2471" lon="20.44295">
        <ele>528.85998535156</ele>
        <time>2024-09-27T12:02:10.000Z</time>
      </trkpt>
      <trkpt lat="40.24711" lon="20.44299">
        <ele>529.82000732422</ele>
        <time>2024-09-27T12:02:11.000Z</time>
      </trkpt>
      <trkpt lat="40.24711" lon="20.44306">
        <ele>530.29998779297</ele>
        <time>2024-09-27T12:02:12.000Z</time>
      </trkpt>
      <trkpt lat="40.2471" lon="20.44316">
        <ele>530.78997802734</ele>
        <time>2024-09-27T12:02:13.000Z</time>
      </trkpt>
      <trkpt lat="40.24707" lon="20.44327">
        <ele>531.27001953125</ele>
        <time>2024-09-27T12:02:14.000Z</time>
      </trkpt>
      <trkpt lat="40.24706" lon="20.44335">
        <ele>531.27001953125</ele>
        <time>2024-09-27T12:02:15.000Z</time>
      </trkpt>
      <trkpt lat="40.24704" lon="20.44342">
        <ele>531.27001953125</ele>
        <time>2024-09-27T12:02:16.000Z</time>
      </trkpt>
      <trkpt lat="40.247" lon="20.4435">
        <ele>531.27001953125</ele>
        <time>2024-09-27T12:02:17.000Z</time>
      </trkpt>
      <trkpt lat="40.24694" lon="20.4436">
        <ele>531.75</ele>
        <time>2024-09-27T12:02:18.000Z</time>
      </trkpt>
      <trkpt lat="40.24691" lon="20.44365">
        <ele>531.75</ele>
        <time>2024-09-27T12:02:19.000Z</time>
      </trkpt>
      <trkpt lat="40.24685" lon="20.44373">
        <ele>531.75</ele>
        <time>2024-09-27T12:02:20.000Z</time>
      </trkpt>
      <trkpt lat="40.2468" lon="20.4438">
        <ele>532.22998046875</ele>
        <time>2024-09-27T12:02:21.000Z</time>
      </trkpt>
      <trkpt lat="40.24677" lon="20.44387">
        <ele>532.22998046875</ele>
        <time>2024-09-27T12:02:22.000Z</time>
      </trkpt>
      <trkpt lat="40.24673" lon="20.44397">
        <ele>532.71002197266</ele>
        <time>2024-09-27T12:02:23.000Z</time>
      </trkpt>
      <trkpt lat="40.24668" lon="20.44407">
        <ele>533.19000244141</ele>
        <time>2024-09-27T12:02:24.000Z</time>
      </trkpt>
      <trkpt lat="40.24664" lon="20.44415">
        <ele>533.66998291016</ele>
        <time>2024-09-27T12:02:25.000Z</time>
      </trkpt>
      <trkpt lat="40.24659" lon="20.44425">
        <ele>534.63000488281</ele>
        <time>2024-09-27T12:02:26.000Z</time>
      </trkpt>
      <trkpt lat="40.24656" lon="20.44433">
        <ele>535.59002685547</ele>
        <time>2024-09-27T12:02:27.000Z</time>
      </trkpt>
      <trkpt lat="40.24652" lon="20.44442">
        <ele>536.07000732422</ele>
        <time>2024-09-27T12:02:28.000Z</time>
      </trkpt>
      <trkpt lat="40.24648" lon="20.4445">
        <ele>537.03002929688</ele>
        <time>2024-09-27T12:02:29.000Z</time>
      </trkpt>
      <trkpt lat="40.24644" lon="20.44456">
        <ele>537.51000976562</ele>
        <time>2024-09-27T12:02:30.000Z</time>
      </trkpt>
      <trkpt lat="40.24638" lon="20.44459">
        <ele>537.98999023438</ele>
        <time>2024-09-27T12:02:31.000Z</time>
      </trkpt>
      <trkpt lat="40.2463" lon="20.44463">
        <ele>538.47998046875</ele>
        <time>2024-09-27T12:02:32.000Z</time>
      </trkpt>
      <trkpt lat="40.24627" lon="20.44465">
        <ele>538.47998046875</ele>
        <time>2024-09-27T12:02:33.000Z</time>
      </trkpt>
      <trkpt lat="40.24621" lon="20.4447">
        <ele>538.96002197266</ele>
        <time>2024-09-27T12:02:34.000Z</time>
      </trkpt>
      <trkpt lat="40.24615" lon="20.44478">
        <ele>538.96002197266</ele>
        <time>2024-09-27T12:02:35.000Z</time>
      </trkpt>
      <trkpt lat="40.2461" lon="20.44486">
        <ele>539.91998291016</ele>
        <time>2024-09-27T12:02:36.000Z</time>
      </trkpt>
      <trkpt lat="40.24603" lon="20.44495">
        <ele>540.40002441406</ele>
        <time>2024-09-27T12:02:37.000Z</time>
      </trkpt>
      <trkpt lat="40.24598" lon="20.44502">
        <ele>540.88000488281</ele>
        <time>2024-09-27T12:02:38.000Z</time>
      </trkpt>
      <trkpt lat="40.24592" lon="20.44513">
        <ele>541.35998535156</ele>
        <time>2024-09-27T12:02:39.000Z</time>
      </trkpt>
      <trkpt lat="40.24588" lon="20.44521">
        <ele>541.84002685547</ele>
        <time>2024-09-27T12:02:40.000Z</time>
      </trkpt>
      <trkpt lat="40.24584" lon="20.44532">
        <ele>542.79998779297</ele>
        <time>2024-09-27T12:02:41.000Z</time>
      </trkpt>
      <trkpt lat="40.2458" lon="20.44539">
        <ele>543.76000976562</ele>
        <time>2024-09-27T12:02:42.000Z</time>
      </trkpt>
      <trkpt lat="40.24573" lon="20.44551">
        <ele>543.76000976562</ele>
        <time>2024-09-27T12:02:43.000Z</time>
      </trkpt>
      <trkpt lat="40.24569" lon="20.44556">
        <ele>544.23999023438</ele>
        <time>2024-09-27T12:02:44.000Z</time>
      </trkpt>
      <trkpt lat="40.24566" lon="20.44564">
        <ele>544.23999023438</ele>
        <time>2024-09-27T12:02:45.000Z</time>
      </trkpt>
      <trkpt lat="40.24564" lon="20.44576">
        <ele>544.71997070312</ele>
        <time>2024-09-27T12:02:46.000Z</time>
      </trkpt>
      <trkpt lat="40.24561" lon="20.44591">
        <ele>545.69000244141</ele>
        <time>2024-09-27T12:02:47.000Z</time>
      </trkpt>
      <trkpt lat="40.24561" lon="20.44595">
        <ele>545.69000244141</ele>
        <time>2024-09-27T12:02:48.000Z</time>
      </trkpt>
      <trkpt lat="40.24558" lon="20.44605">
        <ele>546.16998291016</ele>
        <time>2024-09-27T12:02:49.000Z</time>
      </trkpt>
      <trkpt lat="40.24555" lon="20.44612">
        <ele>546.16998291016</ele>
        <time>2024-09-27T12:02:50.000Z</time>
      </trkpt>
      <trkpt lat="40.24551" lon="20.44619">
        <ele>546.65002441406</ele>
        <time>2024-09-27T12:02:51.000Z</time>
      </trkpt>
      <trkpt lat="40.24548" lon="20.44628">
        <ele>546.16998291016</ele>
        <time>2024-09-27T12:02:52.000Z</time>
      </trkpt>
      <trkpt lat="40.24547" lon="20.44634">
        <ele>547.13000488281</ele>
        <time>2024-09-27T12:02:53.000Z</time>
      </trkpt>
      <trkpt lat="40.24548" lon="20.44642">
        <ele>547.60998535156</ele>
        <time>2024-09-27T12:02:54.000Z</time>
      </trkpt>
      <trkpt lat="40.24551" lon="20.44649">
        <ele>547.60998535156</ele>
        <time>2024-09-27T12:02:55.000Z</time>
      </trkpt>
      <trkpt lat="40.24555" lon="20.44657">
        <ele>548.09002685547</ele>
        <time>2024-09-27T12:02:56.000Z</time>
      </trkpt>
      <trkpt lat="40.2456" lon="20.44668">
        <ele>548.57000732422</ele>
        <time>2024-09-27T12:02:57.000Z</time>
      </trkpt>
      <trkpt lat="40.24562" lon="20.44673">
        <ele>548.57000732422</ele>
        <time>2024-09-27T12:02:58.000Z</time>
      </trkpt>
      <trkpt lat="40.24564" lon="20.44682">
        <ele>549.04998779297</ele>
        <time>2024-09-27T12:02:59.000Z</time>
      </trkpt>
      <trkpt lat="40.24565" lon="20.4469">
        <ele>549.53002929688</ele>
        <time>2024-09-27T12:03:00.000Z</time>
      </trkpt>
      <trkpt lat="40.24565" lon="20.44699">
        <ele>550.01000976562</ele>
        <time>2024-09-27T12:03:01.000Z</time>
      </trkpt>
      <trkpt lat="40.24564" lon="20.44706">
        <ele>550.48999023438</ele>
        <time>2024-09-27T12:03:02.000Z</time>
      </trkpt>
      <trkpt lat="40.24563" lon="20.44714">
        <ele>550.48999023438</ele>
        <time>2024-09-27T12:03:03.000Z</time>
      </trkpt>
      <trkpt lat="40.24562" lon="20.44721">
        <ele>550.48999023438</ele>
        <time>2024-09-27T12:03:04.000Z</time>
      </trkpt>
      <trkpt lat="40.24559" lon="20.4473">
        <ele>550.48999023438</ele>
        <time>2024-09-27T12:03:05.000Z</time>
      </trkpt>
      <trkpt lat="40.24555" lon="20.44737">
        <ele>550.48999023438</ele>
        <time>2024-09-27T12:03:06.000Z</time>
      </trkpt>
      <trkpt lat="40.2455" lon="20.44744">
        <ele>550.96997070312</ele>
        <time>2024-09-27T12:03:07.000Z</time>
      </trkpt>
      <trkpt lat="40.24544" lon="20.44751">
        <ele>551.45001220703</ele>
        <time>2024-09-27T12:03:08.000Z</time>
      </trkpt>
      <trkpt lat="40.24537" lon="20.44757">
        <ele>551.92999267578</ele>
        <time>2024-09-27T12:03:09.000Z</time>
      </trkpt>
      <trkpt lat="40.24529" lon="20.44763">
        <ele>552.40997314453</ele>
        <time>2024-09-27T12:03:10.000Z</time>
      </trkpt>
      <trkpt lat="40.24517" lon="20.4477">
        <ele>552.90002441406</ele>
        <time>2024-09-27T12:03:11.000Z</time>
      </trkpt>
      <trkpt lat="40.24514" lon="20.44772">
        <ele>553.38000488281</ele>
        <time>2024-09-27T12:03:12.000Z</time>
      </trkpt>
      <trkpt lat="40.24507" lon="20.44777">
        <ele>553.85998535156</ele>
        <time>2024-09-27T12:03:13.000Z</time>
      </trkpt>
      <trkpt lat="40.245" lon="20.44783">
        <ele>554.34002685547</ele>
        <time>2024-09-27T12:03:14.000Z</time>
      </trkpt>
      <trkpt lat="40.24495" lon="20.44787">
        <ele>554.34002685547</ele>
        <time>2024-09-27T12:03:15.000Z</time>
      </trkpt>
      <trkpt lat="40.24486" lon="20.44796">
        <ele>554.34002685547</ele>
        <time>2024-09-27T12:03:16.000Z</time>
      </trkpt>
      <trkpt lat="40.24484" lon="20.44798">
        <ele>554.34002685547</ele>
        <time>2024-09-27T12:03:17.000Z</time>
      </trkpt>
      <trkpt lat="40.24477" lon="20.44807">
        <ele>554.82000732422</ele>
        <time>2024-09-27T12:03:18.000Z</time>
      </trkpt>
      <trkpt lat="40.24468" lon="20.44815">
        <ele>554.82000732422</ele>
        <time>2024-09-27T12:03:20.000Z</time>
      </trkpt>
      <trkpt lat="40.24466" lon="20.44817">
        <ele>554.82000732422</ele>
        <time>2024-09-27T12:03:21.000Z</time>
      </trkpt>
      <trkpt lat="40.24462" lon="20.44822">
        <ele>554.82000732422</ele>
        <time>2024-09-27T12:03:22.000Z</time>
      </trkpt>
      <trkpt lat="40.24458" lon="20.44826">
        <ele>554.82000732422</ele>
        <time>2024-09-27T12:03:23.000Z</time>
      </trkpt>
      <trkpt lat="40.24454" lon="20.44831">
        <ele>554.82000732422</ele>
        <time>2024-09-27T12:03:24.000Z</time>
      </trkpt>
      <trkpt lat="40.24451" lon="20.44835">
        <ele>554.82000732422</ele>
        <time>2024-09-27T12:03:25.000Z</time>
      </trkpt>
      <trkpt lat="40.24447" lon="20.4484">
        <ele>554.82000732422</ele>
        <time>2024-09-27T12:03:26.000Z</time>
      </trkpt>
      <trkpt lat="40.24443" lon="20.44844">
        <ele>555.29998779297</ele>
        <time>2024-09-27T12:03:27.000Z</time>
      </trkpt>
      <trkpt lat="40.2444" lon="20.44848">
        <ele>555.29998779297</ele>
        <time>2024-09-27T12:03:28.000Z</time>
      </trkpt>
      <trkpt lat="40.24437" lon="20.44852">
        <ele>555.78002929688</ele>
        <time>2024-09-27T12:03:29.000Z</time>
      </trkpt>
      <trkpt lat="40.24434" lon="20.44856">
        <ele>556.26000976562</ele>
        <time>2024-09-27T12:03:30.000Z</time>
      </trkpt>
      <trkpt lat="40.24431" lon="20.44861">
        <ele>556.73999023438</ele>
        <time>2024-09-27T12:03:31.000Z</time>
      </trkpt>
      <trkpt lat="40.24426" lon="20.44864">
        <ele>557.21997070312</ele>
        <time>2024-09-27T12:03:32.000Z</time>
      </trkpt>
      <trkpt lat="40.24422" lon="20.44867">
        <ele>557.21997070312</ele>
        <time>2024-09-27T12:03:33.000Z</time>
      </trkpt>
      <trkpt lat="40.24419" lon="20.4487">
        <ele>557.70001220703</ele>
        <time>2024-09-27T12:03:34.000Z</time>
      </trkpt>
      <trkpt lat="40.24415" lon="20.44874">
        <ele>558.17999267578</ele>
        <time>2024-09-27T12:03:35.000Z</time>
      </trkpt>
      <trkpt lat="40.24411" lon="20.44882">
        <ele>558.17999267578</ele>
        <time>2024-09-27T12:03:36.000Z</time>
      </trkpt>
      <trkpt lat="40.24409" lon="20.44887">
        <ele>558.17999267578</ele>
        <time>2024-09-27T12:03:37.000Z</time>
      </trkpt>
      <trkpt lat="40.24408" lon="20.44892">
        <ele>558.17999267578</ele>
        <time>2024-09-27T12:03:38.000Z</time>
      </trkpt>
      <trkpt lat="40.24407" lon="20.44899">
        <ele>558.65997314453</ele>
        <time>2024-09-27T12:03:39.000Z</time>
      </trkpt>
      <trkpt lat="40.24407" lon="20.44909">
        <ele>559.14001464844</ele>
        <time>2024-09-27T12:03:40.000Z</time>
      </trkpt>
      <trkpt lat="40.24406" lon="20.44919">
        <ele>559.61999511719</ele>
        <time>2024-09-27T12:03:41.000Z</time>
      </trkpt>
      <trkpt lat="40.24406" lon="20.44921">
        <ele>559.14001464844</ele>
        <time>2024-09-27T12:03:42.000Z</time>
      </trkpt>
      <trkpt lat="40.24406" lon="20.44928">
        <ele>558.65997314453</ele>
        <time>2024-09-27T12:03:43.000Z</time>
      </trkpt>
      <trkpt lat="40.24404" lon="20.44935">
        <ele>558.17999267578</ele>
        <time>2024-09-27T12:03:44.000Z</time>
      </trkpt>
      <trkpt lat="40.24403" lon="20.44941">
        <ele>558.17999267578</ele>
        <time>2024-09-27T12:03:45.000Z</time>
      </trkpt>
      <trkpt lat="40.24402" lon="20.44947">
        <ele>558.17999267578</ele>
        <time>2024-09-27T12:03:46.000Z</time>
      </trkpt>
      <trkpt lat="40.24403" lon="20.44954">
        <ele>558.17999267578</ele>
        <time>2024-09-27T12:03:47.000Z</time>
      </trkpt>
      <trkpt lat="40.24406" lon="20.44958">
        <ele>558.17999267578</ele>
        <time>2024-09-27T12:03:48.000Z</time>
      </trkpt>
      <trkpt lat="40.24411" lon="20.44959">
        <ele>558.17999267578</ele>
        <time>2024-09-27T12:03:49.000Z</time>
      </trkpt>
      <trkpt lat="40.24416" lon="20.44958">
        <ele>558.65997314453</ele>
        <time>2024-09-27T12:03:50.000Z</time>
      </trkpt>
      <trkpt lat="40.24422" lon="20.44955">
        <ele>559.14001464844</ele>
        <time>2024-09-27T12:03:51.000Z</time>
      </trkpt>
      <trkpt lat="40.24429" lon="20.44953">
        <ele>560.10998535156</ele>
        <time>2024-09-27T12:03:52.000Z</time>
      </trkpt>
      <trkpt lat="40.24434" lon="20.44951">
        <ele>560.59002685547</ele>
        <time>2024-09-27T12:03:53.000Z</time>
      </trkpt>
      <trkpt lat="40.24444" lon="20.44951">
        <ele>561.54998779297</ele>
        <time>2024-09-27T12:03:54.000Z</time>
      </trkpt>
      <trkpt lat="40.2445" lon="20.4495">
        <ele>562.03002929688</ele>
        <time>2024-09-27T12:03:55.000Z</time>
      </trkpt>
      <trkpt lat="40.24455" lon="20.44949">
        <ele>562.51000976562</ele>
        <time>2024-09-27T12:03:56.000Z</time>
      </trkpt>
      <trkpt lat="40.24457" lon="20.44949">
        <ele>562.51000976562</ele>
        <time>2024-09-27T12:03:57.000Z</time>
      </trkpt>
      <trkpt lat="40.24463" lon="20.44948">
        <ele>562.51000976562</ele>
        <time>2024-09-27T12:03:58.000Z</time>
      </trkpt>
      <trkpt lat="40.24477" lon="20.44946">
        <ele>562.03002929688</ele>
        <time>2024-09-27T12:04:00.000Z</time>
      </trkpt>
      <trkpt lat="40.24482" lon="20.44945">
        <ele>562.03002929688</ele>
        <time>2024-09-27T12:04:01.000Z</time>
      </trkpt>
      <trkpt lat="40.24487" lon="20.44944">
        <ele>562.51000976562</ele>
        <time>2024-09-27T12:04:02.000Z</time>
      </trkpt>
      <trkpt lat="40.24494" lon="20.44942">
        <ele>562.51000976562</ele>
        <time>2024-09-27T12:04:03.000Z</time>
      </trkpt>
      <trkpt lat="40.24499" lon="20.44941">
        <ele>562.51000976562</ele>
        <time>2024-09-27T12:04:04.000Z</time>
      </trkpt>
      <trkpt lat="40.24529" lon="20.44933">
        <ele>563.46997070312</ele>
        <time>2024-09-27T12:04:08.000Z</time>
      </trkpt>
      <trkpt lat="40.24536" lon="20.4493">
        <ele>563.46997070312</ele>
        <time>2024-09-27T12:04:09.000Z</time>
      </trkpt>
      <trkpt lat="40.24543" lon="20.44925">
        <ele>564.42999267578</ele>
        <time>2024-09-27T12:04:10.000Z</time>
      </trkpt>
      <trkpt lat="40.24551" lon="20.44917">
        <ele>565.86999511719</ele>
        <time>2024-09-27T12:04:11.000Z</time>
      </trkpt>
      <trkpt lat="40.24555" lon="20.44913">
        <ele>566.83001708984</ele>
        <time>2024-09-27T12:04:12.000Z</time>
      </trkpt>
      <trkpt lat="40.24561" lon="20.44911">
        <ele>567.79998779297</ele>
        <time>2024-09-27T12:04:13.000Z</time>
      </trkpt>
      <trkpt lat="40.24566" lon="20.44912">
        <ele>568.28002929688</ele>
        <time>2024-09-27T12:04:14.000Z</time>
      </trkpt>
      <trkpt lat="40.24573" lon="20.44917">
        <ele>569.23999023438</ele>
        <time>2024-09-27T12:04:15.000Z</time>
      </trkpt>
      <trkpt lat="40.2458" lon="20.44921">
        <ele>569.71997070312</ele>
        <time>2024-09-27T12:04:16.000Z</time>
      </trkpt>
      <trkpt lat="40.24584" lon="20.44923">
        <ele>570.20001220703</ele>
        <time>2024-09-27T12:04:17.000Z</time>
      </trkpt>
      <trkpt lat="40.2459" lon="20.44925">
        <ele>570.20001220703</ele>
        <time>2024-09-27T12:04:18.000Z</time>
      </trkpt>
      <trkpt lat="40.24601" lon="20.44921">
        <ele>569.71997070312</ele>
        <time>2024-09-27T12:04:19.000Z</time>
      </trkpt>
      <trkpt lat="40.24603" lon="20.44921">
        <ele>569.71997070312</ele>
        <time>2024-09-27T12:04:20.000Z</time>
      </trkpt>
      <trkpt lat="40.24609" lon="20.44918">
        <ele>569.71997070312</ele>
        <time>2024-09-27T12:04:21.000Z</time>
      </trkpt>
      <trkpt lat="40.24617" lon="20.44913">
        <ele>569.71997070312</ele>
        <time>2024-09-27T12:04:22.000Z</time>
      </trkpt>
      <trkpt lat="40.24625" lon="20.44909">
        <ele>570.20001220703</ele>
        <time>2024-09-27T12:04:23.000Z</time>
      </trkpt>
      <trkpt lat="40.24632" lon="20.44907">
        <ele>570.20001220703</ele>
        <time>2024-09-27T12:04:24.000Z</time>
      </trkpt>
      <trkpt lat="40.2464" lon="20.44907">
        <ele>570.20001220703</ele>
        <time>2024-09-27T12:04:25.000Z</time>
      </trkpt>
      <trkpt lat="40.24649" lon="20.44907">
        <ele>570.20001220703</ele>
        <time>2024-09-27T12:04:26.000Z</time>
      </trkpt>
      <trkpt lat="40.24668" lon="20.44912">
        <ele>569.23999023438</ele>
        <time>2024-09-27T12:04:28.000Z</time>
      </trkpt>
      <trkpt lat="40.24679" lon="20.44914">
        <ele>569.23999023438</ele>
        <time>2024-09-27T12:04:29.000Z</time>
      </trkpt>
      <trkpt lat="40.24682" lon="20.44915">
        <ele>569.23999023438</ele>
        <time>2024-09-27T12:04:30.000Z</time>
      </trkpt>
      <trkpt lat="40.24694" lon="20.44916">
        <ele>569.71997070312</ele>
        <time>2024-09-27T12:04:31.000Z</time>
      </trkpt>
      <trkpt lat="40.24699" lon="20.44916">
        <ele>569.71997070312</ele>
        <time>2024-09-27T12:04:32.000Z</time>
      </trkpt>
      <trkpt lat="40.24713" lon="20.44917">
        <ele>569.71997070312</ele>
        <time>2024-09-27T12:04:33.000Z</time>
      </trkpt>
      <trkpt lat="40.24717" lon="20.44917">
        <ele>569.71997070312</ele>
        <time>2024-09-27T12:04:34.000Z</time>
      </trkpt>
      <trkpt lat="40.24725" lon="20.4492">
        <ele>569.71997070312</ele>
        <time>2024-09-27T12:04:35.000Z</time>
      </trkpt>
      <trkpt lat="40.24736" lon="20.44922">
        <ele>570.20001220703</ele>
        <time>2024-09-27T12:04:36.000Z</time>
      </trkpt>
      <trkpt lat="40.24745" lon="20.44925">
        <ele>570.20001220703</ele>
        <time>2024-09-27T12:04:37.000Z</time>
      </trkpt>
      <trkpt lat="40.2475" lon="20.44927">
        <ele>570.20001220703</ele>
        <time>2024-09-27T12:04:38.000Z</time>
      </trkpt>
      <trkpt lat="40.24756" lon="20.44931">
        <ele>570.20001220703</ele>
        <time>2024-09-27T12:04:39.000Z</time>
      </trkpt>
      <trkpt lat="40.24761" lon="20.44937">
        <ele>570.67999267578</ele>
        <time>2024-09-27T12:04:40.000Z</time>
      </trkpt>
      <trkpt lat="40.24763" lon="20.44944">
        <ele>571.15997314453</ele>
        <time>2024-09-27T12:04:41.000Z</time>
      </trkpt>
      <trkpt lat="40.24764" lon="20.44952">
        <ele>571.64001464844</ele>
        <time>2024-09-27T12:04:42.000Z</time>
      </trkpt>
      <trkpt lat="40.24762" lon="20.4496">
        <ele>571.64001464844</ele>
        <time>2024-09-27T12:04:43.000Z</time>
      </trkpt>
      <trkpt lat="40.24758" lon="20.44968">
        <ele>572.11999511719</ele>
        <time>2024-09-27T12:04:44.000Z</time>
      </trkpt>
      <trkpt lat="40.24751" lon="20.44978">
        <ele>572.59997558594</ele>
        <time>2024-09-27T12:04:45.000Z</time>
      </trkpt>
      <trkpt lat="40.24737" lon="20.44999">
        <ele>573.55999755859</ele>
        <time>2024-09-27T12:04:47.000Z</time>
      </trkpt>
      <trkpt lat="40.24732" lon="20.45006">
        <ele>574.03997802734</ele>
        <time>2024-09-27T12:04:48.000Z</time>
      </trkpt>
      <trkpt lat="40.24728" lon="20.45013">
        <ele>574.53002929688</ele>
        <time>2024-09-27T12:04:49.000Z</time>
      </trkpt>
      <trkpt lat="40.24723" lon="20.45023">
        <ele>573.55999755859</ele>
        <time>2024-09-27T12:04:50.000Z</time>
      </trkpt>
      <trkpt lat="40.24721" lon="20.45031">
        <ele>573.08001708984</ele>
        <time>2024-09-27T12:04:51.000Z</time>
      </trkpt>
      <trkpt lat="40.24719" lon="20.45041">
        <ele>573.08001708984</ele>
        <time>2024-09-27T12:04:52.000Z</time>
      </trkpt>
      <trkpt lat="40.24717" lon="20.45066">
        <ele>573.08001708984</ele>
        <time>2024-09-27T12:04:54.000Z</time>
      </trkpt>
      <trkpt lat="40.24717" lon="20.45073">
        <ele>573.08001708984</ele>
        <time>2024-09-27T12:04:55.000Z</time>
      </trkpt>
      <trkpt lat="40.24714" lon="20.45098">
        <ele>573.08001708984</ele>
        <time>2024-09-27T12:04:57.000Z</time>
      </trkpt>
      <trkpt lat="40.24714" lon="20.45101">
        <ele>573.08001708984</ele>
        <time>2024-09-27T12:04:58.000Z</time>
      </trkpt>
      <trkpt lat="40.24715" lon="20.45108">
        <ele>573.08001708984</ele>
        <time>2024-09-27T12:04:59.000Z</time>
      </trkpt>
      <trkpt lat="40.24718" lon="20.45113">
        <ele>573.08001708984</ele>
        <time>2024-09-27T12:05:00.000Z</time>
      </trkpt>
      <trkpt lat="40.24723" lon="20.45116">
        <ele>573.55999755859</ele>
        <time>2024-09-27T12:05:01.000Z</time>
      </trkpt>
      <trkpt lat="40.24728" lon="20.45118">
        <ele>573.55999755859</ele>
        <time>2024-09-27T12:05:02.000Z</time>
      </trkpt>
      <trkpt lat="40.24735" lon="20.45121">
        <ele>574.03997802734</ele>
        <time>2024-09-27T12:05:03.000Z</time>
      </trkpt>
      <trkpt lat="40.24744" lon="20.45125">
        <ele>574.03997802734</ele>
        <time>2024-09-27T12:05:04.000Z</time>
      </trkpt>
      <trkpt lat="40.2475" lon="20.45128">
        <ele>574.03997802734</ele>
        <time>2024-09-27T12:05:05.000Z</time>
      </trkpt>
      <trkpt lat="40.24757" lon="20.45131">
        <ele>574.53002929688</ele>
        <time>2024-09-27T12:05:06.000Z</time>
      </trkpt>
      <trkpt lat="40.24766" lon="20.45132">
        <ele>575.01000976562</ele>
        <time>2024-09-27T12:05:07.000Z</time>
      </trkpt>
      <trkpt lat="40.24778" lon="20.45131">
        <ele>575.48999023438</ele>
        <time>2024-09-27T12:05:08.000Z</time>
      </trkpt>
      <trkpt lat="40.24786" lon="20.4513">
        <ele>575.96997070312</ele>
        <time>2024-09-27T12:05:09.000Z</time>
      </trkpt>
      <trkpt lat="40.24791" lon="20.4513">
        <ele>575.96997070312</ele>
        <time>2024-09-27T12:05:10.000Z</time>
      </trkpt>
      <trkpt lat="40.248" lon="20.45131">
        <ele>576.45001220703</ele>
        <time>2024-09-27T12:05:11.000Z</time>
      </trkpt>
      <trkpt lat="40.24809" lon="20.45134">
        <ele>576.92999267578</ele>
        <time>2024-09-27T12:05:12.000Z</time>
      </trkpt>
      <trkpt lat="40.24816" lon="20.45137">
        <ele>577.40997314453</ele>
        <time>2024-09-27T12:05:13.000Z</time>
      </trkpt>
      <trkpt lat="40.24822" lon="20.45142">
        <ele>577.89001464844</ele>
        <time>2024-09-27T12:05:14.000Z</time>
      </trkpt>
      <trkpt lat="40.2483" lon="20.45149">
        <ele>577.40997314453</ele>
        <time>2024-09-27T12:05:15.000Z</time>
      </trkpt>
      <trkpt lat="40.24838" lon="20.4516">
        <ele>577.40997314453</ele>
        <time>2024-09-27T12:05:16.000Z</time>
      </trkpt>
      <trkpt lat="40.24846" lon="20.4517">
        <ele>576.92999267578</ele>
        <time>2024-09-27T12:05:17.000Z</time>
      </trkpt>
      <trkpt lat="40.24847" lon="20.45171">
        <ele>576.92999267578</ele>
        <time>2024-09-27T12:05:18.000Z</time>
      </trkpt>
      <trkpt lat="40.24851" lon="20.45179">
        <ele>577.40997314453</ele>
        <time>2024-09-27T12:05:19.000Z</time>
      </trkpt>
      <trkpt lat="40.24853" lon="20.45189">
        <ele>577.89001464844</ele>
        <time>2024-09-27T12:05:20.000Z</time>
      </trkpt>
      <trkpt lat="40.24854" lon="20.4521">
        <ele>578.36999511719</ele>
        <time>2024-09-27T12:05:22.000Z</time>
      </trkpt>
      <trkpt lat="40.24855" lon="20.45219">
        <ele>578.36999511719</ele>
        <time>2024-09-27T12:05:23.000Z</time>
      </trkpt>
      <trkpt lat="40.24856" lon="20.45233">
        <ele>577.89001464844</ele>
        <time>2024-09-27T12:05:24.000Z</time>
      </trkpt>
      <trkpt lat="40.24858" lon="20.45242">
        <ele>577.40997314453</ele>
        <time>2024-09-27T12:05:25.000Z</time>
      </trkpt>
      <trkpt lat="40.24861" lon="20.45257">
        <ele>576.45001220703</ele>
        <time>2024-09-27T12:05:26.000Z</time>
      </trkpt>
      <trkpt lat="40.24865" lon="20.4527">
        <ele>575.48999023438</ele>
        <time>2024-09-27T12:05:27.000Z</time>
      </trkpt>
      <trkpt lat="40.24868" lon="20.45279">
        <ele>575.48999023438</ele>
        <time>2024-09-27T12:05:28.000Z</time>
      </trkpt>
      <trkpt lat="40.24872" lon="20.4529">
        <ele>575.01000976562</ele>
        <time>2024-09-27T12:05:29.000Z</time>
      </trkpt>
      <trkpt lat="40.24877" lon="20.45301">
        <ele>575.01000976562</ele>
        <time>2024-09-27T12:05:30.000Z</time>
      </trkpt>
      <trkpt lat="40.2488" lon="20.45307">
        <ele>575.01000976562</ele>
        <time>2024-09-27T12:05:31.000Z</time>
      </trkpt>
      <trkpt lat="40.24889" lon="20.45324">
        <ele>574.53002929688</ele>
        <time>2024-09-27T12:05:32.000Z</time>
      </trkpt>
      <trkpt lat="40.24893" lon="20.4533">
        <ele>574.03997802734</ele>
        <time>2024-09-27T12:05:33.000Z</time>
      </trkpt>
      <trkpt lat="40.24895" lon="20.45336">
        <ele>573.55999755859</ele>
        <time>2024-09-27T12:05:34.000Z</time>
      </trkpt>
      <trkpt lat="40.24897" lon="20.45344">
        <ele>573.55999755859</ele>
        <time>2024-09-27T12:05:35.000Z</time>
      </trkpt>
      <trkpt lat="40.24897" lon="20.4535">
        <ele>573.55999755859</ele>
        <time>2024-09-27T12:05:36.000Z</time>
      </trkpt>
      <trkpt lat="40.24895" lon="20.45355">
        <ele>573.08001708984</ele>
        <time>2024-09-27T12:05:37.000Z</time>
      </trkpt>
      <trkpt lat="40.2489" lon="20.4536">
        <ele>572.59997558594</ele>
        <time>2024-09-27T12:05:38.000Z</time>
      </trkpt>
      <trkpt lat="40.24884" lon="20.45363">
        <ele>571.64001464844</ele>
        <time>2024-09-27T12:05:39.000Z</time>
      </trkpt>
      <trkpt lat="40.24878" lon="20.45364">
        <ele>571.15997314453</ele>
        <time>2024-09-27T12:05:40.000Z</time>
      </trkpt>
      <trkpt lat="40.2487" lon="20.45365">
        <ele>571.15997314453</ele>
        <time>2024-09-27T12:05:41.000Z</time>
      </trkpt>
      <trkpt lat="40.24863" lon="20.45368">
        <ele>571.15997314453</ele>
        <time>2024-09-27T12:05:42.000Z</time>
      </trkpt>
      <trkpt lat="40.24853" lon="20.45371">
        <ele>571.15997314453</ele>
        <time>2024-09-27T12:05:43.000Z</time>
      </trkpt>
      <trkpt lat="40.24847" lon="20.45373">
        <ele>571.64001464844</ele>
        <time>2024-09-27T12:05:44.000Z</time>
      </trkpt>
      <trkpt lat="40.24841" lon="20.45374">
        <ele>572.11999511719</ele>
        <time>2024-09-27T12:05:45.000Z</time>
      </trkpt>
      <trkpt lat="40.24832" lon="20.45375">
        <ele>572.11999511719</ele>
        <time>2024-09-27T12:05:46.000Z</time>
      </trkpt>
      <trkpt lat="40.2482" lon="20.45375">
        <ele>572.59997558594</ele>
        <time>2024-09-27T12:05:47.000Z</time>
      </trkpt>
      <trkpt lat="40.24811" lon="20.45375">
        <ele>572.59997558594</ele>
        <time>2024-09-27T12:05:48.000Z</time>
      </trkpt>
      <trkpt lat="40.24794" lon="20.45376">
        <ele>573.08001708984</ele>
        <time>2024-09-27T12:05:50.000Z</time>
      </trkpt>
      <trkpt lat="40.24786" lon="20.45377">
        <ele>573.55999755859</ele>
        <time>2024-09-27T12:05:51.000Z</time>
      </trkpt>
      <trkpt lat="40.24781" lon="20.45377">
        <ele>573.55999755859</ele>
        <time>2024-09-27T12:05:52.000Z</time>
      </trkpt>
      <trkpt lat="40.24772" lon="20.4538">
        <ele>574.03997802734</ele>
        <time>2024-09-27T12:05:53.000Z</time>
      </trkpt>
      <trkpt lat="40.24766" lon="20.45382">
        <ele>574.03997802734</ele>
        <time>2024-09-27T12:05:54.000Z</time>
      </trkpt>
      <trkpt lat="40.2476" lon="20.45387">
        <ele>574.53002929688</ele>
        <time>2024-09-27T12:05:55.000Z</time>
      </trkpt>
      <trkpt lat="40.24753" lon="20.45393">
        <ele>575.48999023438</ele>
        <time>2024-09-27T12:05:56.000Z</time>
      </trkpt>
      <trkpt lat="40.24747" lon="20.45401">
        <ele>575.96997070312</ele>
        <time>2024-09-27T12:05:57.000Z</time>
      </trkpt>
      <trkpt lat="40.24743" lon="20.45406">
        <ele>576.45001220703</ele>
        <time>2024-09-27T12:05:58.000Z</time>
      </trkpt>
      <trkpt lat="40.24737" lon="20.4541">
        <ele>576.45001220703</ele>
        <time>2024-09-27T12:05:59.000Z</time>
      </trkpt>
      <trkpt lat="40.24731" lon="20.45411">
        <ele>576.45001220703</ele>
        <time>2024-09-27T12:06:00.000Z</time>
      </trkpt>
      <trkpt lat="40.24726" lon="20.4541">
        <ele>576.45001220703</ele>
        <time>2024-09-27T12:06:01.000Z</time>
      </trkpt>
      <trkpt lat="40.24722" lon="20.45405">
        <ele>576.45001220703</ele>
        <time>2024-09-27T12:06:02.000Z</time>
      </trkpt>
      <trkpt lat="40.24718" lon="20.454">
        <ele>575.96997070312</ele>
        <time>2024-09-27T12:06:03.000Z</time>
      </trkpt>
      <trkpt lat="40.24713" lon="20.45394">
        <ele>576.45001220703</ele>
        <time>2024-09-27T12:06:04.000Z</time>
      </trkpt>
      <trkpt lat="40.24708" lon="20.4539">
        <ele>576.45001220703</ele>
        <time>2024-09-27T12:06:05.000Z</time>
      </trkpt>
      <trkpt lat="40.24702" lon="20.45385">
        <ele>576.45001220703</ele>
        <time>2024-09-27T12:06:06.000Z</time>
      </trkpt>
      <trkpt lat="40.24692" lon="20.4538">
        <ele>576.45001220703</ele>
        <time>2024-09-27T12:06:07.000Z</time>
      </trkpt>
      <trkpt lat="40.24685" lon="20.45376">
        <ele>576.45001220703</ele>
        <time>2024-09-27T12:06:08.000Z</time>
      </trkpt>
      <trkpt lat="40.24679" lon="20.45374">
        <ele>576.45001220703</ele>
        <time>2024-09-27T12:06:09.000Z</time>
      </trkpt>
      <trkpt lat="40.2467" lon="20.45372">
        <ele>575.96997070312</ele>
        <time>2024-09-27T12:06:10.000Z</time>
      </trkpt>
      <trkpt lat="40.24663" lon="20.45373">
        <ele>575.96997070312</ele>
        <time>2024-09-27T12:06:11.000Z</time>
      </trkpt>
      <trkpt lat="40.24656" lon="20.45376">
        <ele>575.96997070312</ele>
        <time>2024-09-27T12:06:12.000Z</time>
      </trkpt>
      <trkpt lat="40.24649" lon="20.45381">
        <ele>575.96997070312</ele>
        <time>2024-09-27T12:06:13.000Z</time>
      </trkpt>
      <trkpt lat="40.24641" lon="20.45388">
        <ele>575.01000976562</ele>
        <time>2024-09-27T12:06:14.000Z</time>
      </trkpt>
      <trkpt lat="40.24637" lon="20.45394">
        <ele>575.01000976562</ele>
        <time>2024-09-27T12:06:15.000Z</time>
      </trkpt>
      <trkpt lat="40.24629" lon="20.45404">
        <ele>575.48999023438</ele>
        <time>2024-09-27T12:06:16.000Z</time>
      </trkpt>
      <trkpt lat="40.24626" lon="20.45409">
        <ele>575.48999023438</ele>
        <time>2024-09-27T12:06:17.000Z</time>
      </trkpt>
      <trkpt lat="40.2462" lon="20.45414">
        <ele>575.01000976562</ele>
        <time>2024-09-27T12:06:18.000Z</time>
      </trkpt>
      <trkpt lat="40.24613" lon="20.45416">
        <ele>574.53002929688</ele>
        <time>2024-09-27T12:06:19.000Z</time>
      </trkpt>
      <trkpt lat="40.24606" lon="20.45417">
        <ele>574.03997802734</ele>
        <time>2024-09-27T12:06:20.000Z</time>
      </trkpt>
      <trkpt lat="40.24599" lon="20.4542">
        <ele>574.03997802734</ele>
        <time>2024-09-27T12:06:21.000Z</time>
      </trkpt>
      <trkpt lat="40.24592" lon="20.45424">
        <ele>573.55999755859</ele>
        <time>2024-09-27T12:06:22.000Z</time>
      </trkpt>
      <trkpt lat="40.24587" lon="20.45431">
        <ele>573.55999755859</ele>
        <time>2024-09-27T12:06:23.000Z</time>
      </trkpt>
      <trkpt lat="40.24583" lon="20.4544">
        <ele>573.55999755859</ele>
        <time>2024-09-27T12:06:24.000Z</time>
      </trkpt>
      <trkpt lat="40.24579" lon="20.45449">
        <ele>573.55999755859</ele>
        <time>2024-09-27T12:06:25.000Z</time>
      </trkpt>
      <trkpt lat="40.24574" lon="20.45456">
        <ele>573.55999755859</ele>
        <time>2024-09-27T12:06:26.000Z</time>
      </trkpt>
      <trkpt lat="40.24569" lon="20.4546">
        <ele>573.55999755859</ele>
        <time>2024-09-27T12:06:27.000Z</time>
      </trkpt>
      <trkpt lat="40.24564" lon="20.4546">
        <ele>573.08001708984</ele>
        <time>2024-09-27T12:06:28.000Z</time>
      </trkpt>
      <trkpt lat="40.24559" lon="20.45458">
        <ele>573.08001708984</ele>
        <time>2024-09-27T12:06:29.000Z</time>
      </trkpt>
      <trkpt lat="40.2455" lon="20.45449">
        <ele>572.59997558594</ele>
        <time>2024-09-27T12:06:30.000Z</time>
      </trkpt>
      <trkpt lat="40.24548" lon="20.45447">
        <ele>572.59997558594</ele>
        <time>2024-09-27T12:06:31.000Z</time>
      </trkpt>
      <trkpt lat="40.24542" lon="20.45442">
        <ele>572.59997558594</ele>
        <time>2024-09-27T12:06:32.000Z</time>
      </trkpt>
      <trkpt lat="40.24535" lon="20.45439">
        <ele>572.59997558594</ele>
        <time>2024-09-27T12:06:33.000Z</time>
      </trkpt>
      <trkpt lat="40.24528" lon="20.45437">
        <ele>572.59997558594</ele>
        <time>2024-09-27T12:06:34.000Z</time>
      </trkpt>
      <trkpt lat="40.24521" lon="20.45438">
        <ele>572.59997558594</ele>
        <time>2024-09-27T12:06:35.000Z</time>
      </trkpt>
      <trkpt lat="40.24514" lon="20.45441">
        <ele>572.59997558594</ele>
        <time>2024-09-27T12:06:36.000Z</time>
      </trkpt>
      <trkpt lat="40.24507" lon="20.45447">
        <ele>572.59997558594</ele>
        <time>2024-09-27T12:06:37.000Z</time>
      </trkpt>
      <trkpt lat="40.24499" lon="20.45456">
        <ele>573.08001708984</ele>
        <time>2024-09-27T12:06:38.000Z</time>
      </trkpt>
      <trkpt lat="40.24488" lon="20.45466">
        <ele>573.08001708984</ele>
        <time>2024-09-27T12:06:39.000Z</time>
      </trkpt>
      <trkpt lat="40.24486" lon="20.45468">
        <ele>573.08001708984</ele>
        <time>2024-09-27T12:06:40.000Z</time>
      </trkpt>
      <trkpt lat="40.24479" lon="20.45476">
        <ele>573.08001708984</ele>
        <time>2024-09-27T12:06:41.000Z</time>
      </trkpt>
      <trkpt lat="40.24468" lon="20.45494">
        <ele>573.55999755859</ele>
        <time>2024-09-27T12:06:42.000Z</time>
      </trkpt>
      <trkpt lat="40.24467" lon="20.45495">
        <ele>573.08001708984</ele>
        <time>2024-09-27T12:06:43.000Z</time>
      </trkpt>
      <trkpt lat="40.24463" lon="20.45504">
        <ele>573.55999755859</ele>
        <time>2024-09-27T12:06:44.000Z</time>
      </trkpt>
      <trkpt lat="40.24459" lon="20.45513">
        <ele>573.08001708984</ele>
        <time>2024-09-27T12:06:45.000Z</time>
      </trkpt>
      <trkpt lat="40.24458" lon="20.45523">
        <ele>573.55999755859</ele>
        <time>2024-09-27T12:06:46.000Z</time>
      </trkpt>
      <trkpt lat="40.24457" lon="20.45538">
        <ele>574.03997802734</ele>
        <time>2024-09-27T12:06:47.000Z</time>
      </trkpt>
      <trkpt lat="40.24456" lon="20.45544">
        <ele>574.03997802734</ele>
        <time>2024-09-27T12:06:48.000Z</time>
      </trkpt>
      <trkpt lat="40.24453" lon="20.45554">
        <ele>574.03997802734</ele>
        <time>2024-09-27T12:06:49.000Z</time>
      </trkpt>
      <trkpt lat="40.24449" lon="20.45561">
        <ele>574.03997802734</ele>
        <time>2024-09-27T12:06:50.000Z</time>
      </trkpt>
      <trkpt lat="40.24443" lon="20.45565">
        <ele>573.55999755859</ele>
        <time>2024-09-27T12:06:51.000Z</time>
      </trkpt>
      <trkpt lat="40.24437" lon="20.45566">
        <ele>573.55999755859</ele>
        <time>2024-09-27T12:06:52.000Z</time>
      </trkpt>
      <trkpt lat="40.2443" lon="20.45566">
        <ele>573.55999755859</ele>
        <time>2024-09-27T12:06:53.000Z</time>
      </trkpt>
      <trkpt lat="40.24423" lon="20.45567">
        <ele>573.08001708984</ele>
        <time>2024-09-27T12:06:54.000Z</time>
      </trkpt>
      <trkpt lat="40.24416" lon="20.45571">
        <ele>573.08001708984</ele>
        <time>2024-09-27T12:06:55.000Z</time>
      </trkpt>
      <trkpt lat="40.24409" lon="20.45577">
        <ele>572.59997558594</ele>
        <time>2024-09-27T12:06:56.000Z</time>
      </trkpt>
      <trkpt lat="40.24404" lon="20.45584">
        <ele>572.59997558594</ele>
        <time>2024-09-27T12:06:57.000Z</time>
      </trkpt>
      <trkpt lat="40.244" lon="20.45592">
        <ele>572.59997558594</ele>
        <time>2024-09-27T12:06:58.000Z</time>
      </trkpt>
      <trkpt lat="40.24397" lon="20.45601">
        <ele>573.08001708984</ele>
        <time>2024-09-27T12:06:59.000Z</time>
      </trkpt>
      <trkpt lat="40.24396" lon="20.45611">
        <ele>573.08001708984</ele>
        <time>2024-09-27T12:07:00.000Z</time>
      </trkpt>
      <trkpt lat="40.24395" lon="20.45618">
        <ele>573.08001708984</ele>
        <time>2024-09-27T12:07:01.000Z</time>
      </trkpt>
      <trkpt lat="40.24391" lon="20.45623">
        <ele>572.59997558594</ele>
        <time>2024-09-27T12:07:02.000Z</time>
      </trkpt>
      <trkpt lat="40.24387" lon="20.45625">
        <ele>572.11999511719</ele>
        <time>2024-09-27T12:07:03.000Z</time>
      </trkpt>
      <trkpt lat="40.2438" lon="20.45625">
        <ele>571.64001464844</ele>
        <time>2024-09-27T12:07:04.000Z</time>
      </trkpt>
      <trkpt lat="40.24373" lon="20.45625">
        <ele>571.64001464844</ele>
        <time>2024-09-27T12:07:05.000Z</time>
      </trkpt>
      <trkpt lat="40.24366" lon="20.45626">
        <ele>571.64001464844</ele>
        <time>2024-09-27T12:07:06.000Z</time>
      </trkpt>
      <trkpt lat="40.24359" lon="20.45627">
        <ele>571.64001464844</ele>
        <time>2024-09-27T12:07:07.000Z</time>
      </trkpt>
      <trkpt lat="40.2435" lon="20.45631">
        <ele>571.15997314453</ele>
        <time>2024-09-27T12:07:08.000Z</time>
      </trkpt>
      <trkpt lat="40.24344" lon="20.45635">
        <ele>571.15997314453</ele>
        <time>2024-09-27T12:07:09.000Z</time>
      </trkpt>
      <trkpt lat="40.24339" lon="20.45641">
        <ele>570.67999267578</ele>
        <time>2024-09-27T12:07:10.000Z</time>
      </trkpt>
      <trkpt lat="40.24335" lon="20.4565">
        <ele>570.67999267578</ele>
        <time>2024-09-27T12:07:11.000Z</time>
      </trkpt>
      <trkpt lat="40.24333" lon="20.4566">
        <ele>571.15997314453</ele>
        <time>2024-09-27T12:07:12.000Z</time>
      </trkpt>
      <trkpt lat="40.24331" lon="20.4567">
        <ele>571.15997314453</ele>
        <time>2024-09-27T12:07:13.000Z</time>
      </trkpt>
      <trkpt lat="40.24329" lon="20.45682">
        <ele>571.15997314453</ele>
        <time>2024-09-27T12:07:14.000Z</time>
      </trkpt>
      <trkpt lat="40.24325" lon="20.45691">
        <ele>571.15997314453</ele>
        <time>2024-09-27T12:07:15.000Z</time>
      </trkpt>
      <trkpt lat="40.24319" lon="20.45699">
        <ele>571.64001464844</ele>
        <time>2024-09-27T12:07:16.000Z</time>
      </trkpt>
      <trkpt lat="40.24313" lon="20.45705">
        <ele>572.11999511719</ele>
        <time>2024-09-27T12:07:17.000Z</time>
      </trkpt>
      <trkpt lat="40.24305" lon="20.4571">
        <ele>572.59997558594</ele>
        <time>2024-09-27T12:07:18.000Z</time>
      </trkpt>
      <trkpt lat="40.24297" lon="20.45713">
        <ele>573.08001708984</ele>
        <time>2024-09-27T12:07:19.000Z</time>
      </trkpt>
      <trkpt lat="40.24289" lon="20.45716">
        <ele>573.55999755859</ele>
        <time>2024-09-27T12:07:20.000Z</time>
      </trkpt>
      <trkpt lat="40.2428" lon="20.45717">
        <ele>574.53002929688</ele>
        <time>2024-09-27T12:07:21.000Z</time>
      </trkpt>
      <trkpt lat="40.24271" lon="20.45716">
        <ele>575.48999023438</ele>
        <time>2024-09-27T12:07:22.000Z</time>
      </trkpt>
      <trkpt lat="40.24264" lon="20.45713">
        <ele>575.96997070312</ele>
        <time>2024-09-27T12:07:23.000Z</time>
      </trkpt>
      <trkpt lat="40.24258" lon="20.45708">
        <ele>576.92999267578</ele>
        <time>2024-09-27T12:07:24.000Z</time>
      </trkpt>
      <trkpt lat="40.24251" lon="20.45698">
        <ele>578.36999511719</ele>
        <time>2024-09-27T12:07:25.000Z</time>
      </trkpt>
      <trkpt lat="40.24249" lon="20.45696">
        <ele>578.84997558594</ele>
        <time>2024-09-27T12:07:26.000Z</time>
      </trkpt>
      <trkpt lat="40.24245" lon="20.45694">
        <ele>579.80999755859</ele>
        <time>2024-09-27T12:07:27.000Z</time>
      </trkpt>
      <trkpt lat="40.2424" lon="20.45696">
        <ele>580.28997802734</ele>
        <time>2024-09-27T12:07:28.000Z</time>
      </trkpt>
      <trkpt lat="40.24237" lon="20.45699">
        <ele>580.77001953125</ele>
        <time>2024-09-27T12:07:29.000Z</time>
      </trkpt>
      <trkpt lat="40.24234" lon="20.45704">
        <ele>581.25</ele>
        <time>2024-09-27T12:07:30.000Z</time>
      </trkpt>
      <trkpt lat="40.24229" lon="20.45711">
        <ele>582.21997070312</ele>
        <time>2024-09-27T12:07:31.000Z</time>
      </trkpt>
      <trkpt lat="40.24225" lon="20.45716">
        <ele>582.21997070312</ele>
        <time>2024-09-27T12:07:32.000Z</time>
      </trkpt>
      <trkpt lat="40.24219" lon="20.45721">
        <ele>582.70001220703</ele>
        <time>2024-09-27T12:07:33.000Z</time>
      </trkpt>
      <trkpt lat="40.24212" lon="20.45725">
        <ele>582.21997070312</ele>
        <time>2024-09-27T12:07:34.000Z</time>
      </trkpt>
      <trkpt lat="40.24204" lon="20.45727">
        <ele>582.21997070312</ele>
        <time>2024-09-27T12:07:35.000Z</time>
      </trkpt>
      <trkpt lat="40.24197" lon="20.45729">
        <ele>581.72998046875</ele>
        <time>2024-09-27T12:07:36.000Z</time>
      </trkpt>
      <trkpt lat="40.2419" lon="20.45727">
        <ele>581.72998046875</ele>
        <time>2024-09-27T12:07:37.000Z</time>
      </trkpt>
      <trkpt lat="40.24182" lon="20.45721">
        <ele>581.72998046875</ele>
        <time>2024-09-27T12:07:38.000Z</time>
      </trkpt>
      <trkpt lat="40.24179" lon="20.4572">
        <ele>581.25</ele>
        <time>2024-09-27T12:07:39.000Z</time>
      </trkpt>
      <trkpt lat="40.24173" lon="20.45719">
        <ele>582.21997070312</ele>
        <time>2024-09-27T12:07:40.000Z</time>
      </trkpt>
      <trkpt lat="40.24168" lon="20.45721">
        <ele>582.21997070312</ele>
        <time>2024-09-27T12:07:41.000Z</time>
      </trkpt>
      <trkpt lat="40.24162" lon="20.45723">
        <ele>582.21997070312</ele>
        <time>2024-09-27T12:07:42.000Z</time>
      </trkpt>
      <trkpt lat="40.24155" lon="20.45725">
        <ele>582.21997070312</ele>
        <time>2024-09-27T12:07:43.000Z</time>
      </trkpt>
      <trkpt lat="40.24136" lon="20.45728">
        <ele>581.72998046875</ele>
        <time>2024-09-27T12:07:45.000Z</time>
      </trkpt>
      <trkpt lat="40.24132" lon="20.45729">
        <ele>581.72998046875</ele>
        <time>2024-09-27T12:07:46.000Z</time>
      </trkpt>
      <trkpt lat="40.24126" lon="20.45729">
        <ele>581.25</ele>
        <time>2024-09-27T12:07:47.000Z</time>
      </trkpt>
      <trkpt lat="40.24113" lon="20.45727">
        <ele>580.77001953125</ele>
        <time>2024-09-27T12:07:49.000Z</time>
      </trkpt>
      <trkpt lat="40.24106" lon="20.45728">
        <ele>580.28997802734</ele>
        <time>2024-09-27T12:07:50.000Z</time>
      </trkpt>
      <trkpt lat="40.24099" lon="20.45729">
        <ele>578.84997558594</ele>
        <time>2024-09-27T12:07:51.000Z</time>
      </trkpt>
      <trkpt lat="40.2409" lon="20.45734">
        <ele>577.89001464844</ele>
        <time>2024-09-27T12:07:52.000Z</time>
      </trkpt>
      <trkpt lat="40.24087" lon="20.45735">
        <ele>577.40997314453</ele>
        <time>2024-09-27T12:07:53.000Z</time>
      </trkpt>
      <trkpt lat="40.24083" lon="20.45739">
        <ele>576.92999267578</ele>
        <time>2024-09-27T12:07:54.000Z</time>
      </trkpt>
      <trkpt lat="40.2408" lon="20.45744">
        <ele>576.45001220703</ele>
        <time>2024-09-27T12:07:55.000Z</time>
      </trkpt>
      <trkpt lat="40.2408" lon="20.45748">
        <ele>576.92999267578</ele>
        <time>2024-09-27T12:07:56.000Z</time>
      </trkpt>
      <trkpt lat="40.24082" lon="20.45753">
        <ele>576.92999267578</ele>
        <time>2024-09-27T12:07:57.000Z</time>
      </trkpt>
      <trkpt lat="40.24086" lon="20.45757">
        <ele>577.40997314453</ele>
        <time>2024-09-27T12:07:58.000Z</time>
      </trkpt>
      <trkpt lat="40.2409" lon="20.4576">
        <ele>577.89001464844</ele>
        <time>2024-09-27T12:07:59.000Z</time>
      </trkpt>
      <trkpt lat="40.24096" lon="20.45762">
        <ele>578.36999511719</ele>
        <time>2024-09-27T12:08:00.000Z</time>
      </trkpt>
      <trkpt lat="40.24103" lon="20.45764">
        <ele>579.33001708984</ele>
        <time>2024-09-27T12:08:01.000Z</time>
      </trkpt>
      <trkpt lat="40.2411" lon="20.45766">
        <ele>579.80999755859</ele>
        <time>2024-09-27T12:08:02.000Z</time>
      </trkpt>
      <trkpt lat="40.24115" lon="20.45769">
        <ele>580.28997802734</ele>
        <time>2024-09-27T12:08:03.000Z</time>
      </trkpt>
      <trkpt lat="40.24121" lon="20.45774">
        <ele>580.28997802734</ele>
        <time>2024-09-27T12:08:04.000Z</time>
      </trkpt>
      <trkpt lat="40.24126" lon="20.45781">
        <ele>580.28997802734</ele>
        <time>2024-09-27T12:08:05.000Z</time>
      </trkpt>
      <trkpt lat="40.24132" lon="20.45791">
        <ele>581.25</ele>
        <time>2024-09-27T12:08:06.000Z</time>
      </trkpt>
      <trkpt lat="40.24136" lon="20.458">
        <ele>581.72998046875</ele>
        <time>2024-09-27T12:08:07.000Z</time>
      </trkpt>
      <trkpt lat="40.24139" lon="20.45812">
        <ele>582.21997070312</ele>
        <time>2024-09-27T12:08:08.000Z</time>
      </trkpt>
      <trkpt lat="40.24143" lon="20.45837">
        <ele>583.65997314453</ele>
        <time>2024-09-27T12:08:10.000Z</time>
      </trkpt>
      <trkpt lat="40.24145" lon="20.45845">
        <ele>584.14001464844</ele>
        <time>2024-09-27T12:08:11.000Z</time>
      </trkpt>
      <trkpt lat="40.24148" lon="20.45854">
        <ele>584.14001464844</ele>
        <time>2024-09-27T12:08:12.000Z</time>
      </trkpt>
      <trkpt lat="40.24154" lon="20.45866">
        <ele>584.14001464844</ele>
        <time>2024-09-27T12:08:13.000Z</time>
      </trkpt>
      <trkpt lat="40.24159" lon="20.45875">
        <ele>584.61999511719</ele>
        <time>2024-09-27T12:08:14.000Z</time>
      </trkpt>
      <trkpt lat="40.24166" lon="20.45886">
        <ele>585.58001708984</ele>
        <time>2024-09-27T12:08:15.000Z</time>
      </trkpt>
      <trkpt lat="40.2417" lon="20.45893">
        <ele>586.53997802734</ele>
        <time>2024-09-27T12:08:16.000Z</time>
      </trkpt>
      <trkpt lat="40.24174" lon="20.45901">
        <ele>587.5</ele>
        <time>2024-09-27T12:08:17.000Z</time>
      </trkpt>
      <trkpt lat="40.24175" lon="20.4591">
        <ele>588.95001220703</ele>
        <time>2024-09-27T12:08:18.000Z</time>
      </trkpt>
      <trkpt lat="40.24175" lon="20.45925">
        <ele>589.90997314453</ele>
        <time>2024-09-27T12:08:19.000Z</time>
      </trkpt>
      <trkpt lat="40.24175" lon="20.45929">
        <ele>590.39001464844</ele>
        <time>2024-09-27T12:08:20.000Z</time>
      </trkpt>
      <trkpt lat="40.24175" lon="20.45936">
        <ele>590.39001464844</ele>
        <time>2024-09-27T12:08:21.000Z</time>
      </trkpt>
      <trkpt lat="40.24173" lon="20.45945">
        <ele>590.86999511719</ele>
        <time>2024-09-27T12:08:22.000Z</time>
      </trkpt>
      <trkpt lat="40.2417" lon="20.45954">
        <ele>590.86999511719</ele>
        <time>2024-09-27T12:08:23.000Z</time>
      </trkpt>
      <trkpt lat="40.24167" lon="20.45962">
        <ele>590.86999511719</ele>
        <time>2024-09-27T12:08:24.000Z</time>
      </trkpt>
      <trkpt lat="40.24161" lon="20.45973">
        <ele>590.39001464844</ele>
        <time>2024-09-27T12:08:25.000Z</time>
      </trkpt>
      <trkpt lat="40.24158" lon="20.45978">
        <ele>589.90997314453</ele>
        <time>2024-09-27T12:08:26.000Z</time>
      </trkpt>
      <trkpt lat="40.24155" lon="20.45986">
        <ele>587.97998046875</ele>
        <time>2024-09-27T12:08:27.000Z</time>
      </trkpt>
      <trkpt lat="40.24153" lon="20.45995">
        <ele>587.02001953125</ele>
        <time>2024-09-27T12:08:28.000Z</time>
      </trkpt>
      <trkpt lat="40.24153" lon="20.46004">
        <ele>586.05999755859</ele>
        <time>2024-09-27T12:08:29.000Z</time>
      </trkpt>
      <trkpt lat="40.24154" lon="20.46011">
        <ele>585.58001708984</ele>
        <time>2024-09-27T12:08:30.000Z</time>
      </trkpt>
      <trkpt lat="40.24154" lon="20.4602">
        <ele>584.14001464844</ele>
        <time>2024-09-27T12:08:31.000Z</time>
      </trkpt>
      <trkpt lat="40.24153" lon="20.46029">
        <ele>583.17999267578</ele>
        <time>2024-09-27T12:08:32.000Z</time>
      </trkpt>
      <trkpt lat="40.2415" lon="20.46036">
        <ele>582.21997070312</ele>
        <time>2024-09-27T12:08:33.000Z</time>
      </trkpt>
      <trkpt lat="40.24144" lon="20.46045">
        <ele>581.72998046875</ele>
        <time>2024-09-27T12:08:34.000Z</time>
      </trkpt>
      <trkpt lat="40.2414" lon="20.46051">
        <ele>580.77001953125</ele>
        <time>2024-09-27T12:08:35.000Z</time>
      </trkpt>
      <trkpt lat="40.24137" lon="20.46059">
        <ele>580.28997802734</ele>
        <time>2024-09-27T12:08:36.000Z</time>
      </trkpt>
      <trkpt lat="40.24135" lon="20.4607">
        <ele>579.33001708984</ele>
        <time>2024-09-27T12:08:37.000Z</time>
      </trkpt>
      <trkpt lat="40.24132" lon="20.46079">
        <ele>578.36999511719</ele>
        <time>2024-09-27T12:08:38.000Z</time>
      </trkpt>
      <trkpt lat="40.24128" lon="20.46088">
        <ele>576.92999267578</ele>
        <time>2024-09-27T12:08:39.000Z</time>
      </trkpt>
      <trkpt lat="40.24125" lon="20.46094">
        <ele>576.45001220703</ele>
        <time>2024-09-27T12:08:40.000Z</time>
      </trkpt>
      <trkpt lat="40.24121" lon="20.461">
        <ele>575.48999023438</ele>
        <time>2024-09-27T12:08:41.000Z</time>
      </trkpt>
      <trkpt lat="40.24116" lon="20.46107">
        <ele>574.53002929688</ele>
        <time>2024-09-27T12:08:42.000Z</time>
      </trkpt>
      <trkpt lat="40.2411" lon="20.46112">
        <ele>573.08001708984</ele>
        <time>2024-09-27T12:08:43.000Z</time>
      </trkpt>
      <trkpt lat="40.24103" lon="20.46117">
        <ele>572.11999511719</ele>
        <time>2024-09-27T12:08:44.000Z</time>
      </trkpt>
      <trkpt lat="40.24098" lon="20.46122">
        <ele>571.64001464844</ele>
        <time>2024-09-27T12:08:45.000Z</time>
      </trkpt>
      <trkpt lat="40.24095" lon="20.46128">
        <ele>570.67999267578</ele>
        <time>2024-09-27T12:08:46.000Z</time>
      </trkpt>
      <trkpt lat="40.24095" lon="20.46136">
        <ele>570.20001220703</ele>
        <time>2024-09-27T12:08:47.000Z</time>
      </trkpt>
      <trkpt lat="40.24097" lon="20.46145">
        <ele>569.23999023438</ele>
        <time>2024-09-27T12:08:48.000Z</time>
      </trkpt>
      <trkpt lat="40.24099" lon="20.46154">
        <ele>567.79998779297</ele>
        <time>2024-09-27T12:08:49.000Z</time>
      </trkpt>
      <trkpt lat="40.24101" lon="20.46163">
        <ele>566.83001708984</ele>
        <time>2024-09-27T12:08:50.000Z</time>
      </trkpt>
      <trkpt lat="40.241" lon="20.46173">
        <ele>565.39001464844</ele>
        <time>2024-09-27T12:08:51.000Z</time>
      </trkpt>
      <trkpt lat="40.241" lon="20.46183">
        <ele>564.42999267578</ele>
        <time>2024-09-27T12:08:52.000Z</time>
      </trkpt>
      <trkpt lat="40.24095" lon="20.46216">
        <ele>561.07000732422</ele>
        <time>2024-09-27T12:08:55.000Z</time>
      </trkpt>
      <trkpt lat="40.24094" lon="20.46227">
        <ele>560.10998535156</ele>
        <time>2024-09-27T12:08:56.000Z</time>
      </trkpt>
      <trkpt lat="40.24094" lon="20.46236">
        <ele>559.61999511719</ele>
        <time>2024-09-27T12:08:57.000Z</time>
      </trkpt>
      <trkpt lat="40.24093" lon="20.46246">
        <ele>558.65997314453</ele>
        <time>2024-09-27T12:08:58.000Z</time>
      </trkpt>
      <trkpt lat="40.24092" lon="20.46254">
        <ele>557.70001220703</ele>
        <time>2024-09-27T12:08:59.000Z</time>
      </trkpt>
      <trkpt lat="40.24088" lon="20.46266">
        <ele>556.26000976562</ele>
        <time>2024-09-27T12:09:00.000Z</time>
      </trkpt>
      <trkpt lat="40.24088" lon="20.4627">
        <ele>555.78002929688</ele>
        <time>2024-09-27T12:09:01.000Z</time>
      </trkpt>
      <trkpt lat="40.24096" lon="20.46284">
        <ele>555.78002929688</ele>
        <time>2024-09-27T12:09:07.000Z</time>
      </trkpt>
      <trkpt lat="40.241" lon="20.46282">
        <ele>555.78002929688</ele>
        <time>2024-09-27T12:09:08.000Z</time>
      </trkpt>
      <trkpt lat="40.24104" lon="20.4628">
        <ele>555.29998779297</ele>
        <time>2024-09-27T12:09:09.000Z</time>
      </trkpt>
      <trkpt lat="40.24108" lon="20.46278">
        <ele>555.29998779297</ele>
        <time>2024-09-27T12:09:10.000Z</time>
      </trkpt>
      <trkpt lat="40.24123" lon="20.46262">
        <ele>556.26000976562</ele>
        <time>2024-09-27T12:09:15.000Z</time>
      </trkpt>
      <trkpt lat="40.24127" lon="20.46256">
        <ele>556.73999023438</ele>
        <time>2024-09-27T12:09:16.000Z</time>
      </trkpt>
      <trkpt lat="40.24128" lon="20.46254">
        <ele>557.21997070312</ele>
        <time>2024-09-27T12:09:17.000Z</time>
      </trkpt>
      <trkpt lat="40.2413" lon="20.46249">
        <ele>557.21997070312</ele>
        <time>2024-09-27T12:09:18.000Z</time>
      </trkpt>
      <trkpt lat="40.24132" lon="20.46244">
        <ele>557.70001220703</ele>
        <time>2024-09-27T12:09:19.000Z</time>
      </trkpt>
      <trkpt lat="40.24133" lon="20.46238">
        <ele>558.17999267578</ele>
        <time>2024-09-27T12:09:20.000Z</time>
      </trkpt>
      <trkpt lat="40.24134" lon="20.46232">
        <ele>558.65997314453</ele>
        <time>2024-09-27T12:09:21.000Z</time>
      </trkpt>
      <trkpt lat="40.24136" lon="20.46227">
        <ele>559.14001464844</ele>
        <time>2024-09-27T12:09:22.000Z</time>
      </trkpt>
      <trkpt lat="40.24138" lon="20.4622">
        <ele>559.61999511719</ele>
        <time>2024-09-27T12:09:23.000Z</time>
      </trkpt>
      <trkpt lat="40.24141" lon="20.46213">
        <ele>560.59002685547</ele>
        <time>2024-09-27T12:09:24.000Z</time>
      </trkpt>
      <trkpt lat="40.24142" lon="20.46211">
        <ele>560.59002685547</ele>
        <time>2024-09-27T12:09:25.000Z</time>
      </trkpt>
      <trkpt lat="40.24145" lon="20.46205">
        <ele>561.07000732422</ele>
        <time>2024-09-27T12:09:26.000Z</time>
      </trkpt>
      <trkpt lat="40.24149" lon="20.46198">
        <ele>562.03002929688</ele>
        <time>2024-09-27T12:09:27.000Z</time>
      </trkpt>
      <trkpt lat="40.24151" lon="20.46194">
        <ele>562.51000976562</ele>
        <time>2024-09-27T12:09:28.000Z</time>
      </trkpt>
      <trkpt lat="40.24154" lon="20.4619">
        <ele>563.46997070312</ele>
        <time>2024-09-27T12:09:29.000Z</time>
      </trkpt>
      <trkpt lat="40.24158" lon="20.46188">
        <ele>563.46997070312</ele>
        <time>2024-09-27T12:09:30.000Z</time>
      </trkpt>
      <trkpt lat="40.24162" lon="20.46187">
        <ele>562.98999023438</ele>
        <time>2024-09-27T12:09:31.000Z</time>
      </trkpt>
      <trkpt lat="40.24168" lon="20.46188">
        <ele>562.98999023438</ele>
        <time>2024-09-27T12:09:32.000Z</time>
      </trkpt>
      <trkpt lat="40.24173" lon="20.46188">
        <ele>562.98999023438</ele>
        <time>2024-09-27T12:09:33.000Z</time>
      </trkpt>
      <trkpt lat="40.24196" lon="20.46188">
        <ele>563.46997070312</ele>
        <time>2024-09-27T12:09:36.000Z</time>
      </trkpt>
      <trkpt lat="40.24201" lon="20.46187">
        <ele>563.95001220703</ele>
        <time>2024-09-27T12:09:37.000Z</time>
      </trkpt>
      <trkpt lat="40.24206" lon="20.46185">
        <ele>564.42999267578</ele>
        <time>2024-09-27T12:09:38.000Z</time>
      </trkpt>
      <trkpt lat="40.24211" lon="20.4618">
        <ele>564.90997314453</ele>
        <time>2024-09-27T12:09:39.000Z</time>
      </trkpt>
      <trkpt lat="40.2422" lon="20.46169">
        <ele>565.86999511719</ele>
        <time>2024-09-27T12:09:40.000Z</time>
      </trkpt>
      <trkpt lat="40.24221" lon="20.46168">
        <ele>565.86999511719</ele>
        <time>2024-09-27T12:09:41.000Z</time>
      </trkpt>
      <trkpt lat="40.24228" lon="20.4616">
        <ele>566.34997558594</ele>
        <time>2024-09-27T12:09:42.000Z</time>
      </trkpt>
      <trkpt lat="40.24231" lon="20.46158">
        <ele>565.86999511719</ele>
        <time>2024-09-27T12:09:43.000Z</time>
      </trkpt>
      <trkpt lat="40.24236" lon="20.46152">
        <ele>565.86999511719</ele>
        <time>2024-09-27T12:09:44.000Z</time>
      </trkpt>
      <trkpt lat="40.24242" lon="20.46143">
        <ele>565.39001464844</ele>
        <time>2024-09-27T12:09:45.000Z</time>
      </trkpt>
      <trkpt lat="40.24246" lon="20.46138">
        <ele>564.90997314453</ele>
        <time>2024-09-27T12:09:46.000Z</time>
      </trkpt>
      <trkpt lat="40.2425" lon="20.46134">
        <ele>564.42999267578</ele>
        <time>2024-09-27T12:09:47.000Z</time>
      </trkpt>
      <trkpt lat="40.24258" lon="20.46125">
        <ele>564.42999267578</ele>
        <time>2024-09-27T12:09:48.000Z</time>
      </trkpt>
      <trkpt lat="40.24259" lon="20.46123">
        <ele>564.42999267578</ele>
        <time>2024-09-27T12:09:49.000Z</time>
      </trkpt>
      <trkpt lat="40.24265" lon="20.46118">
        <ele>563.95001220703</ele>
        <time>2024-09-27T12:09:50.000Z</time>
      </trkpt>
      <trkpt lat="40.24273" lon="20.46112">
        <ele>562.98999023438</ele>
        <time>2024-09-27T12:09:51.000Z</time>
      </trkpt>
      <trkpt lat="40.24279" lon="20.46109">
        <ele>562.51000976562</ele>
        <time>2024-09-27T12:09:52.000Z</time>
      </trkpt>
      <trkpt lat="40.24291" lon="20.46101">
        <ele>561.54998779297</ele>
        <time>2024-09-27T12:09:53.000Z</time>
      </trkpt>
      <trkpt lat="40.24297" lon="20.46098">
        <ele>561.07000732422</ele>
        <time>2024-09-27T12:09:54.000Z</time>
      </trkpt>
      <trkpt lat="40.24312" lon="20.46088">
        <ele>559.61999511719</ele>
        <time>2024-09-27T12:09:56.000Z</time>
      </trkpt>
      <trkpt lat="40.24322" lon="20.46083">
        <ele>560.10998535156</ele>
        <time>2024-09-27T12:09:57.000Z</time>
      </trkpt>
      <trkpt lat="40.24328" lon="20.4608">
        <ele>560.59002685547</ele>
        <time>2024-09-27T12:09:58.000Z</time>
      </trkpt>
      <trkpt lat="40.24336" lon="20.46076">
        <ele>561.07000732422</ele>
        <time>2024-09-27T12:09:59.000Z</time>
      </trkpt>
      <trkpt lat="40.24342" lon="20.46073">
        <ele>560.59002685547</ele>
        <time>2024-09-27T12:10:00.000Z</time>
      </trkpt>
      <trkpt lat="40.24346" lon="20.4607">
        <ele>560.59002685547</ele>
        <time>2024-09-27T12:10:01.000Z</time>
      </trkpt>
      <trkpt lat="40.2435" lon="20.46068">
        <ele>561.07000732422</ele>
        <time>2024-09-27T12:10:02.000Z</time>
      </trkpt>
      <trkpt lat="40.24355" lon="20.46067">
        <ele>561.07000732422</ele>
        <time>2024-09-27T12:10:03.000Z</time>
      </trkpt>
      <trkpt lat="40.24362" lon="20.46067">
        <ele>561.07000732422</ele>
        <time>2024-09-27T12:10:04.000Z</time>
      </trkpt>
      <trkpt lat="40.24371" lon="20.46068">
        <ele>562.03002929688</ele>
        <time>2024-09-27T12:10:05.000Z</time>
      </trkpt>
      <trkpt lat="40.24374" lon="20.46068">
        <ele>562.51000976562</ele>
        <time>2024-09-27T12:10:06.000Z</time>
      </trkpt>
      <trkpt lat="40.24382" lon="20.46066">
        <ele>563.46997070312</ele>
        <time>2024-09-27T12:10:07.000Z</time>
      </trkpt>
      <trkpt lat="40.24389" lon="20.46064">
        <ele>564.42999267578</ele>
        <time>2024-09-27T12:10:08.000Z</time>
      </trkpt>
      <trkpt lat="40.24395" lon="20.4606">
        <ele>565.39001464844</ele>
        <time>2024-09-27T12:10:09.000Z</time>
      </trkpt>
      <trkpt lat="40.24402" lon="20.46053">
        <ele>566.83001708984</ele>
        <time>2024-09-27T12:10:10.000Z</time>
      </trkpt>
      <trkpt lat="40.2441" lon="20.46045">
        <ele>568.76000976562</ele>
        <time>2024-09-27T12:10:11.000Z</time>
      </trkpt>
      <trkpt lat="40.24422" lon="20.46033">
        <ele>572.11999511719</ele>
        <time>2024-09-27T12:10:13.000Z</time>
      </trkpt>
      <trkpt lat="40.24424" lon="20.46031">
        <ele>573.08001708984</ele>
        <time>2024-09-27T12:10:14.000Z</time>
      </trkpt>
      <trkpt lat="40.2443" lon="20.46025">
        <ele>574.53002929688</ele>
        <time>2024-09-27T12:10:15.000Z</time>
      </trkpt>
      <trkpt lat="40.24436" lon="20.4602">
        <ele>575.48999023438</ele>
        <time>2024-09-27T12:10:16.000Z</time>
      </trkpt>
      <trkpt lat="40.24442" lon="20.46013">
        <ele>576.92999267578</ele>
        <time>2024-09-27T12:10:17.000Z</time>
      </trkpt>
      <trkpt lat="40.2445" lon="20.46002">
        <ele>579.33001708984</ele>
        <time>2024-09-27T12:10:18.000Z</time>
      </trkpt>
      <trkpt lat="40.24451" lon="20.46">
        <ele>579.33001708984</ele>
        <time>2024-09-27T12:10:19.000Z</time>
      </trkpt>
      <trkpt lat="40.24456" lon="20.45995">
        <ele>580.77001953125</ele>
        <time>2024-09-27T12:10:20.000Z</time>
      </trkpt>
      <trkpt lat="40.24471" lon="20.45986">
        <ele>584.14001464844</ele>
        <time>2024-09-27T12:10:22.000Z</time>
      </trkpt>
      <trkpt lat="40.24476" lon="20.45983">
        <ele>585.09997558594</ele>
        <time>2024-09-27T12:10:23.000Z</time>
      </trkpt>
      <trkpt lat="40.24483" lon="20.4598">
        <ele>586.53997802734</ele>
        <time>2024-09-27T12:10:24.000Z</time>
      </trkpt>
      <trkpt lat="40.24489" lon="20.45978">
        <ele>587.02001953125</ele>
        <time>2024-09-27T12:10:25.000Z</time>
      </trkpt>
      <trkpt lat="40.24495" lon="20.45977">
        <ele>587.97998046875</ele>
        <time>2024-09-27T12:10:26.000Z</time>
      </trkpt>
      <trkpt lat="40.24503" lon="20.45976">
        <ele>589.90997314453</ele>
        <time>2024-09-27T12:10:27.000Z</time>
      </trkpt>
      <trkpt lat="40.24513" lon="20.45977">
        <ele>590.86999511719</ele>
        <time>2024-09-27T12:10:28.000Z</time>
      </trkpt>
      <trkpt lat="40.24515" lon="20.45977">
        <ele>590.86999511719</ele>
        <time>2024-09-27T12:10:29.000Z</time>
      </trkpt>
      <trkpt lat="40.2452" lon="20.45977">
        <ele>590.86999511719</ele>
        <time>2024-09-27T12:10:30.000Z</time>
      </trkpt>
      <trkpt lat="40.24526" lon="20.45977">
        <ele>590.86999511719</ele>
        <time>2024-09-27T12:10:31.000Z</time>
      </trkpt>
      <trkpt lat="40.24531" lon="20.45979">
        <ele>590.86999511719</ele>
        <time>2024-09-27T12:10:32.000Z</time>
      </trkpt>
      <trkpt lat="40.24537" lon="20.45983">
        <ele>591.34997558594</ele>
        <time>2024-09-27T12:10:33.000Z</time>
      </trkpt>
      <trkpt lat="40.24541" lon="20.45989">
        <ele>591.83001708984</ele>
        <time>2024-09-27T12:10:34.000Z</time>
      </trkpt>
      <trkpt lat="40.24544" lon="20.45996">
        <ele>592.30999755859</ele>
        <time>2024-09-27T12:10:35.000Z</time>
      </trkpt>
      <trkpt lat="40.24547" lon="20.46003">
        <ele>592.30999755859</ele>
        <time>2024-09-27T12:10:36.000Z</time>
      </trkpt>
      <trkpt lat="40.2455" lon="20.46011">
        <ele>592.78997802734</ele>
        <time>2024-09-27T12:10:37.000Z</time>
      </trkpt>
      <trkpt lat="40.24558" lon="20.46029">
        <ele>593.75</ele>
        <time>2024-09-27T12:10:39.000Z</time>
      </trkpt>
      <trkpt lat="40.24562" lon="20.46042">
        <ele>594.71002197266</ele>
        <time>2024-09-27T12:10:40.000Z</time>
      </trkpt>
      <trkpt lat="40.24567" lon="20.46054">
        <ele>595.19000244141</ele>
        <time>2024-09-27T12:10:41.000Z</time>
      </trkpt>
      <trkpt lat="40.24569" lon="20.46058">
        <ele>595.66998291016</ele>
        <time>2024-09-27T12:10:42.000Z</time>
      </trkpt>
      <trkpt lat="40.24573" lon="20.46065">
        <ele>596.15002441406</ele>
        <time>2024-09-27T12:10:43.000Z</time>
      </trkpt>
      <trkpt lat="40.24577" lon="20.46071">
        <ele>596.64001464844</ele>
        <time>2024-09-27T12:10:44.000Z</time>
      </trkpt>
      <trkpt lat="40.24582" lon="20.46075">
        <ele>597.59997558594</ele>
        <time>2024-09-27T12:10:45.000Z</time>
      </trkpt>
      <trkpt lat="40.24588" lon="20.4608">
        <ele>598.55999755859</ele>
        <time>2024-09-27T12:10:46.000Z</time>
      </trkpt>
      <trkpt lat="40.24592" lon="20.46083">
        <ele>599.52001953125</ele>
        <time>2024-09-27T12:10:47.000Z</time>
      </trkpt>
      <trkpt lat="40.24597" lon="20.46086">
        <ele>600.47998046875</ele>
        <time>2024-09-27T12:10:48.000Z</time>
      </trkpt>
      <trkpt lat="40.24605" lon="20.46089">
        <ele>601.44000244141</ele>
        <time>2024-09-27T12:10:49.000Z</time>
      </trkpt>
      <trkpt lat="40.24609" lon="20.46091">
        <ele>601.91998291016</ele>
        <time>2024-09-27T12:10:50.000Z</time>
      </trkpt>
      <trkpt lat="40.24615" lon="20.46093">
        <ele>602.88000488281</ele>
        <time>2024-09-27T12:10:51.000Z</time>
      </trkpt>
      <trkpt lat="40.2462" lon="20.46095">
        <ele>603.35998535156</ele>
        <time>2024-09-27T12:10:52.000Z</time>
      </trkpt>
      <trkpt lat="40.24629" lon="20.46096">
        <ele>603.84997558594</ele>
        <time>2024-09-27T12:10:53.000Z</time>
      </trkpt>
      <trkpt lat="40.24634" lon="20.46097">
        <ele>604.33001708984</ele>
        <time>2024-09-27T12:10:54.000Z</time>
      </trkpt>
      <trkpt lat="40.24641" lon="20.46098">
        <ele>604.80999755859</ele>
        <time>2024-09-27T12:10:55.000Z</time>
      </trkpt>
      <trkpt lat="40.24646" lon="20.46099">
        <ele>605.28997802734</ele>
        <time>2024-09-27T12:10:56.000Z</time>
      </trkpt>
      <trkpt lat="40.24651" lon="20.461">
        <ele>605.77001953125</ele>
        <time>2024-09-27T12:10:57.000Z</time>
      </trkpt>
      <trkpt lat="40.24656" lon="20.46109">
        <ele>606.72998046875</ele>
        <time>2024-09-27T12:10:59.000Z</time>
      </trkpt>
      <trkpt lat="40.24656" lon="20.46111">
        <ele>607.21002197266</ele>
        <time>2024-09-27T12:11:00.000Z</time>
      </trkpt>
      <trkpt lat="40.24654" lon="20.46118">
        <ele>607.69000244141</ele>
        <time>2024-09-27T12:11:01.000Z</time>
      </trkpt>
      <trkpt lat="40.2465" lon="20.46125">
        <ele>608.16998291016</ele>
        <time>2024-09-27T12:11:02.000Z</time>
      </trkpt>
      <trkpt lat="40.24646" lon="20.46131">
        <ele>609.13000488281</ele>
        <time>2024-09-27T12:11:03.000Z</time>
      </trkpt>
      <trkpt lat="40.2464" lon="20.46137">
        <ele>610.57000732422</ele>
        <time>2024-09-27T12:11:04.000Z</time>
      </trkpt>
      <trkpt lat="40.24634" lon="20.46142">
        <ele>611.05999755859</ele>
        <time>2024-09-27T12:11:05.000Z</time>
      </trkpt>
      <trkpt lat="40.24627" lon="20.46146">
        <ele>611.53997802734</ele>
        <time>2024-09-27T12:11:06.000Z</time>
      </trkpt>
      <trkpt lat="40.2462" lon="20.46148">
        <ele>612.02001953125</ele>
        <time>2024-09-27T12:11:07.000Z</time>
      </trkpt>
      <trkpt lat="40.24607" lon="20.4615">
        <ele>612.97998046875</ele>
        <time>2024-09-27T12:11:08.000Z</time>
      </trkpt>
      <trkpt lat="40.24604" lon="20.4615">
        <ele>612.97998046875</ele>
        <time>2024-09-27T12:11:09.000Z</time>
      </trkpt>
      <trkpt lat="40.24597" lon="20.46153">
        <ele>612.97998046875</ele>
        <time>2024-09-27T12:11:10.000Z</time>
      </trkpt>
      <trkpt lat="40.2459" lon="20.46157">
        <ele>613.46002197266</ele>
        <time>2024-09-27T12:11:11.000Z</time>
      </trkpt>
      <trkpt lat="40.24583" lon="20.46162">
        <ele>613.94000244141</ele>
        <time>2024-09-27T12:11:12.000Z</time>
      </trkpt>
      <trkpt lat="40.24577" lon="20.46168">
        <ele>614.41998291016</ele>
        <time>2024-09-27T12:11:13.000Z</time>
      </trkpt>
      <trkpt lat="40.24567" lon="20.46175">
        <ele>616.34002685547</ele>
        <time>2024-09-27T12:11:14.000Z</time>
      </trkpt>
      <trkpt lat="40.24563" lon="20.46177">
        <ele>616.82000732422</ele>
        <time>2024-09-27T12:11:15.000Z</time>
      </trkpt>
      <trkpt lat="40.24557" lon="20.46181">
        <ele>617.78002929688</ele>
        <time>2024-09-27T12:11:16.000Z</time>
      </trkpt>
      <trkpt lat="40.24546" lon="20.46185">
        <ele>619.71002197266</ele>
        <time>2024-09-27T12:11:17.000Z</time>
      </trkpt>
      <trkpt lat="40.2454" lon="20.46187">
        <ele>621.15002441406</ele>
        <time>2024-09-27T12:11:18.000Z</time>
      </trkpt>
      <trkpt lat="40.24531" lon="20.46188">
        <ele>622.59002685547</ele>
        <time>2024-09-27T12:11:19.000Z</time>
      </trkpt>
      <trkpt lat="40.24525" lon="20.4619">
        <ele>624.03002929688</ele>
        <time>2024-09-27T12:11:20.000Z</time>
      </trkpt>
      <trkpt lat="40.24519" lon="20.46193">
        <ele>625.46997070312</ele>
        <time>2024-09-27T12:11:21.000Z</time>
      </trkpt>
      <trkpt lat="40.24514" lon="20.46197">
        <ele>625.96002197266</ele>
        <time>2024-09-27T12:11:22.000Z</time>
      </trkpt>
      <trkpt lat="40.24505" lon="20.46206">
        <ele>627.40002441406</ele>
        <time>2024-09-27T12:11:23.000Z</time>
      </trkpt>
      <trkpt lat="40.24504" lon="20.46209">
        <ele>627.88000488281</ele>
        <time>2024-09-27T12:11:24.000Z</time>
      </trkpt>
      <trkpt lat="40.245" lon="20.46217">
        <ele>628.84002685547</ele>
        <time>2024-09-27T12:11:25.000Z</time>
      </trkpt>
      <trkpt lat="40.24497" lon="20.46226">
        <ele>629.32000732422</ele>
        <time>2024-09-27T12:11:26.000Z</time>
      </trkpt>
      <trkpt lat="40.24495" lon="20.46234">
        <ele>630.28002929688</ele>
        <time>2024-09-27T12:11:27.000Z</time>
      </trkpt>
      <trkpt lat="40.24494" lon="20.46241">
        <ele>630.76000976562</ele>
        <time>2024-09-27T12:11:28.000Z</time>
      </trkpt>
      <trkpt lat="40.24492" lon="20.46247">
        <ele>631.23999023438</ele>
        <time>2024-09-27T12:11:29.000Z</time>
      </trkpt>
      <trkpt lat="40.24489" lon="20.46253">
        <ele>631.71997070312</ele>
        <time>2024-09-27T12:11:30.000Z</time>
      </trkpt>
      <trkpt lat="40.24486" lon="20.46258">
        <ele>632.20001220703</ele>
        <time>2024-09-27T12:11:31.000Z</time>
      </trkpt>
      <trkpt lat="40.24481" lon="20.46262">
        <ele>632.67999267578</ele>
        <time>2024-09-27T12:11:32.000Z</time>
      </trkpt>
      <trkpt lat="40.2447" lon="20.46267">
        <ele>633.65002441406</ele>
        <time>2024-09-27T12:11:34.000Z</time>
      </trkpt>
      <trkpt lat="40.24464" lon="20.4627">
        <ele>634.60998535156</ele>
        <time>2024-09-27T12:11:35.000Z</time>
      </trkpt>
      <trkpt lat="40.24459" lon="20.46271">
        <ele>635.09002685547</ele>
        <time>2024-09-27T12:11:36.000Z</time>
      </trkpt>
      <trkpt lat="40.24457" lon="20.46272">
        <ele>635.09002685547</ele>
        <time>2024-09-27T12:11:37.000Z</time>
      </trkpt>
      <trkpt lat="40.24452" lon="20.46275">
        <ele>635.09002685547</ele>
        <time>2024-09-27T12:11:38.000Z</time>
      </trkpt>
      <trkpt lat="40.24447" lon="20.46277">
        <ele>635.57000732422</ele>
        <time>2024-09-27T12:11:39.000Z</time>
      </trkpt>
      <trkpt lat="40.24444" lon="20.46279">
        <ele>635.57000732422</ele>
        <time>2024-09-27T12:11:40.000Z</time>
      </trkpt>
      <trkpt lat="40.24439" lon="20.46282">
        <ele>635.57000732422</ele>
        <time>2024-09-27T12:11:41.000Z</time>
      </trkpt>
      <trkpt lat="40.24434" lon="20.46287">
        <ele>636.04998779297</ele>
        <time>2024-09-27T12:11:42.000Z</time>
      </trkpt>
      <trkpt lat="40.24427" lon="20.46295">
        <ele>636.53002929688</ele>
        <time>2024-09-27T12:11:43.000Z</time>
      </trkpt>
      <trkpt lat="40.24417" lon="20.46307">
        <ele>637.01000976562</ele>
        <time>2024-09-27T12:11:45.000Z</time>
      </trkpt>
      <trkpt lat="40.24414" lon="20.46311">
        <ele>637.01000976562</ele>
        <time>2024-09-27T12:11:46.000Z</time>
      </trkpt>
      <trkpt lat="40.2441" lon="20.46318">
        <ele>637.48999023438</ele>
        <time>2024-09-27T12:11:47.000Z</time>
      </trkpt>
      <trkpt lat="40.24406" lon="20.46327">
        <ele>637.96997070312</ele>
        <time>2024-09-27T12:11:49.000Z</time>
      </trkpt>
      <trkpt lat="40.24393" lon="20.46356">
        <ele>640.85998535156</ele>
        <time>2024-09-27T12:11:52.000Z</time>
      </trkpt>
      <trkpt lat="40.24388" lon="20.46368">
        <ele>641.34002685547</ele>
        <time>2024-09-27T12:11:53.000Z</time>
      </trkpt>
      <trkpt lat="40.24375" lon="20.46395">
        <ele>643.73999023438</ele>
        <time>2024-09-27T12:11:56.000Z</time>
      </trkpt>
      <trkpt lat="40.24372" lon="20.46404">
        <ele>644.70001220703</ele>
        <time>2024-09-27T12:11:57.000Z</time>
      </trkpt>
      <trkpt lat="40.24368" lon="20.46416">
        <ele>646.14001464844</ele>
        <time>2024-09-27T12:11:58.000Z</time>
      </trkpt>
      <trkpt lat="40.24367" lon="20.46418">
        <ele>646.14001464844</ele>
        <time>2024-09-27T12:11:59.000Z</time>
      </trkpt>
      <trkpt lat="40.24365" lon="20.46429">
        <ele>647.59002685547</ele>
        <time>2024-09-27T12:12:00.000Z</time>
      </trkpt>
      <trkpt lat="40.24362" lon="20.46443">
        <ele>649.51000976562</ele>
        <time>2024-09-27T12:12:01.000Z</time>
      </trkpt>
      <trkpt lat="40.24361" lon="20.46449">
        <ele>650.46997070312</ele>
        <time>2024-09-27T12:12:02.000Z</time>
      </trkpt>
      <trkpt lat="40.2436" lon="20.4646">
        <ele>652.39001464844</ele>
        <time>2024-09-27T12:12:03.000Z</time>
      </trkpt>
      <trkpt lat="40.2436" lon="20.46468">
        <ele>653.83001708984</ele>
        <time>2024-09-27T12:12:04.000Z</time>
      </trkpt>
      <trkpt lat="40.24358" lon="20.4649">
        <ele>657.67999267578</ele>
        <time>2024-09-27T12:12:06.000Z</time>
      </trkpt>
      <trkpt lat="40.24357" lon="20.46497">
        <ele>659.11999511719</ele>
        <time>2024-09-27T12:12:07.000Z</time>
      </trkpt>
      <trkpt lat="40.24356" lon="20.46504">
        <ele>659.59997558594</ele>
        <time>2024-09-27T12:12:08.000Z</time>
      </trkpt>
      <trkpt lat="40.24354" lon="20.46514">
        <ele>660.55999755859</ele>
        <time>2024-09-27T12:12:09.000Z</time>
      </trkpt>
      <trkpt lat="40.24351" lon="20.4652">
        <ele>661.52001953125</ele>
        <time>2024-09-27T12:12:10.000Z</time>
      </trkpt>
      <trkpt lat="40.24347" lon="20.46527">
        <ele>662.48999023438</ele>
        <time>2024-09-27T12:12:11.000Z</time>
      </trkpt>
      <trkpt lat="40.2434" lon="20.46531">
        <ele>662.96997070312</ele>
        <time>2024-09-27T12:12:12.000Z</time>
      </trkpt>
      <trkpt lat="40.24332" lon="20.46534">
        <ele>663.45001220703</ele>
        <time>2024-09-27T12:12:13.000Z</time>
      </trkpt>
      <trkpt lat="40.24324" lon="20.46535">
        <ele>663.45001220703</ele>
        <time>2024-09-27T12:12:14.000Z</time>
      </trkpt>
      <trkpt lat="40.24317" lon="20.46536">
        <ele>663.92999267578</ele>
        <time>2024-09-27T12:12:15.000Z</time>
      </trkpt>
      <trkpt lat="40.24301" lon="20.46537">
        <ele>664.89001464844</ele>
        <time>2024-09-27T12:12:17.000Z</time>
      </trkpt>
      <trkpt lat="40.24294" lon="20.46536">
        <ele>665.36999511719</ele>
        <time>2024-09-27T12:12:18.000Z</time>
      </trkpt>
      <trkpt lat="40.24287" lon="20.46534">
        <ele>665.36999511719</ele>
        <time>2024-09-27T12:12:19.000Z</time>
      </trkpt>
      <trkpt lat="40.24282" lon="20.46531">
        <ele>665.84997558594</ele>
        <time>2024-09-27T12:12:20.000Z</time>
      </trkpt>
      <trkpt lat="40.24278" lon="20.46525">
        <ele>666.33001708984</ele>
        <time>2024-09-27T12:12:21.000Z</time>
      </trkpt>
      <trkpt lat="40.24275" lon="20.46521">
        <ele>665.84997558594</ele>
        <time>2024-09-27T12:12:22.000Z</time>
      </trkpt>
      <trkpt lat="40.24273" lon="20.46515">
        <ele>665.84997558594</ele>
        <time>2024-09-27T12:12:23.000Z</time>
      </trkpt>
      <trkpt lat="40.24271" lon="20.46507">
        <ele>665.84997558594</ele>
        <time>2024-09-27T12:12:24.000Z</time>
      </trkpt>
      <trkpt lat="40.2427" lon="20.46504">
        <ele>665.36999511719</ele>
        <time>2024-09-27T12:12:25.000Z</time>
      </trkpt>
      <trkpt lat="40.24267" lon="20.46498">
        <ele>664.89001464844</ele>
        <time>2024-09-27T12:12:26.000Z</time>
      </trkpt>
      <trkpt lat="40.24263" lon="20.4649">
        <ele>663.92999267578</ele>
        <time>2024-09-27T12:12:27.000Z</time>
      </trkpt>
      <trkpt lat="40.24262" lon="20.46488">
        <ele>663.45001220703</ele>
        <time>2024-09-27T12:12:28.000Z</time>
      </trkpt>
      <trkpt lat="40.24257" lon="20.4648">
        <ele>662.96997070312</ele>
        <time>2024-09-27T12:12:29.000Z</time>
      </trkpt>
      <trkpt lat="40.24255" lon="20.46477">
        <ele>662.48999023438</ele>
        <time>2024-09-27T12:12:30.000Z</time>
      </trkpt>
      <trkpt lat="40.24251" lon="20.46473">
        <ele>662.01000976562</ele>
        <time>2024-09-27T12:12:31.000Z</time>
      </trkpt>
      <trkpt lat="40.24247" lon="20.46469">
        <ele>661.52001953125</ele>
        <time>2024-09-27T12:12:32.000Z</time>
      </trkpt>
      <trkpt lat="40.24242" lon="20.46468">
        <ele>661.03997802734</ele>
        <time>2024-09-27T12:12:33.000Z</time>
      </trkpt>
      <trkpt lat="40.24236" lon="20.46468">
        <ele>661.03997802734</ele>
        <time>2024-09-27T12:12:34.000Z</time>
      </trkpt>
      <trkpt lat="40.24229" lon="20.4647">
        <ele>661.03997802734</ele>
        <time>2024-09-27T12:12:35.000Z</time>
      </trkpt>
      <trkpt lat="40.24223" lon="20.46475">
        <ele>661.52001953125</ele>
        <time>2024-09-27T12:12:36.000Z</time>
      </trkpt>
      <trkpt lat="40.24212" lon="20.46484">
        <ele>663.45001220703</ele>
        <time>2024-09-27T12:12:38.000Z</time>
      </trkpt>
      <trkpt lat="40.24205" lon="20.46489">
        <ele>664.40997314453</ele>
        <time>2024-09-27T12:12:39.000Z</time>
      </trkpt>
      <trkpt lat="40.24197" lon="20.46492">
        <ele>665.36999511719</ele>
        <time>2024-09-27T12:12:40.000Z</time>
      </trkpt>
      <trkpt lat="40.24191" lon="20.46493">
        <ele>665.36999511719</ele>
        <time>2024-09-27T12:12:41.000Z</time>
      </trkpt>
      <trkpt lat="40.24184" lon="20.46494">
        <ele>666.33001708984</ele>
        <time>2024-09-27T12:12:42.000Z</time>
      </trkpt>
      <trkpt lat="40.24178" lon="20.46495">
        <ele>666.80999755859</ele>
        <time>2024-09-27T12:12:43.000Z</time>
      </trkpt>
      <trkpt lat="40.24172" lon="20.46499">
        <ele>667.77001953125</ele>
        <time>2024-09-27T12:12:44.000Z</time>
      </trkpt>
      <trkpt lat="40.24166" lon="20.46504">
        <ele>668.72998046875</ele>
        <time>2024-09-27T12:12:45.000Z</time>
      </trkpt>
      <trkpt lat="40.24159" lon="20.46511">
        <ele>670.17999267578</ele>
        <time>2024-09-27T12:12:46.000Z</time>
      </trkpt>
      <trkpt lat="40.24155" lon="20.46515">
        <ele>671.14001464844</ele>
        <time>2024-09-27T12:12:47.000Z</time>
      </trkpt>
      <trkpt lat="40.2415" lon="20.4652">
        <ele>672.58001708984</ele>
        <time>2024-09-27T12:12:48.000Z</time>
      </trkpt>
      <trkpt lat="40.24147" lon="20.46526">
        <ele>674.02001953125</ele>
        <time>2024-09-27T12:12:49.000Z</time>
      </trkpt>
      <trkpt lat="40.24144" lon="20.46534">
        <ele>675.46002197266</ele>
        <time>2024-09-27T12:12:50.000Z</time>
      </trkpt>
      <trkpt lat="40.24139" lon="20.46554">
        <ele>677.39001464844</ele>
        <time>2024-09-27T12:12:52.000Z</time>
      </trkpt>
      <trkpt lat="40.24137" lon="20.46561">
        <ele>677.86999511719</ele>
        <time>2024-09-27T12:12:53.000Z</time>
      </trkpt>
      <trkpt lat="40.24133" lon="20.4657">
        <ele>678.34997558594</ele>
        <time>2024-09-27T12:12:54.000Z</time>
      </trkpt>
      <trkpt lat="40.24128" lon="20.4658">
        <ele>679.30999755859</ele>
        <time>2024-09-27T12:12:55.000Z</time>
      </trkpt>
      <trkpt lat="40.24122" lon="20.46587">
        <ele>679.78997802734</ele>
        <time>2024-09-27T12:12:56.000Z</time>
      </trkpt>
      <trkpt lat="40.24117" lon="20.46596">
        <ele>680.27001953125</ele>
        <time>2024-09-27T12:12:57.000Z</time>
      </trkpt>
      <trkpt lat="40.24113" lon="20.46604">
        <ele>680.75</ele>
        <time>2024-09-27T12:12:58.000Z</time>
      </trkpt>
      <trkpt lat="40.24108" lon="20.46613">
        <ele>681.22998046875</ele>
        <time>2024-09-27T12:12:59.000Z</time>
      </trkpt>
      <trkpt lat="40.24103" lon="20.4662">
        <ele>681.71002197266</ele>
        <time>2024-09-27T12:13:00.000Z</time>
      </trkpt>
      <trkpt lat="40.24096" lon="20.46628">
        <ele>681.71002197266</ele>
        <time>2024-09-27T12:13:01.000Z</time>
      </trkpt>
      <trkpt lat="40.24085" lon="20.46639">
        <ele>682.19000244141</ele>
        <time>2024-09-27T12:13:02.000Z</time>
      </trkpt>
      <trkpt lat="40.24083" lon="20.46641">
        <ele>682.66998291016</ele>
        <time>2024-09-27T12:13:03.000Z</time>
      </trkpt>
      <trkpt lat="40.24065" lon="20.46655">
        <ele>683.63000488281</ele>
        <time>2024-09-27T12:13:05.000Z</time>
      </trkpt>
      <trkpt lat="40.24061" lon="20.46658">
        <ele>683.63000488281</ele>
        <time>2024-09-27T12:13:06.000Z</time>
      </trkpt>
      <trkpt lat="40.24055" lon="20.46664">
        <ele>684.11999511719</ele>
        <time>2024-09-27T12:13:07.000Z</time>
      </trkpt>
      <trkpt lat="40.24049" lon="20.46671">
        <ele>684.59997558594</ele>
        <time>2024-09-27T12:13:08.000Z</time>
      </trkpt>
      <trkpt lat="40.24045" lon="20.46679">
        <ele>685.08001708984</ele>
        <time>2024-09-27T12:13:09.000Z</time>
      </trkpt>
      <trkpt lat="40.24042" lon="20.46688">
        <ele>685.55999755859</ele>
        <time>2024-09-27T12:13:10.000Z</time>
      </trkpt>
      <trkpt lat="40.24038" lon="20.46694">
        <ele>686.03997802734</ele>
        <time>2024-09-27T12:13:11.000Z</time>
      </trkpt>
      <trkpt lat="40.24034" lon="20.467">
        <ele>685.55999755859</ele>
        <time>2024-09-27T12:13:12.000Z</time>
      </trkpt>
      <trkpt lat="40.24028" lon="20.46703">
        <ele>686.03997802734</ele>
        <time>2024-09-27T12:13:13.000Z</time>
      </trkpt>
      <trkpt lat="40.24021" lon="20.46705">
        <ele>686.03997802734</ele>
        <time>2024-09-27T12:13:14.000Z</time>
      </trkpt>
      <trkpt lat="40.24012" lon="20.46706">
        <ele>685.55999755859</ele>
        <time>2024-09-27T12:13:15.000Z</time>
      </trkpt>
      <trkpt lat="40.24008" lon="20.46707">
        <ele>685.55999755859</ele>
        <time>2024-09-27T12:13:16.000Z</time>
      </trkpt>
      <trkpt lat="40.24" lon="20.46709">
        <ele>685.55999755859</ele>
        <time>2024-09-27T12:13:17.000Z</time>
      </trkpt>
      <trkpt lat="40.23995" lon="20.46711">
        <ele>685.55999755859</ele>
        <time>2024-09-27T12:13:18.000Z</time>
      </trkpt>
      <trkpt lat="40.2399" lon="20.46715">
        <ele>685.55999755859</ele>
        <time>2024-09-27T12:13:19.000Z</time>
      </trkpt>
      <trkpt lat="40.23987" lon="20.4672">
        <ele>685.55999755859</ele>
        <time>2024-09-27T12:13:20.000Z</time>
      </trkpt>
      <trkpt lat="40.23984" lon="20.46726">
        <ele>685.08001708984</ele>
        <time>2024-09-27T12:13:21.000Z</time>
      </trkpt>
      <trkpt lat="40.23983" lon="20.46732">
        <ele>685.55999755859</ele>
        <time>2024-09-27T12:13:22.000Z</time>
      </trkpt>
      <trkpt lat="40.23982" lon="20.46741">
        <ele>685.55999755859</ele>
        <time>2024-09-27T12:13:23.000Z</time>
      </trkpt>
      <trkpt lat="40.23981" lon="20.46748">
        <ele>685.55999755859</ele>
        <time>2024-09-27T12:13:24.000Z</time>
      </trkpt>
      <trkpt lat="40.23978" lon="20.46756">
        <ele>685.55999755859</ele>
        <time>2024-09-27T12:13:25.000Z</time>
      </trkpt>
      <trkpt lat="40.23974" lon="20.46765">
        <ele>685.55999755859</ele>
        <time>2024-09-27T12:13:26.000Z</time>
      </trkpt>
      <trkpt lat="40.23967" lon="20.46772">
        <ele>685.08001708984</ele>
        <time>2024-09-27T12:13:27.000Z</time>
      </trkpt>
      <trkpt lat="40.23955" lon="20.46783">
        <ele>684.59997558594</ele>
        <time>2024-09-27T12:13:28.000Z</time>
      </trkpt>
      <trkpt lat="40.23953" lon="20.46785">
        <ele>684.59997558594</ele>
        <time>2024-09-27T12:13:29.000Z</time>
      </trkpt>
      <trkpt lat="40.23947" lon="20.46792">
        <ele>684.59997558594</ele>
        <time>2024-09-27T12:13:30.000Z</time>
      </trkpt>
      <trkpt lat="40.23942" lon="20.46798">
        <ele>684.11999511719</ele>
        <time>2024-09-27T12:13:31.000Z</time>
      </trkpt>
      <trkpt lat="40.23938" lon="20.46805">
        <ele>684.11999511719</ele>
        <time>2024-09-27T12:13:32.000Z</time>
      </trkpt>
      <trkpt lat="40.23933" lon="20.46814">
        <ele>684.11999511719</ele>
        <time>2024-09-27T12:13:33.000Z</time>
      </trkpt>
      <trkpt lat="40.23927" lon="20.4682">
        <ele>684.11999511719</ele>
        <time>2024-09-27T12:13:34.000Z</time>
      </trkpt>
      <trkpt lat="40.23919" lon="20.46824">
        <ele>684.59997558594</ele>
        <time>2024-09-27T12:13:35.000Z</time>
      </trkpt>
      <trkpt lat="40.23909" lon="20.46829">
        <ele>685.08001708984</ele>
        <time>2024-09-27T12:13:36.000Z</time>
      </trkpt>
      <trkpt lat="40.23904" lon="20.46832">
        <ele>685.55999755859</ele>
        <time>2024-09-27T12:13:37.000Z</time>
      </trkpt>
      <trkpt lat="40.23894" lon="20.46838">
        <ele>686.03997802734</ele>
        <time>2024-09-27T12:13:38.000Z</time>
      </trkpt>
      <trkpt lat="40.23889" lon="20.46841">
        <ele>686.03997802734</ele>
        <time>2024-09-27T12:13:39.000Z</time>
      </trkpt>
      <trkpt lat="40.2388" lon="20.46848">
        <ele>686.03997802734</ele>
        <time>2024-09-27T12:13:40.000Z</time>
      </trkpt>
      <trkpt lat="40.23876" lon="20.46852">
        <ele>685.55999755859</ele>
        <time>2024-09-27T12:13:41.000Z</time>
      </trkpt>
      <trkpt lat="40.23871" lon="20.46857">
        <ele>685.55999755859</ele>
        <time>2024-09-27T12:13:42.000Z</time>
      </trkpt>
      <trkpt lat="40.23867" lon="20.46864">
        <ele>685.55999755859</ele>
        <time>2024-09-27T12:13:43.000Z</time>
      </trkpt>
      <trkpt lat="40.23862" lon="20.46871">
        <ele>685.55999755859</ele>
        <time>2024-09-27T12:13:44.000Z</time>
      </trkpt>
      <trkpt lat="40.23859" lon="20.46879">
        <ele>686.03997802734</ele>
        <time>2024-09-27T12:13:45.000Z</time>
      </trkpt>
      <trkpt lat="40.23855" lon="20.46891">
        <ele>687.47998046875</ele>
        <time>2024-09-27T12:13:46.000Z</time>
      </trkpt>
      <trkpt lat="40.23853" lon="20.46896">
        <ele>687.47998046875</ele>
        <time>2024-09-27T12:13:47.000Z</time>
      </trkpt>
      <trkpt lat="40.23849" lon="20.46904">
        <ele>687.96002197266</ele>
        <time>2024-09-27T12:13:48.000Z</time>
      </trkpt>
      <trkpt lat="40.23846" lon="20.46909">
        <ele>687.96002197266</ele>
        <time>2024-09-27T12:13:49.000Z</time>
      </trkpt>
      <trkpt lat="40.23843" lon="20.46915">
        <ele>687.96002197266</ele>
        <time>2024-09-27T12:13:50.000Z</time>
      </trkpt>
      <trkpt lat="40.23841" lon="20.46921">
        <ele>687.96002197266</ele>
        <time>2024-09-27T12:13:51.000Z</time>
      </trkpt>
      <trkpt lat="40.23841" lon="20.46928">
        <ele>688.44000244141</ele>
        <time>2024-09-27T12:13:52.000Z</time>
      </trkpt>
      <trkpt lat="40.2384" lon="20.46937">
        <ele>688.44000244141</ele>
        <time>2024-09-27T12:13:53.000Z</time>
      </trkpt>
      <trkpt lat="40.23838" lon="20.46945">
        <ele>688.44000244141</ele>
        <time>2024-09-27T12:13:54.000Z</time>
      </trkpt>
      <trkpt lat="40.23836" lon="20.46962">
        <ele>688.44000244141</ele>
        <time>2024-09-27T12:13:55.000Z</time>
      </trkpt>
      <trkpt lat="40.23835" lon="20.46967">
        <ele>688.44000244141</ele>
        <time>2024-09-27T12:13:56.000Z</time>
      </trkpt>
      <trkpt lat="40.23834" lon="20.46978">
        <ele>689.40002441406</ele>
        <time>2024-09-27T12:13:57.000Z</time>
      </trkpt>
      <trkpt lat="40.23833" lon="20.46986">
        <ele>690.35998535156</ele>
        <time>2024-09-27T12:13:58.000Z</time>
      </trkpt>
      <trkpt lat="40.23832" lon="20.46994">
        <ele>690.84002685547</ele>
        <time>2024-09-27T12:13:59.000Z</time>
      </trkpt>
      <trkpt lat="40.23833" lon="20.47001">
        <ele>691.33001708984</ele>
        <time>2024-09-27T12:14:00.000Z</time>
      </trkpt>
      <trkpt lat="40.23833" lon="20.47007">
        <ele>691.33001708984</ele>
        <time>2024-09-27T12:14:01.000Z</time>
      </trkpt>
      <trkpt lat="40.23834" lon="20.47015">
        <ele>691.33001708984</ele>
        <time>2024-09-27T12:14:02.000Z</time>
      </trkpt>
      <trkpt lat="40.23835" lon="20.47024">
        <ele>691.33001708984</ele>
        <time>2024-09-27T12:14:03.000Z</time>
      </trkpt>
      <trkpt lat="40.23835" lon="20.47031">
        <ele>691.80999755859</ele>
        <time>2024-09-27T12:14:04.000Z</time>
      </trkpt>
      <trkpt lat="40.23834" lon="20.47039">
        <ele>691.80999755859</ele>
        <time>2024-09-27T12:14:05.000Z</time>
      </trkpt>
      <trkpt lat="40.23833" lon="20.47045">
        <ele>692.28997802734</ele>
        <time>2024-09-27T12:14:06.000Z</time>
      </trkpt>
      <trkpt lat="40.23831" lon="20.47052">
        <ele>692.77001953125</ele>
        <time>2024-09-27T12:14:07.000Z</time>
      </trkpt>
      <trkpt lat="40.23829" lon="20.47057">
        <ele>693.25</ele>
        <time>2024-09-27T12:14:08.000Z</time>
      </trkpt>
      <trkpt lat="40.23828" lon="20.47064">
        <ele>693.72998046875</ele>
        <time>2024-09-27T12:14:09.000Z</time>
      </trkpt>
      <trkpt lat="40.23834" lon="20.47087">
        <ele>695.65002441406</ele>
        <time>2024-09-27T12:14:16.000Z</time>
      </trkpt>
      <trkpt lat="40.23835" lon="20.47092">
        <ele>696.13000488281</ele>
        <time>2024-09-27T12:14:32.000Z</time>
      </trkpt>
      <trkpt lat="40.23835" lon="20.47092">
        <ele>695.65002441406</ele>
        <time>2024-09-27T12:16:00.000Z</time>
      </trkpt>
      <trkpt lat="40.23834" lon="20.47094">
        <ele>695.16998291016</ele>
        <time>2024-09-27T12:16:10.000Z</time>
      </trkpt>
      <trkpt lat="40.23833" lon="20.47103">
        <ele>695.16998291016</ele>
        <time>2024-09-27T12:16:13.000Z</time>
      </trkpt>
      <trkpt lat="40.23832" lon="20.47107">
        <ele>695.16998291016</ele>
        <time>2024-09-27T12:16:14.000Z</time>
      </trkpt>
      <trkpt lat="40.23832" lon="20.47112">
        <ele>695.16998291016</ele>
        <time>2024-09-27T12:16:15.000Z</time>
      </trkpt>
      <trkpt lat="40.23831" lon="20.47118">
        <ele>694.69000244141</ele>
        <time>2024-09-27T12:16:16.000Z</time>
      </trkpt>
      <trkpt lat="40.2383" lon="20.47126">
        <ele>694.21002197266</ele>
        <time>2024-09-27T12:16:17.000Z</time>
      </trkpt>
      <trkpt lat="40.23829" lon="20.47129">
        <ele>694.21002197266</ele>
        <time>2024-09-27T12:16:18.000Z</time>
      </trkpt>
      <trkpt lat="40.23827" lon="20.47141">
        <ele>693.72998046875</ele>
        <time>2024-09-27T12:16:19.000Z</time>
      </trkpt>
      <trkpt lat="40.23827" lon="20.47144">
        <ele>693.72998046875</ele>
        <time>2024-09-27T12:16:20.000Z</time>
      </trkpt>
      <trkpt lat="40.23826" lon="20.47152">
        <ele>693.72998046875</ele>
        <time>2024-09-27T12:16:21.000Z</time>
      </trkpt>
      <trkpt lat="40.23827" lon="20.47169">
        <ele>694.21002197266</ele>
        <time>2024-09-27T12:16:23.000Z</time>
      </trkpt>
      <trkpt lat="40.23827" lon="20.47179">
        <ele>694.21002197266</ele>
        <time>2024-09-27T12:16:24.000Z</time>
      </trkpt>
      <trkpt lat="40.23828" lon="20.47185">
        <ele>694.69000244141</ele>
        <time>2024-09-27T12:16:25.000Z</time>
      </trkpt>
      <trkpt lat="40.2383" lon="20.47192">
        <ele>695.65002441406</ele>
        <time>2024-09-27T12:16:26.000Z</time>
      </trkpt>
      <trkpt lat="40.23832" lon="20.47198">
        <ele>696.13000488281</ele>
        <time>2024-09-27T12:16:27.000Z</time>
      </trkpt>
      <trkpt lat="40.23834" lon="20.47204">
        <ele>696.13000488281</ele>
        <time>2024-09-27T12:16:28.000Z</time>
      </trkpt>
      <trkpt lat="40.23835" lon="20.4721">
        <ele>695.65002441406</ele>
        <time>2024-09-27T12:16:29.000Z</time>
      </trkpt>
      <trkpt lat="40.23835" lon="20.47216">
        <ele>694.69000244141</ele>
        <time>2024-09-27T12:16:30.000Z</time>
      </trkpt>
      <trkpt lat="40.23835" lon="20.47222">
        <ele>694.21002197266</ele>
        <time>2024-09-27T12:16:31.000Z</time>
      </trkpt>
      <trkpt lat="40.23836" lon="20.47228">
        <ele>693.72998046875</ele>
        <time>2024-09-27T12:16:32.000Z</time>
      </trkpt>
      <trkpt lat="40.23837" lon="20.47234">
        <ele>693.25</ele>
        <time>2024-09-27T12:16:33.000Z</time>
      </trkpt>
      <trkpt lat="40.2384" lon="20.47239">
        <ele>692.77001953125</ele>
        <time>2024-09-27T12:16:34.000Z</time>
      </trkpt>
      <trkpt lat="40.23843" lon="20.47243">
        <ele>691.80999755859</ele>
        <time>2024-09-27T12:16:35.000Z</time>
      </trkpt>
      <trkpt lat="40.23846" lon="20.47247">
        <ele>691.80999755859</ele>
        <time>2024-09-27T12:16:36.000Z</time>
      </trkpt>
      <trkpt lat="40.23848" lon="20.47251">
        <ele>691.33001708984</ele>
        <time>2024-09-27T12:16:37.000Z</time>
      </trkpt>
      <trkpt lat="40.23848" lon="20.47258">
        <ele>690.84002685547</ele>
        <time>2024-09-27T12:16:38.000Z</time>
      </trkpt>
      <trkpt lat="40.23847" lon="20.47263">
        <ele>690.84002685547</ele>
        <time>2024-09-27T12:16:39.000Z</time>
      </trkpt>
      <trkpt lat="40.23845" lon="20.47268">
        <ele>690.84002685547</ele>
        <time>2024-09-27T12:16:40.000Z</time>
      </trkpt>
      <trkpt lat="40.23844" lon="20.47274">
        <ele>690.84002685547</ele>
        <time>2024-09-27T12:16:41.000Z</time>
      </trkpt>
      <trkpt lat="40.23843" lon="20.4728">
        <ele>691.80999755859</ele>
        <time>2024-09-27T12:16:42.000Z</time>
      </trkpt>
      <trkpt lat="40.23844" lon="20.47296">
        <ele>692.28997802734</ele>
        <time>2024-09-27T12:16:45.000Z</time>
      </trkpt>
      <trkpt lat="40.23836" lon="20.47317">
        <ele>689.88000488281</ele>
        <time>2024-09-27T12:16:51.000Z</time>
      </trkpt>
      <trkpt lat="40.23831" lon="20.47314">
        <ele>689.40002441406</ele>
        <time>2024-09-27T12:16:53.000Z</time>
      </trkpt>
      <trkpt lat="40.23827" lon="20.4731">
        <ele>688.91998291016</ele>
        <time>2024-09-27T12:16:54.000Z</time>
      </trkpt>
      <trkpt lat="40.23824" lon="20.47307">
        <ele>689.40002441406</ele>
        <time>2024-09-27T12:16:55.000Z</time>
      </trkpt>
      <trkpt lat="40.23818" lon="20.47303">
        <ele>689.88000488281</ele>
        <time>2024-09-27T12:16:56.000Z</time>
      </trkpt>
      <trkpt lat="40.23816" lon="20.473">
        <ele>690.35998535156</ele>
        <time>2024-09-27T12:16:57.000Z</time>
      </trkpt>
      <trkpt lat="40.23813" lon="20.47298">
        <ele>691.33001708984</ele>
        <time>2024-09-27T12:16:58.000Z</time>
      </trkpt>
      <trkpt lat="40.23808" lon="20.47292">
        <ele>692.77001953125</ele>
        <time>2024-09-27T12:16:59.000Z</time>
      </trkpt>
      <trkpt lat="40.23805" lon="20.47289">
        <ele>693.25</ele>
        <time>2024-09-27T12:17:00.000Z</time>
      </trkpt>
      <trkpt lat="40.23803" lon="20.47286">
        <ele>693.72998046875</ele>
        <time>2024-09-27T12:17:01.000Z</time>
      </trkpt>
      <trkpt lat="40.238" lon="20.4728">
        <ele>694.69000244141</ele>
        <time>2024-09-27T12:17:02.000Z</time>
      </trkpt>
      <trkpt lat="40.23797" lon="20.47275">
        <ele>695.65002441406</ele>
        <time>2024-09-27T12:17:03.000Z</time>
      </trkpt>
      <trkpt lat="40.23794" lon="20.4727">
        <ele>696.60998535156</ele>
        <time>2024-09-27T12:17:04.000Z</time>
      </trkpt>
      <trkpt lat="40.23791" lon="20.47265">
        <ele>697.09002685547</ele>
        <time>2024-09-27T12:17:05.000Z</time>
      </trkpt>
      <trkpt lat="40.23788" lon="20.47261">
        <ele>698.04998779297</ele>
        <time>2024-09-27T12:17:06.000Z</time>
      </trkpt>
      <trkpt lat="40.23785" lon="20.47259">
        <ele>699.02001953125</ele>
        <time>2024-09-27T12:17:07.000Z</time>
      </trkpt>
      <trkpt lat="40.2378" lon="20.47255">
        <ele>699.5</ele>
        <time>2024-09-27T12:17:08.000Z</time>
      </trkpt>
      <trkpt lat="40.23775" lon="20.47251">
        <ele>699.97998046875</ele>
        <time>2024-09-27T12:17:09.000Z</time>
      </trkpt>
      <trkpt lat="40.23771" lon="20.47247">
        <ele>700.94000244141</ele>
        <time>2024-09-27T12:17:10.000Z</time>
      </trkpt>
      <trkpt lat="40.23767" lon="20.47242">
        <ele>702.38000488281</ele>
        <time>2024-09-27T12:17:11.000Z</time>
      </trkpt>
      <trkpt lat="40.23763" lon="20.47239">
        <ele>703.82000732422</ele>
        <time>2024-09-27T12:17:12.000Z</time>
      </trkpt>
      <trkpt lat="40.23759" lon="20.47236">
        <ele>705.26000976562</ele>
        <time>2024-09-27T12:17:13.000Z</time>
      </trkpt>
      <trkpt lat="40.23756" lon="20.47233">
        <ele>706.22998046875</ele>
        <time>2024-09-27T12:17:14.000Z</time>
      </trkpt>
      <trkpt lat="40.23751" lon="20.47231">
        <ele>706.71002197266</ele>
        <time>2024-09-27T12:17:15.000Z</time>
      </trkpt>
      <trkpt lat="40.23746" lon="20.47231">
        <ele>707.19000244141</ele>
        <time>2024-09-27T12:17:16.000Z</time>
      </trkpt>
      <trkpt lat="40.23742" lon="20.47231">
        <ele>707.19000244141</ele>
        <time>2024-09-27T12:17:17.000Z</time>
      </trkpt>
      <trkpt lat="40.23737" lon="20.47231">
        <ele>707.66998291016</ele>
        <time>2024-09-27T12:17:18.000Z</time>
      </trkpt>
      <trkpt lat="40.23732" lon="20.47229">
        <ele>707.66998291016</ele>
        <time>2024-09-27T12:17:19.000Z</time>
      </trkpt>
      <trkpt lat="40.23727" lon="20.47226">
        <ele>707.66998291016</ele>
        <time>2024-09-27T12:17:20.000Z</time>
      </trkpt>
      <trkpt lat="40.23722" lon="20.4722">
        <ele>708.15002441406</ele>
        <time>2024-09-27T12:17:21.000Z</time>
      </trkpt>
      <trkpt lat="40.2372" lon="20.47218">
        <ele>708.63000488281</ele>
        <time>2024-09-27T12:17:22.000Z</time>
      </trkpt>
      <trkpt lat="40.23718" lon="20.47213">
        <ele>709.10998535156</ele>
        <time>2024-09-27T12:17:23.000Z</time>
      </trkpt>
      <trkpt lat="40.23716" lon="20.47203">
        <ele>709.10998535156</ele>
        <time>2024-09-27T12:17:24.000Z</time>
      </trkpt>
      <trkpt lat="40.23716" lon="20.47202">
        <ele>709.10998535156</ele>
        <time>2024-09-27T12:17:25.000Z</time>
      </trkpt>
      <trkpt lat="40.23716" lon="20.47197">
        <ele>709.59002685547</ele>
        <time>2024-09-27T12:17:26.000Z</time>
      </trkpt>
      <trkpt lat="40.23718" lon="20.47188">
        <ele>710.54998779297</ele>
        <time>2024-09-27T12:17:27.000Z</time>
      </trkpt>
      <trkpt lat="40.23719" lon="20.47184">
        <ele>711.03002929688</ele>
        <time>2024-09-27T12:17:28.000Z</time>
      </trkpt>
      <trkpt lat="40.23719" lon="20.47178">
        <ele>711.98999023438</ele>
        <time>2024-09-27T12:17:29.000Z</time>
      </trkpt>
      <trkpt lat="40.23718" lon="20.47172">
        <ele>712.95001220703</ele>
        <time>2024-09-27T12:17:30.000Z</time>
      </trkpt>
      <trkpt lat="40.23717" lon="20.47165">
        <ele>713.91998291016</ele>
        <time>2024-09-27T12:17:31.000Z</time>
      </trkpt>
      <trkpt lat="40.23717" lon="20.47159">
        <ele>714.40002441406</ele>
        <time>2024-09-27T12:17:32.000Z</time>
      </trkpt>
      <trkpt lat="40.23717" lon="20.47152">
        <ele>715.35998535156</ele>
        <time>2024-09-27T12:17:33.000Z</time>
      </trkpt>
      <trkpt lat="40.23716" lon="20.47145">
        <ele>715.35998535156</ele>
        <time>2024-09-27T12:17:34.000Z</time>
      </trkpt>
      <trkpt lat="40.23714" lon="20.47138">
        <ele>715.84002685547</ele>
        <time>2024-09-27T12:17:35.000Z</time>
      </trkpt>
      <trkpt lat="40.23712" lon="20.47132">
        <ele>716.32000732422</ele>
        <time>2024-09-27T12:17:36.000Z</time>
      </trkpt>
      <trkpt lat="40.23708" lon="20.47127">
        <ele>717.28002929688</ele>
        <time>2024-09-27T12:17:37.000Z</time>
      </trkpt>
      <trkpt lat="40.23688" lon="20.47119">
        <ele>719.67999267578</ele>
        <time>2024-09-27T12:17:43.000Z</time>
      </trkpt>
      <trkpt lat="40.23688" lon="20.47132">
        <ele>720.15997314453</ele>
        <time>2024-09-27T12:17:49.000Z</time>
      </trkpt>
      <trkpt lat="40.23687" lon="20.47134">
        <ele>721.60998535156</ele>
        <time>2024-09-27T12:20:41.000Z</time>
      </trkpt>
      <trkpt lat="40.23685" lon="20.47121">
        <ele>722.57000732422</ele>
        <time>2024-09-27T12:29:17.000Z</time>
      </trkpt>
      <trkpt lat="40.23689" lon="20.47134">
        <ele>723.53002929688</ele>
        <time>2024-09-27T12:29:23.000Z</time>
      </trkpt>
      <trkpt lat="40.23689" lon="20.47136">
        <ele>721.60998535156</ele>
        <time>2024-09-27T12:33:34.000Z</time>
      </trkpt>
      <trkpt lat="40.23689" lon="20.47137">
        <ele>721.60998535156</ele>
        <time>2024-09-27T12:33:35.000Z</time>
      </trkpt>
      <trkpt lat="40.23691" lon="20.47143">
        <ele>721.60998535156</ele>
        <time>2024-09-27T12:33:36.000Z</time>
      </trkpt>
      <trkpt lat="40.23691" lon="20.47144">
        <ele>721.60998535156</ele>
        <time>2024-09-27T12:33:37.000Z</time>
      </trkpt>
      <trkpt lat="40.23693" lon="20.4715">
        <ele>721.13000488281</ele>
        <time>2024-09-27T12:33:38.000Z</time>
      </trkpt>
      <trkpt lat="40.23694" lon="20.47157">
        <ele>721.60998535156</ele>
        <time>2024-09-27T12:33:39.000Z</time>
      </trkpt>
      <trkpt lat="40.23693" lon="20.47164">
        <ele>721.60998535156</ele>
        <time>2024-09-27T12:33:40.000Z</time>
      </trkpt>
      <trkpt lat="40.23689" lon="20.47174">
        <ele>722.09002685547</ele>
        <time>2024-09-27T12:33:41.000Z</time>
      </trkpt>
      <trkpt lat="40.23687" lon="20.47178">
        <ele>722.09002685547</ele>
        <time>2024-09-27T12:33:42.000Z</time>
      </trkpt>
      <trkpt lat="40.23683" lon="20.47184">
        <ele>722.57000732422</ele>
        <time>2024-09-27T12:33:43.000Z</time>
      </trkpt>
      <trkpt lat="40.2368" lon="20.47189">
        <ele>723.53002929688</ele>
        <time>2024-09-27T12:33:44.000Z</time>
      </trkpt>
      <trkpt lat="40.23673" lon="20.47204">
        <ele>726.40997314453</ele>
        <time>2024-09-27T12:33:47.000Z</time>
      </trkpt>
      <trkpt lat="40.23673" lon="20.47205">
        <ele>726.40997314453</ele>
        <time>2024-09-27T12:33:48.000Z</time>
      </trkpt>
      <trkpt lat="40.23675" lon="20.47211">
        <ele>726.89001464844</ele>
        <time>2024-09-27T12:33:49.000Z</time>
      </trkpt>
      <trkpt lat="40.23677" lon="20.47217">
        <ele>727.36999511719</ele>
        <time>2024-09-27T12:33:50.000Z</time>
      </trkpt>
      <trkpt lat="40.23681" lon="20.47225">
        <ele>727.85998535156</ele>
        <time>2024-09-27T12:33:51.000Z</time>
      </trkpt>
      <trkpt lat="40.23685" lon="20.47232">
        <ele>729.29998779297</ele>
        <time>2024-09-27T12:33:52.000Z</time>
      </trkpt>
      <trkpt lat="40.23688" lon="20.47239">
        <ele>729.78002929688</ele>
        <time>2024-09-27T12:33:53.000Z</time>
      </trkpt>
      <trkpt lat="40.23692" lon="20.47246">
        <ele>730.73999023438</ele>
        <time>2024-09-27T12:33:54.000Z</time>
      </trkpt>
      <trkpt lat="40.23696" lon="20.47251">
        <ele>731.70001220703</ele>
        <time>2024-09-27T12:33:55.000Z</time>
      </trkpt>
      <trkpt lat="40.23698" lon="20.47257">
        <ele>732.65997314453</ele>
        <time>2024-09-27T12:33:56.000Z</time>
      </trkpt>
      <trkpt lat="40.23695" lon="20.47269">
        <ele>735.07000732422</ele>
        <time>2024-09-27T12:33:59.000Z</time>
      </trkpt>
      <trkpt lat="40.2369" lon="20.47269">
        <ele>735.54998779297</ele>
        <time>2024-09-27T12:34:00.000Z</time>
      </trkpt>
      <trkpt lat="40.23687" lon="20.47266">
        <ele>735.54998779297</ele>
        <time>2024-09-27T12:34:01.000Z</time>
      </trkpt>
      <trkpt lat="40.23683" lon="20.47261">
        <ele>735.54998779297</ele>
        <time>2024-09-27T12:34:02.000Z</time>
      </trkpt>
      <trkpt lat="40.2368" lon="20.47256">
        <ele>735.54998779297</ele>
        <time>2024-09-27T12:34:03.000Z</time>
      </trkpt>
      <trkpt lat="40.23677" lon="20.47252">
        <ele>735.54998779297</ele>
        <time>2024-09-27T12:34:04.000Z</time>
      </trkpt>
      <trkpt lat="40.23673" lon="20.47247">
        <ele>735.54998779297</ele>
        <time>2024-09-27T12:34:05.000Z</time>
      </trkpt>
      <trkpt lat="40.2367" lon="20.47244">
        <ele>735.54998779297</ele>
        <time>2024-09-27T12:34:06.000Z</time>
      </trkpt>
      <trkpt lat="40.23666" lon="20.4724">
        <ele>735.54998779297</ele>
        <time>2024-09-27T12:34:07.000Z</time>
      </trkpt>
      <trkpt lat="40.23664" lon="20.47237">
        <ele>735.54998779297</ele>
        <time>2024-09-27T12:34:08.000Z</time>
      </trkpt>
      <trkpt lat="40.23661" lon="20.47233">
        <ele>736.03002929688</ele>
        <time>2024-09-27T12:34:09.000Z</time>
      </trkpt>
      <trkpt lat="40.23658" lon="20.47228">
        <ele>736.51000976562</ele>
        <time>2024-09-27T12:34:10.000Z</time>
      </trkpt>
      <trkpt lat="40.23654" lon="20.47221">
        <ele>737.46997070312</ele>
        <time>2024-09-27T12:34:11.000Z</time>
      </trkpt>
      <trkpt lat="40.23651" lon="20.47215">
        <ele>737.95001220703</ele>
        <time>2024-09-27T12:34:12.000Z</time>
      </trkpt>
      <trkpt lat="40.23647" lon="20.47207">
        <ele>738.90997314453</ele>
        <time>2024-09-27T12:34:13.000Z</time>
      </trkpt>
      <trkpt lat="40.23646" lon="20.47204">
        <ele>739.39001464844</ele>
        <time>2024-09-27T12:34:14.000Z</time>
      </trkpt>
      <trkpt lat="40.23643" lon="20.47198">
        <ele>740.34997558594</ele>
        <time>2024-09-27T12:34:15.000Z</time>
      </trkpt>
      <trkpt lat="40.23641" lon="20.47192">
        <ele>741.30999755859</ele>
        <time>2024-09-27T12:34:16.000Z</time>
      </trkpt>
      <trkpt lat="40.23638" lon="20.47188">
        <ele>741.78997802734</ele>
        <time>2024-09-27T12:34:17.000Z</time>
      </trkpt>
      <trkpt lat="40.23633" lon="20.4718">
        <ele>743.23999023438</ele>
        <time>2024-09-27T12:34:18.000Z</time>
      </trkpt>
      <trkpt lat="40.23631" lon="20.47175">
        <ele>743.71997070312</ele>
        <time>2024-09-27T12:34:19.000Z</time>
      </trkpt>
      <trkpt lat="40.23626" lon="20.47169">
        <ele>744.20001220703</ele>
        <time>2024-09-27T12:34:20.000Z</time>
      </trkpt>
      <trkpt lat="40.23618" lon="20.47159">
        <ele>745.15997314453</ele>
        <time>2024-09-27T12:34:26.000Z</time>
      </trkpt>
      <trkpt lat="40.23613" lon="20.47155">
        <ele>745.64001464844</ele>
        <time>2024-09-27T12:35:53.000Z</time>
      </trkpt>
      <trkpt lat="40.23611" lon="20.47152">
        <ele>746.11999511719</ele>
        <time>2024-09-27T12:35:54.000Z</time>
      </trkpt>
      <trkpt lat="40.23608" lon="20.47149">
        <ele>747.08001708984</ele>
        <time>2024-09-27T12:35:55.000Z</time>
      </trkpt>
      <trkpt lat="40.23606" lon="20.47146">
        <ele>747.08001708984</ele>
        <time>2024-09-27T12:35:56.000Z</time>
      </trkpt>
      <trkpt lat="40.23603" lon="20.47141">
        <ele>748.03997802734</ele>
        <time>2024-09-27T12:35:57.000Z</time>
      </trkpt>
      <trkpt lat="40.236" lon="20.47136">
        <ele>749</ele>
        <time>2024-09-27T12:35:58.000Z</time>
      </trkpt>
      <trkpt lat="40.23596" lon="20.4713">
        <ele>749.96997070312</ele>
        <time>2024-09-27T12:35:59.000Z</time>
      </trkpt>
      <trkpt lat="40.23593" lon="20.47125">
        <ele>750.92999267578</ele>
        <time>2024-09-27T12:36:00.000Z</time>
      </trkpt>
      <trkpt lat="40.23589" lon="20.4712">
        <ele>751.89001464844</ele>
        <time>2024-09-27T12:36:01.000Z</time>
      </trkpt>
      <trkpt lat="40.23585" lon="20.47118">
        <ele>752.84997558594</ele>
        <time>2024-09-27T12:36:02.000Z</time>
      </trkpt>
      <trkpt lat="40.23581" lon="20.47117">
        <ele>753.33001708984</ele>
        <time>2024-09-27T12:36:03.000Z</time>
      </trkpt>
      <trkpt lat="40.23578" lon="20.47119">
        <ele>754.77001953125</ele>
        <time>2024-09-27T12:36:04.000Z</time>
      </trkpt>
      <trkpt lat="40.23575" lon="20.47124">
        <ele>755.72998046875</ele>
        <time>2024-09-27T12:36:05.000Z</time>
      </trkpt>
      <trkpt lat="40.23574" lon="20.4713">
        <ele>756.21002197266</ele>
        <time>2024-09-27T12:36:06.000Z</time>
      </trkpt>
      <trkpt lat="40.23573" lon="20.47136">
        <ele>756.69000244141</ele>
        <time>2024-09-27T12:36:07.000Z</time>
      </trkpt>
      <trkpt lat="40.23573" lon="20.47142">
        <ele>757.17999267578</ele>
        <time>2024-09-27T12:36:08.000Z</time>
      </trkpt>
      <trkpt lat="40.23574" lon="20.47149">
        <ele>757.65997314453</ele>
        <time>2024-09-27T12:36:09.000Z</time>
      </trkpt>
      <trkpt lat="40.23576" lon="20.4716">
        <ele>758.14001464844</ele>
        <time>2024-09-27T12:36:10.000Z</time>
      </trkpt>
      <trkpt lat="40.23578" lon="20.47166">
        <ele>758.61999511719</ele>
        <time>2024-09-27T12:36:11.000Z</time>
      </trkpt>
      <trkpt lat="40.2358" lon="20.47175">
        <ele>759.09997558594</ele>
        <time>2024-09-27T12:36:12.000Z</time>
      </trkpt>
      <trkpt lat="40.23582" lon="20.47181">
        <ele>759.58001708984</ele>
        <time>2024-09-27T12:36:13.000Z</time>
      </trkpt>
      <trkpt lat="40.23584" lon="20.47187">
        <ele>760.05999755859</ele>
        <time>2024-09-27T12:36:14.000Z</time>
      </trkpt>
      <trkpt lat="40.23586" lon="20.47193">
        <ele>761.02001953125</ele>
        <time>2024-09-27T12:36:15.000Z</time>
      </trkpt>
      <trkpt lat="40.2359" lon="20.47202">
        <ele>761.97998046875</ele>
        <time>2024-09-27T12:36:16.000Z</time>
      </trkpt>
      <trkpt lat="40.23593" lon="20.47208">
        <ele>762.46002197266</ele>
        <time>2024-09-27T12:36:18.000Z</time>
      </trkpt>
      <trkpt lat="40.23596" lon="20.47214">
        <ele>763.41998291016</ele>
        <time>2024-09-27T12:36:19.000Z</time>
      </trkpt>
      <trkpt lat="40.23599" lon="20.47219">
        <ele>764.39001464844</ele>
        <time>2024-09-27T12:36:20.000Z</time>
      </trkpt>
      <trkpt lat="40.23602" lon="20.47228">
        <ele>765.34997558594</ele>
        <time>2024-09-27T12:36:21.000Z</time>
      </trkpt>
      <trkpt lat="40.23605" lon="20.47234">
        <ele>765.83001708984</ele>
        <time>2024-09-27T12:36:22.000Z</time>
      </trkpt>
      <trkpt lat="40.23608" lon="20.47241">
        <ele>766.78997802734</ele>
        <time>2024-09-27T12:36:23.000Z</time>
      </trkpt>
      <trkpt lat="40.23611" lon="20.47246">
        <ele>767.27001953125</ele>
        <time>2024-09-27T12:36:24.000Z</time>
      </trkpt>
      <trkpt lat="40.23613" lon="20.47253">
        <ele>767.27001953125</ele>
        <time>2024-09-27T12:36:25.000Z</time>
      </trkpt>
      <trkpt lat="40.23614" lon="20.4726">
        <ele>767.75</ele>
        <time>2024-09-27T12:36:26.000Z</time>
      </trkpt>
      <trkpt lat="40.23615" lon="20.47268">
        <ele>768.22998046875</ele>
        <time>2024-09-27T12:36:27.000Z</time>
      </trkpt>
      <trkpt lat="40.23615" lon="20.47273">
        <ele>768.22998046875</ele>
        <time>2024-09-27T12:36:28.000Z</time>
      </trkpt>
      <trkpt lat="40.23614" lon="20.4728">
        <ele>768.71002197266</ele>
        <time>2024-09-27T12:36:29.000Z</time>
      </trkpt>
      <trkpt lat="40.23613" lon="20.47287">
        <ele>769.66998291016</ele>
        <time>2024-09-27T12:36:30.000Z</time>
      </trkpt>
      <trkpt lat="40.2361" lon="20.47293">
        <ele>770.63000488281</ele>
        <time>2024-09-27T12:36:31.000Z</time>
      </trkpt>
      <trkpt lat="40.23605" lon="20.47297">
        <ele>771.59997558594</ele>
        <time>2024-09-27T12:36:32.000Z</time>
      </trkpt>
      <trkpt lat="40.236" lon="20.47298">
        <ele>772.55999755859</ele>
        <time>2024-09-27T12:36:33.000Z</time>
      </trkpt>
      <trkpt lat="40.23595" lon="20.47297">
        <ele>773.52001953125</ele>
        <time>2024-09-27T12:36:34.000Z</time>
      </trkpt>
      <trkpt lat="40.2359" lon="20.47295">
        <ele>774.96002197266</ele>
        <time>2024-09-27T12:36:35.000Z</time>
      </trkpt>
      <trkpt lat="40.23584" lon="20.47289">
        <ele>776.40002441406</ele>
        <time>2024-09-27T12:36:36.000Z</time>
      </trkpt>
      <trkpt lat="40.23581" lon="20.47286">
        <ele>776.40002441406</ele>
        <time>2024-09-27T12:36:37.000Z</time>
      </trkpt>
      <trkpt lat="40.23576" lon="20.4728">
        <ele>777.84002685547</ele>
        <time>2024-09-27T12:36:38.000Z</time>
      </trkpt>
      <trkpt lat="40.23572" lon="20.47274">
        <ele>778.80999755859</ele>
        <time>2024-09-27T12:36:39.000Z</time>
      </trkpt>
      <trkpt lat="40.23569" lon="20.47268">
        <ele>779.77001953125</ele>
        <time>2024-09-27T12:36:40.000Z</time>
      </trkpt>
      <trkpt lat="40.23566" lon="20.47258">
        <ele>781.21002197266</ele>
        <time>2024-09-27T12:36:41.000Z</time>
      </trkpt>
      <trkpt lat="40.23565" lon="20.47255">
        <ele>781.69000244141</ele>
        <time>2024-09-27T12:36:42.000Z</time>
      </trkpt>
      <trkpt lat="40.23563" lon="20.47251">
        <ele>780.25</ele>
        <time>2024-09-27T12:36:48.000Z</time>
      </trkpt>
      <trkpt lat="40.23563" lon="20.47251">
        <ele>780.72998046875</ele>
        <time>2024-09-27T12:38:51.000Z</time>
      </trkpt>
      <trkpt lat="40.23561" lon="20.47246">
        <ele>781.69000244141</ele>
        <time>2024-09-27T12:38:52.000Z</time>
      </trkpt>
      <trkpt lat="40.23561" lon="20.47245">
        <ele>781.69000244141</ele>
        <time>2024-09-27T12:38:53.000Z</time>
      </trkpt>
      <trkpt lat="40.2356" lon="20.4724">
        <ele>782.16998291016</ele>
        <time>2024-09-27T12:38:54.000Z</time>
      </trkpt>
      <trkpt lat="40.2354" lon="20.4721">
        <ele>786.97998046875</ele>
        <time>2024-09-27T12:39:02.000Z</time>
      </trkpt>
      <trkpt lat="40.23523" lon="20.47173">
        <ele>792.26000976562</ele>
        <time>2024-09-27T12:39:12.000Z</time>
      </trkpt>
      <trkpt lat="40.23522" lon="20.47171">
        <ele>792.26000976562</ele>
        <time>2024-09-27T12:39:13.000Z</time>
      </trkpt>
      <trkpt lat="40.23518" lon="20.47164">
        <ele>793.21997070312</ele>
        <time>2024-09-27T12:39:14.000Z</time>
      </trkpt>
      <trkpt lat="40.23516" lon="20.4716">
        <ele>793.21997070312</ele>
        <time>2024-09-27T12:39:15.000Z</time>
      </trkpt>
      <trkpt lat="40.23513" lon="20.47156">
        <ele>793.21997070312</ele>
        <time>2024-09-27T12:39:16.000Z</time>
      </trkpt>
      <trkpt lat="40.23508" lon="20.4715">
        <ele>792.73999023438</ele>
        <time>2024-09-27T12:39:17.000Z</time>
      </trkpt>
      <trkpt lat="40.23504" lon="20.47147">
        <ele>792.73999023438</ele>
        <time>2024-09-27T12:39:18.000Z</time>
      </trkpt>
      <trkpt lat="40.23501" lon="20.47142">
        <ele>792.73999023438</ele>
        <time>2024-09-27T12:39:19.000Z</time>
      </trkpt>
      <trkpt lat="40.23496" lon="20.47135">
        <ele>792.73999023438</ele>
        <time>2024-09-27T12:39:20.000Z</time>
      </trkpt>
      <trkpt lat="40.23493" lon="20.47129">
        <ele>792.73999023438</ele>
        <time>2024-09-27T12:39:21.000Z</time>
      </trkpt>
      <trkpt lat="40.23488" lon="20.47117">
        <ele>792.73999023438</ele>
        <time>2024-09-27T12:39:22.000Z</time>
      </trkpt>
      <trkpt lat="40.23486" lon="20.47113">
        <ele>792.73999023438</ele>
        <time>2024-09-27T12:39:23.000Z</time>
      </trkpt>
      <trkpt lat="40.23483" lon="20.47105">
        <ele>793.21997070312</ele>
        <time>2024-09-27T12:39:24.000Z</time>
      </trkpt>
      <trkpt lat="40.23479" lon="20.47091">
        <ele>794.19000244141</ele>
        <time>2024-09-27T12:39:25.000Z</time>
      </trkpt>
      <trkpt lat="40.23478" lon="20.47086">
        <ele>794.19000244141</ele>
        <time>2024-09-27T12:39:26.000Z</time>
      </trkpt>
      <trkpt lat="40.23476" lon="20.47082">
        <ele>794.66998291016</ele>
        <time>2024-09-27T12:39:27.000Z</time>
      </trkpt>
      <trkpt lat="40.23473" lon="20.47075">
        <ele>795.15002441406</ele>
        <time>2024-09-27T12:39:28.000Z</time>
      </trkpt>
      <trkpt lat="40.23468" lon="20.47066">
        <ele>796.10998535156</ele>
        <time>2024-09-27T12:39:29.000Z</time>
      </trkpt>
      <trkpt lat="40.23466" lon="20.4706">
        <ele>796.59002685547</ele>
        <time>2024-09-27T12:39:30.000Z</time>
      </trkpt>
      <trkpt lat="40.23458" lon="20.47038">
        <ele>799.46997070312</ele>
        <time>2024-09-27T12:39:32.000Z</time>
      </trkpt>
      <trkpt lat="40.23458" lon="20.47036">
        <ele>799.95001220703</ele>
        <time>2024-09-27T12:39:33.000Z</time>
      </trkpt>
      <trkpt lat="40.23455" lon="20.47023">
        <ele>801.88000488281</ele>
        <time>2024-09-27T12:39:34.000Z</time>
      </trkpt>
      <trkpt lat="40.23454" lon="20.4702">
        <ele>802.35998535156</ele>
        <time>2024-09-27T12:39:35.000Z</time>
      </trkpt>
      <trkpt lat="40.23452" lon="20.4701">
        <ele>804.28002929688</ele>
        <time>2024-09-27T12:39:36.000Z</time>
      </trkpt>
      <trkpt lat="40.2345" lon="20.47">
        <ele>805.71997070312</ele>
        <time>2024-09-27T12:39:37.000Z</time>
      </trkpt>
      <trkpt lat="40.23449" lon="20.46997">
        <ele>806.20001220703</ele>
        <time>2024-09-27T12:39:38.000Z</time>
      </trkpt>
      <trkpt lat="40.23447" lon="20.46992">
        <ele>808.13000488281</ele>
        <time>2024-09-27T12:39:39.000Z</time>
      </trkpt>
      <trkpt lat="40.23443" lon="20.46989">
        <ele>809.09002685547</ele>
        <time>2024-09-27T12:39:40.000Z</time>
      </trkpt>
      <trkpt lat="40.23439" lon="20.46988">
        <ele>810.04998779297</ele>
        <time>2024-09-27T12:39:41.000Z</time>
      </trkpt>
      <trkpt lat="40.23435" lon="20.46989">
        <ele>811.48999023438</ele>
        <time>2024-09-27T12:39:42.000Z</time>
      </trkpt>
      <trkpt lat="40.23423" lon="20.46992">
        <ele>813.40997314453</ele>
        <time>2024-09-27T12:39:44.000Z</time>
      </trkpt>
      <trkpt lat="40.23419" lon="20.46992">
        <ele>813.89001464844</ele>
        <time>2024-09-27T12:39:45.000Z</time>
      </trkpt>
      <trkpt lat="40.23413" lon="20.46992">
        <ele>814.84997558594</ele>
        <time>2024-09-27T12:39:46.000Z</time>
      </trkpt>
      <trkpt lat="40.23408" lon="20.4699">
        <ele>815.34002685547</ele>
        <time>2024-09-27T12:39:47.000Z</time>
      </trkpt>
      <trkpt lat="40.23402" lon="20.46986">
        <ele>816.29998779297</ele>
        <time>2024-09-27T12:39:48.000Z</time>
      </trkpt>
      <trkpt lat="40.23397" lon="20.46982">
        <ele>817.73999023438</ele>
        <time>2024-09-27T12:39:49.000Z</time>
      </trkpt>
      <trkpt lat="40.23392" lon="20.46979">
        <ele>818.70001220703</ele>
        <time>2024-09-27T12:39:50.000Z</time>
      </trkpt>
      <trkpt lat="40.23388" lon="20.46976">
        <ele>820.14001464844</ele>
        <time>2024-09-27T12:39:51.000Z</time>
      </trkpt>
      <trkpt lat="40.23382" lon="20.46971">
        <ele>821.58001708984</ele>
        <time>2024-09-27T12:39:52.000Z</time>
      </trkpt>
      <trkpt lat="40.23378" lon="20.46968">
        <ele>822.54998779297</ele>
        <time>2024-09-27T12:39:53.000Z</time>
      </trkpt>
      <trkpt lat="40.23374" lon="20.46965">
        <ele>823.51000976562</ele>
        <time>2024-09-27T12:39:54.000Z</time>
      </trkpt>
      <trkpt lat="40.23364" lon="20.4697">
        <ele>826.39001464844</ele>
        <time>2024-09-27T12:39:57.000Z</time>
      </trkpt>
      <trkpt lat="40.23364" lon="20.46973">
        <ele>826.86999511719</ele>
        <time>2024-09-27T12:39:58.000Z</time>
      </trkpt>
      <trkpt lat="40.23366" lon="20.46978">
        <ele>828.30999755859</ele>
        <time>2024-09-27T12:39:59.000Z</time>
      </trkpt>
      <trkpt lat="40.2337" lon="20.46983">
        <ele>829.27001953125</ele>
        <time>2024-09-27T12:40:00.000Z</time>
      </trkpt>
      <trkpt lat="40.23373" lon="20.46986">
        <ele>830.23999023438</ele>
        <time>2024-09-27T12:40:01.000Z</time>
      </trkpt>
      <trkpt lat="40.23377" lon="20.46992">
        <ele>830.71997070312</ele>
        <time>2024-09-27T12:40:02.000Z</time>
      </trkpt>
      <trkpt lat="40.2338" lon="20.46998">
        <ele>830.71997070312</ele>
        <time>2024-09-27T12:40:03.000Z</time>
      </trkpt>
      <trkpt lat="40.23384" lon="20.47007">
        <ele>830.23999023438</ele>
        <time>2024-09-27T12:40:04.000Z</time>
      </trkpt>
      <trkpt lat="40.23386" lon="20.47012">
        <ele>830.23999023438</ele>
        <time>2024-09-27T12:40:05.000Z</time>
      </trkpt>
      <trkpt lat="40.23387" lon="20.47019">
        <ele>830.71997070312</ele>
        <time>2024-09-27T12:40:06.000Z</time>
      </trkpt>
      <trkpt lat="40.23387" lon="20.47026">
        <ele>830.71997070312</ele>
        <time>2024-09-27T12:40:07.000Z</time>
      </trkpt>
      <trkpt lat="40.23387" lon="20.47031">
        <ele>831.20001220703</ele>
        <time>2024-09-27T12:40:08.000Z</time>
      </trkpt>
      <trkpt lat="40.23387" lon="20.47038">
        <ele>831.20001220703</ele>
        <time>2024-09-27T12:40:09.000Z</time>
      </trkpt>
      <trkpt lat="40.23386" lon="20.47045">
        <ele>831.20001220703</ele>
        <time>2024-09-27T12:40:10.000Z</time>
      </trkpt>
      <trkpt lat="40.23387" lon="20.47061">
        <ele>831.67999267578</ele>
        <time>2024-09-27T12:40:18.000Z</time>
      </trkpt>
      <trkpt lat="40.23395" lon="20.47064">
        <ele>831.20001220703</ele>
        <time>2024-09-27T12:41:19.000Z</time>
      </trkpt>
      <trkpt lat="40.23396" lon="20.47065">
        <ele>831.20001220703</ele>
        <time>2024-09-27T12:41:20.000Z</time>
      </trkpt>
      <trkpt lat="40.234" lon="20.47066">
        <ele>831.67999267578</ele>
        <time>2024-09-27T12:41:21.000Z</time>
      </trkpt>
      <trkpt lat="40.23406" lon="20.47067">
        <ele>832.15997314453</ele>
        <time>2024-09-27T12:41:22.000Z</time>
      </trkpt>
      <trkpt lat="40.23411" lon="20.47068">
        <ele>833.11999511719</ele>
        <time>2024-09-27T12:41:23.000Z</time>
      </trkpt>
      <trkpt lat="40.23415" lon="20.47069">
        <ele>833.59997558594</ele>
        <time>2024-09-27T12:41:24.000Z</time>
      </trkpt>
      <trkpt lat="40.23418" lon="20.47074">
        <ele>834.08001708984</ele>
        <time>2024-09-27T12:41:25.000Z</time>
      </trkpt>
      <trkpt lat="40.23419" lon="20.4708">
        <ele>834.55999755859</ele>
        <time>2024-09-27T12:41:26.000Z</time>
      </trkpt>
      <trkpt lat="40.23419" lon="20.47087">
        <ele>835.03997802734</ele>
        <time>2024-09-27T12:41:27.000Z</time>
      </trkpt>
      <trkpt lat="40.23418" lon="20.47092">
        <ele>835.52001953125</ele>
        <time>2024-09-27T12:41:28.000Z</time>
      </trkpt>
      <trkpt lat="40.23417" lon="20.471">
        <ele>836</ele>
        <time>2024-09-27T12:41:29.000Z</time>
      </trkpt>
      <trkpt lat="40.23416" lon="20.47105">
        <ele>836</ele>
        <time>2024-09-27T12:41:30.000Z</time>
      </trkpt>
      <trkpt lat="40.23415" lon="20.4711">
        <ele>836.47998046875</ele>
        <time>2024-09-27T12:41:31.000Z</time>
      </trkpt>
      <trkpt lat="40.23413" lon="20.47116">
        <ele>836.47998046875</ele>
        <time>2024-09-27T12:41:32.000Z</time>
      </trkpt>
      <trkpt lat="40.23412" lon="20.47122">
        <ele>836.47998046875</ele>
        <time>2024-09-27T12:41:33.000Z</time>
      </trkpt>
      <trkpt lat="40.23412" lon="20.47125">
        <ele>836.47998046875</ele>
        <time>2024-09-27T12:41:34.000Z</time>
      </trkpt>
      <trkpt lat="40.23411" lon="20.47131">
        <ele>836.47998046875</ele>
        <time>2024-09-27T12:41:35.000Z</time>
      </trkpt>
      <trkpt lat="40.23412" lon="20.47136">
        <ele>836</ele>
        <time>2024-09-27T12:41:36.000Z</time>
      </trkpt>
      <trkpt lat="40.23414" lon="20.47143">
        <ele>835.03997802734</ele>
        <time>2024-09-27T12:41:37.000Z</time>
      </trkpt>
      <trkpt lat="40.23418" lon="20.47154">
        <ele>834.55999755859</ele>
        <time>2024-09-27T12:41:38.000Z</time>
      </trkpt>
      <trkpt lat="40.23419" lon="20.47158">
        <ele>834.08001708984</ele>
        <time>2024-09-27T12:41:39.000Z</time>
      </trkpt>
      <trkpt lat="40.23421" lon="20.47161">
        <ele>834.08001708984</ele>
        <time>2024-09-27T12:41:40.000Z</time>
      </trkpt>
      <trkpt lat="40.23424" lon="20.47166">
        <ele>834.08001708984</ele>
        <time>2024-09-27T12:41:41.000Z</time>
      </trkpt>
      <trkpt lat="40.23427" lon="20.47171">
        <ele>834.08001708984</ele>
        <time>2024-09-27T12:41:42.000Z</time>
      </trkpt>
      <trkpt lat="40.23432" lon="20.47183">
        <ele>834.55999755859</ele>
        <time>2024-09-27T12:41:44.000Z</time>
      </trkpt>
      <trkpt lat="40.23435" lon="20.47187">
        <ele>835.03997802734</ele>
        <time>2024-09-27T12:41:45.000Z</time>
      </trkpt>
      <trkpt lat="40.23438" lon="20.47192">
        <ele>835.03997802734</ele>
        <time>2024-09-27T12:41:46.000Z</time>
      </trkpt>
      <trkpt lat="40.23441" lon="20.47199">
        <ele>835.03997802734</ele>
        <time>2024-09-27T12:41:47.000Z</time>
      </trkpt>
      <trkpt lat="40.23444" lon="20.47207">
        <ele>834.55999755859</ele>
        <time>2024-09-27T12:41:48.000Z</time>
      </trkpt>
      <trkpt lat="40.23448" lon="20.47215">
        <ele>834.55999755859</ele>
        <time>2024-09-27T12:41:49.000Z</time>
      </trkpt>
      <trkpt lat="40.23455" lon="20.47229">
        <ele>834.55999755859</ele>
        <time>2024-09-27T12:41:50.000Z</time>
      </trkpt>
      <trkpt lat="40.23463" lon="20.47242">
        <ele>835.03997802734</ele>
        <time>2024-09-27T12:41:52.000Z</time>
      </trkpt>
      <trkpt lat="40.23471" lon="20.47256">
        <ele>836</ele>
        <time>2024-09-27T12:41:54.000Z</time>
      </trkpt>
      <trkpt lat="40.23474" lon="20.47262">
        <ele>836.47998046875</ele>
        <time>2024-09-27T12:41:55.000Z</time>
      </trkpt>
      <trkpt lat="40.23485" lon="20.47281">
        <ele>837.92999267578</ele>
        <time>2024-09-27T12:41:57.000Z</time>
      </trkpt>
      <trkpt lat="40.23486" lon="20.47284">
        <ele>838.40997314453</ele>
        <time>2024-09-27T12:41:58.000Z</time>
      </trkpt>
      <trkpt lat="40.2349" lon="20.47292">
        <ele>838.89001464844</ele>
        <time>2024-09-27T12:41:59.000Z</time>
      </trkpt>
      <trkpt lat="40.23492" lon="20.473">
        <ele>839.36999511719</ele>
        <time>2024-09-27T12:42:00.000Z</time>
      </trkpt>
      <trkpt lat="40.23493" lon="20.47307">
        <ele>839.84997558594</ele>
        <time>2024-09-27T12:42:01.000Z</time>
      </trkpt>
      <trkpt lat="40.23493" lon="20.47315">
        <ele>840.33001708984</ele>
        <time>2024-09-27T12:42:02.000Z</time>
      </trkpt>
      <trkpt lat="40.23491" lon="20.47323">
        <ele>841.28997802734</ele>
        <time>2024-09-27T12:42:03.000Z</time>
      </trkpt>
      <trkpt lat="40.23489" lon="20.47331">
        <ele>842.25</ele>
        <time>2024-09-27T12:42:04.000Z</time>
      </trkpt>
      <trkpt lat="40.23485" lon="20.4734">
        <ele>843.21002197266</ele>
        <time>2024-09-27T12:42:05.000Z</time>
      </trkpt>
      <trkpt lat="40.23482" lon="20.47347">
        <ele>844.17999267578</ele>
        <time>2024-09-27T12:42:06.000Z</time>
      </trkpt>
      <trkpt lat="40.23477" lon="20.47353">
        <ele>845.14001464844</ele>
        <time>2024-09-27T12:42:07.000Z</time>
      </trkpt>
      <trkpt lat="40.23472" lon="20.47357">
        <ele>846.58001708984</ele>
        <time>2024-09-27T12:42:08.000Z</time>
      </trkpt>
      <trkpt lat="40.23466" lon="20.4736">
        <ele>848.02001953125</ele>
        <time>2024-09-27T12:42:09.000Z</time>
      </trkpt>
      <trkpt lat="40.23459" lon="20.4736">
        <ele>848.97998046875</ele>
        <time>2024-09-27T12:42:10.000Z</time>
      </trkpt>
      <trkpt lat="40.23451" lon="20.47359">
        <ele>849.94000244141</ele>
        <time>2024-09-27T12:42:11.000Z</time>
      </trkpt>
      <trkpt lat="40.23447" lon="20.47358">
        <ele>850.41998291016</ele>
        <time>2024-09-27T12:42:12.000Z</time>
      </trkpt>
      <trkpt lat="40.23434" lon="20.47356">
        <ele>853.30999755859</ele>
        <time>2024-09-27T12:42:13.000Z</time>
      </trkpt>
      <trkpt lat="40.23427" lon="20.47354">
        <ele>854.75</ele>
        <time>2024-09-27T12:42:15.000Z</time>
      </trkpt>
      <trkpt lat="40.2342" lon="20.47352">
        <ele>856.19000244141</ele>
        <time>2024-09-27T12:42:16.000Z</time>
      </trkpt>
      <trkpt lat="40.23416" lon="20.47347">
        <ele>857.15002441406</ele>
        <time>2024-09-27T12:42:17.000Z</time>
      </trkpt>
      <trkpt lat="40.23411" lon="20.47342">
        <ele>858.10998535156</ele>
        <time>2024-09-27T12:42:18.000Z</time>
      </trkpt>
      <trkpt lat="40.23408" lon="20.47336">
        <ele>859.08001708984</ele>
        <time>2024-09-27T12:42:19.000Z</time>
      </trkpt>
      <trkpt lat="40.23405" lon="20.47329">
        <ele>859.55999755859</ele>
        <time>2024-09-27T12:42:20.000Z</time>
      </trkpt>
      <trkpt lat="40.23404" lon="20.47322">
        <ele>859.55999755859</ele>
        <time>2024-09-27T12:42:21.000Z</time>
      </trkpt>
      <trkpt lat="40.23404" lon="20.47314">
        <ele>859.55999755859</ele>
        <time>2024-09-27T12:42:22.000Z</time>
      </trkpt>
      <trkpt lat="40.23403" lon="20.47307">
        <ele>859.55999755859</ele>
        <time>2024-09-27T12:42:23.000Z</time>
      </trkpt>
      <trkpt lat="40.234" lon="20.473">
        <ele>860.03997802734</ele>
        <time>2024-09-27T12:42:24.000Z</time>
      </trkpt>
      <trkpt lat="40.23396" lon="20.47293">
        <ele>860.52001953125</ele>
        <time>2024-09-27T12:42:25.000Z</time>
      </trkpt>
      <trkpt lat="40.23388" lon="20.47284">
        <ele>861</ele>
        <time>2024-09-27T12:42:26.000Z</time>
      </trkpt>
      <trkpt lat="40.23385" lon="20.4728">
        <ele>861.47998046875</ele>
        <time>2024-09-27T12:42:27.000Z</time>
      </trkpt>
      <trkpt lat="40.23376" lon="20.47269">
        <ele>861.96002197266</ele>
        <time>2024-09-27T12:42:28.000Z</time>
      </trkpt>
      <trkpt lat="40.23374" lon="20.47267">
        <ele>861.96002197266</ele>
        <time>2024-09-27T12:42:29.000Z</time>
      </trkpt>
      <trkpt lat="40.23368" lon="20.4726">
        <ele>862.44000244141</ele>
        <time>2024-09-27T12:42:30.000Z</time>
      </trkpt>
      <trkpt lat="40.2336" lon="20.47253">
        <ele>863.88000488281</ele>
        <time>2024-09-27T12:42:31.000Z</time>
      </trkpt>
      <trkpt lat="40.23357" lon="20.47249">
        <ele>864.84002685547</ele>
        <time>2024-09-27T12:42:32.000Z</time>
      </trkpt>
      <trkpt lat="40.23351" lon="20.47243">
        <ele>866.28997802734</ele>
        <time>2024-09-27T12:42:33.000Z</time>
      </trkpt>
      <trkpt lat="40.23346" lon="20.4724">
        <ele>867.25</ele>
        <time>2024-09-27T12:42:34.000Z</time>
      </trkpt>
      <trkpt lat="40.23341" lon="20.47239">
        <ele>868.21002197266</ele>
        <time>2024-09-27T12:42:35.000Z</time>
      </trkpt>
      <trkpt lat="40.23337" lon="20.47239">
        <ele>869.16998291016</ele>
        <time>2024-09-27T12:42:36.000Z</time>
      </trkpt>
      <trkpt lat="40.23332" lon="20.47241">
        <ele>870.13000488281</ele>
        <time>2024-09-27T12:42:37.000Z</time>
      </trkpt>
      <trkpt lat="40.23328" lon="20.47245">
        <ele>871.57000732422</ele>
        <time>2024-09-27T12:42:38.000Z</time>
      </trkpt>
      <trkpt lat="40.23325" lon="20.47251">
        <ele>873.01000976562</ele>
        <time>2024-09-27T12:42:39.000Z</time>
      </trkpt>
      <trkpt lat="40.23321" lon="20.47256">
        <ele>874.46002197266</ele>
        <time>2024-09-27T12:42:40.000Z</time>
      </trkpt>
      <trkpt lat="40.23316" lon="20.47261">
        <ele>875.90002441406</ele>
        <time>2024-09-27T12:42:41.000Z</time>
      </trkpt>
      <trkpt lat="40.23313" lon="20.47265">
        <ele>877.34002685547</ele>
        <time>2024-09-27T12:42:42.000Z</time>
      </trkpt>
      <trkpt lat="40.23309" lon="20.47271">
        <ele>878.78002929688</ele>
        <time>2024-09-27T12:42:43.000Z</time>
      </trkpt>
      <trkpt lat="40.23303" lon="20.47277">
        <ele>880.21997070312</ele>
        <time>2024-09-27T12:42:44.000Z</time>
      </trkpt>
      <trkpt lat="40.233" lon="20.4728">
        <ele>881.19000244141</ele>
        <time>2024-09-27T12:42:45.000Z</time>
      </trkpt>
      <trkpt lat="40.23294" lon="20.47285">
        <ele>882.63000488281</ele>
        <time>2024-09-27T12:42:46.000Z</time>
      </trkpt>
      <trkpt lat="40.23289" lon="20.47288">
        <ele>883.59002685547</ele>
        <time>2024-09-27T12:42:47.000Z</time>
      </trkpt>
      <trkpt lat="40.23281" lon="20.47293">
        <ele>885.03002929688</ele>
        <time>2024-09-27T12:42:48.000Z</time>
      </trkpt>
      <trkpt lat="40.23275" lon="20.47297">
        <ele>885.98999023438</ele>
        <time>2024-09-27T12:42:49.000Z</time>
      </trkpt>
      <trkpt lat="40.2327" lon="20.473">
        <ele>886.95001220703</ele>
        <time>2024-09-27T12:42:50.000Z</time>
      </trkpt>
      <trkpt lat="40.23264" lon="20.47305">
        <ele>887.90997314453</ele>
        <time>2024-09-27T12:42:51.000Z</time>
      </trkpt>
      <trkpt lat="40.23259" lon="20.47314">
        <ele>888.88000488281</ele>
        <time>2024-09-27T12:42:52.000Z</time>
      </trkpt>
      <trkpt lat="40.23254" lon="20.47323">
        <ele>889.84002685547</ele>
        <time>2024-09-27T12:42:53.000Z</time>
      </trkpt>
      <trkpt lat="40.2324" lon="20.47345">
        <ele>892.71997070312</ele>
        <time>2024-09-27T12:42:56.000Z</time>
      </trkpt>
      <trkpt lat="40.23236" lon="20.4735">
        <ele>893.67999267578</ele>
        <time>2024-09-27T12:42:57.000Z</time>
      </trkpt>
      <trkpt lat="40.23225" lon="20.47359">
        <ele>896.09002685547</ele>
        <time>2024-09-27T12:42:58.000Z</time>
      </trkpt>
      <trkpt lat="40.23222" lon="20.47362">
        <ele>897.04998779297</ele>
        <time>2024-09-27T12:42:59.000Z</time>
      </trkpt>
      <trkpt lat="40.23217" lon="20.47368">
        <ele>898.01000976562</ele>
        <time>2024-09-27T12:43:00.000Z</time>
      </trkpt>
      <trkpt lat="40.23213" lon="20.47373">
        <ele>898.96997070312</ele>
        <time>2024-09-27T12:43:01.000Z</time>
      </trkpt>
      <trkpt lat="40.23209" lon="20.47382">
        <ele>900.40997314453</ele>
        <time>2024-09-27T12:43:02.000Z</time>
      </trkpt>
      <trkpt lat="40.23198" lon="20.47408">
        <ele>903.78002929688</ele>
        <time>2024-09-27T12:43:05.000Z</time>
      </trkpt>
      <trkpt lat="40.23191" lon="20.47421">
        <ele>906.17999267578</ele>
        <time>2024-09-27T12:43:06.000Z</time>
      </trkpt>
      <trkpt lat="40.2319" lon="20.47424">
        <ele>906.65997314453</ele>
        <time>2024-09-27T12:43:07.000Z</time>
      </trkpt>
      <trkpt lat="40.23183" lon="20.47442">
        <ele>909.53997802734</ele>
        <time>2024-09-27T12:43:09.000Z</time>
      </trkpt>
      <trkpt lat="40.23181" lon="20.47447">
        <ele>910.51000976562</ele>
        <time>2024-09-27T12:43:10.000Z</time>
      </trkpt>
      <trkpt lat="40.23178" lon="20.47452">
        <ele>911.46997070312</ele>
        <time>2024-09-27T12:43:11.000Z</time>
      </trkpt>
      <trkpt lat="40.23175" lon="20.47455">
        <ele>912.42999267578</ele>
        <time>2024-09-27T12:43:12.000Z</time>
      </trkpt>
      <trkpt lat="40.2317" lon="20.47456">
        <ele>912.90997314453</ele>
        <time>2024-09-27T12:43:13.000Z</time>
      </trkpt>
      <trkpt lat="40.23165" lon="20.47457">
        <ele>913.86999511719</ele>
        <time>2024-09-27T12:43:14.000Z</time>
      </trkpt>
      <trkpt lat="40.23159" lon="20.47457">
        <ele>914.34997558594</ele>
        <time>2024-09-27T12:43:15.000Z</time>
      </trkpt>
      <trkpt lat="40.23151" lon="20.47456">
        <ele>915.30999755859</ele>
        <time>2024-09-27T12:43:16.000Z</time>
      </trkpt>
      <trkpt lat="40.23147" lon="20.47456">
        <ele>915.30999755859</ele>
        <time>2024-09-27T12:43:17.000Z</time>
      </trkpt>
      <trkpt lat="40.23142" lon="20.47455">
        <ele>915.78997802734</ele>
        <time>2024-09-27T12:43:18.000Z</time>
      </trkpt>
      <trkpt lat="40.23136" lon="20.47453">
        <ele>915.78997802734</ele>
        <time>2024-09-27T12:43:19.000Z</time>
      </trkpt>
      <trkpt lat="40.2313" lon="20.4745">
        <ele>916.27001953125</ele>
        <time>2024-09-27T12:43:20.000Z</time>
      </trkpt>
      <trkpt lat="40.23124" lon="20.47446">
        <ele>916.75</ele>
        <time>2024-09-27T12:43:21.000Z</time>
      </trkpt>
      <trkpt lat="40.23118" lon="20.4744">
        <ele>917.71997070312</ele>
        <time>2024-09-27T12:43:22.000Z</time>
      </trkpt>
      <trkpt lat="40.23114" lon="20.47435">
        <ele>917.71997070312</ele>
        <time>2024-09-27T12:43:23.000Z</time>
      </trkpt>
      <trkpt lat="40.23111" lon="20.47428">
        <ele>917.23999023438</ele>
        <time>2024-09-27T12:43:24.000Z</time>
      </trkpt>
      <trkpt lat="40.23107" lon="20.4742">
        <ele>917.23999023438</ele>
        <time>2024-09-27T12:43:25.000Z</time>
      </trkpt>
      <trkpt lat="40.23101" lon="20.47409">
        <ele>917.23999023438</ele>
        <time>2024-09-27T12:43:26.000Z</time>
      </trkpt>
      <trkpt lat="40.23098" lon="20.47403">
        <ele>917.23999023438</ele>
        <time>2024-09-27T12:43:27.000Z</time>
      </trkpt>
      <trkpt lat="40.23091" lon="20.47388">
        <ele>916.27001953125</ele>
        <time>2024-09-27T12:43:29.000Z</time>
      </trkpt>
      <trkpt lat="40.23087" lon="20.4738">
        <ele>915.78997802734</ele>
        <time>2024-09-27T12:43:30.000Z</time>
      </trkpt>
      <trkpt lat="40.23081" lon="20.47372">
        <ele>915.30999755859</ele>
        <time>2024-09-27T12:43:31.000Z</time>
      </trkpt>
      <trkpt lat="40.23079" lon="20.47368">
        <ele>914.83001708984</ele>
        <time>2024-09-27T12:43:32.000Z</time>
      </trkpt>
      <trkpt lat="40.23076" lon="20.47362">
        <ele>914.83001708984</ele>
        <time>2024-09-27T12:43:33.000Z</time>
      </trkpt>
      <trkpt lat="40.2307" lon="20.47351">
        <ele>914.34997558594</ele>
        <time>2024-09-27T12:43:34.000Z</time>
      </trkpt>
      <trkpt lat="40.23067" lon="20.47347">
        <ele>914.34997558594</ele>
        <time>2024-09-27T12:43:35.000Z</time>
      </trkpt>
      <trkpt lat="40.23063" lon="20.47341">
        <ele>913.86999511719</ele>
        <time>2024-09-27T12:43:36.000Z</time>
      </trkpt>
      <trkpt lat="40.23058" lon="20.47335">
        <ele>913.39001464844</ele>
        <time>2024-09-27T12:43:37.000Z</time>
      </trkpt>
      <trkpt lat="40.23053" lon="20.4733">
        <ele>912.90997314453</ele>
        <time>2024-09-27T12:43:38.000Z</time>
      </trkpt>
      <trkpt lat="40.2305" lon="20.47325">
        <ele>911.95001220703</ele>
        <time>2024-09-27T12:43:39.000Z</time>
      </trkpt>
      <trkpt lat="40.23047" lon="20.47318">
        <ele>910.98999023438</ele>
        <time>2024-09-27T12:43:40.000Z</time>
      </trkpt>
      <trkpt lat="40.23045" lon="20.47309">
        <ele>910.51000976562</ele>
        <time>2024-09-27T12:43:41.000Z</time>
      </trkpt>
      <trkpt lat="40.23045" lon="20.47302">
        <ele>910.51000976562</ele>
        <time>2024-09-27T12:43:42.000Z</time>
      </trkpt>
      <trkpt lat="40.23044" lon="20.47298">
        <ele>910.51000976562</ele>
        <time>2024-09-27T12:43:43.000Z</time>
      </trkpt>
      <trkpt lat="40.23034" lon="20.47289">
        <ele>909.53997802734</ele>
        <time>2024-09-27T12:43:46.000Z</time>
      </trkpt>
      <trkpt lat="40.23031" lon="20.4729">
        <ele>909.05999755859</ele>
        <time>2024-09-27T12:43:47.000Z</time>
      </trkpt>
      <trkpt lat="40.23026" lon="20.47291">
        <ele>908.58001708984</ele>
        <time>2024-09-27T12:43:48.000Z</time>
      </trkpt>
      <trkpt lat="40.23022" lon="20.47293">
        <ele>907.61999511719</ele>
        <time>2024-09-27T12:43:49.000Z</time>
      </trkpt>
      <trkpt lat="40.23018" lon="20.47295">
        <ele>907.14001464844</ele>
        <time>2024-09-27T12:43:50.000Z</time>
      </trkpt>
      <trkpt lat="40.23011" lon="20.473">
        <ele>905.21997070312</ele>
        <time>2024-09-27T12:43:51.000Z</time>
      </trkpt>
      <trkpt lat="40.2301" lon="20.473">
        <ele>905.21997070312</ele>
        <time>2024-09-27T12:43:52.000Z</time>
      </trkpt>
      <trkpt lat="40.23006" lon="20.473">
        <ele>904.26000976562</ele>
        <time>2024-09-27T12:43:53.000Z</time>
      </trkpt>
      <trkpt lat="40.23002" lon="20.47297">
        <ele>903.29998779297</ele>
        <time>2024-09-27T12:43:54.000Z</time>
      </trkpt>
      <trkpt lat="40.22999" lon="20.47287">
        <ele>901.84997558594</ele>
        <time>2024-09-27T12:43:56.000Z</time>
      </trkpt>
      <trkpt lat="40.22999" lon="20.47283">
        <ele>901.36999511719</ele>
        <time>2024-09-27T12:43:57.000Z</time>
      </trkpt>
      <trkpt lat="40.23011" lon="20.47254">
        <ele>898.01000976562</ele>
        <time>2024-09-27T12:44:04.000Z</time>
      </trkpt>
      <trkpt lat="40.23019" lon="20.47235">
        <ele>896.09002685547</ele>
        <time>2024-09-27T12:44:09.000Z</time>
      </trkpt>
      <trkpt lat="40.2302" lon="20.47233">
        <ele>896.09002685547</ele>
        <time>2024-09-27T12:44:10.000Z</time>
      </trkpt>
      <trkpt lat="40.23022" lon="20.47228">
        <ele>896.09002685547</ele>
        <time>2024-09-27T12:44:11.000Z</time>
      </trkpt>
      <trkpt lat="40.23027" lon="20.47217">
        <ele>896.09002685547</ele>
        <time>2024-09-27T12:44:18.000Z</time>
      </trkpt>
      <trkpt lat="40.23038" lon="20.47204">
        <ele>894.64001464844</ele>
        <time>2024-09-27T12:44:41.000Z</time>
      </trkpt>
      <trkpt lat="40.2304" lon="20.47201">
        <ele>893.67999267578</ele>
        <time>2024-09-27T12:44:42.000Z</time>
      </trkpt>
      <trkpt lat="40.23046" lon="20.47179">
        <ele>891.76000976562</ele>
        <time>2024-09-27T12:44:48.000Z</time>
      </trkpt>
      <trkpt lat="40.23037" lon="20.47174">
        <ele>893.67999267578</ele>
        <time>2024-09-27T12:44:51.000Z</time>
      </trkpt>
      <trkpt lat="40.23032" lon="20.47171">
        <ele>894.64001464844</ele>
        <time>2024-09-27T12:44:52.000Z</time>
      </trkpt>
      <trkpt lat="40.23028" lon="20.47168">
        <ele>895.60998535156</ele>
        <time>2024-09-27T12:44:53.000Z</time>
      </trkpt>
      <trkpt lat="40.23025" lon="20.47165">
        <ele>896.09002685547</ele>
        <time>2024-09-27T12:44:54.000Z</time>
      </trkpt>
      <trkpt lat="40.2302" lon="20.47159">
        <ele>896.57000732422</ele>
        <time>2024-09-27T12:44:55.000Z</time>
      </trkpt>
      <trkpt lat="40.23015" lon="20.47155">
        <ele>897.53002929688</ele>
        <time>2024-09-27T12:44:56.000Z</time>
      </trkpt>
      <trkpt lat="40.23008" lon="20.47148">
        <ele>898.48999023438</ele>
        <time>2024-09-27T12:44:57.000Z</time>
      </trkpt>
      <trkpt lat="40.23007" lon="20.47147">
        <ele>898.96997070312</ele>
        <time>2024-09-27T12:44:58.000Z</time>
      </trkpt>
      <trkpt lat="40.23003" lon="20.47145">
        <ele>899.45001220703</ele>
        <time>2024-09-27T12:44:59.000Z</time>
      </trkpt>
      <trkpt lat="40.22994" lon="20.47148">
        <ele>901.84997558594</ele>
        <time>2024-09-27T12:45:02.000Z</time>
      </trkpt>
      <trkpt lat="40.2299" lon="20.47153">
        <ele>902.82000732422</ele>
        <time>2024-09-27T12:45:03.000Z</time>
      </trkpt>
      <trkpt lat="40.22986" lon="20.47156">
        <ele>903.78002929688</ele>
        <time>2024-09-27T12:45:04.000Z</time>
      </trkpt>
      <trkpt lat="40.22981" lon="20.47157">
        <ele>904.73999023438</ele>
        <time>2024-09-27T12:45:05.000Z</time>
      </trkpt>
      <trkpt lat="40.22976" lon="20.47157">
        <ele>905.21997070312</ele>
        <time>2024-09-27T12:45:06.000Z</time>
      </trkpt>
      <trkpt lat="40.22972" lon="20.47154">
        <ele>906.17999267578</ele>
        <time>2024-09-27T12:45:07.000Z</time>
      </trkpt>
      <trkpt lat="40.22968" lon="20.4715">
        <ele>906.65997314453</ele>
        <time>2024-09-27T12:45:08.000Z</time>
      </trkpt>
      <trkpt lat="40.22961" lon="20.47141">
        <ele>908.09997558594</ele>
        <time>2024-09-27T12:45:09.000Z</time>
      </trkpt>
      <trkpt lat="40.22958" lon="20.47138">
        <ele>908.58001708984</ele>
        <time>2024-09-27T12:45:10.000Z</time>
      </trkpt>
      <trkpt lat="40.22953" lon="20.4713">
        <ele>909.53997802734</ele>
        <time>2024-09-27T12:45:11.000Z</time>
      </trkpt>
      <trkpt lat="40.22951" lon="20.47123">
        <ele>910.03002929688</ele>
        <time>2024-09-27T12:45:12.000Z</time>
      </trkpt>
      <trkpt lat="40.22948" lon="20.47111">
        <ele>910.98999023438</ele>
        <time>2024-09-27T12:45:13.000Z</time>
      </trkpt>
      <trkpt lat="40.22947" lon="20.47108">
        <ele>910.98999023438</ele>
        <time>2024-09-27T12:45:14.000Z</time>
      </trkpt>
      <trkpt lat="40.22945" lon="20.47102">
        <ele>911.46997070312</ele>
        <time>2024-09-27T12:45:15.000Z</time>
      </trkpt>
      <trkpt lat="40.22941" lon="20.47096">
        <ele>911.95001220703</ele>
        <time>2024-09-27T12:45:16.000Z</time>
      </trkpt>
      <trkpt lat="40.22935" lon="20.4709">
        <ele>912.90997314453</ele>
        <time>2024-09-27T12:45:17.000Z</time>
      </trkpt>
      <trkpt lat="40.22931" lon="20.47086">
        <ele>913.39001464844</ele>
        <time>2024-09-27T12:45:18.000Z</time>
      </trkpt>
      <trkpt lat="40.22928" lon="20.47083">
        <ele>914.34997558594</ele>
        <time>2024-09-27T12:45:19.000Z</time>
      </trkpt>
      <trkpt lat="40.22923" lon="20.4708">
        <ele>914.83001708984</ele>
        <time>2024-09-27T12:45:20.000Z</time>
      </trkpt>
      <trkpt lat="40.22918" lon="20.47077">
        <ele>915.30999755859</ele>
        <time>2024-09-27T12:45:21.000Z</time>
      </trkpt>
      <trkpt lat="40.22912" lon="20.47076">
        <ele>915.78997802734</ele>
        <time>2024-09-27T12:45:22.000Z</time>
      </trkpt>
      <trkpt lat="40.22907" lon="20.47075">
        <ele>916.27001953125</ele>
        <time>2024-09-27T12:45:23.000Z</time>
      </trkpt>
      <trkpt lat="40.22898" lon="20.47075">
        <ele>917.23999023438</ele>
        <time>2024-09-27T12:45:24.000Z</time>
      </trkpt>
      <trkpt lat="40.22894" lon="20.47074">
        <ele>917.23999023438</ele>
        <time>2024-09-27T12:45:25.000Z</time>
      </trkpt>
      <trkpt lat="40.22887" lon="20.47073">
        <ele>917.23999023438</ele>
        <time>2024-09-27T12:45:26.000Z</time>
      </trkpt>
      <trkpt lat="40.22876" lon="20.4707">
        <ele>918.20001220703</ele>
        <time>2024-09-27T12:45:27.000Z</time>
      </trkpt>
      <trkpt lat="40.22871" lon="20.47068">
        <ele>919.15997314453</ele>
        <time>2024-09-27T12:45:28.000Z</time>
      </trkpt>
      <trkpt lat="40.22866" lon="20.47067">
        <ele>920.11999511719</ele>
        <time>2024-09-27T12:45:29.000Z</time>
      </trkpt>
      <trkpt lat="40.22863" lon="20.47066">
        <ele>920.11999511719</ele>
        <time>2024-09-27T12:45:30.000Z</time>
      </trkpt>
      <trkpt lat="40.22855" lon="20.47066">
        <ele>920.59997558594</ele>
        <time>2024-09-27T12:45:31.000Z</time>
      </trkpt>
      <trkpt lat="40.22851" lon="20.47066">
        <ele>920.59997558594</ele>
        <time>2024-09-27T12:45:32.000Z</time>
      </trkpt>
      <trkpt lat="40.22847" lon="20.47067">
        <ele>921.08001708984</ele>
        <time>2024-09-27T12:45:33.000Z</time>
      </trkpt>
      <trkpt lat="40.22842" lon="20.47068">
        <ele>921.08001708984</ele>
        <time>2024-09-27T12:45:34.000Z</time>
      </trkpt>
      <trkpt lat="40.2283" lon="20.4708">
        <ele>922.03997802734</ele>
        <time>2024-09-27T12:45:38.000Z</time>
      </trkpt>
      <trkpt lat="40.22829" lon="20.47083">
        <ele>922.03997802734</ele>
        <time>2024-09-27T12:45:39.000Z</time>
      </trkpt>
      <trkpt lat="40.22826" lon="20.47088">
        <ele>922.52001953125</ele>
        <time>2024-09-27T12:45:40.000Z</time>
      </trkpt>
      <trkpt lat="40.22823" lon="20.47092">
        <ele>923</ele>
        <time>2024-09-27T12:45:41.000Z</time>
      </trkpt>
      <trkpt lat="40.22816" lon="20.47094">
        <ele>923.47998046875</ele>
        <time>2024-09-27T12:45:42.000Z</time>
      </trkpt>
      <trkpt lat="40.22809" lon="20.47095">
        <ele>924.45001220703</ele>
        <time>2024-09-27T12:45:43.000Z</time>
      </trkpt>
      <trkpt lat="40.22803" lon="20.47095">
        <ele>924.92999267578</ele>
        <time>2024-09-27T12:45:44.000Z</time>
      </trkpt>
      <trkpt lat="40.22797" lon="20.47096">
        <ele>925.40997314453</ele>
        <time>2024-09-27T12:45:45.000Z</time>
      </trkpt>
      <trkpt lat="40.2279" lon="20.47097">
        <ele>925.89001464844</ele>
        <time>2024-09-27T12:45:46.000Z</time>
      </trkpt>
      <trkpt lat="40.22785" lon="20.47098">
        <ele>926.36999511719</ele>
        <time>2024-09-27T12:45:47.000Z</time>
      </trkpt>
      <trkpt lat="40.22772" lon="20.47099">
        <ele>926.36999511719</ele>
        <time>2024-09-27T12:45:49.000Z</time>
      </trkpt>
      <trkpt lat="40.22765" lon="20.471">
        <ele>926.84997558594</ele>
        <time>2024-09-27T12:45:50.000Z</time>
      </trkpt>
      <trkpt lat="40.22757" lon="20.47101">
        <ele>927.80999755859</ele>
        <time>2024-09-27T12:45:51.000Z</time>
      </trkpt>
      <trkpt lat="40.22752" lon="20.47102">
        <ele>928.77001953125</ele>
        <time>2024-09-27T12:45:52.000Z</time>
      </trkpt>
      <trkpt lat="40.22745" lon="20.47103">
        <ele>929.72998046875</ele>
        <time>2024-09-27T12:45:53.000Z</time>
      </trkpt>
      <trkpt lat="40.22739" lon="20.47104">
        <ele>930.69000244141</ele>
        <time>2024-09-27T12:45:54.000Z</time>
      </trkpt>
      <trkpt lat="40.22731" lon="20.47105">
        <ele>931.65002441406</ele>
        <time>2024-09-27T12:45:55.000Z</time>
      </trkpt>
      <trkpt lat="40.22729" lon="20.47105">
        <ele>932.61999511719</ele>
        <time>2024-09-27T12:45:56.000Z</time>
      </trkpt>
      <trkpt lat="40.22724" lon="20.47104">
        <ele>932.61999511719</ele>
        <time>2024-09-27T12:45:57.000Z</time>
      </trkpt>
      <trkpt lat="40.2272" lon="20.47104">
        <ele>933.09997558594</ele>
        <time>2024-09-27T12:45:58.000Z</time>
      </trkpt>
      <trkpt lat="40.22717" lon="20.47104">
        <ele>932.61999511719</ele>
        <time>2024-09-27T12:45:59.000Z</time>
      </trkpt>
      <trkpt lat="40.22712" lon="20.47106">
        <ele>932.61999511719</ele>
        <time>2024-09-27T12:46:00.000Z</time>
      </trkpt>
      <trkpt lat="40.22704" lon="20.47119">
        <ele>931.16998291016</ele>
        <time>2024-09-27T12:46:03.000Z</time>
      </trkpt>
      <trkpt lat="40.22704" lon="20.47121">
        <ele>931.16998291016</ele>
        <time>2024-09-27T12:46:04.000Z</time>
      </trkpt>
      <trkpt lat="40.22705" lon="20.47127">
        <ele>930.69000244141</ele>
        <time>2024-09-27T12:46:05.000Z</time>
      </trkpt>
      <trkpt lat="40.22696" lon="20.4714">
        <ele>929.72998046875</ele>
        <time>2024-09-27T12:46:09.000Z</time>
      </trkpt>
      <trkpt lat="40.22692" lon="20.47139">
        <ele>929.72998046875</ele>
        <time>2024-09-27T12:46:10.000Z</time>
      </trkpt>
      <trkpt lat="40.22684" lon="20.47138">
        <ele>930.69000244141</ele>
        <time>2024-09-27T12:46:11.000Z</time>
      </trkpt>
      <trkpt lat="40.22681" lon="20.47137">
        <ele>931.65002441406</ele>
        <time>2024-09-27T12:46:12.000Z</time>
      </trkpt>
      <trkpt lat="40.22675" lon="20.47137">
        <ele>932.61999511719</ele>
        <time>2024-09-27T12:46:13.000Z</time>
      </trkpt>
      <trkpt lat="40.22668" lon="20.47136">
        <ele>934.53997802734</ele>
        <time>2024-09-27T12:46:14.000Z</time>
      </trkpt>
      <trkpt lat="40.22659" lon="20.47134">
        <ele>936.94000244141</ele>
        <time>2024-09-27T12:46:15.000Z</time>
      </trkpt>
      <trkpt lat="40.22654" lon="20.47133">
        <ele>938.85998535156</ele>
        <time>2024-09-27T12:46:16.000Z</time>
      </trkpt>
      <trkpt lat="40.22647" lon="20.47133">
        <ele>939.83001708984</ele>
        <time>2024-09-27T12:46:17.000Z</time>
      </trkpt>
      <trkpt lat="40.22643" lon="20.47133">
        <ele>940.78997802734</ele>
        <time>2024-09-27T12:46:18.000Z</time>
      </trkpt>
      <trkpt lat="40.22638" lon="20.47134">
        <ele>941.75</ele>
        <time>2024-09-27T12:46:19.000Z</time>
      </trkpt>
      <trkpt lat="40.22634" lon="20.47136">
        <ele>942.71002197266</ele>
        <time>2024-09-27T12:46:20.000Z</time>
      </trkpt>
      <trkpt lat="40.22631" lon="20.47139">
        <ele>943.19000244141</ele>
        <time>2024-09-27T12:46:21.000Z</time>
      </trkpt>
      <trkpt lat="40.22627" lon="20.47143">
        <ele>944.15002441406</ele>
        <time>2024-09-27T12:46:22.000Z</time>
      </trkpt>
      <trkpt lat="40.22623" lon="20.47146">
        <ele>945.10998535156</ele>
        <time>2024-09-27T12:46:23.000Z</time>
      </trkpt>
      <trkpt lat="40.22614" lon="20.47151">
        <ele>945.59002685547</ele>
        <time>2024-09-27T12:46:30.000Z</time>
      </trkpt>
      <trkpt lat="40.22607" lon="20.47154">
        <ele>946.07000732422</ele>
        <time>2024-09-27T12:46:33.000Z</time>
      </trkpt>
      <trkpt lat="40.22603" lon="20.47155">
        <ele>946.55999755859</ele>
        <time>2024-09-27T12:46:34.000Z</time>
      </trkpt>
      <trkpt lat="40.22597" lon="20.47156">
        <ele>947.03997802734</ele>
        <time>2024-09-27T12:46:35.000Z</time>
      </trkpt>
      <trkpt lat="40.22592" lon="20.47157">
        <ele>947.52001953125</ele>
        <time>2024-09-27T12:46:36.000Z</time>
      </trkpt>
      <trkpt lat="40.22587" lon="20.47159">
        <ele>948.47998046875</ele>
        <time>2024-09-27T12:46:37.000Z</time>
      </trkpt>
      <trkpt lat="40.22582" lon="20.4716">
        <ele>949.44000244141</ele>
        <time>2024-09-27T12:46:38.000Z</time>
      </trkpt>
      <trkpt lat="40.22577" lon="20.47162">
        <ele>950.40002441406</ele>
        <time>2024-09-27T12:46:39.000Z</time>
      </trkpt>
      <trkpt lat="40.22572" lon="20.47164">
        <ele>951.35998535156</ele>
        <time>2024-09-27T12:46:40.000Z</time>
      </trkpt>
      <trkpt lat="40.22568" lon="20.47167">
        <ele>951.84002685547</ele>
        <time>2024-09-27T12:46:41.000Z</time>
      </trkpt>
      <trkpt lat="40.22564" lon="20.47171">
        <ele>952.79998779297</ele>
        <time>2024-09-27T12:46:42.000Z</time>
      </trkpt>
      <trkpt lat="40.2256" lon="20.47175">
        <ele>954.25</ele>
        <time>2024-09-27T12:46:43.000Z</time>
      </trkpt>
      <trkpt lat="40.22556" lon="20.47177">
        <ele>955.21002197266</ele>
        <time>2024-09-27T12:46:44.000Z</time>
      </trkpt>
      <trkpt lat="40.22552" lon="20.47179">
        <ele>956.16998291016</ele>
        <time>2024-09-27T12:46:45.000Z</time>
      </trkpt>
      <trkpt lat="40.22548" lon="20.47183">
        <ele>956.65002441406</ele>
        <time>2024-09-27T12:46:46.000Z</time>
      </trkpt>
      <trkpt lat="40.22544" lon="20.47187">
        <ele>957.60998535156</ele>
        <time>2024-09-27T12:46:47.000Z</time>
      </trkpt>
      <trkpt lat="40.22539" lon="20.47191">
        <ele>958.57000732422</ele>
        <time>2024-09-27T12:46:48.000Z</time>
      </trkpt>
      <trkpt lat="40.22535" lon="20.47194">
        <ele>959.53002929688</ele>
        <time>2024-09-27T12:46:49.000Z</time>
      </trkpt>
      <trkpt lat="40.22532" lon="20.47198">
        <ele>960.48999023438</ele>
        <time>2024-09-27T12:46:50.000Z</time>
      </trkpt>
      <trkpt lat="40.22528" lon="20.47203">
        <ele>961.46002197266</ele>
        <time>2024-09-27T12:46:51.000Z</time>
      </trkpt>
      <trkpt lat="40.22525" lon="20.47208">
        <ele>962.90002441406</ele>
        <time>2024-09-27T12:46:52.000Z</time>
      </trkpt>
      <trkpt lat="40.2252" lon="20.47215">
        <ele>964.34002685547</ele>
        <time>2024-09-27T12:46:53.000Z</time>
      </trkpt>
      <trkpt lat="40.22512" lon="20.47222">
        <ele>966.26000976562</ele>
        <time>2024-09-27T12:46:54.000Z</time>
      </trkpt>
      <trkpt lat="40.2251" lon="20.47224">
        <ele>966.26000976562</ele>
        <time>2024-09-27T12:46:55.000Z</time>
      </trkpt>
      <trkpt lat="40.22505" lon="20.4723">
        <ele>968.17999267578</ele>
        <time>2024-09-27T12:46:56.000Z</time>
      </trkpt>
      <trkpt lat="40.22502" lon="20.47234">
        <ele>969.15002441406</ele>
        <time>2024-09-27T12:46:57.000Z</time>
      </trkpt>
      <trkpt lat="40.225" lon="20.47238">
        <ele>970.10998535156</ele>
        <time>2024-09-27T12:46:58.000Z</time>
      </trkpt>
      <trkpt lat="40.22498" lon="20.47243">
        <ele>970.59002685547</ele>
        <time>2024-09-27T12:46:59.000Z</time>
      </trkpt>
      <trkpt lat="40.22496" lon="20.4725">
        <ele>971.54998779297</ele>
        <time>2024-09-27T12:47:00.000Z</time>
      </trkpt>
      <trkpt lat="40.22495" lon="20.47258">
        <ele>972.51000976562</ele>
        <time>2024-09-27T12:47:01.000Z</time>
      </trkpt>
      <trkpt lat="40.22494" lon="20.47268">
        <ele>972.98999023438</ele>
        <time>2024-09-27T12:47:02.000Z</time>
      </trkpt>
      <trkpt lat="40.22494" lon="20.47272">
        <ele>973.46997070312</ele>
        <time>2024-09-27T12:47:03.000Z</time>
      </trkpt>
      <trkpt lat="40.22493" lon="20.47278">
        <ele>974.42999267578</ele>
        <time>2024-09-27T12:47:04.000Z</time>
      </trkpt>
      <trkpt lat="40.22489" lon="20.47286">
        <ele>975.39001464844</ele>
        <time>2024-09-27T12:47:05.000Z</time>
      </trkpt>
      <trkpt lat="40.22488" lon="20.47286">
        <ele>975.39001464844</ele>
        <time>2024-09-27T12:47:06.000Z</time>
      </trkpt>
      <trkpt lat="40.22484" lon="20.47289">
        <ele>975.39001464844</ele>
        <time>2024-09-27T12:47:07.000Z</time>
      </trkpt>
      <trkpt lat="40.22462" lon="20.473">
        <ele>974.90997314453</ele>
        <time>2024-09-27T12:47:11.000Z</time>
      </trkpt>
      <trkpt lat="40.22458" lon="20.47302">
        <ele>974.42999267578</ele>
        <time>2024-09-27T12:47:12.000Z</time>
      </trkpt>
      <trkpt lat="40.22454" lon="20.47306">
        <ele>974.42999267578</ele>
        <time>2024-09-27T12:47:13.000Z</time>
      </trkpt>
      <trkpt lat="40.22451" lon="20.4731">
        <ele>974.42999267578</ele>
        <time>2024-09-27T12:47:14.000Z</time>
      </trkpt>
      <trkpt lat="40.22448" lon="20.47315">
        <ele>974.90997314453</ele>
        <time>2024-09-27T12:47:15.000Z</time>
      </trkpt>
      <trkpt lat="40.22445" lon="20.47318">
        <ele>974.90997314453</ele>
        <time>2024-09-27T12:47:16.000Z</time>
      </trkpt>
      <trkpt lat="40.2244" lon="20.47322">
        <ele>974.90997314453</ele>
        <time>2024-09-27T12:47:17.000Z</time>
      </trkpt>
      <trkpt lat="40.22434" lon="20.47325">
        <ele>974.90997314453</ele>
        <time>2024-09-27T12:47:18.000Z</time>
      </trkpt>
      <trkpt lat="40.22428" lon="20.47329">
        <ele>974.90997314453</ele>
        <time>2024-09-27T12:47:19.000Z</time>
      </trkpt>
      <trkpt lat="40.22423" lon="20.47333">
        <ele>974.90997314453</ele>
        <time>2024-09-27T12:47:20.000Z</time>
      </trkpt>
      <trkpt lat="40.22418" lon="20.47336">
        <ele>974.90997314453</ele>
        <time>2024-09-27T12:47:21.000Z</time>
      </trkpt>
      <trkpt lat="40.22413" lon="20.47341">
        <ele>975.39001464844</ele>
        <time>2024-09-27T12:47:22.000Z</time>
      </trkpt>
      <trkpt lat="40.22409" lon="20.47345">
        <ele>976.35998535156</ele>
        <time>2024-09-27T12:47:23.000Z</time>
      </trkpt>
      <trkpt lat="40.22407" lon="20.47348">
        <ele>976.35998535156</ele>
        <time>2024-09-27T12:47:24.000Z</time>
      </trkpt>
      <trkpt lat="40.22402" lon="20.47358">
        <ele>976.35998535156</ele>
        <time>2024-09-27T12:47:26.000Z</time>
      </trkpt>
      <trkpt lat="40.224" lon="20.47363">
        <ele>975.88000488281</ele>
        <time>2024-09-27T12:47:27.000Z</time>
      </trkpt>
      <trkpt lat="40.22399" lon="20.47368">
        <ele>974.90997314453</ele>
        <time>2024-09-27T12:47:28.000Z</time>
      </trkpt>
      <trkpt lat="40.22397" lon="20.47375">
        <ele>974.42999267578</ele>
        <time>2024-09-27T12:47:29.000Z</time>
      </trkpt>
      <trkpt lat="40.22396" lon="20.47399">
        <ele>974.90997314453</ele>
        <time>2024-09-27T12:47:35.000Z</time>
      </trkpt>
      <trkpt lat="40.22388" lon="20.47403">
        <ele>975.39001464844</ele>
        <time>2024-09-27T12:47:38.000Z</time>
      </trkpt>
      <trkpt lat="40.22387" lon="20.47403">
        <ele>975.88000488281</ele>
        <time>2024-09-27T12:47:39.000Z</time>
      </trkpt>
      <trkpt lat="40.22382" lon="20.47404">
        <ele>975.88000488281</ele>
        <time>2024-09-27T12:47:40.000Z</time>
      </trkpt>
      <trkpt lat="40.22379" lon="20.47404">
        <ele>976.35998535156</ele>
        <time>2024-09-27T12:47:41.000Z</time>
      </trkpt>
      <trkpt lat="40.22374" lon="20.47407">
        <ele>977.32000732422</ele>
        <time>2024-09-27T12:47:42.000Z</time>
      </trkpt>
      <trkpt lat="40.2237" lon="20.47408">
        <ele>978.28002929688</ele>
        <time>2024-09-27T12:47:43.000Z</time>
      </trkpt>
      <trkpt lat="40.22362" lon="20.47416">
        <ele>980.67999267578</ele>
        <time>2024-09-27T12:47:45.000Z</time>
      </trkpt>
      <trkpt lat="40.22362" lon="20.47419">
        <ele>980.67999267578</ele>
        <time>2024-09-27T12:47:46.000Z</time>
      </trkpt>
      <trkpt lat="40.22363" lon="20.47424">
        <ele>981.15997314453</ele>
        <time>2024-09-27T12:47:47.000Z</time>
      </trkpt>
      <trkpt lat="40.22366" lon="20.4743">
        <ele>982.59997558594</ele>
        <time>2024-09-27T12:47:48.000Z</time>
      </trkpt>
      <trkpt lat="40.2237" lon="20.47435">
        <ele>983.57000732422</ele>
        <time>2024-09-27T12:47:49.000Z</time>
      </trkpt>
      <trkpt lat="40.22374" lon="20.47439">
        <ele>985.01000976562</ele>
        <time>2024-09-27T12:47:50.000Z</time>
      </trkpt>
      <trkpt lat="40.22378" lon="20.47442">
        <ele>985.96997070312</ele>
        <time>2024-09-27T12:47:51.000Z</time>
      </trkpt>
      <trkpt lat="40.22383" lon="20.47444">
        <ele>987.40997314453</ele>
        <time>2024-09-27T12:47:52.000Z</time>
      </trkpt>
      <trkpt lat="40.22387" lon="20.47445">
        <ele>988.36999511719</ele>
        <time>2024-09-27T12:47:53.000Z</time>
      </trkpt>
      <trkpt lat="40.22389" lon="20.47463">
        <ele>992.70001220703</ele>
        <time>2024-09-27T12:47:57.000Z</time>
      </trkpt>
      <trkpt lat="40.22387" lon="20.47467">
        <ele>993.17999267578</ele>
        <time>2024-09-27T12:47:58.000Z</time>
      </trkpt>
      <trkpt lat="40.22383" lon="20.4747">
        <ele>993.65997314453</ele>
        <time>2024-09-27T12:47:59.000Z</time>
      </trkpt>
      <trkpt lat="40.22379" lon="20.47474">
        <ele>994.61999511719</ele>
        <time>2024-09-27T12:48:00.000Z</time>
      </trkpt>
      <trkpt lat="40.22376" lon="20.47476">
        <ele>995.09997558594</ele>
        <time>2024-09-27T12:48:01.000Z</time>
      </trkpt>
      <trkpt lat="40.22354" lon="20.47487">
        <ele>995.09997558594</ele>
        <time>2024-09-27T12:48:07.000Z</time>
      </trkpt>
      <trkpt lat="40.22353" lon="20.47487">
        <ele>995.09997558594</ele>
        <time>2024-09-27T12:48:08.000Z</time>
      </trkpt>
      <trkpt lat="40.22349" lon="20.4749">
        <ele>995.09997558594</ele>
        <time>2024-09-27T12:48:09.000Z</time>
      </trkpt>
      <trkpt lat="40.22346" lon="20.47492">
        <ele>995.09997558594</ele>
        <time>2024-09-27T12:48:10.000Z</time>
      </trkpt>
      <trkpt lat="40.22342" lon="20.47495">
        <ele>995.58001708984</ele>
        <time>2024-09-27T12:48:11.000Z</time>
      </trkpt>
      <trkpt lat="40.2232" lon="20.47507">
        <ele>995.09997558594</ele>
        <time>2024-09-27T12:48:17.000Z</time>
      </trkpt>
      <trkpt lat="40.22316" lon="20.47507">
        <ele>994.61999511719</ele>
        <time>2024-09-27T12:48:19.000Z</time>
      </trkpt>
      <trkpt lat="40.22312" lon="20.47505">
        <ele>994.14001464844</ele>
        <time>2024-09-27T12:48:20.000Z</time>
      </trkpt>
      <trkpt lat="40.22307" lon="20.475">
        <ele>993.65997314453</ele>
        <time>2024-09-27T12:48:21.000Z</time>
      </trkpt>
      <trkpt lat="40.22302" lon="20.47496">
        <ele>994.14001464844</ele>
        <time>2024-09-27T12:48:22.000Z</time>
      </trkpt>
      <trkpt lat="40.22297" lon="20.4749">
        <ele>994.14001464844</ele>
        <time>2024-09-27T12:48:23.000Z</time>
      </trkpt>
      <trkpt lat="40.22293" lon="20.47486">
        <ele>994.61999511719</ele>
        <time>2024-09-27T12:48:24.000Z</time>
      </trkpt>
      <trkpt lat="40.22288" lon="20.47481">
        <ele>995.09997558594</ele>
        <time>2024-09-27T12:48:25.000Z</time>
      </trkpt>
      <trkpt lat="40.22284" lon="20.47477">
        <ele>996.05999755859</ele>
        <time>2024-09-27T12:48:26.000Z</time>
      </trkpt>
      <trkpt lat="40.22277" lon="20.47474">
        <ele>996.53997802734</ele>
        <time>2024-09-27T12:48:27.000Z</time>
      </trkpt>
      <trkpt lat="40.22274" lon="20.47473">
        <ele>997.02001953125</ele>
        <time>2024-09-27T12:48:28.000Z</time>
      </trkpt>
      <trkpt lat="40.22269" lon="20.47473">
        <ele>997.51000976562</ele>
        <time>2024-09-27T12:48:29.000Z</time>
      </trkpt>
      <trkpt lat="40.22265" lon="20.47474">
        <ele>997.98999023438</ele>
        <time>2024-09-27T12:48:30.000Z</time>
      </trkpt>
      <trkpt lat="40.2226" lon="20.47477">
        <ele>997.98999023438</ele>
        <time>2024-09-27T12:48:31.000Z</time>
      </trkpt>
      <trkpt lat="40.22257" lon="20.4748">
        <ele>998.46997070312</ele>
        <time>2024-09-27T12:48:32.000Z</time>
      </trkpt>
      <trkpt lat="40.22254" lon="20.47485">
        <ele>998.95001220703</ele>
        <time>2024-09-27T12:48:33.000Z</time>
      </trkpt>
      <trkpt lat="40.22252" lon="20.47491">
        <ele>998.95001220703</ele>
        <time>2024-09-27T12:48:34.000Z</time>
      </trkpt>
      <trkpt lat="40.2224" lon="20.47513">
        <ele>999.42999267578</ele>
        <time>2024-09-27T12:48:41.000Z</time>
      </trkpt>
      <trkpt lat="40.22237" lon="20.47517">
        <ele>999.90997314453</ele>
        <time>2024-09-27T12:48:42.000Z</time>
      </trkpt>
      <trkpt lat="40.22234" lon="20.4752">
        <ele>999.90997314453</ele>
        <time>2024-09-27T12:48:43.000Z</time>
      </trkpt>
      <trkpt lat="40.22229" lon="20.47525">
        <ele>1000.3900146484</ele>
        <time>2024-09-27T12:48:50.000Z</time>
      </trkpt>
      <trkpt lat="40.22226" lon="20.47526">
        <ele>1000.3900146484</ele>
        <time>2024-09-27T12:49:57.000Z</time>
      </trkpt>
      <trkpt lat="40.22216" lon="20.47543">
        <ele>999.42999267578</ele>
        <time>2024-09-27T12:50:13.000Z</time>
      </trkpt>
      <trkpt lat="40.22208" lon="20.47544">
        <ele>999.42999267578</ele>
        <time>2024-09-27T12:50:15.000Z</time>
      </trkpt>
      <trkpt lat="40.22207" lon="20.47543">
        <ele>999.42999267578</ele>
        <time>2024-09-27T12:50:16.000Z</time>
      </trkpt>
      <trkpt lat="40.22203" lon="20.4754">
        <ele>999.90997314453</ele>
        <time>2024-09-27T12:50:17.000Z</time>
      </trkpt>
      <trkpt lat="40.22199" lon="20.47536">
        <ele>1000.3900146484</ele>
        <time>2024-09-27T12:50:18.000Z</time>
      </trkpt>
      <trkpt lat="40.22195" lon="20.47532">
        <ele>1000.8699951172</ele>
        <time>2024-09-27T12:50:19.000Z</time>
      </trkpt>
      <trkpt lat="40.22191" lon="20.47528">
        <ele>1000.8699951172</ele>
        <time>2024-09-27T12:50:20.000Z</time>
      </trkpt>
      <trkpt lat="40.22187" lon="20.47526">
        <ele>1001.8300170898</ele>
        <time>2024-09-27T12:50:21.000Z</time>
      </trkpt>
      <trkpt lat="40.22177" lon="20.4753">
        <ele>1001.3499755859</ele>
        <time>2024-09-27T12:50:23.000Z</time>
      </trkpt>
      <trkpt lat="40.22175" lon="20.47531">
        <ele>1001.3499755859</ele>
        <time>2024-09-27T12:50:24.000Z</time>
      </trkpt>
      <trkpt lat="40.22171" lon="20.47532">
        <ele>1000.8699951172</ele>
        <time>2024-09-27T12:50:25.000Z</time>
      </trkpt>
      <trkpt lat="40.22168" lon="20.47529">
        <ele>1001.3499755859</ele>
        <time>2024-09-27T12:50:26.000Z</time>
      </trkpt>
      <trkpt lat="40.22166" lon="20.47523">
        <ele>1001.3499755859</ele>
        <time>2024-09-27T12:50:27.000Z</time>
      </trkpt>
      <trkpt lat="40.22162" lon="20.4751">
        <ele>1001.3499755859</ele>
        <time>2024-09-27T12:50:29.000Z</time>
      </trkpt>
      <trkpt lat="40.2216" lon="20.47504">
        <ele>1001.8300170898</ele>
        <time>2024-09-27T12:50:30.000Z</time>
      </trkpt>
      <trkpt lat="40.22155" lon="20.47495">
        <ele>1001.8300170898</ele>
        <time>2024-09-27T12:50:31.000Z</time>
      </trkpt>
      <trkpt lat="40.22152" lon="20.47491">
        <ele>1001.8300170898</ele>
        <time>2024-09-27T12:50:32.000Z</time>
      </trkpt>
      <trkpt lat="40.22148" lon="20.47485">
        <ele>1002.3099975586</ele>
        <time>2024-09-27T12:50:33.000Z</time>
      </trkpt>
      <trkpt lat="40.22144" lon="20.47478">
        <ele>1003.2700195312</ele>
        <time>2024-09-27T12:50:34.000Z</time>
      </trkpt>
      <trkpt lat="40.2214" lon="20.47469">
        <ele>1003.75</ele>
        <time>2024-09-27T12:50:35.000Z</time>
      </trkpt>
      <trkpt lat="40.22138" lon="20.47464">
        <ele>1004.7199707031</ele>
        <time>2024-09-27T12:50:36.000Z</time>
      </trkpt>
      <trkpt lat="40.22135" lon="20.47458">
        <ele>1005.200012207</ele>
        <time>2024-09-27T12:50:37.000Z</time>
      </trkpt>
      <trkpt lat="40.22131" lon="20.4745">
        <ele>1005.6799926758</ele>
        <time>2024-09-27T12:50:38.000Z</time>
      </trkpt>
      <trkpt lat="40.22129" lon="20.47444">
        <ele>1006.1599731445</ele>
        <time>2024-09-27T12:50:39.000Z</time>
      </trkpt>
      <trkpt lat="40.22127" lon="20.47438">
        <ele>1006.6400146484</ele>
        <time>2024-09-27T12:50:40.000Z</time>
      </trkpt>
      <trkpt lat="40.22119" lon="20.47431">
        <ele>1006.6400146484</ele>
        <time>2024-09-27T12:50:43.000Z</time>
      </trkpt>
      <trkpt lat="40.22114" lon="20.4743">
        <ele>1006.6400146484</ele>
        <time>2024-09-27T12:50:44.000Z</time>
      </trkpt>
      <trkpt lat="40.22109" lon="20.47429">
        <ele>1006.1599731445</ele>
        <time>2024-09-27T12:50:45.000Z</time>
      </trkpt>
      <trkpt lat="40.22103" lon="20.47428">
        <ele>1005.200012207</ele>
        <time>2024-09-27T12:50:46.000Z</time>
      </trkpt>
      <trkpt lat="40.22097" lon="20.47427">
        <ele>1004.2299804688</ele>
        <time>2024-09-27T12:50:47.000Z</time>
      </trkpt>
      <trkpt lat="40.22092" lon="20.47425">
        <ele>1003.75</ele>
        <time>2024-09-27T12:50:48.000Z</time>
      </trkpt>
      <trkpt lat="40.22086" lon="20.47424">
        <ele>1002.7899780273</ele>
        <time>2024-09-27T12:50:49.000Z</time>
      </trkpt>
      <trkpt lat="40.2208" lon="20.47424">
        <ele>1002.3099975586</ele>
        <time>2024-09-27T12:50:50.000Z</time>
      </trkpt>
      <trkpt lat="40.22074" lon="20.47425">
        <ele>1001.8300170898</ele>
        <time>2024-09-27T12:50:51.000Z</time>
      </trkpt>
      <trkpt lat="40.22069" lon="20.47425">
        <ele>1001.3499755859</ele>
        <time>2024-09-27T12:50:52.000Z</time>
      </trkpt>
      <trkpt lat="40.22065" lon="20.47423">
        <ele>1001.3499755859</ele>
        <time>2024-09-27T12:50:53.000Z</time>
      </trkpt>
      <trkpt lat="40.22061" lon="20.47419">
        <ele>1000.8699951172</ele>
        <time>2024-09-27T12:50:54.000Z</time>
      </trkpt>
      <trkpt lat="40.22058" lon="20.47414">
        <ele>1000.3900146484</ele>
        <time>2024-09-27T12:50:55.000Z</time>
      </trkpt>
      <trkpt lat="40.22055" lon="20.47408">
        <ele>999.90997314453</ele>
        <time>2024-09-27T12:50:56.000Z</time>
      </trkpt>
      <trkpt lat="40.22053" lon="20.47401">
        <ele>998.95001220703</ele>
        <time>2024-09-27T12:50:57.000Z</time>
      </trkpt>
      <trkpt lat="40.22053" lon="20.47395">
        <ele>998.46997070312</ele>
        <time>2024-09-27T12:50:58.000Z</time>
      </trkpt>
      <trkpt lat="40.22053" lon="20.4739">
        <ele>997.51000976562</ele>
        <time>2024-09-27T12:50:59.000Z</time>
      </trkpt>
      <trkpt lat="40.22058" lon="20.47375">
        <ele>994.61999511719</ele>
        <time>2024-09-27T12:51:02.000Z</time>
      </trkpt>
      <trkpt lat="40.22058" lon="20.47372">
        <ele>994.61999511719</ele>
        <time>2024-09-27T12:51:03.000Z</time>
      </trkpt>
      <trkpt lat="40.22059" lon="20.47366">
        <ele>993.65997314453</ele>
        <time>2024-09-27T12:51:04.000Z</time>
      </trkpt>
      <trkpt lat="40.22059" lon="20.4736">
        <ele>993.17999267578</ele>
        <time>2024-09-27T12:51:05.000Z</time>
      </trkpt>
      <trkpt lat="40.22058" lon="20.47353">
        <ele>992.70001220703</ele>
        <time>2024-09-27T12:51:06.000Z</time>
      </trkpt>
      <trkpt lat="40.22056" lon="20.47347">
        <ele>992.21997070312</ele>
        <time>2024-09-27T12:51:07.000Z</time>
      </trkpt>
      <trkpt lat="40.22053" lon="20.47342">
        <ele>992.70001220703</ele>
        <time>2024-09-27T12:51:08.000Z</time>
      </trkpt>
      <trkpt lat="40.22049" lon="20.47339">
        <ele>992.70001220703</ele>
        <time>2024-09-27T12:51:09.000Z</time>
      </trkpt>
      <trkpt lat="40.22044" lon="20.47336">
        <ele>992.70001220703</ele>
        <time>2024-09-27T12:51:10.000Z</time>
      </trkpt>
      <trkpt lat="40.22036" lon="20.47332">
        <ele>993.17999267578</ele>
        <time>2024-09-27T12:51:11.000Z</time>
      </trkpt>
      <trkpt lat="40.22031" lon="20.47329">
        <ele>993.17999267578</ele>
        <time>2024-09-27T12:51:12.000Z</time>
      </trkpt>
      <trkpt lat="40.22027" lon="20.47325">
        <ele>993.65997314453</ele>
        <time>2024-09-27T12:51:13.000Z</time>
      </trkpt>
      <trkpt lat="40.22021" lon="20.4732">
        <ele>993.65997314453</ele>
        <time>2024-09-27T12:51:14.000Z</time>
      </trkpt>
      <trkpt lat="40.22015" lon="20.47314">
        <ele>994.14001464844</ele>
        <time>2024-09-27T12:51:15.000Z</time>
      </trkpt>
      <trkpt lat="40.22011" lon="20.47309">
        <ele>994.61999511719</ele>
        <time>2024-09-27T12:51:16.000Z</time>
      </trkpt>
      <trkpt lat="40.22004" lon="20.47302">
        <ele>995.58001708984</ele>
        <time>2024-09-27T12:51:17.000Z</time>
      </trkpt>
      <trkpt lat="40.21999" lon="20.47299">
        <ele>997.02001953125</ele>
        <time>2024-09-27T12:51:18.000Z</time>
      </trkpt>
      <trkpt lat="40.21994" lon="20.47297">
        <ele>997.98999023438</ele>
        <time>2024-09-27T12:51:19.000Z</time>
      </trkpt>
      <trkpt lat="40.21989" lon="20.47297">
        <ele>999.42999267578</ele>
        <time>2024-09-27T12:51:20.000Z</time>
      </trkpt>
      <trkpt lat="40.21984" lon="20.47299">
        <ele>1000.3900146484</ele>
        <time>2024-09-27T12:51:21.000Z</time>
      </trkpt>
      <trkpt lat="40.21979" lon="20.47302">
        <ele>1000.3900146484</ele>
        <time>2024-09-27T12:51:22.000Z</time>
      </trkpt>
      <trkpt lat="40.21975" lon="20.47302">
        <ele>999.90997314453</ele>
        <time>2024-09-27T12:51:23.000Z</time>
      </trkpt>
      <trkpt lat="40.21968" lon="20.47298">
        <ele>1000.3900146484</ele>
        <time>2024-09-27T12:51:25.000Z</time>
      </trkpt>
      <trkpt lat="40.21965" lon="20.47293">
        <ele>1001.8300170898</ele>
        <time>2024-09-27T12:51:26.000Z</time>
      </trkpt>
      <trkpt lat="40.2196" lon="20.47289">
        <ele>1002.7899780273</ele>
        <time>2024-09-27T12:51:27.000Z</time>
      </trkpt>
      <trkpt lat="40.21955" lon="20.47286">
        <ele>1004.2299804688</ele>
        <time>2024-09-27T12:51:28.000Z</time>
      </trkpt>
      <trkpt lat="40.21951" lon="20.47283">
        <ele>1004.7199707031</ele>
        <time>2024-09-27T12:51:29.000Z</time>
      </trkpt>
      <trkpt lat="40.21946" lon="20.4728">
        <ele>1006.1599731445</ele>
        <time>2024-09-27T12:51:30.000Z</time>
      </trkpt>
      <trkpt lat="40.21942" lon="20.47279">
        <ele>1007.1199951172</ele>
        <time>2024-09-27T12:51:31.000Z</time>
      </trkpt>
      <trkpt lat="40.21937" lon="20.47279">
        <ele>1008.0800170898</ele>
        <time>2024-09-27T12:51:32.000Z</time>
      </trkpt>
      <trkpt lat="40.21931" lon="20.4728">
        <ele>1009.0399780273</ele>
        <time>2024-09-27T12:51:33.000Z</time>
      </trkpt>
      <trkpt lat="40.21927" lon="20.47281">
        <ele>1009.5200195312</ele>
        <time>2024-09-27T12:51:34.000Z</time>
      </trkpt>
      <trkpt lat="40.21921" lon="20.4729">
        <ele>1012.4099731445</ele>
        <time>2024-09-27T12:51:37.000Z</time>
      </trkpt>
      <trkpt lat="40.21921" lon="20.47294">
        <ele>1013.3699951172</ele>
        <time>2024-09-27T12:51:38.000Z</time>
      </trkpt>
      <trkpt lat="40.21921" lon="20.47302">
        <ele>1014.8099975586</ele>
        <time>2024-09-27T12:51:39.000Z</time>
      </trkpt>
      <trkpt lat="40.21921" lon="20.47311">
        <ele>1016.7299804688</ele>
        <time>2024-09-27T12:51:40.000Z</time>
      </trkpt>
      <trkpt lat="40.21921" lon="20.47317">
        <ele>1018.1699829102</ele>
        <time>2024-09-27T12:51:41.000Z</time>
      </trkpt>
      <trkpt lat="40.21921" lon="20.47322">
        <ele>1019.1300048828</ele>
        <time>2024-09-27T12:51:42.000Z</time>
      </trkpt>
      <trkpt lat="40.21921" lon="20.47327">
        <ele>1019.6199951172</ele>
        <time>2024-09-27T12:51:43.000Z</time>
      </trkpt>
      <trkpt lat="40.21922" lon="20.47333">
        <ele>1020.5800170898</ele>
        <time>2024-09-27T12:51:44.000Z</time>
      </trkpt>
      <trkpt lat="40.21924" lon="20.47338">
        <ele>1021.5399780273</ele>
        <time>2024-09-27T12:51:45.000Z</time>
      </trkpt>
      <trkpt lat="40.21927" lon="20.47344">
        <ele>1022.5</ele>
        <time>2024-09-27T12:51:46.000Z</time>
      </trkpt>
      <trkpt lat="40.21931" lon="20.4735">
        <ele>1024.4200439453</ele>
        <time>2024-09-27T12:51:47.000Z</time>
      </trkpt>
      <trkpt lat="40.21934" lon="20.47355">
        <ele>1025.3800048828</ele>
        <time>2024-09-27T12:51:48.000Z</time>
      </trkpt>
      <trkpt lat="40.21936" lon="20.47359">
        <ele>1026.3399658203</ele>
        <time>2024-09-27T12:51:49.000Z</time>
      </trkpt>
      <trkpt lat="40.21939" lon="20.47365">
        <ele>1026.8299560547</ele>
        <time>2024-09-27T12:51:50.000Z</time>
      </trkpt>
      <trkpt lat="40.21943" lon="20.47374">
        <ele>1028.2700195312</ele>
        <time>2024-09-27T12:51:51.000Z</time>
      </trkpt>
      <trkpt lat="40.21945" lon="20.47378">
        <ele>1028.75</ele>
        <time>2024-09-27T12:51:52.000Z</time>
      </trkpt>
      <trkpt lat="40.21947" lon="20.47383">
        <ele>1029.2299804688</ele>
        <time>2024-09-27T12:51:53.000Z</time>
      </trkpt>
      <trkpt lat="40.21951" lon="20.47392">
        <ele>1030.6700439453</ele>
        <time>2024-09-27T12:51:54.000Z</time>
      </trkpt>
      <trkpt lat="40.21953" lon="20.47396">
        <ele>1031.1500244141</ele>
        <time>2024-09-27T12:51:55.000Z</time>
      </trkpt>
      <trkpt lat="40.21956" lon="20.47402">
        <ele>1031.6300048828</ele>
        <time>2024-09-27T12:51:56.000Z</time>
      </trkpt>
      <trkpt lat="40.21958" lon="20.47407">
        <ele>1032.1099853516</ele>
        <time>2024-09-27T12:51:57.000Z</time>
      </trkpt>
      <trkpt lat="40.2196" lon="20.47413">
        <ele>1033.0699462891</ele>
        <time>2024-09-27T12:51:58.000Z</time>
      </trkpt>
      <trkpt lat="40.21962" lon="20.47417">
        <ele>1033.0699462891</ele>
        <time>2024-09-27T12:51:59.000Z</time>
      </trkpt>
      <trkpt lat="40.21963" lon="20.47437">
        <ele>1034.0400390625</ele>
        <time>2024-09-27T12:52:04.000Z</time>
      </trkpt>
      <trkpt lat="40.21963" lon="20.47439">
        <ele>1034.0400390625</ele>
        <time>2024-09-27T12:52:05.000Z</time>
      </trkpt>
      <trkpt lat="40.2196" lon="20.47444">
        <ele>1034.5200195312</ele>
        <time>2024-09-27T12:52:06.000Z</time>
      </trkpt>
      <trkpt lat="40.21947" lon="20.47464">
        <ele>1039.3199462891</ele>
        <time>2024-09-27T12:52:12.000Z</time>
      </trkpt>
      <trkpt lat="40.21947" lon="20.47466">
        <ele>1039.8000488281</ele>
        <time>2024-09-27T12:52:13.000Z</time>
      </trkpt>
      <trkpt lat="40.21947" lon="20.47472">
        <ele>1040.2800292969</ele>
        <time>2024-09-27T12:52:14.000Z</time>
      </trkpt>
      <trkpt lat="40.21949" lon="20.47478">
        <ele>1041.25</ele>
        <time>2024-09-27T12:52:15.000Z</time>
      </trkpt>
      <trkpt lat="40.21953" lon="20.47486">
        <ele>1042.2099609375</ele>
        <time>2024-09-27T12:52:16.000Z</time>
      </trkpt>
      <trkpt lat="40.21956" lon="20.47491">
        <ele>1043.1700439453</ele>
        <time>2024-09-27T12:52:17.000Z</time>
      </trkpt>
      <trkpt lat="40.2196" lon="20.47497">
        <ele>1044.1300048828</ele>
        <time>2024-09-27T12:52:18.000Z</time>
      </trkpt>
      <trkpt lat="40.21965" lon="20.47503">
        <ele>1045.5699462891</ele>
        <time>2024-09-27T12:52:19.000Z</time>
      </trkpt>
      <trkpt lat="40.2197" lon="20.47508">
        <ele>1046.5300292969</ele>
        <time>2024-09-27T12:52:20.000Z</time>
      </trkpt>
      <trkpt lat="40.21975" lon="20.47511">
        <ele>1047.9699707031</ele>
        <time>2024-09-27T12:52:21.000Z</time>
      </trkpt>
      <trkpt lat="40.21981" lon="20.47515">
        <ele>1048.9399414062</ele>
        <time>2024-09-27T12:52:22.000Z</time>
      </trkpt>
      <trkpt lat="40.21985" lon="20.47517">
        <ele>1049.4200439453</ele>
        <time>2024-09-27T12:52:23.000Z</time>
      </trkpt>
      <trkpt lat="40.2199" lon="20.47521">
        <ele>1050.3800048828</ele>
        <time>2024-09-27T12:52:24.000Z</time>
      </trkpt>
      <trkpt lat="40.21997" lon="20.47525">
        <ele>1051.8199462891</ele>
        <time>2024-09-27T12:52:25.000Z</time>
      </trkpt>
      <trkpt lat="40.22004" lon="20.4753">
        <ele>1054.2199707031</ele>
        <time>2024-09-27T12:52:26.000Z</time>
      </trkpt>
      <trkpt lat="40.2201" lon="20.47534">
        <ele>1054.6999511719</ele>
        <time>2024-09-27T12:52:27.000Z</time>
      </trkpt>
      <trkpt lat="40.22013" lon="20.47536">
        <ele>1055.6700439453</ele>
        <time>2024-09-27T12:52:28.000Z</time>
      </trkpt>
      <trkpt lat="40.22018" lon="20.47541">
        <ele>1056.1500244141</ele>
        <time>2024-09-27T12:52:29.000Z</time>
      </trkpt>
      <trkpt lat="40.22024" lon="20.47548">
        <ele>1057.5899658203</ele>
        <time>2024-09-27T12:52:30.000Z</time>
      </trkpt>
      <trkpt lat="40.2203" lon="20.47557">
        <ele>1059.5100097656</ele>
        <time>2024-09-27T12:52:31.000Z</time>
      </trkpt>
      <trkpt lat="40.22035" lon="20.47563">
        <ele>1060.9499511719</ele>
        <time>2024-09-27T12:52:32.000Z</time>
      </trkpt>
      <trkpt lat="40.22039" lon="20.47568">
        <ele>1061.9100341797</ele>
        <time>2024-09-27T12:52:33.000Z</time>
      </trkpt>
      <trkpt lat="40.22046" lon="20.47574">
        <ele>1063.3599853516</ele>
        <time>2024-09-27T12:52:34.000Z</time>
      </trkpt>
      <trkpt lat="40.2205" lon="20.47577">
        <ele>1064.3199462891</ele>
        <time>2024-09-27T12:52:35.000Z</time>
      </trkpt>
      <trkpt lat="40.22055" lon="20.47581">
        <ele>1064.8000488281</ele>
        <time>2024-09-27T12:52:36.000Z</time>
      </trkpt>
      <trkpt lat="40.22062" lon="20.47584">
        <ele>1065.2800292969</ele>
        <time>2024-09-27T12:52:37.000Z</time>
      </trkpt>
      <trkpt lat="40.22068" lon="20.47588">
        <ele>1065.7600097656</ele>
        <time>2024-09-27T12:52:38.000Z</time>
      </trkpt>
      <trkpt lat="40.22075" lon="20.47593">
        <ele>1065.7600097656</ele>
        <time>2024-09-27T12:52:39.000Z</time>
      </trkpt>
      <trkpt lat="40.22076" lon="20.47594">
        <ele>1066.2399902344</ele>
        <time>2024-09-27T12:52:40.000Z</time>
      </trkpt>
      <trkpt lat="40.2208" lon="20.47598">
        <ele>1066.2399902344</ele>
        <time>2024-09-27T12:52:41.000Z</time>
      </trkpt>
      <trkpt lat="40.22082" lon="20.47602">
        <ele>1066.7199707031</ele>
        <time>2024-09-27T12:52:42.000Z</time>
      </trkpt>
      <trkpt lat="40.22084" lon="20.47608">
        <ele>1066.7199707031</ele>
        <time>2024-09-27T12:52:43.000Z</time>
      </trkpt>
      <trkpt lat="40.22085" lon="20.47614">
        <ele>1066.7199707031</ele>
        <time>2024-09-27T12:52:44.000Z</time>
      </trkpt>
      <trkpt lat="40.22085" lon="20.47621">
        <ele>1066.7199707031</ele>
        <time>2024-09-27T12:52:45.000Z</time>
      </trkpt>
      <trkpt lat="40.22084" lon="20.47629">
        <ele>1066.2399902344</ele>
        <time>2024-09-27T12:52:46.000Z</time>
      </trkpt>
      <trkpt lat="40.22083" lon="20.47634">
        <ele>1066.7199707031</ele>
        <time>2024-09-27T12:52:47.000Z</time>
      </trkpt>
      <trkpt lat="40.2208" lon="20.47642">
        <ele>1066.2399902344</ele>
        <time>2024-09-27T12:52:48.000Z</time>
      </trkpt>
      <trkpt lat="40.22073" lon="20.4766">
        <ele>1064.3199462891</ele>
        <time>2024-09-27T12:52:56.000Z</time>
      </trkpt>
      <trkpt lat="40.22071" lon="20.47674">
        <ele>1062.8699951172</ele>
        <time>2024-09-27T13:03:56.000Z</time>
      </trkpt>
      <trkpt lat="40.22069" lon="20.47676">
        <ele>1062.8699951172</ele>
        <time>2024-09-27T13:04:01.000Z</time>
      </trkpt>
      <trkpt lat="40.22066" lon="20.47678">
        <ele>1062.8699951172</ele>
        <time>2024-09-27T13:04:15.000Z</time>
      </trkpt>
      <trkpt lat="40.22066" lon="20.47678">
        <ele>1062.8699951172</ele>
        <time>2024-09-27T13:04:35.000Z</time>
      </trkpt>
      <trkpt lat="40.22061" lon="20.47679">
        <ele>1062.8699951172</ele>
        <time>2024-09-27T13:11:33.000Z</time>
      </trkpt>
      <trkpt lat="40.2206" lon="20.47684">
        <ele>1062.3900146484</ele>
        <time>2024-09-27T13:11:35.000Z</time>
      </trkpt>
      <trkpt lat="40.2206" lon="20.47692">
        <ele>1062.8699951172</ele>
        <time>2024-09-27T13:11:36.000Z</time>
      </trkpt>
      <trkpt lat="40.22062" lon="20.47701">
        <ele>1063.8399658203</ele>
        <time>2024-09-27T13:11:37.000Z</time>
      </trkpt>
      <trkpt lat="40.22068" lon="20.47711">
        <ele>1064.8000488281</ele>
        <time>2024-09-27T13:11:38.000Z</time>
      </trkpt>
      <trkpt lat="40.22076" lon="20.47724">
        <ele>1066.7199707031</ele>
        <time>2024-09-27T13:11:39.000Z</time>
      </trkpt>
      <trkpt lat="40.22084" lon="20.47735">
        <ele>1068.1600341797</ele>
        <time>2024-09-27T13:11:40.000Z</time>
      </trkpt>
      <trkpt lat="40.2209" lon="20.47746">
        <ele>1069.5999755859</ele>
        <time>2024-09-27T13:11:41.000Z</time>
      </trkpt>
      <trkpt lat="40.22093" lon="20.47756">
        <ele>1071.0500488281</ele>
        <time>2024-09-27T13:11:42.000Z</time>
      </trkpt>
      <trkpt lat="40.22095" lon="20.47767">
        <ele>1072.9699707031</ele>
        <time>2024-09-27T13:11:43.000Z</time>
      </trkpt>
      <trkpt lat="40.22095" lon="20.47773">
        <ele>1073.9300537109</ele>
        <time>2024-09-27T13:11:44.000Z</time>
      </trkpt>
      <trkpt lat="40.22095" lon="20.4778">
        <ele>1075.8499755859</ele>
        <time>2024-09-27T13:11:45.000Z</time>
      </trkpt>
      <trkpt lat="40.22097" lon="20.47789">
        <ele>1077.2900390625</ele>
        <time>2024-09-27T13:11:46.000Z</time>
      </trkpt>
      <trkpt lat="40.22098" lon="20.47796">
        <ele>1078.7399902344</ele>
        <time>2024-09-27T13:11:47.000Z</time>
      </trkpt>
      <trkpt lat="40.22099" lon="20.47806">
        <ele>1080.6600341797</ele>
        <time>2024-09-27T13:11:48.000Z</time>
      </trkpt>
      <trkpt lat="40.22098" lon="20.47816">
        <ele>1082.5799560547</ele>
        <time>2024-09-27T13:11:49.000Z</time>
      </trkpt>
      <trkpt lat="40.22096" lon="20.47825">
        <ele>1084.9899902344</ele>
        <time>2024-09-27T13:11:50.000Z</time>
      </trkpt>
      <trkpt lat="40.22095" lon="20.47829">
        <ele>1085.4699707031</ele>
        <time>2024-09-27T13:11:51.000Z</time>
      </trkpt>
      <trkpt lat="40.22093" lon="20.47835">
        <ele>1086.9100341797</ele>
        <time>2024-09-27T13:11:52.000Z</time>
      </trkpt>
      <trkpt lat="40.2209" lon="20.4784">
        <ele>1087.8699951172</ele>
        <time>2024-09-27T13:11:53.000Z</time>
      </trkpt>
      <trkpt lat="40.22086" lon="20.47847">
        <ele>1089.7900390625</ele>
        <time>2024-09-27T13:11:54.000Z</time>
      </trkpt>
      <trkpt lat="40.22082" lon="20.47854">
        <ele>1091.2299804688</ele>
        <time>2024-09-27T13:11:55.000Z</time>
      </trkpt>
      <trkpt lat="40.22078" lon="20.47859">
        <ele>1092.1999511719</ele>
        <time>2024-09-27T13:11:56.000Z</time>
      </trkpt>
      <trkpt lat="40.22074" lon="20.47863">
        <ele>1092.6800537109</ele>
        <time>2024-09-27T13:11:57.000Z</time>
      </trkpt>
      <trkpt lat="40.22071" lon="20.47875">
        <ele>1094.5999755859</ele>
        <time>2024-09-27T13:11:59.000Z</time>
      </trkpt>
      <trkpt lat="40.22071" lon="20.47877">
        <ele>1095.0799560547</ele>
        <time>2024-09-27T13:12:00.000Z</time>
      </trkpt>
      <trkpt lat="40.22074" lon="20.47882">
        <ele>1096.0400390625</ele>
        <time>2024-09-27T13:12:01.000Z</time>
      </trkpt>
      <trkpt lat="40.22077" lon="20.47886">
        <ele>1097</ele>
        <time>2024-09-27T13:12:02.000Z</time>
      </trkpt>
      <trkpt lat="40.2208" lon="20.4789">
        <ele>1097.9599609375</ele>
        <time>2024-09-27T13:12:03.000Z</time>
      </trkpt>
      <trkpt lat="40.22085" lon="20.47893">
        <ele>1098.4399414062</ele>
        <time>2024-09-27T13:12:04.000Z</time>
      </trkpt>
      <trkpt lat="40.22087" lon="20.47896">
        <ele>1098.9200439453</ele>
        <time>2024-09-27T13:12:05.000Z</time>
      </trkpt>
      <trkpt lat="40.2209" lon="20.47901">
        <ele>1099.8900146484</ele>
        <time>2024-09-27T13:12:06.000Z</time>
      </trkpt>
      <trkpt lat="40.22092" lon="20.47907">
        <ele>1100.8499755859</ele>
        <time>2024-09-27T13:12:07.000Z</time>
      </trkpt>
      <trkpt lat="40.22094" lon="20.47913">
        <ele>1101.8100585938</ele>
        <time>2024-09-27T13:12:08.000Z</time>
      </trkpt>
      <trkpt lat="40.22095" lon="20.47919">
        <ele>1102.7700195312</ele>
        <time>2024-09-27T13:12:09.000Z</time>
      </trkpt>
      <trkpt lat="40.22095" lon="20.47925">
        <ele>1104.2099609375</ele>
        <time>2024-09-27T13:12:10.000Z</time>
      </trkpt>
      <trkpt lat="40.22095" lon="20.47932">
        <ele>1105.1700439453</ele>
        <time>2024-09-27T13:12:11.000Z</time>
      </trkpt>
      <trkpt lat="40.22095" lon="20.47938">
        <ele>1106.1300048828</ele>
        <time>2024-09-27T13:12:12.000Z</time>
      </trkpt>
      <trkpt lat="40.22097" lon="20.47965">
        <ele>1109.5</ele>
        <time>2024-09-27T13:12:18.000Z</time>
      </trkpt>
      <trkpt lat="40.22097" lon="20.47966">
        <ele>1109.0200195312</ele>
        <time>2024-09-27T13:12:31.000Z</time>
      </trkpt>
      <trkpt lat="40.22102" lon="20.47969">
        <ele>1109.0200195312</ele>
        <time>2024-09-27T13:16:06.000Z</time>
      </trkpt>
      <trkpt lat="40.22105" lon="20.4797">
        <ele>1109.0200195312</ele>
        <time>2024-09-27T13:16:07.000Z</time>
      </trkpt>
      <trkpt lat="40.2211" lon="20.47971">
        <ele>1109.9799804688</ele>
        <time>2024-09-27T13:16:08.000Z</time>
      </trkpt>
      <trkpt lat="40.22115" lon="20.47971">
        <ele>1110.4599609375</ele>
        <time>2024-09-27T13:16:09.000Z</time>
      </trkpt>
      <trkpt lat="40.22119" lon="20.47972">
        <ele>1111.4200439453</ele>
        <time>2024-09-27T13:16:10.000Z</time>
      </trkpt>
      <trkpt lat="40.22124" lon="20.47974">
        <ele>1112.3800048828</ele>
        <time>2024-09-27T13:16:11.000Z</time>
      </trkpt>
      <trkpt lat="40.22128" lon="20.47976">
        <ele>1112.8599853516</ele>
        <time>2024-09-27T13:16:12.000Z</time>
      </trkpt>
      <trkpt lat="40.22133" lon="20.47979">
        <ele>1113.3399658203</ele>
        <time>2024-09-27T13:16:13.000Z</time>
      </trkpt>
      <trkpt lat="40.22139" lon="20.47982">
        <ele>1114.3100585938</ele>
        <time>2024-09-27T13:16:14.000Z</time>
      </trkpt>
      <trkpt lat="40.22144" lon="20.47985">
        <ele>1114.7900390625</ele>
        <time>2024-09-27T13:16:15.000Z</time>
      </trkpt>
      <trkpt lat="40.22149" lon="20.47987">
        <ele>1115.75</ele>
        <time>2024-09-27T13:16:16.000Z</time>
      </trkpt>
      <trkpt lat="40.22157" lon="20.47992">
        <ele>1117.1899414062</ele>
        <time>2024-09-27T13:16:17.000Z</time>
      </trkpt>
      <trkpt lat="40.22159" lon="20.47993">
        <ele>1117.1899414062</ele>
        <time>2024-09-27T13:16:18.000Z</time>
      </trkpt>
      <trkpt lat="40.22165" lon="20.47997">
        <ele>1118.1500244141</ele>
        <time>2024-09-27T13:16:19.000Z</time>
      </trkpt>
      <trkpt lat="40.22169" lon="20.48">
        <ele>1118.6300048828</ele>
        <time>2024-09-27T13:16:20.000Z</time>
      </trkpt>
      <trkpt lat="40.22176" lon="20.48004">
        <ele>1119.5899658203</ele>
        <time>2024-09-27T13:16:21.000Z</time>
      </trkpt>
      <trkpt lat="40.22179" lon="20.48006">
        <ele>1120.5500488281</ele>
        <time>2024-09-27T13:16:22.000Z</time>
      </trkpt>
      <trkpt lat="40.22185" lon="20.48011">
        <ele>1121.5200195312</ele>
        <time>2024-09-27T13:16:23.000Z</time>
      </trkpt>
      <trkpt lat="40.2219" lon="20.48015">
        <ele>1122</ele>
        <time>2024-09-27T13:16:24.000Z</time>
      </trkpt>
      <trkpt lat="40.22195" lon="20.4802">
        <ele>1122.4799804688</ele>
        <time>2024-09-27T13:16:25.000Z</time>
      </trkpt>
      <trkpt lat="40.222" lon="20.48025">
        <ele>1123.4399414062</ele>
        <time>2024-09-27T13:16:26.000Z</time>
      </trkpt>
      <trkpt lat="40.22204" lon="20.4803">
        <ele>1123.9200439453</ele>
        <time>2024-09-27T13:16:27.000Z</time>
      </trkpt>
      <trkpt lat="40.22208" lon="20.48035">
        <ele>1124.8800048828</ele>
        <time>2024-09-27T13:16:28.000Z</time>
      </trkpt>
      <trkpt lat="40.22213" lon="20.48042">
        <ele>1125.8399658203</ele>
        <time>2024-09-27T13:16:29.000Z</time>
      </trkpt>
      <trkpt lat="40.22216" lon="20.48047">
        <ele>1126.3199462891</ele>
        <time>2024-09-27T13:16:30.000Z</time>
      </trkpt>
      <trkpt lat="40.2222" lon="20.48051">
        <ele>1126.8000488281</ele>
        <time>2024-09-27T13:16:31.000Z</time>
      </trkpt>
      <trkpt lat="40.22226" lon="20.48054">
        <ele>1127.2800292969</ele>
        <time>2024-09-27T13:16:32.000Z</time>
      </trkpt>
      <trkpt lat="40.22231" lon="20.48055">
        <ele>1128.2399902344</ele>
        <time>2024-09-27T13:16:33.000Z</time>
      </trkpt>
      <trkpt lat="40.22237" lon="20.48055">
        <ele>1128.2399902344</ele>
        <time>2024-09-27T13:16:34.000Z</time>
      </trkpt>
      <trkpt lat="40.22245" lon="20.48055">
        <ele>1128.2399902344</ele>
        <time>2024-09-27T13:16:35.000Z</time>
      </trkpt>
      <trkpt lat="40.2225" lon="20.48056">
        <ele>1128.7299804688</ele>
        <time>2024-09-27T13:16:36.000Z</time>
      </trkpt>
      <trkpt lat="40.22258" lon="20.48057">
        <ele>1129.6899414062</ele>
        <time>2024-09-27T13:16:37.000Z</time>
      </trkpt>
      <trkpt lat="40.22263" lon="20.48058">
        <ele>1130.1700439453</ele>
        <time>2024-09-27T13:16:38.000Z</time>
      </trkpt>
      <trkpt lat="40.22268" lon="20.48059">
        <ele>1130.6500244141</ele>
        <time>2024-09-27T13:16:39.000Z</time>
      </trkpt>
      <trkpt lat="40.22274" lon="20.4806">
        <ele>1131.1300048828</ele>
        <time>2024-09-27T13:16:40.000Z</time>
      </trkpt>
      <trkpt lat="40.22279" lon="20.48061">
        <ele>1131.6099853516</ele>
        <time>2024-09-27T13:16:41.000Z</time>
      </trkpt>
      <trkpt lat="40.22285" lon="20.48061">
        <ele>1132.5699462891</ele>
        <time>2024-09-27T13:16:42.000Z</time>
      </trkpt>
      <trkpt lat="40.22289" lon="20.48062">
        <ele>1132.5699462891</ele>
        <time>2024-09-27T13:16:43.000Z</time>
      </trkpt>
      <trkpt lat="40.22294" lon="20.48064">
        <ele>1133.5300292969</ele>
        <time>2024-09-27T13:16:44.000Z</time>
      </trkpt>
      <trkpt lat="40.223" lon="20.48065">
        <ele>1133.5300292969</ele>
        <time>2024-09-27T13:16:45.000Z</time>
      </trkpt>
      <trkpt lat="40.22306" lon="20.48066">
        <ele>1133.5300292969</ele>
        <time>2024-09-27T13:16:46.000Z</time>
      </trkpt>
      <trkpt lat="40.22311" lon="20.48067">
        <ele>1134.0100097656</ele>
        <time>2024-09-27T13:16:47.000Z</time>
      </trkpt>
      <trkpt lat="40.22317" lon="20.48068">
        <ele>1134.9699707031</ele>
        <time>2024-09-27T13:16:48.000Z</time>
      </trkpt>
      <trkpt lat="40.22321" lon="20.48068">
        <ele>1135.9399414062</ele>
        <time>2024-09-27T13:16:49.000Z</time>
      </trkpt>
      <trkpt lat="40.22332" lon="20.48071">
        <ele>1137.3800048828</ele>
        <time>2024-09-27T13:16:52.000Z</time>
      </trkpt>
      <trkpt lat="40.22338" lon="20.48075">
        <ele>1138.3399658203</ele>
        <time>2024-09-27T13:16:53.000Z</time>
      </trkpt>
      <trkpt lat="40.22341" lon="20.48077">
        <ele>1138.3399658203</ele>
        <time>2024-09-27T13:16:54.000Z</time>
      </trkpt>
      <trkpt lat="40.22346" lon="20.48081">
        <ele>1138.8199462891</ele>
        <time>2024-09-27T13:16:55.000Z</time>
      </trkpt>
      <trkpt lat="40.2235" lon="20.48085">
        <ele>1139.3000488281</ele>
        <time>2024-09-27T13:16:56.000Z</time>
      </trkpt>
      <trkpt lat="40.22356" lon="20.48089">
        <ele>1140.2600097656</ele>
        <time>2024-09-27T13:16:57.000Z</time>
      </trkpt>
      <trkpt lat="40.22359" lon="20.48091">
        <ele>1140.7399902344</ele>
        <time>2024-09-27T13:16:58.000Z</time>
      </trkpt>
      <trkpt lat="40.22365" lon="20.48092">
        <ele>1141.2199707031</ele>
        <time>2024-09-27T13:16:59.000Z</time>
      </trkpt>
      <trkpt lat="40.22374" lon="20.48093">
        <ele>1141.6999511719</ele>
        <time>2024-09-27T13:17:00.000Z</time>
      </trkpt>
      <trkpt lat="40.22376" lon="20.48094">
        <ele>1142.1800537109</ele>
        <time>2024-09-27T13:17:01.000Z</time>
      </trkpt>
      <trkpt lat="40.22381" lon="20.48095">
        <ele>1143.1400146484</ele>
        <time>2024-09-27T13:17:02.000Z</time>
      </trkpt>
      <trkpt lat="40.22386" lon="20.48096">
        <ele>1143.6300048828</ele>
        <time>2024-09-27T13:17:03.000Z</time>
      </trkpt>
      <trkpt lat="40.22392" lon="20.48097">
        <ele>1144.5899658203</ele>
        <time>2024-09-27T13:17:04.000Z</time>
      </trkpt>
      <trkpt lat="40.22397" lon="20.48099">
        <ele>1145.5500488281</ele>
        <time>2024-09-27T13:17:05.000Z</time>
      </trkpt>
      <trkpt lat="40.22401" lon="20.48101">
        <ele>1146.0300292969</ele>
        <time>2024-09-27T13:17:06.000Z</time>
      </trkpt>
      <trkpt lat="40.22407" lon="20.48104">
        <ele>1146.0300292969</ele>
        <time>2024-09-27T13:17:07.000Z</time>
      </trkpt>
      <trkpt lat="40.22411" lon="20.48105">
        <ele>1146.5100097656</ele>
        <time>2024-09-27T13:17:08.000Z</time>
      </trkpt>
      <trkpt lat="40.22417" lon="20.48107">
        <ele>1146.9899902344</ele>
        <time>2024-09-27T13:17:09.000Z</time>
      </trkpt>
      <trkpt lat="40.22422" lon="20.48109">
        <ele>1147.4699707031</ele>
        <time>2024-09-27T13:17:10.000Z</time>
      </trkpt>
      <trkpt lat="40.22427" lon="20.48111">
        <ele>1148.4300537109</ele>
        <time>2024-09-27T13:17:11.000Z</time>
      </trkpt>
      <trkpt lat="40.22432" lon="20.48112">
        <ele>1148.9100341797</ele>
        <time>2024-09-27T13:17:12.000Z</time>
      </trkpt>
      <trkpt lat="40.22438" lon="20.48112">
        <ele>1149.3900146484</ele>
        <time>2024-09-27T13:17:13.000Z</time>
      </trkpt>
      <trkpt lat="40.22443" lon="20.48113">
        <ele>1150.3499755859</ele>
        <time>2024-09-27T13:17:14.000Z</time>
      </trkpt>
      <trkpt lat="40.22448" lon="20.48112">
        <ele>1151.3199462891</ele>
        <time>2024-09-27T13:17:15.000Z</time>
      </trkpt>
      <trkpt lat="40.22453" lon="20.48112">
        <ele>1152.2800292969</ele>
        <time>2024-09-27T13:17:16.000Z</time>
      </trkpt>
      <trkpt lat="40.22458" lon="20.4811">
        <ele>1152.2800292969</ele>
        <time>2024-09-27T13:17:17.000Z</time>
      </trkpt>
      <trkpt lat="40.22463" lon="20.48107">
        <ele>1152.7600097656</ele>
        <time>2024-09-27T13:17:18.000Z</time>
      </trkpt>
      <trkpt lat="40.22466" lon="20.48105">
        <ele>1153.2399902344</ele>
        <time>2024-09-27T13:17:19.000Z</time>
      </trkpt>
      <trkpt lat="40.2247" lon="20.481">
        <ele>1153.2399902344</ele>
        <time>2024-09-27T13:17:20.000Z</time>
      </trkpt>
      <trkpt lat="40.22476" lon="20.48094">
        <ele>1153.2399902344</ele>
        <time>2024-09-27T13:17:21.000Z</time>
      </trkpt>
      <trkpt lat="40.22477" lon="20.48093">
        <ele>1153.2399902344</ele>
        <time>2024-09-27T13:17:22.000Z</time>
      </trkpt>
      <trkpt lat="40.22481" lon="20.4809">
        <ele>1153.2399902344</ele>
        <time>2024-09-27T13:17:23.000Z</time>
      </trkpt>
      <trkpt lat="40.22485" lon="20.48089">
        <ele>1153.2399902344</ele>
        <time>2024-09-27T13:17:24.000Z</time>
      </trkpt>
      <trkpt lat="40.22489" lon="20.4809">
        <ele>1153.7199707031</ele>
        <time>2024-09-27T13:17:25.000Z</time>
      </trkpt>
      <trkpt lat="40.2249" lon="20.48109">
        <ele>1155.6400146484</ele>
        <time>2024-09-27T13:17:30.000Z</time>
      </trkpt>
      <trkpt lat="40.22488" lon="20.48112">
        <ele>1155.6400146484</ele>
        <time>2024-09-27T13:17:31.000Z</time>
      </trkpt>
      <trkpt lat="40.22484" lon="20.48116">
        <ele>1156.1199951172</ele>
        <time>2024-09-27T13:17:32.000Z</time>
      </trkpt>
      <trkpt lat="40.22479" lon="20.4812">
        <ele>1156.5999755859</ele>
        <time>2024-09-27T13:17:33.000Z</time>
      </trkpt>
      <trkpt lat="40.22471" lon="20.48126">
        <ele>1157.0799560547</ele>
        <time>2024-09-27T13:17:40.000Z</time>
      </trkpt>
      <trkpt lat="40.22463" lon="20.48129">
        <ele>1158.5300292969</ele>
        <time>2024-09-27T13:26:24.000Z</time>
      </trkpt>
      <trkpt lat="40.22452" lon="20.48143">
        <ele>1159.9699707031</ele>
        <time>2024-09-27T13:29:37.000Z</time>
      </trkpt>
      <trkpt lat="40.2245" lon="20.48147">
        <ele>1159.9699707031</ele>
        <time>2024-09-27T13:29:38.000Z</time>
      </trkpt>
      <trkpt lat="40.22447" lon="20.48151">
        <ele>1160.4499511719</ele>
        <time>2024-09-27T13:29:39.000Z</time>
      </trkpt>
      <trkpt lat="40.22445" lon="20.48155">
        <ele>1160.9300537109</ele>
        <time>2024-09-27T13:29:40.000Z</time>
      </trkpt>
      <trkpt lat="40.22443" lon="20.48157">
        <ele>1160.9300537109</ele>
        <time>2024-09-27T13:29:41.000Z</time>
      </trkpt>
      <trkpt lat="40.22439" lon="20.48162">
        <ele>1161.4100341797</ele>
        <time>2024-09-27T13:29:42.000Z</time>
      </trkpt>
      <trkpt lat="40.22434" lon="20.48166">
        <ele>1161.8900146484</ele>
        <time>2024-09-27T13:29:43.000Z</time>
      </trkpt>
      <trkpt lat="40.22428" lon="20.4817">
        <ele>1162.3699951172</ele>
        <time>2024-09-27T13:29:44.000Z</time>
      </trkpt>
      <trkpt lat="40.22426" lon="20.48172">
        <ele>1162.8499755859</ele>
        <time>2024-09-27T13:29:45.000Z</time>
      </trkpt>
      <trkpt lat="40.22422" lon="20.48176">
        <ele>1163.8100585938</ele>
        <time>2024-09-27T13:29:46.000Z</time>
      </trkpt>
      <trkpt lat="40.2242" lon="20.4818">
        <ele>1164.2900390625</ele>
        <time>2024-09-27T13:29:47.000Z</time>
      </trkpt>
      <trkpt lat="40.22418" lon="20.48186">
        <ele>1165.7399902344</ele>
        <time>2024-09-27T13:29:48.000Z</time>
      </trkpt>
      <trkpt lat="40.22415" lon="20.48192">
        <ele>1166.6999511719</ele>
        <time>2024-09-27T13:29:49.000Z</time>
      </trkpt>
      <trkpt lat="40.22413" lon="20.48197">
        <ele>1168.1400146484</ele>
        <time>2024-09-27T13:29:50.000Z</time>
      </trkpt>
      <trkpt lat="40.22416" lon="20.48208">
        <ele>1170.5400390625</ele>
        <time>2024-09-27T13:29:52.000Z</time>
      </trkpt>
      <trkpt lat="40.22416" lon="20.48209">
        <ele>1171.0200195312</ele>
        <time>2024-09-27T13:29:53.000Z</time>
      </trkpt>
      <trkpt lat="40.2242" lon="20.48211">
        <ele>1171.9799804688</ele>
        <time>2024-09-27T13:29:54.000Z</time>
      </trkpt>
      <trkpt lat="40.22425" lon="20.48214">
        <ele>1172.4699707031</ele>
        <time>2024-09-27T13:29:55.000Z</time>
      </trkpt>
      <trkpt lat="40.22432" lon="20.48215">
        <ele>1172.4699707031</ele>
        <time>2024-09-27T13:30:02.000Z</time>
      </trkpt>
      <trkpt lat="40.22433" lon="20.48213">
        <ele>1171.9799804688</ele>
        <time>2024-09-27T13:32:08.000Z</time>
      </trkpt>
      <trkpt lat="40.22444" lon="20.48212">
        <ele>1172.4699707031</ele>
        <time>2024-09-27T13:32:12.000Z</time>
      </trkpt>
      <trkpt lat="40.22449" lon="20.48211">
        <ele>1172.9499511719</ele>
        <time>2024-09-27T13:32:13.000Z</time>
      </trkpt>
      <trkpt lat="40.22452" lon="20.4821">
        <ele>1172.9499511719</ele>
        <time>2024-09-27T13:32:14.000Z</time>
      </trkpt>
      <trkpt lat="40.22456" lon="20.4821">
        <ele>1173.4300537109</ele>
        <time>2024-09-27T13:32:15.000Z</time>
      </trkpt>
      <trkpt lat="40.2246" lon="20.4821">
        <ele>1174.3900146484</ele>
        <time>2024-09-27T13:32:16.000Z</time>
      </trkpt>
      <trkpt lat="40.22479" lon="20.48214">
        <ele>1176.3100585938</ele>
        <time>2024-09-27T13:32:21.000Z</time>
      </trkpt>
      <trkpt lat="40.22483" lon="20.48217">
        <ele>1176.7900390625</ele>
        <time>2024-09-27T13:32:22.000Z</time>
      </trkpt>
      <trkpt lat="40.22488" lon="20.4822">
        <ele>1177.2700195312</ele>
        <time>2024-09-27T13:32:23.000Z</time>
      </trkpt>
      <trkpt lat="40.22491" lon="20.48221">
        <ele>1177.2700195312</ele>
        <time>2024-09-27T13:32:24.000Z</time>
      </trkpt>
      <trkpt lat="40.22497" lon="20.48223">
        <ele>1178.2299804688</ele>
        <time>2024-09-27T13:32:25.000Z</time>
      </trkpt>
      <trkpt lat="40.225" lon="20.48224">
        <ele>1178.7099609375</ele>
        <time>2024-09-27T13:32:26.000Z</time>
      </trkpt>
      <trkpt lat="40.22505" lon="20.48225">
        <ele>1179.1899414062</ele>
        <time>2024-09-27T13:32:27.000Z</time>
      </trkpt>
      <trkpt lat="40.22513" lon="20.48227">
        <ele>1180.6400146484</ele>
        <time>2024-09-27T13:32:29.000Z</time>
      </trkpt>
      <trkpt lat="40.22518" lon="20.48228">
        <ele>1180.6400146484</ele>
        <time>2024-09-27T13:32:30.000Z</time>
      </trkpt>
      <trkpt lat="40.22522" lon="20.48228">
        <ele>1181.1199951172</ele>
        <time>2024-09-27T13:32:31.000Z</time>
      </trkpt>
      <trkpt lat="40.22525" lon="20.48229">
        <ele>1181.5999755859</ele>
        <time>2024-09-27T13:32:32.000Z</time>
      </trkpt>
      <trkpt lat="40.2253" lon="20.4823">
        <ele>1182.0799560547</ele>
        <time>2024-09-27T13:32:33.000Z</time>
      </trkpt>
      <trkpt lat="40.2254" lon="20.4823">
        <ele>1183.5200195312</ele>
        <time>2024-09-27T13:32:35.000Z</time>
      </trkpt>
      <trkpt lat="40.22542" lon="20.4823">
        <ele>1183.5200195312</ele>
        <time>2024-09-27T13:32:36.000Z</time>
      </trkpt>
      <trkpt lat="40.22547" lon="20.4823">
        <ele>1184.4799804688</ele>
        <time>2024-09-27T13:32:37.000Z</time>
      </trkpt>
      <trkpt lat="40.22551" lon="20.4823">
        <ele>1185.4399414062</ele>
        <time>2024-09-27T13:32:38.000Z</time>
      </trkpt>
      <trkpt lat="40.22556" lon="20.4823">
        <ele>1186.8800048828</ele>
        <time>2024-09-27T13:32:39.000Z</time>
      </trkpt>
      <trkpt lat="40.22574" lon="20.48232">
        <ele>1190.25</ele>
        <time>2024-09-27T13:32:44.000Z</time>
      </trkpt>
      <trkpt lat="40.22578" lon="20.48231">
        <ele>1191.2099609375</ele>
        <time>2024-09-27T13:32:45.000Z</time>
      </trkpt>
      <trkpt lat="40.22581" lon="20.48229">
        <ele>1192.1700439453</ele>
        <time>2024-09-27T13:32:46.000Z</time>
      </trkpt>
      <trkpt lat="40.22583" lon="20.48227">
        <ele>1192.1700439453</ele>
        <time>2024-09-27T13:32:47.000Z</time>
      </trkpt>
      <trkpt lat="40.22605" lon="20.4821">
        <ele>1193.6099853516</ele>
        <time>2024-09-27T13:32:55.000Z</time>
      </trkpt>
      <trkpt lat="40.22614" lon="20.48212">
        <ele>1194.0899658203</ele>
        <time>2024-09-27T13:33:03.000Z</time>
      </trkpt>
      <trkpt lat="40.22618" lon="20.48215">
        <ele>1194.0899658203</ele>
        <time>2024-09-27T13:33:08.000Z</time>
      </trkpt>
      <trkpt lat="40.22619" lon="20.48216">
        <ele>1194.5799560547</ele>
        <time>2024-09-27T13:33:09.000Z</time>
      </trkpt>
      <trkpt lat="40.22623" lon="20.4822">
        <ele>1195.0600585938</ele>
        <time>2024-09-27T13:33:10.000Z</time>
      </trkpt>
      <trkpt lat="40.22625" lon="20.48225">
        <ele>1195.5400390625</ele>
        <time>2024-09-27T13:33:11.000Z</time>
      </trkpt>
      <trkpt lat="40.22627" lon="20.48231">
        <ele>1196.5</ele>
        <time>2024-09-27T13:33:12.000Z</time>
      </trkpt>
      <trkpt lat="40.22628" lon="20.48236">
        <ele>1196.9799804688</ele>
        <time>2024-09-27T13:33:13.000Z</time>
      </trkpt>
      <trkpt lat="40.2263" lon="20.48242">
        <ele>1197.4599609375</ele>
        <time>2024-09-27T13:33:14.000Z</time>
      </trkpt>
      <trkpt lat="40.22632" lon="20.48248">
        <ele>1197.9399414062</ele>
        <time>2024-09-27T13:33:15.000Z</time>
      </trkpt>
      <trkpt lat="40.22633" lon="20.48255">
        <ele>1198.4200439453</ele>
        <time>2024-09-27T13:33:16.000Z</time>
      </trkpt>
      <trkpt lat="40.22635" lon="20.48261">
        <ele>1198.9000244141</ele>
        <time>2024-09-27T13:33:17.000Z</time>
      </trkpt>
      <trkpt lat="40.22636" lon="20.48267">
        <ele>1199.3800048828</ele>
        <time>2024-09-27T13:33:18.000Z</time>
      </trkpt>
      <trkpt lat="40.22637" lon="20.48273">
        <ele>1199.3800048828</ele>
        <time>2024-09-27T13:33:19.000Z</time>
      </trkpt>
      <trkpt lat="40.22639" lon="20.48278">
        <ele>1199.3800048828</ele>
        <time>2024-09-27T13:33:20.000Z</time>
      </trkpt>
      <trkpt lat="40.2264" lon="20.48284">
        <ele>1199.8599853516</ele>
        <time>2024-09-27T13:33:21.000Z</time>
      </trkpt>
      <trkpt lat="40.22642" lon="20.48288">
        <ele>1199.8599853516</ele>
        <time>2024-09-27T13:33:22.000Z</time>
      </trkpt>
      <trkpt lat="40.22645" lon="20.48293">
        <ele>1199.3800048828</ele>
        <time>2024-09-27T13:33:23.000Z</time>
      </trkpt>
      <trkpt lat="40.22647" lon="20.48297">
        <ele>1199.3800048828</ele>
        <time>2024-09-27T13:33:24.000Z</time>
      </trkpt>
      <trkpt lat="40.2265" lon="20.48302">
        <ele>1199.3800048828</ele>
        <time>2024-09-27T13:33:25.000Z</time>
      </trkpt>
      <trkpt lat="40.22654" lon="20.48308">
        <ele>1198.9000244141</ele>
        <time>2024-09-27T13:33:26.000Z</time>
      </trkpt>
      <trkpt lat="40.22655" lon="20.4831">
        <ele>1198.9000244141</ele>
        <time>2024-09-27T13:33:27.000Z</time>
      </trkpt>
      <trkpt lat="40.22658" lon="20.48317">
        <ele>1198.4200439453</ele>
        <time>2024-09-27T13:33:28.000Z</time>
      </trkpt>
      <trkpt lat="40.2266" lon="20.48323">
        <ele>1197.9399414062</ele>
        <time>2024-09-27T13:33:29.000Z</time>
      </trkpt>
      <trkpt lat="40.22662" lon="20.48326">
        <ele>1196.9799804688</ele>
        <time>2024-09-27T13:33:30.000Z</time>
      </trkpt>
      <trkpt lat="40.22664" lon="20.48332">
        <ele>1196.9799804688</ele>
        <time>2024-09-27T13:33:31.000Z</time>
      </trkpt>
      <trkpt lat="40.22668" lon="20.48341">
        <ele>1196.5</ele>
        <time>2024-09-27T13:33:32.000Z</time>
      </trkpt>
      <trkpt lat="40.22669" lon="20.48343">
        <ele>1196.0200195312</ele>
        <time>2024-09-27T13:33:33.000Z</time>
      </trkpt>
      <trkpt lat="40.22673" lon="20.48352">
        <ele>1195.0600585938</ele>
        <time>2024-09-27T13:33:34.000Z</time>
      </trkpt>
      <trkpt lat="40.22673" lon="20.48354">
        <ele>1194.5799560547</ele>
        <time>2024-09-27T13:33:35.000Z</time>
      </trkpt>
      <trkpt lat="40.22676" lon="20.4836">
        <ele>1194.0899658203</ele>
        <time>2024-09-27T13:33:36.000Z</time>
      </trkpt>
      <trkpt lat="40.22678" lon="20.48365">
        <ele>1194.0899658203</ele>
        <time>2024-09-27T13:33:37.000Z</time>
      </trkpt>
      <trkpt lat="40.22682" lon="20.48371">
        <ele>1193.6099853516</ele>
        <time>2024-09-27T13:33:38.000Z</time>
      </trkpt>
      <trkpt lat="40.22685" lon="20.48376">
        <ele>1193.1300048828</ele>
        <time>2024-09-27T13:33:39.000Z</time>
      </trkpt>
      <trkpt lat="40.22693" lon="20.48389">
        <ele>1192.6500244141</ele>
        <time>2024-09-27T13:33:41.000Z</time>
      </trkpt>
      <trkpt lat="40.22695" lon="20.48394">
        <ele>1192.6500244141</ele>
        <time>2024-09-27T13:33:42.000Z</time>
      </trkpt>
      <trkpt lat="40.22697" lon="20.48398">
        <ele>1192.6500244141</ele>
        <time>2024-09-27T13:33:43.000Z</time>
      </trkpt>
      <trkpt lat="40.22699" lon="20.48405">
        <ele>1192.6500244141</ele>
        <time>2024-09-27T13:33:44.000Z</time>
      </trkpt>
      <trkpt lat="40.227" lon="20.48411">
        <ele>1192.1700439453</ele>
        <time>2024-09-27T13:33:45.000Z</time>
      </trkpt>
      <trkpt lat="40.22702" lon="20.48418">
        <ele>1192.1700439453</ele>
        <time>2024-09-27T13:33:46.000Z</time>
      </trkpt>
      <trkpt lat="40.22703" lon="20.48425">
        <ele>1191.6899414062</ele>
        <time>2024-09-27T13:33:47.000Z</time>
      </trkpt>
      <trkpt lat="40.22707" lon="20.48437">
        <ele>1190.7299804688</ele>
        <time>2024-09-27T13:33:49.000Z</time>
      </trkpt>
      <trkpt lat="40.22708" lon="20.48443">
        <ele>1190.25</ele>
        <time>2024-09-27T13:33:50.000Z</time>
      </trkpt>
      <trkpt lat="40.22712" lon="20.48463">
        <ele>1188.8100585938</ele>
        <time>2024-09-27T13:33:53.000Z</time>
      </trkpt>
      <trkpt lat="40.22714" lon="20.4847">
        <ele>1188.8100585938</ele>
        <time>2024-09-27T13:33:54.000Z</time>
      </trkpt>
      <trkpt lat="40.22717" lon="20.48475">
        <ele>1188.8100585938</ele>
        <time>2024-09-27T13:33:55.000Z</time>
      </trkpt>
      <trkpt lat="40.22721" lon="20.48479">
        <ele>1188.8100585938</ele>
        <time>2024-09-27T13:33:56.000Z</time>
      </trkpt>
      <trkpt lat="40.22724" lon="20.48481">
        <ele>1188.8100585938</ele>
        <time>2024-09-27T13:33:57.000Z</time>
      </trkpt>
      <trkpt lat="40.22744" lon="20.48499">
        <ele>1187.3699951172</ele>
        <time>2024-09-27T13:34:04.000Z</time>
      </trkpt>
      <trkpt lat="40.22745" lon="20.48502">
        <ele>1186.8800048828</ele>
        <time>2024-09-27T13:34:05.000Z</time>
      </trkpt>
      <trkpt lat="40.2275" lon="20.4851">
        <ele>1185.9200439453</ele>
        <time>2024-09-27T13:34:06.000Z</time>
      </trkpt>
      <trkpt lat="40.2275" lon="20.48511">
        <ele>1185.4399414062</ele>
        <time>2024-09-27T13:34:07.000Z</time>
      </trkpt>
      <trkpt lat="40.22754" lon="20.48515">
        <ele>1184.9599609375</ele>
        <time>2024-09-27T13:34:08.000Z</time>
      </trkpt>
      <trkpt lat="40.22758" lon="20.48517">
        <ele>1184.4799804688</ele>
        <time>2024-09-27T13:34:09.000Z</time>
      </trkpt>
      <trkpt lat="40.22761" lon="20.48519">
        <ele>1184</ele>
        <time>2024-09-27T13:34:10.000Z</time>
      </trkpt>
      <trkpt lat="40.22765" lon="20.4852">
        <ele>1183.5200195312</ele>
        <time>2024-09-27T13:34:11.000Z</time>
      </trkpt>
      <trkpt lat="40.22774" lon="20.48517">
        <ele>1183.0400390625</ele>
        <time>2024-09-27T13:34:13.000Z</time>
      </trkpt>
      <trkpt lat="40.22777" lon="20.48515">
        <ele>1183.0400390625</ele>
        <time>2024-09-27T13:34:14.000Z</time>
      </trkpt>
      <trkpt lat="40.22781" lon="20.48514">
        <ele>1183.0400390625</ele>
        <time>2024-09-27T13:34:15.000Z</time>
      </trkpt>
      <trkpt lat="40.22788" lon="20.48513">
        <ele>1182.5600585938</ele>
        <time>2024-09-27T13:34:16.000Z</time>
      </trkpt>
      <trkpt lat="40.22791" lon="20.48512">
        <ele>1182.5600585938</ele>
        <time>2024-09-27T13:34:17.000Z</time>
      </trkpt>
      <trkpt lat="40.22795" lon="20.48511">
        <ele>1182.5600585938</ele>
        <time>2024-09-27T13:34:18.000Z</time>
      </trkpt>
      <trkpt lat="40.22809" lon="20.48525">
        <ele>1184.9599609375</ele>
        <time>2024-09-27T13:34:24.000Z</time>
      </trkpt>
      <trkpt lat="40.22806" lon="20.48537">
        <ele>1186.4000244141</ele>
        <time>2024-09-27T13:34:26.000Z</time>
      </trkpt>
      <trkpt lat="40.22806" lon="20.48538">
        <ele>1186.8800048828</ele>
        <time>2024-09-27T13:34:27.000Z</time>
      </trkpt>
      <trkpt lat="40.22802" lon="20.48552">
        <ele>1188.3299560547</ele>
        <time>2024-09-27T13:34:29.000Z</time>
      </trkpt>
      <trkpt lat="40.22802" lon="20.48553">
        <ele>1188.3299560547</ele>
        <time>2024-09-27T13:34:30.000Z</time>
      </trkpt>
      <trkpt lat="40.22801" lon="20.48559">
        <ele>1188.8100585938</ele>
        <time>2024-09-27T13:34:31.000Z</time>
      </trkpt>
      <trkpt lat="40.22801" lon="20.48566">
        <ele>1189.2900390625</ele>
        <time>2024-09-27T13:34:32.000Z</time>
      </trkpt>
      <trkpt lat="40.228" lon="20.48578">
        <ele>1190.7299804688</ele>
        <time>2024-09-27T13:34:34.000Z</time>
      </trkpt>
      <trkpt lat="40.228" lon="20.48582">
        <ele>1190.7299804688</ele>
        <time>2024-09-27T13:34:35.000Z</time>
      </trkpt>
      <trkpt lat="40.22801" lon="20.48613">
        <ele>1194.0899658203</ele>
        <time>2024-09-27T13:34:42.000Z</time>
      </trkpt>
      <trkpt lat="40.22816" lon="20.48611">
        <ele>1196.0200195312</ele>
        <time>2024-09-27T13:34:46.000Z</time>
      </trkpt>
      <trkpt lat="40.22819" lon="20.48609">
        <ele>1196.5</ele>
        <time>2024-09-27T13:34:47.000Z</time>
      </trkpt>
      <trkpt lat="40.22823" lon="20.48608">
        <ele>1196.9799804688</ele>
        <time>2024-09-27T13:34:48.000Z</time>
      </trkpt>
      <trkpt lat="40.22842" lon="20.48616">
        <ele>1199.8599853516</ele>
        <time>2024-09-27T13:34:53.000Z</time>
      </trkpt>
      <trkpt lat="40.22868" lon="20.48631">
        <ele>1201.7900390625</ele>
        <time>2024-09-27T13:35:01.000Z</time>
      </trkpt>
      <trkpt lat="40.22869" lon="20.48632">
        <ele>1201.3000488281</ele>
        <time>2024-09-27T13:35:11.000Z</time>
      </trkpt>
      <trkpt lat="40.22872" lon="20.48634">
        <ele>1200.3399658203</ele>
        <time>2024-09-27T13:37:17.000Z</time>
      </trkpt>
      <trkpt lat="40.2288" lon="20.48648">
        <ele>1198.9000244141</ele>
        <time>2024-09-27T13:37:21.000Z</time>
      </trkpt>
      <trkpt lat="40.2288" lon="20.48654">
        <ele>1198.9000244141</ele>
        <time>2024-09-27T13:37:22.000Z</time>
      </trkpt>
      <trkpt lat="40.2288" lon="20.4866">
        <ele>1198.4200439453</ele>
        <time>2024-09-27T13:37:23.000Z</time>
      </trkpt>
      <trkpt lat="40.22879" lon="20.48664">
        <ele>1198.4200439453</ele>
        <time>2024-09-27T13:37:24.000Z</time>
      </trkpt>
      <trkpt lat="40.22878" lon="20.48672">
        <ele>1197.9399414062</ele>
        <time>2024-09-27T13:37:25.000Z</time>
      </trkpt>
      <trkpt lat="40.22877" lon="20.48675">
        <ele>1197.9399414062</ele>
        <time>2024-09-27T13:37:26.000Z</time>
      </trkpt>
      <trkpt lat="40.22875" lon="20.48694">
        <ele>1197.9399414062</ele>
        <time>2024-09-27T13:37:30.000Z</time>
      </trkpt>
      <trkpt lat="40.22875" lon="20.48701">
        <ele>1197.4599609375</ele>
        <time>2024-09-27T13:37:31.000Z</time>
      </trkpt>
      <trkpt lat="40.22877" lon="20.48707">
        <ele>1197.4599609375</ele>
        <time>2024-09-27T13:37:32.000Z</time>
      </trkpt>
      <trkpt lat="40.22879" lon="20.48717">
        <ele>1197.4599609375</ele>
        <time>2024-09-27T13:37:33.000Z</time>
      </trkpt>
      <trkpt lat="40.22881" lon="20.48722">
        <ele>1197.9399414062</ele>
        <time>2024-09-27T13:37:34.000Z</time>
      </trkpt>
      <trkpt lat="40.22884" lon="20.48728">
        <ele>1197.9399414062</ele>
        <time>2024-09-27T13:37:35.000Z</time>
      </trkpt>
      <trkpt lat="40.22887" lon="20.48734">
        <ele>1198.4200439453</ele>
        <time>2024-09-27T13:37:36.000Z</time>
      </trkpt>
      <trkpt lat="40.2289" lon="20.48739">
        <ele>1199.3800048828</ele>
        <time>2024-09-27T13:37:37.000Z</time>
      </trkpt>
      <trkpt lat="40.22893" lon="20.48745">
        <ele>1200.3399658203</ele>
        <time>2024-09-27T13:37:38.000Z</time>
      </trkpt>
      <trkpt lat="40.229" lon="20.48764">
        <ele>1202.2700195312</ele>
        <time>2024-09-27T13:37:44.000Z</time>
      </trkpt>
      <trkpt lat="40.22904" lon="20.48779">
        <ele>1201.7900390625</ele>
        <time>2024-09-27T13:37:48.000Z</time>
      </trkpt>
      <trkpt lat="40.22905" lon="20.48784">
        <ele>1201.7900390625</ele>
        <time>2024-09-27T13:37:49.000Z</time>
      </trkpt>
      <trkpt lat="40.22909" lon="20.488">
        <ele>1200.3399658203</ele>
        <time>2024-09-27T13:37:57.000Z</time>
      </trkpt>
      <trkpt lat="40.22909" lon="20.48802">
        <ele>1200.3399658203</ele>
        <time>2024-09-27T13:39:53.000Z</time>
      </trkpt>
      <trkpt lat="40.2291" lon="20.48821">
        <ele>1199.8599853516</ele>
        <time>2024-09-27T13:40:00.000Z</time>
      </trkpt>
      <trkpt lat="40.22912" lon="20.48842">
        <ele>1200.3399658203</ele>
        <time>2024-09-27T13:40:07.000Z</time>
      </trkpt>
      <trkpt lat="40.22912" lon="20.48866">
        <ele>1200.3399658203</ele>
        <time>2024-09-27T13:40:15.000Z</time>
      </trkpt>
      <trkpt lat="40.22905" lon="20.48885">
        <ele>1200.3399658203</ele>
        <time>2024-09-27T13:40:22.000Z</time>
      </trkpt>
      <trkpt lat="40.22903" lon="20.48915">
        <ele>1200.3399658203</ele>
        <time>2024-09-27T13:40:30.000Z</time>
      </trkpt>
      <trkpt lat="40.22905" lon="20.48945">
        <ele>1197.4599609375</ele>
        <time>2024-09-27T13:40:37.000Z</time>
      </trkpt>
      <trkpt lat="40.22903" lon="20.48979">
        <ele>1193.6099853516</ele>
        <time>2024-09-27T13:40:44.000Z</time>
      </trkpt>
      <trkpt lat="40.22904" lon="20.4902">
        <ele>1191.2099609375</ele>
        <time>2024-09-27T13:40:53.000Z</time>
      </trkpt>
      <trkpt lat="40.22908" lon="20.49054">
        <ele>1189.2900390625</ele>
        <time>2024-09-27T13:41:00.000Z</time>
      </trkpt>
      <trkpt lat="40.2291" lon="20.49068">
        <ele>1188.3299560547</ele>
        <time>2024-09-27T13:41:07.000Z</time>
      </trkpt>
      <trkpt lat="40.22912" lon="20.49087">
        <ele>1187.3699951172</ele>
        <time>2024-09-27T13:43:06.000Z</time>
      </trkpt>
      <trkpt lat="40.22919" lon="20.49124">
        <ele>1184</ele>
        <time>2024-09-27T13:43:14.000Z</time>
      </trkpt>
      <trkpt lat="40.22922" lon="20.49131">
        <ele>1183.0400390625</ele>
        <time>2024-09-27T13:43:16.000Z</time>
      </trkpt>
      <trkpt lat="40.22924" lon="20.49136">
        <ele>1182.0799560547</ele>
        <time>2024-09-27T13:43:17.000Z</time>
      </trkpt>
      <trkpt lat="40.22926" lon="20.49141">
        <ele>1181.5999755859</ele>
        <time>2024-09-27T13:43:18.000Z</time>
      </trkpt>
      <trkpt lat="40.22943" lon="20.49138">
        <ele>1178.7099609375</ele>
        <time>2024-09-27T13:43:24.000Z</time>
      </trkpt>
      <trkpt lat="40.22954" lon="20.49132">
        <ele>1174.8699951172</ele>
        <time>2024-09-27T13:43:31.000Z</time>
      </trkpt>
      <trkpt lat="40.22948" lon="20.49153">
        <ele>1171.9799804688</ele>
        <time>2024-09-27T13:43:38.000Z</time>
      </trkpt>
      <trkpt lat="40.22946" lon="20.49172">
        <ele>1171.5</ele>
        <time>2024-09-27T13:43:46.000Z</time>
      </trkpt>
      <trkpt lat="40.22954" lon="20.49192">
        <ele>1169.0999755859</ele>
        <time>2024-09-27T13:43:56.000Z</time>
      </trkpt>
      <trkpt lat="40.22977" lon="20.49208">
        <ele>1165.7399902344</ele>
        <time>2024-09-27T13:44:05.000Z</time>
      </trkpt>
      <trkpt lat="40.22986" lon="20.49224">
        <ele>1164.2900390625</ele>
        <time>2024-09-27T13:44:09.000Z</time>
      </trkpt>
      <trkpt lat="40.22996" lon="20.49249">
        <ele>1163.3299560547</ele>
        <time>2024-09-27T13:44:14.000Z</time>
      </trkpt>
      <trkpt lat="40.22997" lon="20.49251">
        <ele>1163.3299560547</ele>
        <time>2024-09-27T13:44:15.000Z</time>
      </trkpt>
      <trkpt lat="40.23" lon="20.49256">
        <ele>1163.3299560547</ele>
        <time>2024-09-27T13:44:16.000Z</time>
      </trkpt>
      <trkpt lat="40.23004" lon="20.49269">
        <ele>1162.3699951172</ele>
        <time>2024-09-27T13:44:18.000Z</time>
      </trkpt>
      <trkpt lat="40.23004" lon="20.49273">
        <ele>1162.3699951172</ele>
        <time>2024-09-27T13:44:19.000Z</time>
      </trkpt>
      <trkpt lat="40.23005" lon="20.49276">
        <ele>1161.8900146484</ele>
        <time>2024-09-27T13:44:20.000Z</time>
      </trkpt>
      <trkpt lat="40.23007" lon="20.49291">
        <ele>1160.4499511719</ele>
        <time>2024-09-27T13:44:23.000Z</time>
      </trkpt>
      <trkpt lat="40.23006" lon="20.49296">
        <ele>1159.4899902344</ele>
        <time>2024-09-27T13:44:24.000Z</time>
      </trkpt>
      <trkpt lat="40.22994" lon="20.49311">
        <ele>1158.5300292969</ele>
        <time>2024-09-27T13:44:29.000Z</time>
      </trkpt>
      <trkpt lat="40.2299" lon="20.4931">
        <ele>1158.5300292969</ele>
        <time>2024-09-27T13:44:30.000Z</time>
      </trkpt>
      <trkpt lat="40.22985" lon="20.49309">
        <ele>1158.0500488281</ele>
        <time>2024-09-27T13:44:31.000Z</time>
      </trkpt>
      <trkpt lat="40.22979" lon="20.49308">
        <ele>1158.0500488281</ele>
        <time>2024-09-27T13:44:32.000Z</time>
      </trkpt>
      <trkpt lat="40.22977" lon="20.49309">
        <ele>1158.0500488281</ele>
        <time>2024-09-27T13:44:33.000Z</time>
      </trkpt>
      <trkpt lat="40.22974" lon="20.4931">
        <ele>1158.5300292969</ele>
        <time>2024-09-27T13:44:34.000Z</time>
      </trkpt>
      <trkpt lat="40.22969" lon="20.49314">
        <ele>1159.0100097656</ele>
        <time>2024-09-27T13:44:35.000Z</time>
      </trkpt>
      <trkpt lat="40.22966" lon="20.49316">
        <ele>1159.4899902344</ele>
        <time>2024-09-27T13:44:36.000Z</time>
      </trkpt>
      <trkpt lat="40.22963" lon="20.49318">
        <ele>1160.4499511719</ele>
        <time>2024-09-27T13:44:37.000Z</time>
      </trkpt>
      <trkpt lat="40.22959" lon="20.4932">
        <ele>1161.4100341797</ele>
        <time>2024-09-27T13:44:38.000Z</time>
      </trkpt>
      <trkpt lat="40.22955" lon="20.49322">
        <ele>1162.3699951172</ele>
        <time>2024-09-27T13:44:39.000Z</time>
      </trkpt>
      <trkpt lat="40.22949" lon="20.49324">
        <ele>1163.8100585938</ele>
        <time>2024-09-27T13:44:40.000Z</time>
      </trkpt>
      <trkpt lat="40.22946" lon="20.49326">
        <ele>1164.7700195312</ele>
        <time>2024-09-27T13:44:41.000Z</time>
      </trkpt>
      <trkpt lat="40.22942" lon="20.49327">
        <ele>1165.7399902344</ele>
        <time>2024-09-27T13:44:42.000Z</time>
      </trkpt>
      <trkpt lat="40.22936" lon="20.4933">
        <ele>1166.6999511719</ele>
        <time>2024-09-27T13:44:43.000Z</time>
      </trkpt>
      <trkpt lat="40.2293" lon="20.49333">
        <ele>1168.6199951172</ele>
        <time>2024-09-27T13:44:44.000Z</time>
      </trkpt>
      <trkpt lat="40.22927" lon="20.49335">
        <ele>1169.5799560547</ele>
        <time>2024-09-27T13:44:45.000Z</time>
      </trkpt>
      <trkpt lat="40.22923" lon="20.49338">
        <ele>1170.5400390625</ele>
        <time>2024-09-27T13:44:46.000Z</time>
      </trkpt>
      <trkpt lat="40.2292" lon="20.49341">
        <ele>1171.5</ele>
        <time>2024-09-27T13:44:47.000Z</time>
      </trkpt>
      <trkpt lat="40.22915" lon="20.49344">
        <ele>1172.9499511719</ele>
        <time>2024-09-27T13:44:48.000Z</time>
      </trkpt>
      <trkpt lat="40.22911" lon="20.49347">
        <ele>1173.4300537109</ele>
        <time>2024-09-27T13:44:49.000Z</time>
      </trkpt>
      <trkpt lat="40.22908" lon="20.49349">
        <ele>1174.3900146484</ele>
        <time>2024-09-27T13:44:50.000Z</time>
      </trkpt>
      <trkpt lat="40.22902" lon="20.49352">
        <ele>1176.3100585938</ele>
        <time>2024-09-27T13:44:51.000Z</time>
      </trkpt>
      <trkpt lat="40.22898" lon="20.49353">
        <ele>1177.2700195312</ele>
        <time>2024-09-27T13:44:52.000Z</time>
      </trkpt>
      <trkpt lat="40.22893" lon="20.49355">
        <ele>1177.75</ele>
        <time>2024-09-27T13:44:53.000Z</time>
      </trkpt>
      <trkpt lat="40.22886" lon="20.49357">
        <ele>1178.2299804688</ele>
        <time>2024-09-27T13:44:54.000Z</time>
      </trkpt>
      <trkpt lat="40.22879" lon="20.49358">
        <ele>1179.1899414062</ele>
        <time>2024-09-27T13:44:55.000Z</time>
      </trkpt>
      <trkpt lat="40.22876" lon="20.49359">
        <ele>1179.6700439453</ele>
        <time>2024-09-27T13:44:56.000Z</time>
      </trkpt>
      <trkpt lat="40.22872" lon="20.49361">
        <ele>1180.1600341797</ele>
        <time>2024-09-27T13:44:57.000Z</time>
      </trkpt>
      <trkpt lat="40.22869" lon="20.49362">
        <ele>1181.5999755859</ele>
        <time>2024-09-27T13:44:58.000Z</time>
      </trkpt>
      <trkpt lat="40.22865" lon="20.49365">
        <ele>1182.5600585938</ele>
        <time>2024-09-27T13:44:59.000Z</time>
      </trkpt>
      <trkpt lat="40.22858" lon="20.4937">
        <ele>1183.5200195312</ele>
        <time>2024-09-27T13:45:00.000Z</time>
      </trkpt>
      <trkpt lat="40.22855" lon="20.49372">
        <ele>1184</ele>
        <time>2024-09-27T13:45:01.000Z</time>
      </trkpt>
      <trkpt lat="40.22848" lon="20.49377">
        <ele>1184.9599609375</ele>
        <time>2024-09-27T13:45:02.000Z</time>
      </trkpt>
      <trkpt lat="40.22845" lon="20.49379">
        <ele>1184.9599609375</ele>
        <time>2024-09-27T13:45:03.000Z</time>
      </trkpt>
      <trkpt lat="40.2284" lon="20.49383">
        <ele>1185.9200439453</ele>
        <time>2024-09-27T13:45:04.000Z</time>
      </trkpt>
      <trkpt lat="40.22837" lon="20.49385">
        <ele>1186.4000244141</ele>
        <time>2024-09-27T13:45:05.000Z</time>
      </trkpt>
      <trkpt lat="40.22831" lon="20.49388">
        <ele>1187.3699951172</ele>
        <time>2024-09-27T13:45:06.000Z</time>
      </trkpt>
      <trkpt lat="40.22821" lon="20.49393">
        <ele>1188.8100585938</ele>
        <time>2024-09-27T13:45:07.000Z</time>
      </trkpt>
      <trkpt lat="40.2282" lon="20.49394">
        <ele>1189.2900390625</ele>
        <time>2024-09-27T13:45:08.000Z</time>
      </trkpt>
      <trkpt lat="40.22813" lon="20.49396">
        <ele>1190.25</ele>
        <time>2024-09-27T13:45:09.000Z</time>
      </trkpt>
      <trkpt lat="40.22805" lon="20.494">
        <ele>1190.7299804688</ele>
        <time>2024-09-27T13:45:10.000Z</time>
      </trkpt>
      <trkpt lat="40.22803" lon="20.49401">
        <ele>1190.7299804688</ele>
        <time>2024-09-27T13:45:11.000Z</time>
      </trkpt>
      <trkpt lat="40.22798" lon="20.49402">
        <ele>1191.2099609375</ele>
        <time>2024-09-27T13:45:12.000Z</time>
      </trkpt>
      <trkpt lat="40.22791" lon="20.49402">
        <ele>1191.6899414062</ele>
        <time>2024-09-27T13:45:13.000Z</time>
      </trkpt>
      <trkpt lat="40.22787" lon="20.49403">
        <ele>1192.1700439453</ele>
        <time>2024-09-27T13:45:14.000Z</time>
      </trkpt>
      <trkpt lat="40.22782" lon="20.49405">
        <ele>1193.1300048828</ele>
        <time>2024-09-27T13:45:15.000Z</time>
      </trkpt>
      <trkpt lat="40.22776" lon="20.49411">
        <ele>1194.0899658203</ele>
        <time>2024-09-27T13:45:16.000Z</time>
      </trkpt>
      <trkpt lat="40.22774" lon="20.49413">
        <ele>1194.5799560547</ele>
        <time>2024-09-27T13:45:17.000Z</time>
      </trkpt>
      <trkpt lat="40.22766" lon="20.49424">
        <ele>1196.9799804688</ele>
        <time>2024-09-27T13:45:19.000Z</time>
      </trkpt>
      <trkpt lat="40.22757" lon="20.49434">
        <ele>1198.4200439453</ele>
        <time>2024-09-27T13:45:20.000Z</time>
      </trkpt>
      <trkpt lat="40.22755" lon="20.49437">
        <ele>1198.9000244141</ele>
        <time>2024-09-27T13:45:21.000Z</time>
      </trkpt>
      <trkpt lat="40.2275" lon="20.49442">
        <ele>1199.3800048828</ele>
        <time>2024-09-27T13:45:22.000Z</time>
      </trkpt>
      <trkpt lat="40.22745" lon="20.49447">
        <ele>1200.3399658203</ele>
        <time>2024-09-27T13:45:24.000Z</time>
      </trkpt>
      <trkpt lat="40.22741" lon="20.49451">
        <ele>1200.3399658203</ele>
        <time>2024-09-27T13:45:25.000Z</time>
      </trkpt>
      <trkpt lat="40.22735" lon="20.49452">
        <ele>1200.8199462891</ele>
        <time>2024-09-27T13:45:26.000Z</time>
      </trkpt>
      <trkpt lat="40.22729" lon="20.49451">
        <ele>1200.8199462891</ele>
        <time>2024-09-27T13:45:27.000Z</time>
      </trkpt>
      <trkpt lat="40.22724" lon="20.49451">
        <ele>1200.3399658203</ele>
        <time>2024-09-27T13:45:28.000Z</time>
      </trkpt>
      <trkpt lat="40.2272" lon="20.49453">
        <ele>1200.3399658203</ele>
        <time>2024-09-27T13:45:29.000Z</time>
      </trkpt>
      <trkpt lat="40.2271" lon="20.49466">
        <ele>1201.7900390625</ele>
        <time>2024-09-27T13:45:32.000Z</time>
      </trkpt>
      <trkpt lat="40.22709" lon="20.49468">
        <ele>1202.2700195312</ele>
        <time>2024-09-27T13:45:33.000Z</time>
      </trkpt>
      <trkpt lat="40.22706" lon="20.49471">
        <ele>1202.75</ele>
        <time>2024-09-27T13:45:34.000Z</time>
      </trkpt>
      <trkpt lat="40.22703" lon="20.49475">
        <ele>1202.75</ele>
        <time>2024-09-27T13:45:35.000Z</time>
      </trkpt>
      <trkpt lat="40.22697" lon="20.49478">
        <ele>1203.2299804688</ele>
        <time>2024-09-27T13:45:36.000Z</time>
      </trkpt>
      <trkpt lat="40.22693" lon="20.49479">
        <ele>1203.2299804688</ele>
        <time>2024-09-27T13:45:37.000Z</time>
      </trkpt>
      <trkpt lat="40.22687" lon="20.49478">
        <ele>1203.7099609375</ele>
        <time>2024-09-27T13:45:38.000Z</time>
      </trkpt>
      <trkpt lat="40.22682" lon="20.49478">
        <ele>1203.7099609375</ele>
        <time>2024-09-27T13:45:39.000Z</time>
      </trkpt>
      <trkpt lat="40.22678" lon="20.49478">
        <ele>1204.6700439453</ele>
        <time>2024-09-27T13:45:40.000Z</time>
      </trkpt>
      <trkpt lat="40.2267" lon="20.49481">
        <ele>1205.1500244141</ele>
        <time>2024-09-27T13:45:41.000Z</time>
      </trkpt>
      <trkpt lat="40.22656" lon="20.49491">
        <ele>1206.1099853516</ele>
        <time>2024-09-27T13:45:47.000Z</time>
      </trkpt>
      <trkpt lat="40.22652" lon="20.49497">
        <ele>1206.5899658203</ele>
        <time>2024-09-27T13:45:48.000Z</time>
      </trkpt>
      <trkpt lat="40.2265" lon="20.49501">
        <ele>1207.0699462891</ele>
        <time>2024-09-27T13:45:49.000Z</time>
      </trkpt>
      <trkpt lat="40.22648" lon="20.49506">
        <ele>1208.0300292969</ele>
        <time>2024-09-27T13:45:50.000Z</time>
      </trkpt>
      <trkpt lat="40.22637" lon="20.49532">
        <ele>1210.4399414062</ele>
        <time>2024-09-27T13:45:55.000Z</time>
      </trkpt>
      <trkpt lat="40.22637" lon="20.49533">
        <ele>1210.4399414062</ele>
        <time>2024-09-27T13:45:56.000Z</time>
      </trkpt>
      <trkpt lat="40.22632" lon="20.49543">
        <ele>1210.4399414062</ele>
        <time>2024-09-27T13:45:58.000Z</time>
      </trkpt>
      <trkpt lat="40.2263" lon="20.49547">
        <ele>1210.9200439453</ele>
        <time>2024-09-27T13:45:59.000Z</time>
      </trkpt>
      <trkpt lat="40.22626" lon="20.49553">
        <ele>1210.9200439453</ele>
        <time>2024-09-27T13:46:00.000Z</time>
      </trkpt>
      <trkpt lat="40.22625" lon="20.49555">
        <ele>1210.9200439453</ele>
        <time>2024-09-27T13:46:01.000Z</time>
      </trkpt>
      <trkpt lat="40.22622" lon="20.4956">
        <ele>1211.8800048828</ele>
        <time>2024-09-27T13:46:02.000Z</time>
      </trkpt>
      <trkpt lat="40.22619" lon="20.4957">
        <ele>1212.3599853516</ele>
        <time>2024-09-27T13:46:03.000Z</time>
      </trkpt>
      <trkpt lat="40.22618" lon="20.49573">
        <ele>1212.8399658203</ele>
        <time>2024-09-27T13:46:04.000Z</time>
      </trkpt>
      <trkpt lat="40.22616" lon="20.49579">
        <ele>1213.3199462891</ele>
        <time>2024-09-27T13:46:05.000Z</time>
      </trkpt>
      <trkpt lat="40.22616" lon="20.49585">
        <ele>1213.8000488281</ele>
        <time>2024-09-27T13:46:06.000Z</time>
      </trkpt>
      <trkpt lat="40.22616" lon="20.4959">
        <ele>1214.2800292969</ele>
        <time>2024-09-27T13:46:07.000Z</time>
      </trkpt>
      <trkpt lat="40.22616" lon="20.49597">
        <ele>1214.7600097656</ele>
        <time>2024-09-27T13:46:08.000Z</time>
      </trkpt>
      <trkpt lat="40.22616" lon="20.49602">
        <ele>1214.7600097656</ele>
        <time>2024-09-27T13:46:09.000Z</time>
      </trkpt>
      <trkpt lat="40.22614" lon="20.49609">
        <ele>1215.2399902344</ele>
        <time>2024-09-27T13:46:10.000Z</time>
      </trkpt>
      <trkpt lat="40.22611" lon="20.49615">
        <ele>1215.7199707031</ele>
        <time>2024-09-27T13:46:11.000Z</time>
      </trkpt>
      <trkpt lat="40.22607" lon="20.49621">
        <ele>1216.6899414062</ele>
        <time>2024-09-27T13:46:12.000Z</time>
      </trkpt>
      <trkpt lat="40.22604" lon="20.49627">
        <ele>1217.6500244141</ele>
        <time>2024-09-27T13:46:13.000Z</time>
      </trkpt>
      <trkpt lat="40.22602" lon="20.49633">
        <ele>1218.6099853516</ele>
        <time>2024-09-27T13:46:14.000Z</time>
      </trkpt>
      <trkpt lat="40.22599" lon="20.49642">
        <ele>1219.5699462891</ele>
        <time>2024-09-27T13:46:15.000Z</time>
      </trkpt>
      <trkpt lat="40.22598" lon="20.49645">
        <ele>1219.5699462891</ele>
        <time>2024-09-27T13:46:16.000Z</time>
      </trkpt>
      <trkpt lat="40.22596" lon="20.49652">
        <ele>1220.0500488281</ele>
        <time>2024-09-27T13:46:17.000Z</time>
      </trkpt>
      <trkpt lat="40.22595" lon="20.49657">
        <ele>1219.5699462891</ele>
        <time>2024-09-27T13:46:23.000Z</time>
      </trkpt>
      <trkpt lat="40.22596" lon="20.49656">
        <ele>1219.0899658203</ele>
        <time>2024-09-27T13:46:52.000Z</time>
      </trkpt>
      <trkpt lat="40.22595" lon="20.49663">
        <ele>1220.0500488281</ele>
        <time>2024-09-27T13:46:54.000Z</time>
      </trkpt>
      <trkpt lat="40.22594" lon="20.49666">
        <ele>1220.0500488281</ele>
        <time>2024-09-27T13:46:55.000Z</time>
      </trkpt>
      <trkpt lat="40.2259" lon="20.49677">
        <ele>1221.0100097656</ele>
        <time>2024-09-27T13:46:57.000Z</time>
      </trkpt>
      <trkpt lat="40.2259" lon="20.4968">
        <ele>1221.4899902344</ele>
        <time>2024-09-27T13:46:58.000Z</time>
      </trkpt>
      <trkpt lat="40.22589" lon="20.49686">
        <ele>1221.9699707031</ele>
        <time>2024-09-27T13:46:59.000Z</time>
      </trkpt>
      <trkpt lat="40.22586" lon="20.4969">
        <ele>1222.4499511719</ele>
        <time>2024-09-27T13:47:00.000Z</time>
      </trkpt>
      <trkpt lat="40.22583" lon="20.49693">
        <ele>1223.4200439453</ele>
        <time>2024-09-27T13:47:01.000Z</time>
      </trkpt>
      <trkpt lat="40.22577" lon="20.49694">
        <ele>1224.3800048828</ele>
        <time>2024-09-27T13:47:02.000Z</time>
      </trkpt>
      <trkpt lat="40.2257" lon="20.49693">
        <ele>1225.3399658203</ele>
        <time>2024-09-27T13:47:03.000Z</time>
      </trkpt>
      <trkpt lat="40.22567" lon="20.49692">
        <ele>1225.8199462891</ele>
        <time>2024-09-27T13:47:04.000Z</time>
      </trkpt>
      <trkpt lat="40.22554" lon="20.49694">
        <ele>1226.7800292969</ele>
        <time>2024-09-27T13:47:07.000Z</time>
      </trkpt>
      <trkpt lat="40.22553" lon="20.49696">
        <ele>1227.2600097656</ele>
        <time>2024-09-27T13:47:08.000Z</time>
      </trkpt>
      <trkpt lat="40.22549" lon="20.49701">
        <ele>1227.7399902344</ele>
        <time>2024-09-27T13:47:09.000Z</time>
      </trkpt>
      <trkpt lat="40.22546" lon="20.49704">
        <ele>1228.6999511719</ele>
        <time>2024-09-27T13:47:10.000Z</time>
      </trkpt>
      <trkpt lat="40.22541" lon="20.49707">
        <ele>1230.1400146484</ele>
        <time>2024-09-27T13:47:11.000Z</time>
      </trkpt>
      <trkpt lat="40.22537" lon="20.49707">
        <ele>1230.6199951172</ele>
        <time>2024-09-27T13:47:12.000Z</time>
      </trkpt>
      <trkpt lat="40.22532" lon="20.49709">
        <ele>1231.1099853516</ele>
        <time>2024-09-27T13:47:13.000Z</time>
      </trkpt>
      <trkpt lat="40.22529" lon="20.49711">
        <ele>1231.1099853516</ele>
        <time>2024-09-27T13:47:14.000Z</time>
      </trkpt>
      <trkpt lat="40.22526" lon="20.49716">
        <ele>1232.0699462891</ele>
        <time>2024-09-27T13:47:15.000Z</time>
      </trkpt>
      <trkpt lat="40.22524" lon="20.4972">
        <ele>1232.5500488281</ele>
        <time>2024-09-27T13:47:16.000Z</time>
      </trkpt>
      <trkpt lat="40.2252" lon="20.49726">
        <ele>1233.9899902344</ele>
        <time>2024-09-27T13:47:17.000Z</time>
      </trkpt>
      <trkpt lat="40.22518" lon="20.4973">
        <ele>1234.9499511719</ele>
        <time>2024-09-27T13:47:18.000Z</time>
      </trkpt>
      <trkpt lat="40.22515" lon="20.49733">
        <ele>1235.4300537109</ele>
        <time>2024-09-27T13:47:19.000Z</time>
      </trkpt>
      <trkpt lat="40.22511" lon="20.49735">
        <ele>1235.4300537109</ele>
        <time>2024-09-27T13:47:20.000Z</time>
      </trkpt>
      <trkpt lat="40.22502" lon="20.49735">
        <ele>1236.3900146484</ele>
        <time>2024-09-27T13:47:22.000Z</time>
      </trkpt>
      <trkpt lat="40.22498" lon="20.49736">
        <ele>1236.8699951172</ele>
        <time>2024-09-27T13:47:23.000Z</time>
      </trkpt>
      <trkpt lat="40.22495" lon="20.49737">
        <ele>1237.8299560547</ele>
        <time>2024-09-27T13:47:24.000Z</time>
      </trkpt>
      <trkpt lat="40.2249" lon="20.49739">
        <ele>1238.8000488281</ele>
        <time>2024-09-27T13:47:25.000Z</time>
      </trkpt>
      <trkpt lat="40.22487" lon="20.49741">
        <ele>1239.7600097656</ele>
        <time>2024-09-27T13:47:26.000Z</time>
      </trkpt>
      <trkpt lat="40.22483" lon="20.49742">
        <ele>1240.2399902344</ele>
        <time>2024-09-27T13:47:27.000Z</time>
      </trkpt>
      <trkpt lat="40.22478" lon="20.49744">
        <ele>1240.7199707031</ele>
        <time>2024-09-27T13:47:28.000Z</time>
      </trkpt>
      <trkpt lat="40.22474" lon="20.49746">
        <ele>1241.1999511719</ele>
        <time>2024-09-27T13:47:29.000Z</time>
      </trkpt>
      <trkpt lat="40.2247" lon="20.49747">
        <ele>1241.6800537109</ele>
        <time>2024-09-27T13:47:30.000Z</time>
      </trkpt>
      <trkpt lat="40.22465" lon="20.49748">
        <ele>1242.1600341797</ele>
        <time>2024-09-27T13:47:31.000Z</time>
      </trkpt>
      <trkpt lat="40.2246" lon="20.4975">
        <ele>1243.1199951172</ele>
        <time>2024-09-27T13:47:32.000Z</time>
      </trkpt>
      <trkpt lat="40.22456" lon="20.49752">
        <ele>1243.1199951172</ele>
        <time>2024-09-27T13:47:33.000Z</time>
      </trkpt>
      <trkpt lat="40.22452" lon="20.49755">
        <ele>1244.0799560547</ele>
        <time>2024-09-27T13:47:34.000Z</time>
      </trkpt>
      <trkpt lat="40.22448" lon="20.49757">
        <ele>1245.0400390625</ele>
        <time>2024-09-27T13:47:35.000Z</time>
      </trkpt>
      <trkpt lat="40.22444" lon="20.4976">
        <ele>1246.0100097656</ele>
        <time>2024-09-27T13:47:36.000Z</time>
      </trkpt>
      <trkpt lat="40.22441" lon="20.49762">
        <ele>1246.0100097656</ele>
        <time>2024-09-27T13:47:37.000Z</time>
      </trkpt>
      <trkpt lat="40.22437" lon="20.49766">
        <ele>1246.9699707031</ele>
        <time>2024-09-27T13:47:38.000Z</time>
      </trkpt>
      <trkpt lat="40.22433" lon="20.49771">
        <ele>1247.4499511719</ele>
        <time>2024-09-27T13:47:39.000Z</time>
      </trkpt>
      <trkpt lat="40.2243" lon="20.49775">
        <ele>1247.9300537109</ele>
        <time>2024-09-27T13:47:40.000Z</time>
      </trkpt>
      <trkpt lat="40.22426" lon="20.49779">
        <ele>1248.8900146484</ele>
        <time>2024-09-27T13:47:41.000Z</time>
      </trkpt>
      <trkpt lat="40.22419" lon="20.49783">
        <ele>1249.8499755859</ele>
        <time>2024-09-27T13:47:42.000Z</time>
      </trkpt>
      <trkpt lat="40.22417" lon="20.49785">
        <ele>1250.3299560547</ele>
        <time>2024-09-27T13:47:43.000Z</time>
      </trkpt>
      <trkpt lat="40.22413" lon="20.49788">
        <ele>1250.8100585938</ele>
        <time>2024-09-27T13:47:44.000Z</time>
      </trkpt>
      <trkpt lat="40.22408" lon="20.49793">
        <ele>1250.8100585938</ele>
        <time>2024-09-27T13:47:45.000Z</time>
      </trkpt>
      <trkpt lat="40.22403" lon="20.49798">
        <ele>1251.2900390625</ele>
        <time>2024-09-27T13:47:46.000Z</time>
      </trkpt>
      <trkpt lat="40.224" lon="20.49802">
        <ele>1251.7700195312</ele>
        <time>2024-09-27T13:47:47.000Z</time>
      </trkpt>
      <trkpt lat="40.22397" lon="20.49807">
        <ele>1252.25</ele>
        <time>2024-09-27T13:47:48.000Z</time>
      </trkpt>
      <trkpt lat="40.22393" lon="20.49812">
        <ele>1253.2199707031</ele>
        <time>2024-09-27T13:47:49.000Z</time>
      </trkpt>
      <trkpt lat="40.22388" lon="20.49816">
        <ele>1253.6999511719</ele>
        <time>2024-09-27T13:47:50.000Z</time>
      </trkpt>
      <trkpt lat="40.22384" lon="20.49821">
        <ele>1254.6600341797</ele>
        <time>2024-09-27T13:47:51.000Z</time>
      </trkpt>
      <trkpt lat="40.22381" lon="20.49823">
        <ele>1255.6199951172</ele>
        <time>2024-09-27T13:47:52.000Z</time>
      </trkpt>
      <trkpt lat="40.22378" lon="20.49828">
        <ele>1256.0999755859</ele>
        <time>2024-09-27T13:47:53.000Z</time>
      </trkpt>
      <trkpt lat="40.22373" lon="20.49832">
        <ele>1256.0999755859</ele>
        <time>2024-09-27T13:47:54.000Z</time>
      </trkpt>
      <trkpt lat="40.22368" lon="20.49835">
        <ele>1257.5400390625</ele>
        <time>2024-09-27T13:47:55.000Z</time>
      </trkpt>
      <trkpt lat="40.2236" lon="20.49841">
        <ele>1258.9799804688</ele>
        <time>2024-09-27T13:47:56.000Z</time>
      </trkpt>
      <trkpt lat="40.22359" lon="20.49841">
        <ele>1258.9799804688</ele>
        <time>2024-09-27T13:47:57.000Z</time>
      </trkpt>
      <trkpt lat="40.22352" lon="20.49845">
        <ele>1259.4599609375</ele>
        <time>2024-09-27T13:47:58.000Z</time>
      </trkpt>
      <trkpt lat="40.22348" lon="20.49848">
        <ele>1259.9399414062</ele>
        <time>2024-09-27T13:47:59.000Z</time>
      </trkpt>
      <trkpt lat="40.22343" lon="20.4985">
        <ele>1260.4300537109</ele>
        <time>2024-09-27T13:48:00.000Z</time>
      </trkpt>
      <trkpt lat="40.22339" lon="20.49852">
        <ele>1260.9100341797</ele>
        <time>2024-09-27T13:48:01.000Z</time>
      </trkpt>
      <trkpt lat="40.22335" lon="20.49854">
        <ele>1262.3499755859</ele>
        <time>2024-09-27T13:48:02.000Z</time>
      </trkpt>
      <trkpt lat="40.2233" lon="20.49856">
        <ele>1262.8299560547</ele>
        <time>2024-09-27T13:48:03.000Z</time>
      </trkpt>
      <trkpt lat="40.22326" lon="20.49857">
        <ele>1263.7900390625</ele>
        <time>2024-09-27T13:48:04.000Z</time>
      </trkpt>
      <trkpt lat="40.22321" lon="20.49858">
        <ele>1264.2700195312</ele>
        <time>2024-09-27T13:48:05.000Z</time>
      </trkpt>
      <trkpt lat="40.22316" lon="20.49859">
        <ele>1265.2299804688</ele>
        <time>2024-09-27T13:48:06.000Z</time>
      </trkpt>
      <trkpt lat="40.22313" lon="20.4986">
        <ele>1265.7099609375</ele>
        <time>2024-09-27T13:48:07.000Z</time>
      </trkpt>
      <trkpt lat="40.22307" lon="20.49862">
        <ele>1266.6700439453</ele>
        <time>2024-09-27T13:48:08.000Z</time>
      </trkpt>
      <trkpt lat="40.22303" lon="20.49863">
        <ele>1266.6700439453</ele>
        <time>2024-09-27T13:48:09.000Z</time>
      </trkpt>
      <trkpt lat="40.22299" lon="20.49865">
        <ele>1267.1600341797</ele>
        <time>2024-09-27T13:48:10.000Z</time>
      </trkpt>
      <trkpt lat="40.22294" lon="20.49866">
        <ele>1267.1600341797</ele>
        <time>2024-09-27T13:48:11.000Z</time>
      </trkpt>
      <trkpt lat="40.22288" lon="20.49868">
        <ele>1267.1600341797</ele>
        <time>2024-09-27T13:48:12.000Z</time>
      </trkpt>
      <trkpt lat="40.22285" lon="20.49868">
        <ele>1267.1600341797</ele>
        <time>2024-09-27T13:48:13.000Z</time>
      </trkpt>
      <trkpt lat="40.2228" lon="20.49867">
        <ele>1267.1600341797</ele>
        <time>2024-09-27T13:48:14.000Z</time>
      </trkpt>
      <trkpt lat="40.22275" lon="20.49867">
        <ele>1266.6700439453</ele>
        <time>2024-09-27T13:48:15.000Z</time>
      </trkpt>
      <trkpt lat="40.2227" lon="20.49869">
        <ele>1267.6400146484</ele>
        <time>2024-09-27T13:48:16.000Z</time>
      </trkpt>
      <trkpt lat="40.22265" lon="20.49872">
        <ele>1267.6400146484</ele>
        <time>2024-09-27T13:48:17.000Z</time>
      </trkpt>
      <trkpt lat="40.22262" lon="20.49875">
        <ele>1267.6400146484</ele>
        <time>2024-09-27T13:48:18.000Z</time>
      </trkpt>
      <trkpt lat="40.22243" lon="20.49897">
        <ele>1267.1600341797</ele>
        <time>2024-09-27T13:48:24.000Z</time>
      </trkpt>
      <trkpt lat="40.22221" lon="20.49909">
        <ele>1269.0799560547</ele>
        <time>2024-09-27T13:48:30.000Z</time>
      </trkpt>
      <trkpt lat="40.22212" lon="20.4992">
        <ele>1269.5600585938</ele>
        <time>2024-09-27T13:48:33.000Z</time>
      </trkpt>
      <trkpt lat="40.22211" lon="20.49921">
        <ele>1269.5600585938</ele>
        <time>2024-09-27T13:48:34.000Z</time>
      </trkpt>
      <trkpt lat="40.22208" lon="20.49926">
        <ele>1269.5600585938</ele>
        <time>2024-09-27T13:48:35.000Z</time>
      </trkpt>
      <trkpt lat="40.22205" lon="20.49933">
        <ele>1270.0400390625</ele>
        <time>2024-09-27T13:48:36.000Z</time>
      </trkpt>
      <trkpt lat="40.22201" lon="20.49939">
        <ele>1270.5200195312</ele>
        <time>2024-09-27T13:48:37.000Z</time>
      </trkpt>
      <trkpt lat="40.22197" lon="20.49944">
        <ele>1271</ele>
        <time>2024-09-27T13:48:38.000Z</time>
      </trkpt>
      <trkpt lat="40.22192" lon="20.49951">
        <ele>1271.4799804688</ele>
        <time>2024-09-27T13:48:39.000Z</time>
      </trkpt>
      <trkpt lat="40.22189" lon="20.49954">
        <ele>1271.9599609375</ele>
        <time>2024-09-27T13:48:40.000Z</time>
      </trkpt>
      <trkpt lat="40.22185" lon="20.49956">
        <ele>1272.4399414062</ele>
        <time>2024-09-27T13:48:41.000Z</time>
      </trkpt>
      <trkpt lat="40.22181" lon="20.49958">
        <ele>1272.4399414062</ele>
        <time>2024-09-27T13:48:42.000Z</time>
      </trkpt>
      <trkpt lat="40.22174" lon="20.49963">
        <ele>1272.9200439453</ele>
        <time>2024-09-27T13:48:44.000Z</time>
      </trkpt>
      <trkpt lat="40.22171" lon="20.49965">
        <ele>1272.9200439453</ele>
        <time>2024-09-27T13:48:45.000Z</time>
      </trkpt>
      <trkpt lat="40.22166" lon="20.49969">
        <ele>1272.4399414062</ele>
        <time>2024-09-27T13:48:46.000Z</time>
      </trkpt>
      <trkpt lat="40.22162" lon="20.49972">
        <ele>1271.9599609375</ele>
        <time>2024-09-27T13:48:47.000Z</time>
      </trkpt>
      <trkpt lat="40.22157" lon="20.49975">
        <ele>1271.9599609375</ele>
        <time>2024-09-27T13:48:48.000Z</time>
      </trkpt>
      <trkpt lat="40.2215" lon="20.4998">
        <ele>1272.4399414062</ele>
        <time>2024-09-27T13:48:49.000Z</time>
      </trkpt>
      <trkpt lat="40.22142" lon="20.49986">
        <ele>1272.4399414062</ele>
        <time>2024-09-27T13:48:51.000Z</time>
      </trkpt>
      <trkpt lat="40.22136" lon="20.49991">
        <ele>1272.4399414062</ele>
        <time>2024-09-27T13:48:52.000Z</time>
      </trkpt>
      <trkpt lat="40.22131" lon="20.49995">
        <ele>1272.4399414062</ele>
        <time>2024-09-27T13:48:53.000Z</time>
      </trkpt>
      <trkpt lat="40.22128" lon="20.49997">
        <ele>1272.9200439453</ele>
        <time>2024-09-27T13:48:54.000Z</time>
      </trkpt>
      <trkpt lat="40.22123" lon="20.49999">
        <ele>1272.9200439453</ele>
        <time>2024-09-27T13:48:55.000Z</time>
      </trkpt>
      <trkpt lat="40.22117" lon="20.50002">
        <ele>1273.8800048828</ele>
        <time>2024-09-27T13:48:56.000Z</time>
      </trkpt>
      <trkpt lat="40.22109" lon="20.50006">
        <ele>1274.3599853516</ele>
        <time>2024-09-27T13:48:57.000Z</time>
      </trkpt>
      <trkpt lat="40.22104" lon="20.50009">
        <ele>1274.3599853516</ele>
        <time>2024-09-27T13:48:58.000Z</time>
      </trkpt>
      <trkpt lat="40.22101" lon="20.50012">
        <ele>1274.3599853516</ele>
        <time>2024-09-27T13:48:59.000Z</time>
      </trkpt>
      <trkpt lat="40.22098" lon="20.50014">
        <ele>1274.8499755859</ele>
        <time>2024-09-27T13:49:00.000Z</time>
      </trkpt>
      <trkpt lat="40.22092" lon="20.50019">
        <ele>1275.3299560547</ele>
        <time>2024-09-27T13:49:01.000Z</time>
      </trkpt>
      <trkpt lat="40.22078" lon="20.50033">
        <ele>1274.8499755859</ele>
        <time>2024-09-27T13:49:04.000Z</time>
      </trkpt>
      <trkpt lat="40.22076" lon="20.50035">
        <ele>1274.3599853516</ele>
        <time>2024-09-27T13:49:05.000Z</time>
      </trkpt>
      <trkpt lat="40.22069" lon="20.50041">
        <ele>1274.3599853516</ele>
        <time>2024-09-27T13:49:06.000Z</time>
      </trkpt>
      <trkpt lat="40.22068" lon="20.50043">
        <ele>1274.3599853516</ele>
        <time>2024-09-27T13:49:07.000Z</time>
      </trkpt>
      <trkpt lat="40.22063" lon="20.50048">
        <ele>1274.3599853516</ele>
        <time>2024-09-27T13:49:08.000Z</time>
      </trkpt>
      <trkpt lat="40.22056" lon="20.50059">
        <ele>1274.3599853516</ele>
        <time>2024-09-27T13:49:10.000Z</time>
      </trkpt>
      <trkpt lat="40.22053" lon="20.50061">
        <ele>1274.3599853516</ele>
        <time>2024-09-27T13:49:11.000Z</time>
      </trkpt>
      <trkpt lat="40.22048" lon="20.50066">
        <ele>1273.8800048828</ele>
        <time>2024-09-27T13:49:12.000Z</time>
      </trkpt>
      <trkpt lat="40.22043" lon="20.50071">
        <ele>1273.4000244141</ele>
        <time>2024-09-27T13:49:13.000Z</time>
      </trkpt>
      <trkpt lat="40.2204" lon="20.50073">
        <ele>1272.9200439453</ele>
        <time>2024-09-27T13:49:14.000Z</time>
      </trkpt>
      <trkpt lat="40.22037" lon="20.50075">
        <ele>1272.9200439453</ele>
        <time>2024-09-27T13:49:15.000Z</time>
      </trkpt>
      <trkpt lat="40.22027" lon="20.50082">
        <ele>1272.4399414062</ele>
        <time>2024-09-27T13:49:17.000Z</time>
      </trkpt>
      <trkpt lat="40.22025" lon="20.50084">
        <ele>1271.9599609375</ele>
        <time>2024-09-27T13:49:18.000Z</time>
      </trkpt>
      <trkpt lat="40.2202" lon="20.50086">
        <ele>1271.4799804688</ele>
        <time>2024-09-27T13:49:19.000Z</time>
      </trkpt>
      <trkpt lat="40.22015" lon="20.50087">
        <ele>1271</ele>
        <time>2024-09-27T13:49:20.000Z</time>
      </trkpt>
      <trkpt lat="40.2201" lon="20.50087">
        <ele>1270.5200195312</ele>
        <time>2024-09-27T13:49:21.000Z</time>
      </trkpt>
      <trkpt lat="40.22004" lon="20.50087">
        <ele>1269.5600585938</ele>
        <time>2024-09-27T13:49:22.000Z</time>
      </trkpt>
      <trkpt lat="40.21999" lon="20.50087">
        <ele>1269.0799560547</ele>
        <time>2024-09-27T13:49:23.000Z</time>
      </trkpt>
      <trkpt lat="40.21995" lon="20.50088">
        <ele>1268.5999755859</ele>
        <time>2024-09-27T13:49:24.000Z</time>
      </trkpt>
      <trkpt lat="40.21992" lon="20.50088">
        <ele>1268.1199951172</ele>
        <time>2024-09-27T13:49:25.000Z</time>
      </trkpt>
      <trkpt lat="40.21988" lon="20.50088">
        <ele>1267.6400146484</ele>
        <time>2024-09-27T13:49:26.000Z</time>
      </trkpt>
      <trkpt lat="40.21983" lon="20.50089">
        <ele>1267.6400146484</ele>
        <time>2024-09-27T13:49:27.000Z</time>
      </trkpt>
      <trkpt lat="40.21979" lon="20.5009">
        <ele>1267.1600341797</ele>
        <time>2024-09-27T13:49:28.000Z</time>
      </trkpt>
      <trkpt lat="40.21974" lon="20.5009">
        <ele>1266.1899414062</ele>
        <time>2024-09-27T13:49:29.000Z</time>
      </trkpt>
      <trkpt lat="40.21968" lon="20.5009">
        <ele>1265.7099609375</ele>
        <time>2024-09-27T13:49:30.000Z</time>
      </trkpt>
      <trkpt lat="40.21961" lon="20.50091">
        <ele>1265.2299804688</ele>
        <time>2024-09-27T13:49:31.000Z</time>
      </trkpt>
      <trkpt lat="40.21957" lon="20.50092">
        <ele>1264.75</ele>
        <time>2024-09-27T13:49:32.000Z</time>
      </trkpt>
      <trkpt lat="40.21955" lon="20.50093">
        <ele>1264.75</ele>
        <time>2024-09-27T13:49:33.000Z</time>
      </trkpt>
      <trkpt lat="40.21951" lon="20.50095">
        <ele>1264.2700195312</ele>
        <time>2024-09-27T13:49:34.000Z</time>
      </trkpt>
      <trkpt lat="40.21947" lon="20.50098">
        <ele>1263.7900390625</ele>
        <time>2024-09-27T13:49:35.000Z</time>
      </trkpt>
      <trkpt lat="40.21943" lon="20.50101">
        <ele>1263.7900390625</ele>
        <time>2024-09-27T13:49:36.000Z</time>
      </trkpt>
      <trkpt lat="40.21937" lon="20.50109">
        <ele>1263.3100585938</ele>
        <time>2024-09-27T13:49:37.000Z</time>
      </trkpt>
      <trkpt lat="40.21936" lon="20.5011">
        <ele>1263.3100585938</ele>
        <time>2024-09-27T13:49:38.000Z</time>
      </trkpt>
      <trkpt lat="40.21932" lon="20.50119">
        <ele>1262.8299560547</ele>
        <time>2024-09-27T13:49:39.000Z</time>
      </trkpt>
      <trkpt lat="40.21932" lon="20.50121">
        <ele>1262.3499755859</ele>
        <time>2024-09-27T13:49:40.000Z</time>
      </trkpt>
      <trkpt lat="40.21932" lon="20.50155">
        <ele>1260.4300537109</ele>
        <time>2024-09-27T13:49:47.000Z</time>
      </trkpt>
      <trkpt lat="40.21945" lon="20.50167">
        <ele>1257.0600585938</ele>
        <time>2024-09-27T13:49:54.000Z</time>
      </trkpt>
      <trkpt lat="40.21954" lon="20.50163">
        <ele>1255.1400146484</ele>
        <time>2024-09-27T13:49:57.000Z</time>
      </trkpt>
      <trkpt lat="40.21958" lon="20.5016">
        <ele>1254.6600341797</ele>
        <time>2024-09-27T13:49:58.000Z</time>
      </trkpt>
      <trkpt lat="40.21962" lon="20.50158">
        <ele>1254.1800537109</ele>
        <time>2024-09-27T13:49:59.000Z</time>
      </trkpt>
      <trkpt lat="40.21965" lon="20.50157">
        <ele>1253.6999511719</ele>
        <time>2024-09-27T13:50:00.000Z</time>
      </trkpt>
      <trkpt lat="40.21975" lon="20.50161">
        <ele>1252.25</ele>
        <time>2024-09-27T13:50:02.000Z</time>
      </trkpt>
      <trkpt lat="40.21995" lon="20.50171">
        <ele>1251.2900390625</ele>
        <time>2024-09-27T13:50:10.000Z</time>
      </trkpt>
      <trkpt lat="40.22013" lon="20.50179">
        <ele>1248.4100341797</ele>
        <time>2024-09-27T13:50:19.000Z</time>
      </trkpt>
      <trkpt lat="40.22031" lon="20.50183">
        <ele>1247.4499511719</ele>
        <time>2024-09-27T13:50:24.000Z</time>
      </trkpt>
      <trkpt lat="40.22034" lon="20.50183">
        <ele>1247.4499511719</ele>
        <time>2024-09-27T13:50:25.000Z</time>
      </trkpt>
      <trkpt lat="40.22036" lon="20.50183">
        <ele>1247.4499511719</ele>
        <time>2024-09-27T13:50:26.000Z</time>
      </trkpt>
      <trkpt lat="40.22045" lon="20.50184">
        <ele>1246.4899902344</ele>
        <time>2024-09-27T13:50:28.000Z</time>
      </trkpt>
      <trkpt lat="40.22049" lon="20.50185">
        <ele>1246.0100097656</ele>
        <time>2024-09-27T13:50:29.000Z</time>
      </trkpt>
      <trkpt lat="40.22054" lon="20.50187">
        <ele>1245.5300292969</ele>
        <time>2024-09-27T13:50:30.000Z</time>
      </trkpt>
      <trkpt lat="40.22058" lon="20.50189">
        <ele>1245.0400390625</ele>
        <time>2024-09-27T13:50:31.000Z</time>
      </trkpt>
      <trkpt lat="40.22062" lon="20.50191">
        <ele>1244.5600585938</ele>
        <time>2024-09-27T13:50:32.000Z</time>
      </trkpt>
      <trkpt lat="40.22066" lon="20.50193">
        <ele>1244.5600585938</ele>
        <time>2024-09-27T13:50:33.000Z</time>
      </trkpt>
      <trkpt lat="40.2207" lon="20.50193">
        <ele>1244.0799560547</ele>
        <time>2024-09-27T13:50:34.000Z</time>
      </trkpt>
      <trkpt lat="40.22075" lon="20.50195">
        <ele>1244.5600585938</ele>
        <time>2024-09-27T13:50:35.000Z</time>
      </trkpt>
      <trkpt lat="40.22078" lon="20.50196">
        <ele>1244.0799560547</ele>
        <time>2024-09-27T13:50:36.000Z</time>
      </trkpt>
      <trkpt lat="40.22082" lon="20.502">
        <ele>1244.0799560547</ele>
        <time>2024-09-27T13:50:37.000Z</time>
      </trkpt>
      <trkpt lat="40.22083" lon="20.50205">
        <ele>1243.5999755859</ele>
        <time>2024-09-27T13:50:38.000Z</time>
      </trkpt>
      <trkpt lat="40.22083" lon="20.5021">
        <ele>1243.1199951172</ele>
        <time>2024-09-27T13:50:39.000Z</time>
      </trkpt>
      <trkpt lat="40.2208" lon="20.50214">
        <ele>1242.6400146484</ele>
        <time>2024-09-27T13:50:40.000Z</time>
      </trkpt>
      <trkpt lat="40.22076" lon="20.50217">
        <ele>1242.6400146484</ele>
        <time>2024-09-27T13:50:41.000Z</time>
      </trkpt>
      <trkpt lat="40.22072" lon="20.50219">
        <ele>1242.6400146484</ele>
        <time>2024-09-27T13:50:42.000Z</time>
      </trkpt>
      <trkpt lat="40.22067" lon="20.50221">
        <ele>1242.1600341797</ele>
        <time>2024-09-27T13:50:43.000Z</time>
      </trkpt>
      <trkpt lat="40.22052" lon="20.50228">
        <ele>1241.6800537109</ele>
        <time>2024-09-27T13:50:47.000Z</time>
      </trkpt>
      <trkpt lat="40.22051" lon="20.50229">
        <ele>1241.6800537109</ele>
        <time>2024-09-27T13:50:48.000Z</time>
      </trkpt>
      <trkpt lat="40.22047" lon="20.50232">
        <ele>1242.1600341797</ele>
        <time>2024-09-27T13:50:49.000Z</time>
      </trkpt>
      <trkpt lat="40.22043" lon="20.50236">
        <ele>1242.1600341797</ele>
        <time>2024-09-27T13:50:50.000Z</time>
      </trkpt>
      <trkpt lat="40.22039" lon="20.5024">
        <ele>1242.1600341797</ele>
        <time>2024-09-27T13:50:51.000Z</time>
      </trkpt>
      <trkpt lat="40.22035" lon="20.50243">
        <ele>1241.6800537109</ele>
        <time>2024-09-27T13:50:52.000Z</time>
      </trkpt>
      <trkpt lat="40.22031" lon="20.50246">
        <ele>1242.1600341797</ele>
        <time>2024-09-27T13:50:53.000Z</time>
      </trkpt>
      <trkpt lat="40.22023" lon="20.50249">
        <ele>1242.6400146484</ele>
        <time>2024-09-27T13:50:54.000Z</time>
      </trkpt>
      <trkpt lat="40.22021" lon="20.5025">
        <ele>1243.1199951172</ele>
        <time>2024-09-27T13:50:55.000Z</time>
      </trkpt>
      <trkpt lat="40.22015" lon="20.50253">
        <ele>1244.0799560547</ele>
        <time>2024-09-27T13:50:56.000Z</time>
      </trkpt>
      <trkpt lat="40.22011" lon="20.50256">
        <ele>1244.5600585938</ele>
        <time>2024-09-27T13:50:57.000Z</time>
      </trkpt>
      <trkpt lat="40.22005" lon="20.5026">
        <ele>1245.5300292969</ele>
        <time>2024-09-27T13:50:58.000Z</time>
      </trkpt>
      <trkpt lat="40.22003" lon="20.50263">
        <ele>1245.5300292969</ele>
        <time>2024-09-27T13:50:59.000Z</time>
      </trkpt>
      <trkpt lat="40.21978" lon="20.50284">
        <ele>1248.4100341797</ele>
        <time>2024-09-27T13:51:07.000Z</time>
      </trkpt>
      <trkpt lat="40.21969" lon="20.5029">
        <ele>1249.8499755859</ele>
        <time>2024-09-27T13:51:10.000Z</time>
      </trkpt>
      <trkpt lat="40.2196" lon="20.50305">
        <ele>1251.2900390625</ele>
        <time>2024-09-27T13:51:13.000Z</time>
      </trkpt>
      <trkpt lat="40.21958" lon="20.50307">
        <ele>1251.2900390625</ele>
        <time>2024-09-27T13:51:14.000Z</time>
      </trkpt>
      <trkpt lat="40.21956" lon="20.50311">
        <ele>1251.7700195312</ele>
        <time>2024-09-27T13:51:15.000Z</time>
      </trkpt>
      <trkpt lat="40.21952" lon="20.50318">
        <ele>1252.7399902344</ele>
        <time>2024-09-27T13:51:16.000Z</time>
      </trkpt>
      <trkpt lat="40.21951" lon="20.5032">
        <ele>1252.7399902344</ele>
        <time>2024-09-27T13:51:17.000Z</time>
      </trkpt>
      <trkpt lat="40.21948" lon="20.50325">
        <ele>1253.2199707031</ele>
        <time>2024-09-27T13:51:18.000Z</time>
      </trkpt>
      <trkpt lat="40.21944" lon="20.50331">
        <ele>1253.2199707031</ele>
        <time>2024-09-27T13:51:19.000Z</time>
      </trkpt>
      <trkpt lat="40.21943" lon="20.50335">
        <ele>1253.6999511719</ele>
        <time>2024-09-27T13:51:20.000Z</time>
      </trkpt>
      <trkpt lat="40.21941" lon="20.5034">
        <ele>1253.6999511719</ele>
        <time>2024-09-27T13:51:21.000Z</time>
      </trkpt>
      <trkpt lat="40.21939" lon="20.50347">
        <ele>1254.1800537109</ele>
        <time>2024-09-27T13:51:22.000Z</time>
      </trkpt>
      <trkpt lat="40.21938" lon="20.50352">
        <ele>1254.6600341797</ele>
        <time>2024-09-27T13:51:23.000Z</time>
      </trkpt>
      <trkpt lat="40.21936" lon="20.50364">
        <ele>1255.6199951172</ele>
        <time>2024-09-27T13:51:25.000Z</time>
      </trkpt>
      <trkpt lat="40.21935" lon="20.50369">
        <ele>1256.0999755859</ele>
        <time>2024-09-27T13:51:26.000Z</time>
      </trkpt>
      <trkpt lat="40.21935" lon="20.50375">
        <ele>1256.5799560547</ele>
        <time>2024-09-27T13:51:27.000Z</time>
      </trkpt>
      <trkpt lat="40.21936" lon="20.50381">
        <ele>1257.5400390625</ele>
        <time>2024-09-27T13:51:28.000Z</time>
      </trkpt>
      <trkpt lat="40.21938" lon="20.50391">
        <ele>1258.5</ele>
        <time>2024-09-27T13:51:29.000Z</time>
      </trkpt>
      <trkpt lat="40.21938" lon="20.50393">
        <ele>1258.5</ele>
        <time>2024-09-27T13:51:30.000Z</time>
      </trkpt>
      <trkpt lat="40.21941" lon="20.50409">
        <ele>1259.9399414062</ele>
        <time>2024-09-27T13:51:37.000Z</time>
      </trkpt>
      <trkpt lat="40.21943" lon="20.50407">
        <ele>1262.3499755859</ele>
        <time>2024-09-27T13:59:04.000Z</time>
      </trkpt>
      <trkpt lat="40.21954" lon="20.5043">
        <ele>1261.8699951172</ele>
        <time>2024-09-27T13:59:12.000Z</time>
      </trkpt>
      <trkpt lat="40.21964" lon="20.50461">
        <ele>1260.4300537109</ele>
        <time>2024-09-27T13:59:20.000Z</time>
      </trkpt>
      <trkpt lat="40.21964" lon="20.50464">
        <ele>1259.9399414062</ele>
        <time>2024-09-27T13:59:32.000Z</time>
      </trkpt>
      <trkpt lat="40.21964" lon="20.50472">
        <ele>1259.4599609375</ele>
        <time>2024-09-27T14:01:19.000Z</time>
      </trkpt>
      <trkpt lat="40.21965" lon="20.50475">
        <ele>1259.4599609375</ele>
        <time>2024-09-27T14:01:20.000Z</time>
      </trkpt>
      <trkpt lat="40.21966" lon="20.50481">
        <ele>1259.4599609375</ele>
        <time>2024-09-27T14:01:21.000Z</time>
      </trkpt>
      <trkpt lat="40.21965" lon="20.50504">
        <ele>1258.5</ele>
        <time>2024-09-27T14:01:25.000Z</time>
      </trkpt>
      <trkpt lat="40.21962" lon="20.50536">
        <ele>1257.5400390625</ele>
        <time>2024-09-27T14:01:30.000Z</time>
      </trkpt>
      <trkpt lat="40.21962" lon="20.50542">
        <ele>1257.5400390625</ele>
        <time>2024-09-27T14:01:31.000Z</time>
      </trkpt>
      <trkpt lat="40.21961" lon="20.50567">
        <ele>1257.5400390625</ele>
        <time>2024-09-27T14:01:34.000Z</time>
      </trkpt>
      <trkpt lat="40.2196" lon="20.50572">
        <ele>1257.5400390625</ele>
        <time>2024-09-27T14:01:35.000Z</time>
      </trkpt>
      <trkpt lat="40.21959" lon="20.50602">
        <ele>1258.0200195312</ele>
        <time>2024-09-27T14:01:39.000Z</time>
      </trkpt>
      <trkpt lat="40.21959" lon="20.50621">
        <ele>1258.5</ele>
        <time>2024-09-27T14:01:41.000Z</time>
      </trkpt>
      <trkpt lat="40.2196" lon="20.50649">
        <ele>1259.4599609375</ele>
        <time>2024-09-27T14:01:45.000Z</time>
      </trkpt>
      <trkpt lat="40.2196" lon="20.50653">
        <ele>1259.9399414062</ele>
        <time>2024-09-27T14:01:46.000Z</time>
      </trkpt>
      <trkpt lat="40.21959" lon="20.50669">
        <ele>1260.4300537109</ele>
        <time>2024-09-27T14:01:48.000Z</time>
      </trkpt>
      <trkpt lat="40.21959" lon="20.50679">
        <ele>1260.4300537109</ele>
        <time>2024-09-27T14:01:49.000Z</time>
      </trkpt>
      <trkpt lat="40.21961" lon="20.50687">
        <ele>1260.9100341797</ele>
        <time>2024-09-27T14:01:50.000Z</time>
      </trkpt>
      <trkpt lat="40.21963" lon="20.50695">
        <ele>1261.8699951172</ele>
        <time>2024-09-27T14:01:51.000Z</time>
      </trkpt>
      <trkpt lat="40.21965" lon="20.50702">
        <ele>1261.8699951172</ele>
        <time>2024-09-27T14:01:52.000Z</time>
      </trkpt>
      <trkpt lat="40.2197" lon="20.50714">
        <ele>1262.3499755859</ele>
        <time>2024-09-27T14:01:53.000Z</time>
      </trkpt>
      <trkpt lat="40.21971" lon="20.50717">
        <ele>1262.3499755859</ele>
        <time>2024-09-27T14:01:54.000Z</time>
      </trkpt>
      <trkpt lat="40.21972" lon="20.50722">
        <ele>1262.3499755859</ele>
        <time>2024-09-27T14:01:55.000Z</time>
      </trkpt>
      <trkpt lat="40.21973" lon="20.50729">
        <ele>1262.8299560547</ele>
        <time>2024-09-27T14:01:56.000Z</time>
      </trkpt>
      <trkpt lat="40.21973" lon="20.50736">
        <ele>1262.8299560547</ele>
        <time>2024-09-27T14:01:57.000Z</time>
      </trkpt>
      <trkpt lat="40.21972" lon="20.50743">
        <ele>1263.3100585938</ele>
        <time>2024-09-27T14:01:58.000Z</time>
      </trkpt>
      <trkpt lat="40.21972" lon="20.5075">
        <ele>1263.3100585938</ele>
        <time>2024-09-27T14:01:59.000Z</time>
      </trkpt>
      <trkpt lat="40.21973" lon="20.50756">
        <ele>1263.3100585938</ele>
        <time>2024-09-27T14:02:00.000Z</time>
      </trkpt>
      <trkpt lat="40.2198" lon="20.50778">
        <ele>1262.8299560547</ele>
        <time>2024-09-27T14:02:07.000Z</time>
      </trkpt>
      <trkpt lat="40.21981" lon="20.50801">
        <ele>1258.9799804688</ele>
        <time>2024-09-27T14:02:12.000Z</time>
      </trkpt>
      <trkpt lat="40.21981" lon="20.50804">
        <ele>1258.5</ele>
        <time>2024-09-27T14:02:13.000Z</time>
      </trkpt>
      <trkpt lat="40.2198" lon="20.50809">
        <ele>1258.0200195312</ele>
        <time>2024-09-27T14:02:14.000Z</time>
      </trkpt>
      <trkpt lat="40.2198" lon="20.50815">
        <ele>1257.0600585938</ele>
        <time>2024-09-27T14:02:15.000Z</time>
      </trkpt>
      <trkpt lat="40.2198" lon="20.5082">
        <ele>1256.0999755859</ele>
        <time>2024-09-27T14:02:16.000Z</time>
      </trkpt>
      <trkpt lat="40.2198" lon="20.50826">
        <ele>1255.6199951172</ele>
        <time>2024-09-27T14:02:17.000Z</time>
      </trkpt>
      <trkpt lat="40.21977" lon="20.50839">
        <ele>1253.2199707031</ele>
        <time>2024-09-27T14:02:19.000Z</time>
      </trkpt>
      <trkpt lat="40.21976" lon="20.50841">
        <ele>1252.7399902344</ele>
        <time>2024-09-27T14:02:20.000Z</time>
      </trkpt>
      <trkpt lat="40.21973" lon="20.50847">
        <ele>1252.25</ele>
        <time>2024-09-27T14:02:21.000Z</time>
      </trkpt>
      <trkpt lat="40.21971" lon="20.50851">
        <ele>1251.7700195312</ele>
        <time>2024-09-27T14:02:22.000Z</time>
      </trkpt>
      <trkpt lat="40.21968" lon="20.50858">
        <ele>1250.8100585938</ele>
        <time>2024-09-27T14:02:23.000Z</time>
      </trkpt>
      <trkpt lat="40.21967" lon="20.50863">
        <ele>1250.3299560547</ele>
        <time>2024-09-27T14:02:24.000Z</time>
      </trkpt>
      <trkpt lat="40.21965" lon="20.50868">
        <ele>1249.8499755859</ele>
        <time>2024-09-27T14:02:25.000Z</time>
      </trkpt>
      <trkpt lat="40.2196" lon="20.50883">
        <ele>1247.4499511719</ele>
        <time>2024-09-27T14:02:27.000Z</time>
      </trkpt>
      <trkpt lat="40.21959" lon="20.50887">
        <ele>1246.9699707031</ele>
        <time>2024-09-27T14:02:28.000Z</time>
      </trkpt>
      <trkpt lat="40.21955" lon="20.50896">
        <ele>1245.5300292969</ele>
        <time>2024-09-27T14:02:29.000Z</time>
      </trkpt>
      <trkpt lat="40.21953" lon="20.509">
        <ele>1245.0400390625</ele>
        <time>2024-09-27T14:02:30.000Z</time>
      </trkpt>
      <trkpt lat="40.21952" lon="20.50905">
        <ele>1244.0799560547</ele>
        <time>2024-09-27T14:02:31.000Z</time>
      </trkpt>
      <trkpt lat="40.21949" lon="20.50914">
        <ele>1242.6400146484</ele>
        <time>2024-09-27T14:02:32.000Z</time>
      </trkpt>
      <trkpt lat="40.21947" lon="20.50922">
        <ele>1241.6800537109</ele>
        <time>2024-09-27T14:02:33.000Z</time>
      </trkpt>
      <trkpt lat="40.21946" lon="20.50928">
        <ele>1240.7199707031</ele>
        <time>2024-09-27T14:02:34.000Z</time>
      </trkpt>
      <trkpt lat="40.21945" lon="20.50935">
        <ele>1239.7600097656</ele>
        <time>2024-09-27T14:02:35.000Z</time>
      </trkpt>
      <trkpt lat="40.21944" lon="20.50943">
        <ele>1238.8000488281</ele>
        <time>2024-09-27T14:02:36.000Z</time>
      </trkpt>
      <trkpt lat="40.2194" lon="20.50958">
        <ele>1236.3900146484</ele>
        <time>2024-09-27T14:02:38.000Z</time>
      </trkpt>
      <trkpt lat="40.21938" lon="20.50964">
        <ele>1235.9100341797</ele>
        <time>2024-09-27T14:02:39.000Z</time>
      </trkpt>
      <trkpt lat="40.21936" lon="20.5097">
        <ele>1234.9499511719</ele>
        <time>2024-09-27T14:02:40.000Z</time>
      </trkpt>
      <trkpt lat="40.21934" lon="20.50977">
        <ele>1233.9899902344</ele>
        <time>2024-09-27T14:02:41.000Z</time>
      </trkpt>
      <trkpt lat="40.2193" lon="20.50989">
        <ele>1231.5899658203</ele>
        <time>2024-09-27T14:02:43.000Z</time>
      </trkpt>
      <trkpt lat="40.21929" lon="20.50993">
        <ele>1230.6199951172</ele>
        <time>2024-09-27T14:02:44.000Z</time>
      </trkpt>
      <trkpt lat="40.21925" lon="20.51">
        <ele>1229.1800537109</ele>
        <time>2024-09-27T14:02:45.000Z</time>
      </trkpt>
      <trkpt lat="40.21924" lon="20.51003">
        <ele>1228.6999511719</ele>
        <time>2024-09-27T14:02:46.000Z</time>
      </trkpt>
      <trkpt lat="40.21921" lon="20.51008">
        <ele>1227.7399902344</ele>
        <time>2024-09-27T14:02:47.000Z</time>
      </trkpt>
      <trkpt lat="40.21919" lon="20.51014">
        <ele>1226.7800292969</ele>
        <time>2024-09-27T14:02:48.000Z</time>
      </trkpt>
      <trkpt lat="40.21915" lon="20.5102">
        <ele>1225.8199462891</ele>
        <time>2024-09-27T14:02:49.000Z</time>
      </trkpt>
      <trkpt lat="40.21913" lon="20.51025">
        <ele>1225.8199462891</ele>
        <time>2024-09-27T14:02:50.000Z</time>
      </trkpt>
      <trkpt lat="40.21903" lon="20.51041">
        <ele>1226.3000488281</ele>
        <time>2024-09-27T14:02:53.000Z</time>
      </trkpt>
      <trkpt lat="40.21902" lon="20.51043">
        <ele>1226.3000488281</ele>
        <time>2024-09-27T14:02:54.000Z</time>
      </trkpt>
      <trkpt lat="40.21899" lon="20.51048">
        <ele>1226.7800292969</ele>
        <time>2024-09-27T14:02:55.000Z</time>
      </trkpt>
      <trkpt lat="40.21887" lon="20.51065">
        <ele>1228.2199707031</ele>
        <time>2024-09-27T14:03:03.000Z</time>
      </trkpt>
      <trkpt lat="40.21873" lon="20.51075">
        <ele>1229.6600341797</ele>
        <time>2024-09-27T14:03:19.000Z</time>
      </trkpt>
      <trkpt lat="40.21871" lon="20.51076">
        <ele>1229.6600341797</ele>
        <time>2024-09-27T14:03:20.000Z</time>
      </trkpt>
      <trkpt lat="40.21865" lon="20.51078">
        <ele>1230.1400146484</ele>
        <time>2024-09-27T14:03:21.000Z</time>
      </trkpt>
      <trkpt lat="40.21862" lon="20.51079">
        <ele>1230.6199951172</ele>
        <time>2024-09-27T14:03:22.000Z</time>
      </trkpt>
      <trkpt lat="40.21858" lon="20.51082">
        <ele>1231.1099853516</ele>
        <time>2024-09-27T14:03:23.000Z</time>
      </trkpt>
      <trkpt lat="40.21853" lon="20.51085">
        <ele>1231.5899658203</ele>
        <time>2024-09-27T14:03:24.000Z</time>
      </trkpt>
      <trkpt lat="40.21848" lon="20.51089">
        <ele>1232.5500488281</ele>
        <time>2024-09-27T14:03:25.000Z</time>
      </trkpt>
      <trkpt lat="40.21843" lon="20.51093">
        <ele>1232.5500488281</ele>
        <time>2024-09-27T14:03:26.000Z</time>
      </trkpt>
      <trkpt lat="40.21839" lon="20.51096">
        <ele>1233.0300292969</ele>
        <time>2024-09-27T14:03:27.000Z</time>
      </trkpt>
      <trkpt lat="40.21834" lon="20.51101">
        <ele>1233.9899902344</ele>
        <time>2024-09-27T14:03:28.000Z</time>
      </trkpt>
      <trkpt lat="40.21829" lon="20.51105">
        <ele>1234.4699707031</ele>
        <time>2024-09-27T14:03:29.000Z</time>
      </trkpt>
      <trkpt lat="40.21826" lon="20.51109">
        <ele>1234.9499511719</ele>
        <time>2024-09-27T14:03:30.000Z</time>
      </trkpt>
      <trkpt lat="40.21822" lon="20.51115">
        <ele>1235.9100341797</ele>
        <time>2024-09-27T14:03:31.000Z</time>
      </trkpt>
      <trkpt lat="40.21818" lon="20.5112">
        <ele>1236.8699951172</ele>
        <time>2024-09-27T14:03:32.000Z</time>
      </trkpt>
      <trkpt lat="40.21809" lon="20.51125">
        <ele>1236.8699951172</ele>
        <time>2024-09-27T14:03:38.000Z</time>
      </trkpt>
      <trkpt lat="40.21807" lon="20.51127">
        <ele>1236.8699951172</ele>
        <time>2024-09-27T14:04:16.000Z</time>
      </trkpt>
      <trkpt lat="40.21791" lon="20.51129">
        <ele>1238.8000488281</ele>
        <time>2024-09-27T14:04:21.000Z</time>
      </trkpt>
      <trkpt lat="40.2179" lon="20.51129">
        <ele>1238.8000488281</ele>
        <time>2024-09-27T14:04:22.000Z</time>
      </trkpt>
      <trkpt lat="40.21784" lon="20.5113">
        <ele>1239.2800292969</ele>
        <time>2024-09-27T14:04:23.000Z</time>
      </trkpt>
      <trkpt lat="40.21781" lon="20.51131">
        <ele>1239.7600097656</ele>
        <time>2024-09-27T14:04:24.000Z</time>
      </trkpt>
      <trkpt lat="40.21777" lon="20.51131">
        <ele>1240.2399902344</ele>
        <time>2024-09-27T14:04:25.000Z</time>
      </trkpt>
      <trkpt lat="40.21771" lon="20.51131">
        <ele>1240.2399902344</ele>
        <time>2024-09-27T14:04:26.000Z</time>
      </trkpt>
      <trkpt lat="40.21764" lon="20.51129">
        <ele>1240.7199707031</ele>
        <time>2024-09-27T14:04:27.000Z</time>
      </trkpt>
      <trkpt lat="40.21757" lon="20.51128">
        <ele>1241.6800537109</ele>
        <time>2024-09-27T14:04:28.000Z</time>
      </trkpt>
      <trkpt lat="40.21756" lon="20.51127">
        <ele>1242.1600341797</ele>
        <time>2024-09-27T14:04:29.000Z</time>
      </trkpt>
      <trkpt lat="40.21735" lon="20.51133">
        <ele>1244.0799560547</ele>
        <time>2024-09-27T14:04:36.000Z</time>
      </trkpt>
      <trkpt lat="40.21726" lon="20.51156">
        <ele>1246.4899902344</ele>
        <time>2024-09-27T14:04:43.000Z</time>
      </trkpt>
      <trkpt lat="40.21715" lon="20.51161">
        <ele>1246.9699707031</ele>
        <time>2024-09-27T14:04:46.000Z</time>
      </trkpt>
      <trkpt lat="40.21711" lon="20.51163">
        <ele>1246.9699707031</ele>
        <time>2024-09-27T14:04:47.000Z</time>
      </trkpt>
      <trkpt lat="40.21699" lon="20.5118">
        <ele>1249.3699951172</ele>
        <time>2024-09-27T14:04:54.000Z</time>
      </trkpt>
      <trkpt lat="40.21695" lon="20.51192">
        <ele>1251.2900390625</ele>
        <time>2024-09-27T14:05:05.000Z</time>
      </trkpt>
      <trkpt lat="40.21683" lon="20.5121">
        <ele>1252.25</ele>
        <time>2024-09-27T14:05:15.000Z</time>
      </trkpt>
      <trkpt lat="40.21656" lon="20.51227">
        <ele>1250.3299560547</ele>
        <time>2024-09-27T14:05:23.000Z</time>
      </trkpt>
      <trkpt lat="40.21625" lon="20.5123">
        <ele>1246.0100097656</ele>
        <time>2024-09-27T14:05:31.000Z</time>
      </trkpt>
      <trkpt lat="40.21618" lon="20.51248">
        <ele>1242.6400146484</ele>
        <time>2024-09-27T14:05:35.000Z</time>
      </trkpt>
      <trkpt lat="40.21617" lon="20.51249">
        <ele>1242.6400146484</ele>
        <time>2024-09-27T14:05:36.000Z</time>
      </trkpt>
      <trkpt lat="40.21615" lon="20.51255">
        <ele>1241.6800537109</ele>
        <time>2024-09-27T14:05:37.000Z</time>
      </trkpt>
      <trkpt lat="40.21601" lon="20.51274">
        <ele>1239.7600097656</ele>
        <time>2024-09-27T14:05:41.000Z</time>
      </trkpt>
      <trkpt lat="40.21599" lon="20.51276">
        <ele>1239.7600097656</ele>
        <time>2024-09-27T14:05:42.000Z</time>
      </trkpt>
      <trkpt lat="40.21596" lon="20.51281">
        <ele>1238.8000488281</ele>
        <time>2024-09-27T14:05:43.000Z</time>
      </trkpt>
      <trkpt lat="40.21592" lon="20.51285">
        <ele>1238.3199462891</ele>
        <time>2024-09-27T14:05:44.000Z</time>
      </trkpt>
      <trkpt lat="40.2159" lon="20.51289">
        <ele>1238.3199462891</ele>
        <time>2024-09-27T14:05:45.000Z</time>
      </trkpt>
      <trkpt lat="40.21572" lon="20.51311">
        <ele>1235.4300537109</ele>
        <time>2024-09-27T14:05:50.000Z</time>
      </trkpt>
      <trkpt lat="40.21569" lon="20.51313">
        <ele>1234.9499511719</ele>
        <time>2024-09-27T14:05:51.000Z</time>
      </trkpt>
      <trkpt lat="40.21565" lon="20.51316">
        <ele>1234.9499511719</ele>
        <time>2024-09-27T14:05:52.000Z</time>
      </trkpt>
      <trkpt lat="40.2156" lon="20.51322">
        <ele>1233.9899902344</ele>
        <time>2024-09-27T14:05:53.000Z</time>
      </trkpt>
      <trkpt lat="40.21557" lon="20.51323">
        <ele>1233.5100097656</ele>
        <time>2024-09-27T14:05:54.000Z</time>
      </trkpt>
      <trkpt lat="40.21549" lon="20.51327">
        <ele>1232.5500488281</ele>
        <time>2024-09-27T14:05:56.000Z</time>
      </trkpt>
      <trkpt lat="40.21545" lon="20.51327">
        <ele>1232.0699462891</ele>
        <time>2024-09-27T14:05:57.000Z</time>
      </trkpt>
      <trkpt lat="40.21533" lon="20.51327">
        <ele>1230.1400146484</ele>
        <time>2024-09-27T14:06:00.000Z</time>
      </trkpt>
      <trkpt lat="40.21529" lon="20.51326">
        <ele>1229.1800537109</ele>
        <time>2024-09-27T14:06:01.000Z</time>
      </trkpt>
      <trkpt lat="40.21524" lon="20.51325">
        <ele>1228.6999511719</ele>
        <time>2024-09-27T14:06:02.000Z</time>
      </trkpt>
      <trkpt lat="40.21513" lon="20.51321">
        <ele>1226.7800292969</ele>
        <time>2024-09-27T14:06:04.000Z</time>
      </trkpt>
      <trkpt lat="40.21512" lon="20.5132">
        <ele>1226.7800292969</ele>
        <time>2024-09-27T14:06:05.000Z</time>
      </trkpt>
      <trkpt lat="40.21508" lon="20.5132">
        <ele>1226.3000488281</ele>
        <time>2024-09-27T14:06:06.000Z</time>
      </trkpt>
      <trkpt lat="40.21503" lon="20.51321">
        <ele>1225.8199462891</ele>
        <time>2024-09-27T14:06:07.000Z</time>
      </trkpt>
      <trkpt lat="40.21499" lon="20.51324">
        <ele>1224.8599853516</ele>
        <time>2024-09-27T14:06:08.000Z</time>
      </trkpt>
      <trkpt lat="40.21493" lon="20.51327">
        <ele>1222.9300537109</ele>
        <time>2024-09-27T14:06:09.000Z</time>
      </trkpt>
      <trkpt lat="40.21491" lon="20.51329">
        <ele>1222.4499511719</ele>
        <time>2024-09-27T14:06:10.000Z</time>
      </trkpt>
      <trkpt lat="40.21486" lon="20.51333">
        <ele>1221.0100097656</ele>
        <time>2024-09-27T14:06:11.000Z</time>
      </trkpt>
      <trkpt lat="40.21483" lon="20.51335">
        <ele>1220.5300292969</ele>
        <time>2024-09-27T14:06:12.000Z</time>
      </trkpt>
      <trkpt lat="40.21477" lon="20.51339">
        <ele>1219.0899658203</ele>
        <time>2024-09-27T14:06:13.000Z</time>
      </trkpt>
      <trkpt lat="40.21474" lon="20.51342">
        <ele>1218.6099853516</ele>
        <time>2024-09-27T14:06:14.000Z</time>
      </trkpt>
      <trkpt lat="40.21471" lon="20.51343">
        <ele>1218.1300048828</ele>
        <time>2024-09-27T14:06:15.000Z</time>
      </trkpt>
      <trkpt lat="40.21468" lon="20.51345">
        <ele>1217.6500244141</ele>
        <time>2024-09-27T14:06:16.000Z</time>
      </trkpt>
      <trkpt lat="40.21451" lon="20.51372">
        <ele>1214.7600097656</ele>
        <time>2024-09-27T14:06:23.000Z</time>
      </trkpt>
      <trkpt lat="40.2145" lon="20.51381">
        <ele>1216.2099609375</ele>
        <time>2024-09-27T14:06:32.000Z</time>
      </trkpt>
      <trkpt lat="40.21447" lon="20.51395">
        <ele>1215.7199707031</ele>
        <time>2024-09-27T14:06:37.000Z</time>
      </trkpt>
      <trkpt lat="40.21446" lon="20.51399">
        <ele>1215.2399902344</ele>
        <time>2024-09-27T14:06:38.000Z</time>
      </trkpt>
      <trkpt lat="40.21443" lon="20.51406">
        <ele>1214.7600097656</ele>
        <time>2024-09-27T14:06:39.000Z</time>
      </trkpt>
      <trkpt lat="40.21441" lon="20.51411">
        <ele>1213.8000488281</ele>
        <time>2024-09-27T14:06:40.000Z</time>
      </trkpt>
      <trkpt lat="40.21438" lon="20.51419">
        <ele>1212.8399658203</ele>
        <time>2024-09-27T14:06:41.000Z</time>
      </trkpt>
      <trkpt lat="40.21425" lon="20.51433">
        <ele>1210.4399414062</ele>
        <time>2024-09-27T14:06:45.000Z</time>
      </trkpt>
      <trkpt lat="40.21422" lon="20.51436">
        <ele>1209.9599609375</ele>
        <time>2024-09-27T14:06:46.000Z</time>
      </trkpt>
      <trkpt lat="40.21418" lon="20.51439">
        <ele>1209</ele>
        <time>2024-09-27T14:06:47.000Z</time>
      </trkpt>
      <trkpt lat="40.21415" lon="20.51441">
        <ele>1208.5100097656</ele>
        <time>2024-09-27T14:06:48.000Z</time>
      </trkpt>
      <trkpt lat="40.21408" lon="20.51449">
        <ele>1206.1099853516</ele>
        <time>2024-09-27T14:06:49.000Z</time>
      </trkpt>
      <trkpt lat="40.21405" lon="20.51452">
        <ele>1205.6300048828</ele>
        <time>2024-09-27T14:06:50.000Z</time>
      </trkpt>
      <trkpt lat="40.21399" lon="20.51458">
        <ele>1203.7099609375</ele>
        <time>2024-09-27T14:06:51.000Z</time>
      </trkpt>
      <trkpt lat="40.21398" lon="20.51459">
        <ele>1203.7099609375</ele>
        <time>2024-09-27T14:06:52.000Z</time>
      </trkpt>
      <trkpt lat="40.21392" lon="20.51464">
        <ele>1202.2700195312</ele>
        <time>2024-09-27T14:06:53.000Z</time>
      </trkpt>
      <trkpt lat="40.21386" lon="20.51469">
        <ele>1201.3000488281</ele>
        <time>2024-09-27T14:06:54.000Z</time>
      </trkpt>
      <trkpt lat="40.21382" lon="20.51473">
        <ele>1200.3399658203</ele>
        <time>2024-09-27T14:06:55.000Z</time>
      </trkpt>
      <trkpt lat="40.21379" lon="20.51475">
        <ele>1199.8599853516</ele>
        <time>2024-09-27T14:06:56.000Z</time>
      </trkpt>
      <trkpt lat="40.21373" lon="20.51479">
        <ele>1198.4200439453</ele>
        <time>2024-09-27T14:06:57.000Z</time>
      </trkpt>
      <trkpt lat="40.21369" lon="20.51482">
        <ele>1197.4599609375</ele>
        <time>2024-09-27T14:06:58.000Z</time>
      </trkpt>
      <trkpt lat="40.21364" lon="20.51484">
        <ele>1196.9799804688</ele>
        <time>2024-09-27T14:06:59.000Z</time>
      </trkpt>
      <trkpt lat="40.2136" lon="20.51485">
        <ele>1196.0200195312</ele>
        <time>2024-09-27T14:07:00.000Z</time>
      </trkpt>
      <trkpt lat="40.21354" lon="20.51486">
        <ele>1194.5799560547</ele>
        <time>2024-09-27T14:07:01.000Z</time>
      </trkpt>
      <trkpt lat="40.21349" lon="20.51488">
        <ele>1194.0899658203</ele>
        <time>2024-09-27T14:07:02.000Z</time>
      </trkpt>
      <trkpt lat="40.21344" lon="20.51491">
        <ele>1193.1300048828</ele>
        <time>2024-09-27T14:07:03.000Z</time>
      </trkpt>
      <trkpt lat="40.2134" lon="20.51495">
        <ele>1193.6099853516</ele>
        <time>2024-09-27T14:07:04.000Z</time>
      </trkpt>
      <trkpt lat="40.21336" lon="20.515">
        <ele>1193.1300048828</ele>
        <time>2024-09-27T14:07:05.000Z</time>
      </trkpt>
      <trkpt lat="40.21333" lon="20.51506">
        <ele>1192.1700439453</ele>
        <time>2024-09-27T14:07:06.000Z</time>
      </trkpt>
      <trkpt lat="40.21328" lon="20.51513">
        <ele>1191.2099609375</ele>
        <time>2024-09-27T14:07:07.000Z</time>
      </trkpt>
      <trkpt lat="40.21325" lon="20.51519">
        <ele>1190.7299804688</ele>
        <time>2024-09-27T14:07:08.000Z</time>
      </trkpt>
      <trkpt lat="40.21315" lon="20.51533">
        <ele>1188.8100585938</ele>
        <time>2024-09-27T14:07:10.000Z</time>
      </trkpt>
      <trkpt lat="40.21311" lon="20.51537">
        <ele>1187.8499755859</ele>
        <time>2024-09-27T14:07:11.000Z</time>
      </trkpt>
      <trkpt lat="40.21306" lon="20.51543">
        <ele>1186.4000244141</ele>
        <time>2024-09-27T14:07:12.000Z</time>
      </trkpt>
      <trkpt lat="40.21301" lon="20.51547">
        <ele>1185.9200439453</ele>
        <time>2024-09-27T14:07:13.000Z</time>
      </trkpt>
      <trkpt lat="40.21297" lon="20.51551">
        <ele>1184.9599609375</ele>
        <time>2024-09-27T14:07:14.000Z</time>
      </trkpt>
      <trkpt lat="40.21293" lon="20.51556">
        <ele>1183.5200195312</ele>
        <time>2024-09-27T14:07:15.000Z</time>
      </trkpt>
      <trkpt lat="40.2129" lon="20.51559">
        <ele>1183.0400390625</ele>
        <time>2024-09-27T14:07:16.000Z</time>
      </trkpt>
      <trkpt lat="40.21285" lon="20.51567">
        <ele>1182.5600585938</ele>
        <time>2024-09-27T14:07:17.000Z</time>
      </trkpt>
      <trkpt lat="40.21284" lon="20.51569">
        <ele>1182.0799560547</ele>
        <time>2024-09-27T14:07:18.000Z</time>
      </trkpt>
      <trkpt lat="40.21281" lon="20.51574">
        <ele>1181.1199951172</ele>
        <time>2024-09-27T14:07:19.000Z</time>
      </trkpt>
      <trkpt lat="40.21278" lon="20.51578">
        <ele>1180.1600341797</ele>
        <time>2024-09-27T14:07:20.000Z</time>
      </trkpt>
      <trkpt lat="40.21274" lon="20.51583">
        <ele>1179.6700439453</ele>
        <time>2024-09-27T14:07:21.000Z</time>
      </trkpt>
      <trkpt lat="40.21272" lon="20.51588">
        <ele>1179.1899414062</ele>
        <time>2024-09-27T14:07:22.000Z</time>
      </trkpt>
      <trkpt lat="40.21269" lon="20.51592">
        <ele>1178.7099609375</ele>
        <time>2024-09-27T14:07:23.000Z</time>
      </trkpt>
      <trkpt lat="40.21264" lon="20.516">
        <ele>1179.1899414062</ele>
        <time>2024-09-27T14:07:30.000Z</time>
      </trkpt>
      <trkpt lat="40.21264" lon="20.51601">
        <ele>1180.1600341797</ele>
        <time>2024-09-27T14:07:40.000Z</time>
      </trkpt>
      <trkpt lat="40.21254" lon="20.51604">
        <ele>1180.1600341797</ele>
        <time>2024-09-27T14:07:43.000Z</time>
      </trkpt>
      <trkpt lat="40.2125" lon="20.51605">
        <ele>1179.6700439453</ele>
        <time>2024-09-27T14:07:44.000Z</time>
      </trkpt>
      <trkpt lat="40.21246" lon="20.51607">
        <ele>1179.6700439453</ele>
        <time>2024-09-27T14:07:45.000Z</time>
      </trkpt>
      <trkpt lat="40.21242" lon="20.5161">
        <ele>1179.1899414062</ele>
        <time>2024-09-27T14:07:46.000Z</time>
      </trkpt>
      <trkpt lat="40.21239" lon="20.51615">
        <ele>1179.1899414062</ele>
        <time>2024-09-27T14:07:47.000Z</time>
      </trkpt>
      <trkpt lat="40.21235" lon="20.51623">
        <ele>1178.7099609375</ele>
        <time>2024-09-27T14:07:48.000Z</time>
      </trkpt>
      <trkpt lat="40.21232" lon="20.51627">
        <ele>1178.7099609375</ele>
        <time>2024-09-27T14:07:49.000Z</time>
      </trkpt>
      <trkpt lat="40.21224" lon="20.51634">
        <ele>1178.2299804688</ele>
        <time>2024-09-27T14:07:50.000Z</time>
      </trkpt>
      <trkpt lat="40.21223" lon="20.51635">
        <ele>1178.2299804688</ele>
        <time>2024-09-27T14:07:51.000Z</time>
      </trkpt>
      <trkpt lat="40.21218" lon="20.51637">
        <ele>1178.2299804688</ele>
        <time>2024-09-27T14:07:52.000Z</time>
      </trkpt>
      <trkpt lat="40.21211" lon="20.51656">
        <ele>1174.8699951172</ele>
        <time>2024-09-27T14:07:57.000Z</time>
      </trkpt>
      <trkpt lat="40.21213" lon="20.51662">
        <ele>1173.9100341797</ele>
        <time>2024-09-27T14:07:58.000Z</time>
      </trkpt>
      <trkpt lat="40.21214" lon="20.51667">
        <ele>1173.4300537109</ele>
        <time>2024-09-27T14:07:59.000Z</time>
      </trkpt>
      <trkpt lat="40.21215" lon="20.51673">
        <ele>1172.4699707031</ele>
        <time>2024-09-27T14:08:00.000Z</time>
      </trkpt>
      <trkpt lat="40.21215" lon="20.5168">
        <ele>1172.4699707031</ele>
        <time>2024-09-27T14:08:01.000Z</time>
      </trkpt>
      <trkpt lat="40.21215" lon="20.51687">
        <ele>1172.4699707031</ele>
        <time>2024-09-27T14:08:02.000Z</time>
      </trkpt>
      <trkpt lat="40.21214" lon="20.51695">
        <ele>1171.9799804688</ele>
        <time>2024-09-27T14:08:03.000Z</time>
      </trkpt>
      <trkpt lat="40.21213" lon="20.51701">
        <ele>1171.9799804688</ele>
        <time>2024-09-27T14:08:04.000Z</time>
      </trkpt>
      <trkpt lat="40.21212" lon="20.51708">
        <ele>1171.9799804688</ele>
        <time>2024-09-27T14:08:05.000Z</time>
      </trkpt>
      <trkpt lat="40.21211" lon="20.51715">
        <ele>1172.9499511719</ele>
        <time>2024-09-27T14:08:06.000Z</time>
      </trkpt>
      <trkpt lat="40.2121" lon="20.51721">
        <ele>1173.4300537109</ele>
        <time>2024-09-27T14:08:07.000Z</time>
      </trkpt>
      <trkpt lat="40.21208" lon="20.51726">
        <ele>1173.9100341797</ele>
        <time>2024-09-27T14:08:08.000Z</time>
      </trkpt>
      <trkpt lat="40.21205" lon="20.51731">
        <ele>1173.9100341797</ele>
        <time>2024-09-27T14:08:09.000Z</time>
      </trkpt>
      <trkpt lat="40.21201" lon="20.51736">
        <ele>1174.3900146484</ele>
        <time>2024-09-27T14:08:10.000Z</time>
      </trkpt>
      <trkpt lat="40.21196" lon="20.51741">
        <ele>1174.8699951172</ele>
        <time>2024-09-27T14:08:11.000Z</time>
      </trkpt>
      <trkpt lat="40.21191" lon="20.51747">
        <ele>1174.8699951172</ele>
        <time>2024-09-27T14:08:12.000Z</time>
      </trkpt>
      <trkpt lat="40.21188" lon="20.51752">
        <ele>1175.3499755859</ele>
        <time>2024-09-27T14:08:13.000Z</time>
      </trkpt>
      <trkpt lat="40.21184" lon="20.51757">
        <ele>1175.3499755859</ele>
        <time>2024-09-27T14:08:14.000Z</time>
      </trkpt>
      <trkpt lat="40.2118" lon="20.51763">
        <ele>1174.8699951172</ele>
        <time>2024-09-27T14:08:15.000Z</time>
      </trkpt>
      <trkpt lat="40.21173" lon="20.5177">
        <ele>1175.3499755859</ele>
        <time>2024-09-27T14:08:16.000Z</time>
      </trkpt>
      <trkpt lat="40.21171" lon="20.51773">
        <ele>1175.3499755859</ele>
        <time>2024-09-27T14:08:17.000Z</time>
      </trkpt>
      <trkpt lat="40.21167" lon="20.51776">
        <ele>1175.3499755859</ele>
        <time>2024-09-27T14:08:18.000Z</time>
      </trkpt>
      <trkpt lat="40.21162" lon="20.51779">
        <ele>1175.3499755859</ele>
        <time>2024-09-27T14:08:19.000Z</time>
      </trkpt>
      <trkpt lat="40.21158" lon="20.51781">
        <ele>1175.3499755859</ele>
        <time>2024-09-27T14:08:20.000Z</time>
      </trkpt>
      <trkpt lat="40.21152" lon="20.51781">
        <ele>1174.8699951172</ele>
        <time>2024-09-27T14:08:21.000Z</time>
      </trkpt>
      <trkpt lat="40.21147" lon="20.5178">
        <ele>1174.8699951172</ele>
        <time>2024-09-27T14:08:22.000Z</time>
      </trkpt>
      <trkpt lat="40.21142" lon="20.51778">
        <ele>1174.3900146484</ele>
        <time>2024-09-27T14:08:23.000Z</time>
      </trkpt>
      <trkpt lat="40.21136" lon="20.51775">
        <ele>1174.8699951172</ele>
        <time>2024-09-27T14:08:24.000Z</time>
      </trkpt>
      <trkpt lat="40.21111" lon="20.51761">
        <ele>1171.0200195312</ele>
        <time>2024-09-27T14:08:32.000Z</time>
      </trkpt>
      <trkpt lat="40.211" lon="20.51771">
        <ele>1171.0200195312</ele>
        <time>2024-09-27T14:08:35.000Z</time>
      </trkpt>
      <trkpt lat="40.21097" lon="20.51774">
        <ele>1171.0200195312</ele>
        <time>2024-09-27T14:08:36.000Z</time>
      </trkpt>
      <trkpt lat="40.21094" lon="20.51778">
        <ele>1171.0200195312</ele>
        <time>2024-09-27T14:08:37.000Z</time>
      </trkpt>
      <trkpt lat="40.21092" lon="20.51782">
        <ele>1171.0200195312</ele>
        <time>2024-09-27T14:08:38.000Z</time>
      </trkpt>
      <trkpt lat="40.21086" lon="20.51789">
        <ele>1171.5</ele>
        <time>2024-09-27T14:08:39.000Z</time>
      </trkpt>
      <trkpt lat="40.21082" lon="20.51792">
        <ele>1171.0200195312</ele>
        <time>2024-09-27T14:08:40.000Z</time>
      </trkpt>
      <trkpt lat="40.21081" lon="20.51794">
        <ele>1171.0200195312</ele>
        <time>2024-09-27T14:08:41.000Z</time>
      </trkpt>
      <trkpt lat="40.21077" lon="20.51796">
        <ele>1170.5400390625</ele>
        <time>2024-09-27T14:08:42.000Z</time>
      </trkpt>
      <trkpt lat="40.21069" lon="20.51798">
        <ele>1170.0600585938</ele>
        <time>2024-09-27T14:08:44.000Z</time>
      </trkpt>
      <trkpt lat="40.21059" lon="20.51802">
        <ele>1169.0999755859</ele>
        <time>2024-09-27T14:08:46.000Z</time>
      </trkpt>
      <trkpt lat="40.21047" lon="20.51807">
        <ele>1168.6199951172</ele>
        <time>2024-09-27T14:08:48.000Z</time>
      </trkpt>
      <trkpt lat="40.21044" lon="20.51809">
        <ele>1168.6199951172</ele>
        <time>2024-09-27T14:08:49.000Z</time>
      </trkpt>
      <trkpt lat="40.2104" lon="20.51813">
        <ele>1169.0999755859</ele>
        <time>2024-09-27T14:08:50.000Z</time>
      </trkpt>
      <trkpt lat="40.21039" lon="20.51818">
        <ele>1169.0999755859</ele>
        <time>2024-09-27T14:08:51.000Z</time>
      </trkpt>
      <trkpt lat="40.21037" lon="20.51825">
        <ele>1169.0999755859</ele>
        <time>2024-09-27T14:08:52.000Z</time>
      </trkpt>
      <trkpt lat="40.21036" lon="20.51831">
        <ele>1169.0999755859</ele>
        <time>2024-09-27T14:08:53.000Z</time>
      </trkpt>
      <trkpt lat="40.21034" lon="20.51834">
        <ele>1169.0999755859</ele>
        <time>2024-09-27T14:08:54.000Z</time>
      </trkpt>
      <trkpt lat="40.21031" lon="20.51838">
        <ele>1169.5799560547</ele>
        <time>2024-09-27T14:08:55.000Z</time>
      </trkpt>
      <trkpt lat="40.21027" lon="20.5184">
        <ele>1169.5799560547</ele>
        <time>2024-09-27T14:08:56.000Z</time>
      </trkpt>
      <trkpt lat="40.21023" lon="20.51842">
        <ele>1170.0600585938</ele>
        <time>2024-09-27T14:08:57.000Z</time>
      </trkpt>
      <trkpt lat="40.21019" lon="20.51844">
        <ele>1170.5400390625</ele>
        <time>2024-09-27T14:08:58.000Z</time>
      </trkpt>
      <trkpt lat="40.21015" lon="20.51846">
        <ele>1171.5</ele>
        <time>2024-09-27T14:08:59.000Z</time>
      </trkpt>
      <trkpt lat="40.2101" lon="20.51851">
        <ele>1171.9799804688</ele>
        <time>2024-09-27T14:09:00.000Z</time>
      </trkpt>
      <trkpt lat="40.21003" lon="20.51859">
        <ele>1172.4699707031</ele>
        <time>2024-09-27T14:09:07.000Z</time>
      </trkpt>
      <trkpt lat="40.21003" lon="20.51859">
        <ele>1172.4699707031</ele>
        <time>2024-09-27T14:09:31.000Z</time>
      </trkpt>
      <trkpt lat="40.20987" lon="20.51879">
        <ele>1172.4699707031</ele>
        <time>2024-09-27T14:09:39.000Z</time>
      </trkpt>
      <trkpt lat="40.20978" lon="20.51887">
        <ele>1172.9499511719</ele>
        <time>2024-09-27T14:09:44.000Z</time>
      </trkpt>
      <trkpt lat="40.20974" lon="20.51891">
        <ele>1172.9499511719</ele>
        <time>2024-09-27T14:09:45.000Z</time>
      </trkpt>
      <trkpt lat="40.2097" lon="20.51894">
        <ele>1172.4699707031</ele>
        <time>2024-09-27T14:09:46.000Z</time>
      </trkpt>
      <trkpt lat="40.20966" lon="20.51897">
        <ele>1172.4699707031</ele>
        <time>2024-09-27T14:09:47.000Z</time>
      </trkpt>
      <trkpt lat="40.20963" lon="20.51899">
        <ele>1172.4699707031</ele>
        <time>2024-09-27T14:09:48.000Z</time>
      </trkpt>
      <trkpt lat="40.20952" lon="20.51907">
        <ele>1172.9499511719</ele>
        <time>2024-09-27T14:09:51.000Z</time>
      </trkpt>
      <trkpt lat="40.20947" lon="20.5191">
        <ele>1172.9499511719</ele>
        <time>2024-09-27T14:09:52.000Z</time>
      </trkpt>
      <trkpt lat="40.20946" lon="20.5191">
        <ele>1172.9499511719</ele>
        <time>2024-09-27T14:09:53.000Z</time>
      </trkpt>
      <trkpt lat="40.20934" lon="20.51919">
        <ele>1173.4300537109</ele>
        <time>2024-09-27T14:09:55.000Z</time>
      </trkpt>
      <trkpt lat="40.20933" lon="20.5192">
        <ele>1173.4300537109</ele>
        <time>2024-09-27T14:09:56.000Z</time>
      </trkpt>
      <trkpt lat="40.20924" lon="20.51925">
        <ele>1173.9100341797</ele>
        <time>2024-09-27T14:09:58.000Z</time>
      </trkpt>
      <trkpt lat="40.20921" lon="20.51928">
        <ele>1174.3900146484</ele>
        <time>2024-09-27T14:09:59.000Z</time>
      </trkpt>
      <trkpt lat="40.20914" lon="20.51933">
        <ele>1174.3900146484</ele>
        <time>2024-09-27T14:10:00.000Z</time>
      </trkpt>
      <trkpt lat="40.20911" lon="20.51936">
        <ele>1174.3900146484</ele>
        <time>2024-09-27T14:10:01.000Z</time>
      </trkpt>
      <trkpt lat="40.20905" lon="20.51942">
        <ele>1174.3900146484</ele>
        <time>2024-09-27T14:10:02.000Z</time>
      </trkpt>
      <trkpt lat="40.20903" lon="20.51944">
        <ele>1174.3900146484</ele>
        <time>2024-09-27T14:10:03.000Z</time>
      </trkpt>
      <trkpt lat="40.209" lon="20.51948">
        <ele>1174.3900146484</ele>
        <time>2024-09-27T14:10:04.000Z</time>
      </trkpt>
      <trkpt lat="40.20896" lon="20.51954">
        <ele>1174.3900146484</ele>
        <time>2024-09-27T14:10:05.000Z</time>
      </trkpt>
      <trkpt lat="40.2089" lon="20.51962">
        <ele>1174.8699951172</ele>
        <time>2024-09-27T14:10:06.000Z</time>
      </trkpt>
      <trkpt lat="40.2089" lon="20.51964">
        <ele>1175.3499755859</ele>
        <time>2024-09-27T14:10:07.000Z</time>
      </trkpt>
      <trkpt lat="40.20883" lon="20.51975">
        <ele>1176.3100585938</ele>
        <time>2024-09-27T14:10:09.000Z</time>
      </trkpt>
      <trkpt lat="40.2088" lon="20.5198">
        <ele>1176.7900390625</ele>
        <time>2024-09-27T14:10:10.000Z</time>
      </trkpt>
      <trkpt lat="40.20875" lon="20.51987">
        <ele>1177.75</ele>
        <time>2024-09-27T14:10:11.000Z</time>
      </trkpt>
      <trkpt lat="40.2087" lon="20.51995">
        <ele>1178.2299804688</ele>
        <time>2024-09-27T14:10:12.000Z</time>
      </trkpt>
      <trkpt lat="40.20869" lon="20.51996">
        <ele>1178.2299804688</ele>
        <time>2024-09-27T14:10:13.000Z</time>
      </trkpt>
      <trkpt lat="40.20866" lon="20.52">
        <ele>1178.7099609375</ele>
        <time>2024-09-27T14:10:14.000Z</time>
      </trkpt>
      <trkpt lat="40.2086" lon="20.52007">
        <ele>1179.1899414062</ele>
        <time>2024-09-27T14:10:15.000Z</time>
      </trkpt>
      <trkpt lat="40.20858" lon="20.5201">
        <ele>1179.6700439453</ele>
        <time>2024-09-27T14:10:16.000Z</time>
      </trkpt>
      <trkpt lat="40.20854" lon="20.52013">
        <ele>1179.6700439453</ele>
        <time>2024-09-27T14:10:17.000Z</time>
      </trkpt>
      <trkpt lat="40.20849" lon="20.5202">
        <ele>1180.1600341797</ele>
        <time>2024-09-27T14:10:18.000Z</time>
      </trkpt>
      <trkpt lat="40.20846" lon="20.52023">
        <ele>1180.6400146484</ele>
        <time>2024-09-27T14:10:19.000Z</time>
      </trkpt>
      <trkpt lat="40.20841" lon="20.52029">
        <ele>1181.1199951172</ele>
        <time>2024-09-27T14:10:20.000Z</time>
      </trkpt>
      <trkpt lat="40.20837" lon="20.52032">
        <ele>1181.1199951172</ele>
        <time>2024-09-27T14:10:21.000Z</time>
      </trkpt>
      <trkpt lat="40.20832" lon="20.52035">
        <ele>1181.5999755859</ele>
        <time>2024-09-27T14:10:22.000Z</time>
      </trkpt>
      <trkpt lat="40.20828" lon="20.52039">
        <ele>1182.5600585938</ele>
        <time>2024-09-27T14:10:23.000Z</time>
      </trkpt>
      <trkpt lat="40.20823" lon="20.52043">
        <ele>1183.0400390625</ele>
        <time>2024-09-27T14:10:24.000Z</time>
      </trkpt>
      <trkpt lat="40.20818" lon="20.52045">
        <ele>1183.0400390625</ele>
        <time>2024-09-27T14:10:25.000Z</time>
      </trkpt>
      <trkpt lat="40.20814" lon="20.52047">
        <ele>1183.5200195312</ele>
        <time>2024-09-27T14:10:26.000Z</time>
      </trkpt>
      <trkpt lat="40.2081" lon="20.52049">
        <ele>1184</ele>
        <time>2024-09-27T14:10:27.000Z</time>
      </trkpt>
      <trkpt lat="40.20806" lon="20.52051">
        <ele>1184</ele>
        <time>2024-09-27T14:10:28.000Z</time>
      </trkpt>
      <trkpt lat="40.20801" lon="20.52056">
        <ele>1184.4799804688</ele>
        <time>2024-09-27T14:10:29.000Z</time>
      </trkpt>
      <trkpt lat="40.20797" lon="20.5206">
        <ele>1184.4799804688</ele>
        <time>2024-09-27T14:10:30.000Z</time>
      </trkpt>
      <trkpt lat="40.20794" lon="20.52064">
        <ele>1184.4799804688</ele>
        <time>2024-09-27T14:10:31.000Z</time>
      </trkpt>
      <trkpt lat="40.20789" lon="20.52069">
        <ele>1184.4799804688</ele>
        <time>2024-09-27T14:10:32.000Z</time>
      </trkpt>
      <trkpt lat="40.20782" lon="20.52078">
        <ele>1184.4799804688</ele>
        <time>2024-09-27T14:10:33.000Z</time>
      </trkpt>
      <trkpt lat="40.20781" lon="20.52079">
        <ele>1184.4799804688</ele>
        <time>2024-09-27T14:10:34.000Z</time>
      </trkpt>
      <trkpt lat="40.20775" lon="20.52087">
        <ele>1184.9599609375</ele>
        <time>2024-09-27T14:10:35.000Z</time>
      </trkpt>
      <trkpt lat="40.20773" lon="20.5209">
        <ele>1184.9599609375</ele>
        <time>2024-09-27T14:10:36.000Z</time>
      </trkpt>
      <trkpt lat="40.20768" lon="20.52096">
        <ele>1184.9599609375</ele>
        <time>2024-09-27T14:10:37.000Z</time>
      </trkpt>
      <trkpt lat="40.20765" lon="20.52102">
        <ele>1184.9599609375</ele>
        <time>2024-09-27T14:10:38.000Z</time>
      </trkpt>
      <trkpt lat="40.20762" lon="20.52104">
        <ele>1184.9599609375</ele>
        <time>2024-09-27T14:10:39.000Z</time>
      </trkpt>
      <trkpt lat="40.20758" lon="20.52107">
        <ele>1184.9599609375</ele>
        <time>2024-09-27T14:10:40.000Z</time>
      </trkpt>
      <trkpt lat="40.20754" lon="20.52111">
        <ele>1185.4399414062</ele>
        <time>2024-09-27T14:10:41.000Z</time>
      </trkpt>
      <trkpt lat="40.20751" lon="20.52114">
        <ele>1185.4399414062</ele>
        <time>2024-09-27T14:10:42.000Z</time>
      </trkpt>
      <trkpt lat="40.20748" lon="20.52118">
        <ele>1185.9200439453</ele>
        <time>2024-09-27T14:10:43.000Z</time>
      </trkpt>
      <trkpt lat="40.20745" lon="20.52123">
        <ele>1185.9200439453</ele>
        <time>2024-09-27T14:10:44.000Z</time>
      </trkpt>
      <trkpt lat="40.20744" lon="20.52127">
        <ele>1185.9200439453</ele>
        <time>2024-09-27T14:10:45.000Z</time>
      </trkpt>
      <trkpt lat="40.20743" lon="20.52133">
        <ele>1185.9200439453</ele>
        <time>2024-09-27T14:10:46.000Z</time>
      </trkpt>
      <trkpt lat="40.20741" lon="20.52139">
        <ele>1185.4399414062</ele>
        <time>2024-09-27T14:10:47.000Z</time>
      </trkpt>
      <trkpt lat="40.2074" lon="20.52143">
        <ele>1184.9599609375</ele>
        <time>2024-09-27T14:10:48.000Z</time>
      </trkpt>
      <trkpt lat="40.20736" lon="20.52149">
        <ele>1184.4799804688</ele>
        <time>2024-09-27T14:10:49.000Z</time>
      </trkpt>
      <trkpt lat="40.20734" lon="20.52151">
        <ele>1184.4799804688</ele>
        <time>2024-09-27T14:10:50.000Z</time>
      </trkpt>
      <trkpt lat="40.2073" lon="20.52153">
        <ele>1184</ele>
        <time>2024-09-27T14:10:51.000Z</time>
      </trkpt>
      <trkpt lat="40.20726" lon="20.52157">
        <ele>1183.5200195312</ele>
        <time>2024-09-27T14:10:52.000Z</time>
      </trkpt>
      <trkpt lat="40.20722" lon="20.52161">
        <ele>1183.0400390625</ele>
        <time>2024-09-27T14:10:53.000Z</time>
      </trkpt>
      <trkpt lat="40.20719" lon="20.52164">
        <ele>1183.0400390625</ele>
        <time>2024-09-27T14:10:54.000Z</time>
      </trkpt>
      <trkpt lat="40.20716" lon="20.52169">
        <ele>1182.5600585938</ele>
        <time>2024-09-27T14:10:55.000Z</time>
      </trkpt>
      <trkpt lat="40.20713" lon="20.52175">
        <ele>1182.5600585938</ele>
        <time>2024-09-27T14:10:56.000Z</time>
      </trkpt>
      <trkpt lat="40.20711" lon="20.52184">
        <ele>1182.5600585938</ele>
        <time>2024-09-27T14:10:57.000Z</time>
      </trkpt>
      <trkpt lat="40.2071" lon="20.52189">
        <ele>1182.0799560547</ele>
        <time>2024-09-27T14:10:58.000Z</time>
      </trkpt>
      <trkpt lat="40.20707" lon="20.52197">
        <ele>1182.0799560547</ele>
        <time>2024-09-27T14:10:59.000Z</time>
      </trkpt>
      <trkpt lat="40.20705" lon="20.52205">
        <ele>1182.0799560547</ele>
        <time>2024-09-27T14:11:00.000Z</time>
      </trkpt>
      <trkpt lat="40.20703" lon="20.5221">
        <ele>1181.5999755859</ele>
        <time>2024-09-27T14:11:01.000Z</time>
      </trkpt>
      <trkpt lat="40.20688" lon="20.52232">
        <ele>1181.1199951172</ele>
        <time>2024-09-27T14:11:09.000Z</time>
      </trkpt>
      <trkpt lat="40.20671" lon="20.52258">
        <ele>1180.1600341797</ele>
        <time>2024-09-27T14:11:17.000Z</time>
      </trkpt>
      <trkpt lat="40.20658" lon="20.52274">
        <ele>1180.6400146484</ele>
        <time>2024-09-27T14:11:23.000Z</time>
      </trkpt>
      <trkpt lat="40.20656" lon="20.52276">
        <ele>1181.1199951172</ele>
        <time>2024-09-27T14:11:24.000Z</time>
      </trkpt>
      <trkpt lat="40.20647" lon="20.52285">
        <ele>1181.1199951172</ele>
        <time>2024-09-27T14:11:26.000Z</time>
      </trkpt>
      <trkpt lat="40.20646" lon="20.52286">
        <ele>1181.1199951172</ele>
        <time>2024-09-27T14:11:27.000Z</time>
      </trkpt>
      <trkpt lat="40.20638" lon="20.52304">
        <ele>1181.5999755859</ele>
        <time>2024-09-27T14:11:31.000Z</time>
      </trkpt>
      <trkpt lat="40.20636" lon="20.5231">
        <ele>1182.0799560547</ele>
        <time>2024-09-27T14:11:32.000Z</time>
      </trkpt>
      <trkpt lat="40.20634" lon="20.52315">
        <ele>1182.0799560547</ele>
        <time>2024-09-27T14:11:33.000Z</time>
      </trkpt>
      <trkpt lat="40.20632" lon="20.52319">
        <ele>1182.5600585938</ele>
        <time>2024-09-27T14:11:34.000Z</time>
      </trkpt>
      <trkpt lat="40.20628" lon="20.52325">
        <ele>1183.0400390625</ele>
        <time>2024-09-27T14:11:35.000Z</time>
      </trkpt>
      <trkpt lat="40.20626" lon="20.52326">
        <ele>1183.5200195312</ele>
        <time>2024-09-27T14:11:36.000Z</time>
      </trkpt>
      <trkpt lat="40.20622" lon="20.5233">
        <ele>1183.5200195312</ele>
        <time>2024-09-27T14:11:37.000Z</time>
      </trkpt>
      <trkpt lat="40.20618" lon="20.52332">
        <ele>1184</ele>
        <time>2024-09-27T14:11:38.000Z</time>
      </trkpt>
      <trkpt lat="40.20615" lon="20.52334">
        <ele>1184.4799804688</ele>
        <time>2024-09-27T14:11:39.000Z</time>
      </trkpt>
      <trkpt lat="40.20606" lon="20.52338">
        <ele>1185.4399414062</ele>
        <time>2024-09-27T14:11:46.000Z</time>
      </trkpt>
      <trkpt lat="40.20599" lon="20.52342">
        <ele>1184.9599609375</ele>
        <time>2024-09-27T14:12:43.000Z</time>
      </trkpt>
      <trkpt lat="40.20598" lon="20.52342">
        <ele>1184.4799804688</ele>
        <time>2024-09-27T14:12:44.000Z</time>
      </trkpt>
      <trkpt lat="40.20594" lon="20.52345">
        <ele>1184.9599609375</ele>
        <time>2024-09-27T14:12:45.000Z</time>
      </trkpt>
      <trkpt lat="40.20589" lon="20.52349">
        <ele>1185.4399414062</ele>
        <time>2024-09-27T14:12:46.000Z</time>
      </trkpt>
      <trkpt lat="40.20583" lon="20.52357">
        <ele>1184.9599609375</ele>
        <time>2024-09-27T14:12:48.000Z</time>
      </trkpt>
      <trkpt lat="40.20583" lon="20.52359">
        <ele>1184.9599609375</ele>
        <time>2024-09-27T14:12:49.000Z</time>
      </trkpt>
      <trkpt lat="40.20583" lon="20.52365">
        <ele>1185.4399414062</ele>
        <time>2024-09-27T14:12:50.000Z</time>
      </trkpt>
      <trkpt lat="40.20584" lon="20.52372">
        <ele>1186.4000244141</ele>
        <time>2024-09-27T14:12:51.000Z</time>
      </trkpt>
      <trkpt lat="40.20584" lon="20.52378">
        <ele>1186.4000244141</ele>
        <time>2024-09-27T14:12:52.000Z</time>
      </trkpt>
      <trkpt lat="40.20575" lon="20.52401">
        <ele>1185.4399414062</ele>
        <time>2024-09-27T14:12:57.000Z</time>
      </trkpt>
      <trkpt lat="40.20572" lon="20.52404">
        <ele>1184.9599609375</ele>
        <time>2024-09-27T14:12:58.000Z</time>
      </trkpt>
      <trkpt lat="40.20569" lon="20.52431">
        <ele>1181.5999755859</ele>
        <time>2024-09-27T14:13:05.000Z</time>
      </trkpt>
      <trkpt lat="40.20571" lon="20.52447">
        <ele>1180.1600341797</ele>
        <time>2024-09-27T14:13:08.000Z</time>
      </trkpt>
      <trkpt lat="40.20572" lon="20.52455">
        <ele>1180.1600341797</ele>
        <time>2024-09-27T14:13:09.000Z</time>
      </trkpt>
      <trkpt lat="40.20573" lon="20.52458">
        <ele>1179.6700439453</ele>
        <time>2024-09-27T14:13:10.000Z</time>
      </trkpt>
      <trkpt lat="40.20574" lon="20.52464">
        <ele>1179.6700439453</ele>
        <time>2024-09-27T14:13:11.000Z</time>
      </trkpt>
      <trkpt lat="40.20576" lon="20.52474">
        <ele>1179.1899414062</ele>
        <time>2024-09-27T14:13:13.000Z</time>
      </trkpt>
      <trkpt lat="40.20578" lon="20.52481">
        <ele>1178.7099609375</ele>
        <time>2024-09-27T14:13:14.000Z</time>
      </trkpt>
      <trkpt lat="40.20579" lon="20.52491">
        <ele>1177.75</ele>
        <time>2024-09-27T14:13:15.000Z</time>
      </trkpt>
      <trkpt lat="40.2058" lon="20.52494">
        <ele>1177.75</ele>
        <time>2024-09-27T14:13:16.000Z</time>
      </trkpt>
      <trkpt lat="40.20582" lon="20.525">
        <ele>1176.7900390625</ele>
        <time>2024-09-27T14:13:17.000Z</time>
      </trkpt>
      <trkpt lat="40.20583" lon="20.52505">
        <ele>1176.3100585938</ele>
        <time>2024-09-27T14:13:18.000Z</time>
      </trkpt>
      <trkpt lat="40.20586" lon="20.52519">
        <ele>1175.3499755859</ele>
        <time>2024-09-27T14:13:20.000Z</time>
      </trkpt>
      <trkpt lat="40.20588" lon="20.52525">
        <ele>1175.3499755859</ele>
        <time>2024-09-27T14:13:21.000Z</time>
      </trkpt>
      <trkpt lat="40.20589" lon="20.52531">
        <ele>1174.8699951172</ele>
        <time>2024-09-27T14:13:22.000Z</time>
      </trkpt>
      <trkpt lat="40.2059" lon="20.5254">
        <ele>1173.9100341797</ele>
        <time>2024-09-27T14:13:23.000Z</time>
      </trkpt>
      <trkpt lat="40.20591" lon="20.5255">
        <ele>1173.4300537109</ele>
        <time>2024-09-27T14:13:24.000Z</time>
      </trkpt>
      <trkpt lat="40.20592" lon="20.52554">
        <ele>1173.4300537109</ele>
        <time>2024-09-27T14:13:25.000Z</time>
      </trkpt>
      <trkpt lat="40.20601" lon="20.52583">
        <ele>1172.9499511719</ele>
        <time>2024-09-27T14:13:32.000Z</time>
      </trkpt>
      <trkpt lat="40.20603" lon="20.52586">
        <ele>1173.9100341797</ele>
        <time>2024-09-27T14:13:33.000Z</time>
      </trkpt>
      <trkpt lat="40.20607" lon="20.52591">
        <ele>1174.3900146484</ele>
        <time>2024-09-27T14:13:34.000Z</time>
      </trkpt>
      <trkpt lat="40.2061" lon="20.52596">
        <ele>1174.3900146484</ele>
        <time>2024-09-27T14:13:35.000Z</time>
      </trkpt>
      <trkpt lat="40.20613" lon="20.52602">
        <ele>1174.3900146484</ele>
        <time>2024-09-27T14:13:36.000Z</time>
      </trkpt>
      <trkpt lat="40.20618" lon="20.52617">
        <ele>1174.8699951172</ele>
        <time>2024-09-27T14:13:38.000Z</time>
      </trkpt>
      <trkpt lat="40.2062" lon="20.52622">
        <ele>1174.8699951172</ele>
        <time>2024-09-27T14:13:39.000Z</time>
      </trkpt>
      <trkpt lat="40.20622" lon="20.52627">
        <ele>1174.3900146484</ele>
        <time>2024-09-27T14:13:40.000Z</time>
      </trkpt>
      <trkpt lat="40.20625" lon="20.52632">
        <ele>1174.3900146484</ele>
        <time>2024-09-27T14:13:41.000Z</time>
      </trkpt>
      <trkpt lat="40.20628" lon="20.52638">
        <ele>1174.8699951172</ele>
        <time>2024-09-27T14:13:42.000Z</time>
      </trkpt>
      <trkpt lat="40.20631" lon="20.52644">
        <ele>1176.3100585938</ele>
        <time>2024-09-27T14:13:43.000Z</time>
      </trkpt>
      <trkpt lat="40.20634" lon="20.5265">
        <ele>1177.2700195312</ele>
        <time>2024-09-27T14:13:44.000Z</time>
      </trkpt>
      <trkpt lat="40.20636" lon="20.52654">
        <ele>1178.2299804688</ele>
        <time>2024-09-27T14:13:45.000Z</time>
      </trkpt>
      <trkpt lat="40.20643" lon="20.52666">
        <ele>1181.1199951172</ele>
        <time>2024-09-27T14:13:47.000Z</time>
      </trkpt>
      <trkpt lat="40.20643" lon="20.52669">
        <ele>1181.1199951172</ele>
        <time>2024-09-27T14:13:48.000Z</time>
      </trkpt>
      <trkpt lat="40.20646" lon="20.52677">
        <ele>1182.5600585938</ele>
        <time>2024-09-27T14:13:49.000Z</time>
      </trkpt>
      <trkpt lat="40.20647" lon="20.52681">
        <ele>1183.0400390625</ele>
        <time>2024-09-27T14:13:50.000Z</time>
      </trkpt>
      <trkpt lat="40.20649" lon="20.52686">
        <ele>1183.5200195312</ele>
        <time>2024-09-27T14:13:51.000Z</time>
      </trkpt>
      <trkpt lat="40.20651" lon="20.52692">
        <ele>1184</ele>
        <time>2024-09-27T14:13:52.000Z</time>
      </trkpt>
      <trkpt lat="40.20653" lon="20.52699">
        <ele>1184.4799804688</ele>
        <time>2024-09-27T14:13:53.000Z</time>
      </trkpt>
      <trkpt lat="40.20655" lon="20.52709">
        <ele>1184.4799804688</ele>
        <time>2024-09-27T14:13:54.000Z</time>
      </trkpt>
      <trkpt lat="40.20655" lon="20.5271">
        <ele>1184.4799804688</ele>
        <time>2024-09-27T14:13:55.000Z</time>
      </trkpt>
      <trkpt lat="40.20654" lon="20.52716">
        <ele>1184.4799804688</ele>
        <time>2024-09-27T14:13:56.000Z</time>
      </trkpt>
      <trkpt lat="40.20652" lon="20.52722">
        <ele>1184.4799804688</ele>
        <time>2024-09-27T14:13:57.000Z</time>
      </trkpt>
      <trkpt lat="40.2065" lon="20.52728">
        <ele>1184.9599609375</ele>
        <time>2024-09-27T14:13:58.000Z</time>
      </trkpt>
      <trkpt lat="40.20641" lon="20.52757">
        <ele>1185.9200439453</ele>
        <time>2024-09-27T14:14:05.000Z</time>
      </trkpt>
      <trkpt lat="40.20645" lon="20.52767">
        <ele>1186.4000244141</ele>
        <time>2024-09-27T14:14:07.000Z</time>
      </trkpt>
      <trkpt lat="40.20646" lon="20.52769">
        <ele>1186.4000244141</ele>
        <time>2024-09-27T14:14:08.000Z</time>
      </trkpt>
      <trkpt lat="40.20648" lon="20.52774">
        <ele>1186.8800048828</ele>
        <time>2024-09-27T14:14:09.000Z</time>
      </trkpt>
      <trkpt lat="40.20652" lon="20.52781">
        <ele>1187.8499755859</ele>
        <time>2024-09-27T14:14:10.000Z</time>
      </trkpt>
      <trkpt lat="40.20655" lon="20.52786">
        <ele>1188.8100585938</ele>
        <time>2024-09-27T14:14:11.000Z</time>
      </trkpt>
      <trkpt lat="40.20658" lon="20.52792">
        <ele>1190.25</ele>
        <time>2024-09-27T14:14:12.000Z</time>
      </trkpt>
      <trkpt lat="40.20662" lon="20.52797">
        <ele>1191.6899414062</ele>
        <time>2024-09-27T14:14:13.000Z</time>
      </trkpt>
      <trkpt lat="40.20666" lon="20.52813">
        <ele>1193.1300048828</ele>
        <time>2024-09-27T14:14:16.000Z</time>
      </trkpt>
      <trkpt lat="40.20665" lon="20.52817">
        <ele>1193.1300048828</ele>
        <time>2024-09-27T14:14:17.000Z</time>
      </trkpt>
      <trkpt lat="40.20663" lon="20.52823">
        <ele>1193.6099853516</ele>
        <time>2024-09-27T14:14:18.000Z</time>
      </trkpt>
      <trkpt lat="40.2066" lon="20.5283">
        <ele>1194.0899658203</ele>
        <time>2024-09-27T14:14:19.000Z</time>
      </trkpt>
      <trkpt lat="40.20657" lon="20.52835">
        <ele>1195.0600585938</ele>
        <time>2024-09-27T14:14:20.000Z</time>
      </trkpt>
      <trkpt lat="40.20654" lon="20.52839">
        <ele>1195.5400390625</ele>
        <time>2024-09-27T14:14:21.000Z</time>
      </trkpt>
      <trkpt lat="40.20651" lon="20.52843">
        <ele>1196.0200195312</ele>
        <time>2024-09-27T14:14:22.000Z</time>
      </trkpt>
      <trkpt lat="40.20647" lon="20.52847">
        <ele>1196.5</ele>
        <time>2024-09-27T14:14:23.000Z</time>
      </trkpt>
      <trkpt lat="40.20643" lon="20.52852">
        <ele>1196.9799804688</ele>
        <time>2024-09-27T14:14:24.000Z</time>
      </trkpt>
      <trkpt lat="40.20639" lon="20.52856">
        <ele>1196.9799804688</ele>
        <time>2024-09-27T14:14:25.000Z</time>
      </trkpt>
      <trkpt lat="40.20635" lon="20.52861">
        <ele>1197.4599609375</ele>
        <time>2024-09-27T14:14:26.000Z</time>
      </trkpt>
      <trkpt lat="40.20632" lon="20.52865">
        <ele>1198.4200439453</ele>
        <time>2024-09-27T14:14:27.000Z</time>
      </trkpt>
      <trkpt lat="40.20628" lon="20.5287">
        <ele>1198.9000244141</ele>
        <time>2024-09-27T14:14:28.000Z</time>
      </trkpt>
      <trkpt lat="40.20624" lon="20.52875">
        <ele>1199.3800048828</ele>
        <time>2024-09-27T14:14:29.000Z</time>
      </trkpt>
      <trkpt lat="40.2062" lon="20.52879">
        <ele>1198.9000244141</ele>
        <time>2024-09-27T14:14:30.000Z</time>
      </trkpt>
      <trkpt lat="40.20613" lon="20.52886">
        <ele>1199.8599853516</ele>
        <time>2024-09-27T14:14:31.000Z</time>
      </trkpt>
      <trkpt lat="40.20612" lon="20.52888">
        <ele>1199.8599853516</ele>
        <time>2024-09-27T14:14:32.000Z</time>
      </trkpt>
      <trkpt lat="40.20609" lon="20.52892">
        <ele>1200.3399658203</ele>
        <time>2024-09-27T14:14:33.000Z</time>
      </trkpt>
      <trkpt lat="40.20606" lon="20.52897">
        <ele>1200.3399658203</ele>
        <time>2024-09-27T14:14:34.000Z</time>
      </trkpt>
      <trkpt lat="40.20603" lon="20.52902">
        <ele>1200.8199462891</ele>
        <time>2024-09-27T14:14:35.000Z</time>
      </trkpt>
      <trkpt lat="40.206" lon="20.52909">
        <ele>1201.3000488281</ele>
        <time>2024-09-27T14:14:36.000Z</time>
      </trkpt>
      <trkpt lat="40.20596" lon="20.52916">
        <ele>1201.7900390625</ele>
        <time>2024-09-27T14:14:37.000Z</time>
      </trkpt>
      <trkpt lat="40.20594" lon="20.52919">
        <ele>1202.2700195312</ele>
        <time>2024-09-27T14:14:38.000Z</time>
      </trkpt>
      <trkpt lat="40.20589" lon="20.52924">
        <ele>1203.2299804688</ele>
        <time>2024-09-27T14:14:39.000Z</time>
      </trkpt>
      <trkpt lat="40.20584" lon="20.52929">
        <ele>1202.75</ele>
        <time>2024-09-27T14:14:40.000Z</time>
      </trkpt>
      <trkpt lat="40.2058" lon="20.52934">
        <ele>1202.75</ele>
        <time>2024-09-27T14:14:41.000Z</time>
      </trkpt>
      <trkpt lat="40.20576" lon="20.5294">
        <ele>1203.7099609375</ele>
        <time>2024-09-27T14:14:42.000Z</time>
      </trkpt>
      <trkpt lat="40.20573" lon="20.52944">
        <ele>1203.7099609375</ele>
        <time>2024-09-27T14:14:43.000Z</time>
      </trkpt>
      <trkpt lat="40.2057" lon="20.52948">
        <ele>1203.7099609375</ele>
        <time>2024-09-27T14:14:44.000Z</time>
      </trkpt>
      <trkpt lat="40.20567" lon="20.52952">
        <ele>1203.2299804688</ele>
        <time>2024-09-27T14:14:50.000Z</time>
      </trkpt>
      <trkpt lat="40.20552" lon="20.52964">
        <ele>1202.75</ele>
        <time>2024-09-27T14:15:17.000Z</time>
      </trkpt>
      <trkpt lat="40.20549" lon="20.52967">
        <ele>1202.75</ele>
        <time>2024-09-27T14:15:18.000Z</time>
      </trkpt>
      <trkpt lat="40.20525" lon="20.52983">
        <ele>1202.75</ele>
        <time>2024-09-27T14:15:25.000Z</time>
      </trkpt>
      <trkpt lat="40.20524" lon="20.52985">
        <ele>1202.2700195312</ele>
        <time>2024-09-27T14:15:26.000Z</time>
      </trkpt>
      <trkpt lat="40.20523" lon="20.5299">
        <ele>1202.2700195312</ele>
        <time>2024-09-27T14:15:27.000Z</time>
      </trkpt>
      <trkpt lat="40.2052" lon="20.52996">
        <ele>1201.7900390625</ele>
        <time>2024-09-27T14:15:28.000Z</time>
      </trkpt>
      <trkpt lat="40.20518" lon="20.53001">
        <ele>1201.3000488281</ele>
        <time>2024-09-27T14:15:29.000Z</time>
      </trkpt>
      <trkpt lat="40.20516" lon="20.53008">
        <ele>1201.3000488281</ele>
        <time>2024-09-27T14:15:30.000Z</time>
      </trkpt>
      <trkpt lat="40.20514" lon="20.53012">
        <ele>1200.8199462891</ele>
        <time>2024-09-27T14:15:31.000Z</time>
      </trkpt>
      <trkpt lat="40.20512" lon="20.53017">
        <ele>1200.8199462891</ele>
        <time>2024-09-27T14:15:32.000Z</time>
      </trkpt>
      <trkpt lat="40.20508" lon="20.53023">
        <ele>1200.3399658203</ele>
        <time>2024-09-27T14:15:33.000Z</time>
      </trkpt>
      <trkpt lat="40.20507" lon="20.53027">
        <ele>1200.8199462891</ele>
        <time>2024-09-27T14:15:34.000Z</time>
      </trkpt>
      <trkpt lat="40.20506" lon="20.53033">
        <ele>1201.3000488281</ele>
        <time>2024-09-27T14:15:35.000Z</time>
      </trkpt>
      <trkpt lat="40.20505" lon="20.53038">
        <ele>1200.8199462891</ele>
        <time>2024-09-27T14:15:36.000Z</time>
      </trkpt>
      <trkpt lat="40.20505" lon="20.53045">
        <ele>1200.8199462891</ele>
        <time>2024-09-27T14:15:37.000Z</time>
      </trkpt>
      <trkpt lat="40.20505" lon="20.53052">
        <ele>1200.8199462891</ele>
        <time>2024-09-27T14:15:38.000Z</time>
      </trkpt>
      <trkpt lat="40.20505" lon="20.53059">
        <ele>1201.3000488281</ele>
        <time>2024-09-27T14:15:39.000Z</time>
      </trkpt>
      <trkpt lat="40.20509" lon="20.53071">
        <ele>1202.2700195312</ele>
        <time>2024-09-27T14:15:41.000Z</time>
      </trkpt>
      <trkpt lat="40.20509" lon="20.53074">
        <ele>1202.2700195312</ele>
        <time>2024-09-27T14:15:42.000Z</time>
      </trkpt>
      <trkpt lat="40.20512" lon="20.53081">
        <ele>1203.2299804688</ele>
        <time>2024-09-27T14:15:43.000Z</time>
      </trkpt>
      <trkpt lat="40.20514" lon="20.53085">
        <ele>1203.7099609375</ele>
        <time>2024-09-27T14:15:44.000Z</time>
      </trkpt>
      <trkpt lat="40.20516" lon="20.5309">
        <ele>1203.7099609375</ele>
        <time>2024-09-27T14:15:45.000Z</time>
      </trkpt>
      <trkpt lat="40.20519" lon="20.53103">
        <ele>1203.2299804688</ele>
        <time>2024-09-27T14:15:52.000Z</time>
      </trkpt>
      <trkpt lat="40.2052" lon="20.53126">
        <ele>1201.7900390625</ele>
        <time>2024-09-27T14:19:00.000Z</time>
      </trkpt>
      <trkpt lat="40.20531" lon="20.53159">
        <ele>1200.3399658203</ele>
        <time>2024-09-27T14:19:08.000Z</time>
      </trkpt>
      <trkpt lat="40.20546" lon="20.53203">
        <ele>1196.9799804688</ele>
        <time>2024-09-27T14:19:18.000Z</time>
      </trkpt>
      <trkpt lat="40.20548" lon="20.53245">
        <ele>1196.0200195312</ele>
        <time>2024-09-27T14:19:27.000Z</time>
      </trkpt>
      <trkpt lat="40.20548" lon="20.53272">
        <ele>1195.5400390625</ele>
        <time>2024-09-27T14:19:33.000Z</time>
      </trkpt>
      <trkpt lat="40.2055" lon="20.53277">
        <ele>1195.5400390625</ele>
        <time>2024-09-27T14:19:34.000Z</time>
      </trkpt>
      <trkpt lat="40.20552" lon="20.53283">
        <ele>1195.0600585938</ele>
        <time>2024-09-27T14:19:35.000Z</time>
      </trkpt>
      <trkpt lat="40.20553" lon="20.53285">
        <ele>1195.0600585938</ele>
        <time>2024-09-27T14:19:36.000Z</time>
      </trkpt>
      <trkpt lat="40.20556" lon="20.5329">
        <ele>1194.0899658203</ele>
        <time>2024-09-27T14:19:37.000Z</time>
      </trkpt>
      <trkpt lat="40.20559" lon="20.53295">
        <ele>1194.0899658203</ele>
        <time>2024-09-27T14:19:38.000Z</time>
      </trkpt>
      <trkpt lat="40.20566" lon="20.53309">
        <ele>1192.6500244141</ele>
        <time>2024-09-27T14:19:40.000Z</time>
      </trkpt>
      <trkpt lat="40.20569" lon="20.53316">
        <ele>1192.1700439453</ele>
        <time>2024-09-27T14:19:41.000Z</time>
      </trkpt>
      <trkpt lat="40.20572" lon="20.53321">
        <ele>1192.6500244141</ele>
        <time>2024-09-27T14:19:42.000Z</time>
      </trkpt>
      <trkpt lat="40.20575" lon="20.53325">
        <ele>1192.6500244141</ele>
        <time>2024-09-27T14:19:43.000Z</time>
      </trkpt>
      <trkpt lat="40.20578" lon="20.5333">
        <ele>1192.1700439453</ele>
        <time>2024-09-27T14:19:44.000Z</time>
      </trkpt>
      <trkpt lat="40.20581" lon="20.53334">
        <ele>1192.1700439453</ele>
        <time>2024-09-27T14:19:45.000Z</time>
      </trkpt>
      <trkpt lat="40.20591" lon="20.53343">
        <ele>1190.7299804688</ele>
        <time>2024-09-27T14:19:47.000Z</time>
      </trkpt>
      <trkpt lat="40.20595" lon="20.53347">
        <ele>1189.7700195312</ele>
        <time>2024-09-27T14:19:49.000Z</time>
      </trkpt>
      <trkpt lat="40.20598" lon="20.5335">
        <ele>1189.2900390625</ele>
        <time>2024-09-27T14:19:50.000Z</time>
      </trkpt>
      <trkpt lat="40.206" lon="20.53355">
        <ele>1189.2900390625</ele>
        <time>2024-09-27T14:19:51.000Z</time>
      </trkpt>
      <trkpt lat="40.20602" lon="20.5336">
        <ele>1188.3299560547</ele>
        <time>2024-09-27T14:19:52.000Z</time>
      </trkpt>
      <trkpt lat="40.20602" lon="20.53366">
        <ele>1187.8499755859</ele>
        <time>2024-09-27T14:19:53.000Z</time>
      </trkpt>
      <trkpt lat="40.20602" lon="20.53371">
        <ele>1186.8800048828</ele>
        <time>2024-09-27T14:19:54.000Z</time>
      </trkpt>
      <trkpt lat="40.20591" lon="20.53405">
        <ele>1182.0799560547</ele>
        <time>2024-09-27T14:20:02.000Z</time>
      </trkpt>
      <trkpt lat="40.20599" lon="20.53418">
        <ele>1177.75</ele>
        <time>2024-09-27T14:20:07.000Z</time>
      </trkpt>
      <trkpt lat="40.2062" lon="20.53413">
        <ele>1171.9799804688</ele>
        <time>2024-09-27T14:20:14.000Z</time>
      </trkpt>
      <trkpt lat="40.20642" lon="20.53417">
        <ele>1166.2199707031</ele>
        <time>2024-09-27T14:20:21.000Z</time>
      </trkpt>
      <trkpt lat="40.20644" lon="20.53419">
        <ele>1165.7399902344</ele>
        <time>2024-09-27T14:20:22.000Z</time>
      </trkpt>
      <trkpt lat="40.20665" lon="20.53437">
        <ele>1160.4499511719</ele>
        <time>2024-09-27T14:20:29.000Z</time>
      </trkpt>
      <trkpt lat="40.20666" lon="20.53438">
        <ele>1160.4499511719</ele>
        <time>2024-09-27T14:20:30.000Z</time>
      </trkpt>
      <trkpt lat="40.20669" lon="20.53446">
        <ele>1159.4899902344</ele>
        <time>2024-09-27T14:20:31.000Z</time>
      </trkpt>
      <trkpt lat="40.20671" lon="20.53449">
        <ele>1159.4899902344</ele>
        <time>2024-09-27T14:20:32.000Z</time>
      </trkpt>
      <trkpt lat="40.20674" lon="20.53457">
        <ele>1159.0100097656</ele>
        <time>2024-09-27T14:20:33.000Z</time>
      </trkpt>
      <trkpt lat="40.20675" lon="20.53461">
        <ele>1159.0100097656</ele>
        <time>2024-09-27T14:20:34.000Z</time>
      </trkpt>
      <trkpt lat="40.20678" lon="20.53472">
        <ele>1159.0100097656</ele>
        <time>2024-09-27T14:20:35.000Z</time>
      </trkpt>
      <trkpt lat="40.20678" lon="20.53475">
        <ele>1159.0100097656</ele>
        <time>2024-09-27T14:20:36.000Z</time>
      </trkpt>
      <trkpt lat="40.20679" lon="20.53489">
        <ele>1157.5600585938</ele>
        <time>2024-09-27T14:20:43.000Z</time>
      </trkpt>
      <trkpt lat="40.20685" lon="20.53507">
        <ele>1155.1600341797</ele>
        <time>2024-09-27T14:21:13.000Z</time>
      </trkpt>
      <trkpt lat="40.20689" lon="20.53508">
        <ele>1154.6800537109</ele>
        <time>2024-09-27T14:21:14.000Z</time>
      </trkpt>
      <trkpt lat="40.20694" lon="20.53509">
        <ele>1153.7199707031</ele>
        <time>2024-09-27T14:21:15.000Z</time>
      </trkpt>
      <trkpt lat="40.207" lon="20.53513">
        <ele>1152.7600097656</ele>
        <time>2024-09-27T14:21:16.000Z</time>
      </trkpt>
      <trkpt lat="40.20704" lon="20.5352">
        <ele>1152.2800292969</ele>
        <time>2024-09-27T14:21:17.000Z</time>
      </trkpt>
      <trkpt lat="40.20709" lon="20.53537">
        <ele>1149.8699951172</ele>
        <time>2024-09-27T14:21:19.000Z</time>
      </trkpt>
      <trkpt lat="40.20711" lon="20.53543">
        <ele>1148.9100341797</ele>
        <time>2024-09-27T14:21:20.000Z</time>
      </trkpt>
      <trkpt lat="40.20714" lon="20.53549">
        <ele>1147.9499511719</ele>
        <time>2024-09-27T14:21:21.000Z</time>
      </trkpt>
      <trkpt lat="40.20717" lon="20.53553">
        <ele>1146.5100097656</ele>
        <time>2024-09-27T14:21:22.000Z</time>
      </trkpt>
      <trkpt lat="40.20721" lon="20.53557">
        <ele>1145.0699462891</ele>
        <time>2024-09-27T14:21:23.000Z</time>
      </trkpt>
      <trkpt lat="40.20726" lon="20.5356">
        <ele>1144.1099853516</ele>
        <time>2024-09-27T14:21:24.000Z</time>
      </trkpt>
      <trkpt lat="40.20731" lon="20.53563">
        <ele>1143.1400146484</ele>
        <time>2024-09-27T14:21:25.000Z</time>
      </trkpt>
      <trkpt lat="40.20737" lon="20.53567">
        <ele>1142.1800537109</ele>
        <time>2024-09-27T14:21:26.000Z</time>
      </trkpt>
      <trkpt lat="40.20742" lon="20.53571">
        <ele>1141.2199707031</ele>
        <time>2024-09-27T14:21:27.000Z</time>
      </trkpt>
      <trkpt lat="40.20757" lon="20.53583">
        <ele>1137.3800048828</ele>
        <time>2024-09-27T14:21:30.000Z</time>
      </trkpt>
      <trkpt lat="40.20761" lon="20.53587">
        <ele>1136.4200439453</ele>
        <time>2024-09-27T14:21:31.000Z</time>
      </trkpt>
      <trkpt lat="40.20764" lon="20.53593">
        <ele>1136.4200439453</ele>
        <time>2024-09-27T14:21:32.000Z</time>
      </trkpt>
      <trkpt lat="40.20765" lon="20.536">
        <ele>1136.4200439453</ele>
        <time>2024-09-27T14:21:33.000Z</time>
      </trkpt>
      <trkpt lat="40.20764" lon="20.53604">
        <ele>1136.4200439453</ele>
        <time>2024-09-27T14:21:34.000Z</time>
      </trkpt>
      <trkpt lat="40.20764" lon="20.53611">
        <ele>1136.9000244141</ele>
        <time>2024-09-27T14:21:35.000Z</time>
      </trkpt>
      <trkpt lat="40.20764" lon="20.53616">
        <ele>1136.9000244141</ele>
        <time>2024-09-27T14:21:36.000Z</time>
      </trkpt>
      <trkpt lat="40.20761" lon="20.53625">
        <ele>1137.8599853516</ele>
        <time>2024-09-27T14:21:37.000Z</time>
      </trkpt>
      <trkpt lat="40.2076" lon="20.53629">
        <ele>1138.3399658203</ele>
        <time>2024-09-27T14:21:38.000Z</time>
      </trkpt>
      <trkpt lat="40.2076" lon="20.53636">
        <ele>1138.8199462891</ele>
        <time>2024-09-27T14:21:39.000Z</time>
      </trkpt>
      <trkpt lat="40.20762" lon="20.53645">
        <ele>1139.3000488281</ele>
        <time>2024-09-27T14:21:40.000Z</time>
      </trkpt>
      <trkpt lat="40.20763" lon="20.53648">
        <ele>1139.7800292969</ele>
        <time>2024-09-27T14:21:41.000Z</time>
      </trkpt>
      <trkpt lat="40.20764" lon="20.53659">
        <ele>1140.2600097656</ele>
        <time>2024-09-27T14:21:42.000Z</time>
      </trkpt>
      <trkpt lat="40.20765" lon="20.53663">
        <ele>1140.7399902344</ele>
        <time>2024-09-27T14:21:43.000Z</time>
      </trkpt>
      <trkpt lat="40.20774" lon="20.53679">
        <ele>1141.6999511719</ele>
        <time>2024-09-27T14:21:47.000Z</time>
      </trkpt>
      <trkpt lat="40.20777" lon="20.53683">
        <ele>1141.6999511719</ele>
        <time>2024-09-27T14:21:48.000Z</time>
      </trkpt>
      <trkpt lat="40.20778" lon="20.53685">
        <ele>1142.1800537109</ele>
        <time>2024-09-27T14:21:49.000Z</time>
      </trkpt>
      <trkpt lat="40.20782" lon="20.5369">
        <ele>1142.6600341797</ele>
        <time>2024-09-27T14:21:50.000Z</time>
      </trkpt>
      <trkpt lat="40.20785" lon="20.53695">
        <ele>1142.6600341797</ele>
        <time>2024-09-27T14:21:51.000Z</time>
      </trkpt>
      <trkpt lat="40.2079" lon="20.537">
        <ele>1143.1400146484</ele>
        <time>2024-09-27T14:21:52.000Z</time>
      </trkpt>
      <trkpt lat="40.20792" lon="20.53703">
        <ele>1143.6300048828</ele>
        <time>2024-09-27T14:21:53.000Z</time>
      </trkpt>
      <trkpt lat="40.20796" lon="20.53707">
        <ele>1144.5899658203</ele>
        <time>2024-09-27T14:21:54.000Z</time>
      </trkpt>
      <trkpt lat="40.208" lon="20.53709">
        <ele>1145.0699462891</ele>
        <time>2024-09-27T14:21:55.000Z</time>
      </trkpt>
      <trkpt lat="40.20805" lon="20.53711">
        <ele>1145.0699462891</ele>
        <time>2024-09-27T14:21:56.000Z</time>
      </trkpt>
      <trkpt lat="40.2081" lon="20.53714">
        <ele>1145.5500488281</ele>
        <time>2024-09-27T14:21:57.000Z</time>
      </trkpt>
      <trkpt lat="40.20814" lon="20.53717">
        <ele>1146.0300292969</ele>
        <time>2024-09-27T14:21:58.000Z</time>
      </trkpt>
      <trkpt lat="40.20822" lon="20.53723">
        <ele>1146.9899902344</ele>
        <time>2024-09-27T14:22:00.000Z</time>
      </trkpt>
      <trkpt lat="40.20827" lon="20.53725">
        <ele>1147.4699707031</ele>
        <time>2024-09-27T14:22:01.000Z</time>
      </trkpt>
      <trkpt lat="40.20833" lon="20.53728">
        <ele>1147.9499511719</ele>
        <time>2024-09-27T14:22:02.000Z</time>
      </trkpt>
      <trkpt lat="40.20837" lon="20.5373">
        <ele>1147.9499511719</ele>
        <time>2024-09-27T14:22:03.000Z</time>
      </trkpt>
      <trkpt lat="40.20841" lon="20.53732">
        <ele>1148.4300537109</ele>
        <time>2024-09-27T14:22:04.000Z</time>
      </trkpt>
      <trkpt lat="40.20847" lon="20.53734">
        <ele>1148.9100341797</ele>
        <time>2024-09-27T14:22:05.000Z</time>
      </trkpt>
      <trkpt lat="40.20851" lon="20.53735">
        <ele>1148.9100341797</ele>
        <time>2024-09-27T14:22:06.000Z</time>
      </trkpt>
      <trkpt lat="40.20856" lon="20.53734">
        <ele>1148.9100341797</ele>
        <time>2024-09-27T14:22:07.000Z</time>
      </trkpt>
      <trkpt lat="40.20861" lon="20.53734">
        <ele>1149.3900146484</ele>
        <time>2024-09-27T14:22:08.000Z</time>
      </trkpt>
      <trkpt lat="40.20865" lon="20.53736">
        <ele>1149.3900146484</ele>
        <time>2024-09-27T14:22:09.000Z</time>
      </trkpt>
      <trkpt lat="40.20868" lon="20.5374">
        <ele>1149.3900146484</ele>
        <time>2024-09-27T14:22:10.000Z</time>
      </trkpt>
      <trkpt lat="40.2087" lon="20.53745">
        <ele>1149.8699951172</ele>
        <time>2024-09-27T14:22:11.000Z</time>
      </trkpt>
      <trkpt lat="40.2087" lon="20.5375">
        <ele>1150.3499755859</ele>
        <time>2024-09-27T14:22:12.000Z</time>
      </trkpt>
      <trkpt lat="40.20871" lon="20.53756">
        <ele>1151.3199462891</ele>
        <time>2024-09-27T14:22:13.000Z</time>
      </trkpt>
      <trkpt lat="40.20873" lon="20.53764">
        <ele>1151.8000488281</ele>
        <time>2024-09-27T14:22:14.000Z</time>
      </trkpt>
      <trkpt lat="40.20875" lon="20.5377">
        <ele>1152.2800292969</ele>
        <time>2024-09-27T14:22:15.000Z</time>
      </trkpt>
      <trkpt lat="40.2088" lon="20.53785">
        <ele>1154.1999511719</ele>
        <time>2024-09-27T14:22:17.000Z</time>
      </trkpt>
      <trkpt lat="40.20881" lon="20.53788">
        <ele>1154.6800537109</ele>
        <time>2024-09-27T14:22:18.000Z</time>
      </trkpt>
      <trkpt lat="40.20882" lon="20.53793">
        <ele>1155.1600341797</ele>
        <time>2024-09-27T14:22:19.000Z</time>
      </trkpt>
      <trkpt lat="40.20882" lon="20.53799">
        <ele>1155.1600341797</ele>
        <time>2024-09-27T14:22:20.000Z</time>
      </trkpt>
      <trkpt lat="40.20882" lon="20.53805">
        <ele>1155.6400146484</ele>
        <time>2024-09-27T14:22:21.000Z</time>
      </trkpt>
      <trkpt lat="40.20881" lon="20.5381">
        <ele>1156.1199951172</ele>
        <time>2024-09-27T14:22:22.000Z</time>
      </trkpt>
      <trkpt lat="40.20878" lon="20.53817">
        <ele>1156.5999755859</ele>
        <time>2024-09-27T14:22:23.000Z</time>
      </trkpt>
      <trkpt lat="40.20876" lon="20.53823">
        <ele>1157.0799560547</ele>
        <time>2024-09-27T14:22:24.000Z</time>
      </trkpt>
      <trkpt lat="40.20873" lon="20.53827">
        <ele>1157.0799560547</ele>
        <time>2024-09-27T14:22:25.000Z</time>
      </trkpt>
      <trkpt lat="40.2087" lon="20.53834">
        <ele>1157.5600585938</ele>
        <time>2024-09-27T14:22:26.000Z</time>
      </trkpt>
      <trkpt lat="40.20867" lon="20.53838">
        <ele>1158.5300292969</ele>
        <time>2024-09-27T14:22:27.000Z</time>
      </trkpt>
      <trkpt lat="40.20872" lon="20.53866">
        <ele>1160.9300537109</ele>
        <time>2024-09-27T14:22:33.000Z</time>
      </trkpt>
      <trkpt lat="40.2089" lon="20.53884">
        <ele>1162.8499755859</ele>
        <time>2024-09-27T14:22:41.000Z</time>
      </trkpt>
      <trkpt lat="40.209" lon="20.53881">
        <ele>1162.8499755859</ele>
        <time>2024-09-27T14:22:44.000Z</time>
      </trkpt>
      <trkpt lat="40.20901" lon="20.53881">
        <ele>1162.8499755859</ele>
        <time>2024-09-27T14:22:45.000Z</time>
      </trkpt>
      <trkpt lat="40.20905" lon="20.53878">
        <ele>1162.8499755859</ele>
        <time>2024-09-27T14:22:46.000Z</time>
      </trkpt>
      <trkpt lat="40.20912" lon="20.53875">
        <ele>1163.8100585938</ele>
        <time>2024-09-27T14:22:53.000Z</time>
      </trkpt>
      <trkpt lat="40.20919" lon="20.53872">
        <ele>1164.7700195312</ele>
        <time>2024-09-27T14:30:38.000Z</time>
      </trkpt>
      <trkpt lat="40.20923" lon="20.53868">
        <ele>1164.7700195312</ele>
        <time>2024-09-27T14:30:39.000Z</time>
      </trkpt>
      <trkpt lat="40.20926" lon="20.53864">
        <ele>1165.2600097656</ele>
        <time>2024-09-27T14:30:40.000Z</time>
      </trkpt>
      <trkpt lat="40.20933" lon="20.53854">
        <ele>1165.7399902344</ele>
        <time>2024-09-27T14:30:42.000Z</time>
      </trkpt>
      <trkpt lat="40.20936" lon="20.5385">
        <ele>1165.7399902344</ele>
        <time>2024-09-27T14:30:43.000Z</time>
      </trkpt>
      <trkpt lat="40.20938" lon="20.53848">
        <ele>1166.2199707031</ele>
        <time>2024-09-27T14:30:44.000Z</time>
      </trkpt>
      <trkpt lat="40.20941" lon="20.53842">
        <ele>1166.2199707031</ele>
        <time>2024-09-27T14:30:45.000Z</time>
      </trkpt>
      <trkpt lat="40.20946" lon="20.53835">
        <ele>1167.1800537109</ele>
        <time>2024-09-27T14:30:46.000Z</time>
      </trkpt>
      <trkpt lat="40.20947" lon="20.53834">
        <ele>1167.6600341797</ele>
        <time>2024-09-27T14:30:47.000Z</time>
      </trkpt>
      <trkpt lat="40.20965" lon="20.53827">
        <ele>1167.6600341797</ele>
        <time>2024-09-27T14:30:54.000Z</time>
      </trkpt>
      <trkpt lat="40.20976" lon="20.53838">
        <ele>1170.0600585938</ele>
        <time>2024-09-27T14:44:45.000Z</time>
      </trkpt>
      <trkpt lat="40.20978" lon="20.53841">
        <ele>1170.5400390625</ele>
        <time>2024-09-27T14:44:46.000Z</time>
      </trkpt>
      <trkpt lat="40.20981" lon="20.53845">
        <ele>1171.5</ele>
        <time>2024-09-27T14:44:47.000Z</time>
      </trkpt>
      <trkpt lat="40.20983" lon="20.5385">
        <ele>1171.9799804688</ele>
        <time>2024-09-27T14:44:48.000Z</time>
      </trkpt>
      <trkpt lat="40.20987" lon="20.53855">
        <ele>1172.9499511719</ele>
        <time>2024-09-27T14:44:49.000Z</time>
      </trkpt>
      <trkpt lat="40.20991" lon="20.5386">
        <ele>1172.9499511719</ele>
        <time>2024-09-27T14:44:50.000Z</time>
      </trkpt>
      <trkpt lat="40.20995" lon="20.53865">
        <ele>1173.4300537109</ele>
        <time>2024-09-27T14:44:51.000Z</time>
      </trkpt>
      <trkpt lat="40.20999" lon="20.5387">
        <ele>1173.4300537109</ele>
        <time>2024-09-27T14:44:52.000Z</time>
      </trkpt>
      <trkpt lat="40.21003" lon="20.53875">
        <ele>1173.9100341797</ele>
        <time>2024-09-27T14:44:53.000Z</time>
      </trkpt>
      <trkpt lat="40.21007" lon="20.53881">
        <ele>1173.9100341797</ele>
        <time>2024-09-27T14:44:54.000Z</time>
      </trkpt>
      <trkpt lat="40.21011" lon="20.53887">
        <ele>1173.9100341797</ele>
        <time>2024-09-27T14:44:55.000Z</time>
      </trkpt>
      <trkpt lat="40.21014" lon="20.53897">
        <ele>1174.8699951172</ele>
        <time>2024-09-27T14:44:56.000Z</time>
      </trkpt>
      <trkpt lat="40.21016" lon="20.53902">
        <ele>1175.3499755859</ele>
        <time>2024-09-27T14:44:57.000Z</time>
      </trkpt>
      <trkpt lat="40.21019" lon="20.53909">
        <ele>1175.8299560547</ele>
        <time>2024-09-27T14:44:58.000Z</time>
      </trkpt>
      <trkpt lat="40.21022" lon="20.53916">
        <ele>1176.3100585938</ele>
        <time>2024-09-27T14:44:59.000Z</time>
      </trkpt>
      <trkpt lat="40.21026" lon="20.53922">
        <ele>1177.2700195312</ele>
        <time>2024-09-27T14:45:00.000Z</time>
      </trkpt>
      <trkpt lat="40.21029" lon="20.53927">
        <ele>1177.75</ele>
        <time>2024-09-27T14:45:01.000Z</time>
      </trkpt>
      <trkpt lat="40.21031" lon="20.53933">
        <ele>1178.2299804688</ele>
        <time>2024-09-27T14:45:02.000Z</time>
      </trkpt>
      <trkpt lat="40.21032" lon="20.53939">
        <ele>1178.2299804688</ele>
        <time>2024-09-27T14:45:03.000Z</time>
      </trkpt>
      <trkpt lat="40.21033" lon="20.53949">
        <ele>1178.2299804688</ele>
        <time>2024-09-27T14:45:04.000Z</time>
      </trkpt>
      <trkpt lat="40.21034" lon="20.53954">
        <ele>1177.75</ele>
        <time>2024-09-27T14:45:05.000Z</time>
      </trkpt>
      <trkpt lat="40.21035" lon="20.5396">
        <ele>1177.2700195312</ele>
        <time>2024-09-27T14:45:06.000Z</time>
      </trkpt>
      <trkpt lat="40.21037" lon="20.53969">
        <ele>1176.3100585938</ele>
        <time>2024-09-27T14:45:07.000Z</time>
      </trkpt>
      <trkpt lat="40.21039" lon="20.53976">
        <ele>1176.3100585938</ele>
        <time>2024-09-27T14:45:08.000Z</time>
      </trkpt>
      <trkpt lat="40.21043" lon="20.53984">
        <ele>1175.8299560547</ele>
        <time>2024-09-27T14:45:09.000Z</time>
      </trkpt>
      <trkpt lat="40.21046" lon="20.53991">
        <ele>1175.3499755859</ele>
        <time>2024-09-27T14:45:10.000Z</time>
      </trkpt>
      <trkpt lat="40.21049" lon="20.53996">
        <ele>1174.8699951172</ele>
        <time>2024-09-27T14:45:11.000Z</time>
      </trkpt>
      <trkpt lat="40.21056" lon="20.54002">
        <ele>1173.9100341797</ele>
        <time>2024-09-27T14:45:13.000Z</time>
      </trkpt>
      <trkpt lat="40.21058" lon="20.54003">
        <ele>1173.9100341797</ele>
        <time>2024-09-27T14:45:14.000Z</time>
      </trkpt>
      <trkpt lat="40.21064" lon="20.54007">
        <ele>1173.9100341797</ele>
        <time>2024-09-27T14:45:15.000Z</time>
      </trkpt>
      <trkpt lat="40.21069" lon="20.5401">
        <ele>1173.9100341797</ele>
        <time>2024-09-27T14:45:16.000Z</time>
      </trkpt>
      <trkpt lat="40.21073" lon="20.54012">
        <ele>1173.9100341797</ele>
        <time>2024-09-27T14:45:17.000Z</time>
      </trkpt>
      <trkpt lat="40.21076" lon="20.54015">
        <ele>1173.9100341797</ele>
        <time>2024-09-27T14:45:18.000Z</time>
      </trkpt>
      <trkpt lat="40.21079" lon="20.54017">
        <ele>1174.3900146484</ele>
        <time>2024-09-27T14:45:19.000Z</time>
      </trkpt>
      <trkpt lat="40.21081" lon="20.54029">
        <ele>1173.9100341797</ele>
        <time>2024-09-27T14:45:22.000Z</time>
      </trkpt>
      <trkpt lat="40.21079" lon="20.54036">
        <ele>1172.9499511719</ele>
        <time>2024-09-27T14:45:23.000Z</time>
      </trkpt>
      <trkpt lat="40.21077" lon="20.54043">
        <ele>1172.9499511719</ele>
        <time>2024-09-27T14:45:24.000Z</time>
      </trkpt>
      <trkpt lat="40.21075" lon="20.54049">
        <ele>1172.4699707031</ele>
        <time>2024-09-27T14:45:25.000Z</time>
      </trkpt>
      <trkpt lat="40.21074" lon="20.54055">
        <ele>1171.9799804688</ele>
        <time>2024-09-27T14:45:26.000Z</time>
      </trkpt>
      <trkpt lat="40.21073" lon="20.54061">
        <ele>1171.5</ele>
        <time>2024-09-27T14:45:27.000Z</time>
      </trkpt>
      <trkpt lat="40.21071" lon="20.54068">
        <ele>1171.5</ele>
        <time>2024-09-27T14:45:28.000Z</time>
      </trkpt>
      <trkpt lat="40.2107" lon="20.54075">
        <ele>1171.0200195312</ele>
        <time>2024-09-27T14:45:29.000Z</time>
      </trkpt>
      <trkpt lat="40.21068" lon="20.5408">
        <ele>1170.5400390625</ele>
        <time>2024-09-27T14:45:30.000Z</time>
      </trkpt>
      <trkpt lat="40.21065" lon="20.54088">
        <ele>1170.5400390625</ele>
        <time>2024-09-27T14:45:31.000Z</time>
      </trkpt>
      <trkpt lat="40.21063" lon="20.54093">
        <ele>1170.5400390625</ele>
        <time>2024-09-27T14:45:32.000Z</time>
      </trkpt>
      <trkpt lat="40.21058" lon="20.541">
        <ele>1171.0200195312</ele>
        <time>2024-09-27T14:45:33.000Z</time>
      </trkpt>
      <trkpt lat="40.21054" lon="20.54106">
        <ele>1171.5</ele>
        <time>2024-09-27T14:45:34.000Z</time>
      </trkpt>
      <trkpt lat="40.21048" lon="20.54114">
        <ele>1171.9799804688</ele>
        <time>2024-09-27T14:45:35.000Z</time>
      </trkpt>
      <trkpt lat="40.21042" lon="20.54122">
        <ele>1172.4699707031</ele>
        <time>2024-09-27T14:45:37.000Z</time>
      </trkpt>
      <trkpt lat="40.21037" lon="20.5413">
        <ele>1173.4300537109</ele>
        <time>2024-09-27T14:45:38.000Z</time>
      </trkpt>
      <trkpt lat="40.21034" lon="20.54134">
        <ele>1173.9100341797</ele>
        <time>2024-09-27T14:45:39.000Z</time>
      </trkpt>
      <trkpt lat="40.21029" lon="20.54138">
        <ele>1174.8699951172</ele>
        <time>2024-09-27T14:45:40.000Z</time>
      </trkpt>
      <trkpt lat="40.21025" lon="20.54141">
        <ele>1175.8299560547</ele>
        <time>2024-09-27T14:45:41.000Z</time>
      </trkpt>
      <trkpt lat="40.21021" lon="20.54147">
        <ele>1176.3100585938</ele>
        <time>2024-09-27T14:45:42.000Z</time>
      </trkpt>
      <trkpt lat="40.21017" lon="20.54153">
        <ele>1177.2700195312</ele>
        <time>2024-09-27T14:45:43.000Z</time>
      </trkpt>
      <trkpt lat="40.21014" lon="20.54159">
        <ele>1177.2700195312</ele>
        <time>2024-09-27T14:45:44.000Z</time>
      </trkpt>
      <trkpt lat="40.21011" lon="20.54167">
        <ele>1177.75</ele>
        <time>2024-09-27T14:45:45.000Z</time>
      </trkpt>
      <trkpt lat="40.21008" lon="20.54171">
        <ele>1178.2299804688</ele>
        <time>2024-09-27T14:45:46.000Z</time>
      </trkpt>
      <trkpt lat="40.20994" lon="20.54179">
        <ele>1179.6700439453</ele>
        <time>2024-09-27T14:45:50.000Z</time>
      </trkpt>
      <trkpt lat="40.20991" lon="20.54181">
        <ele>1179.6700439453</ele>
        <time>2024-09-27T14:45:51.000Z</time>
      </trkpt>
      <trkpt lat="40.20982" lon="20.54194">
        <ele>1180.6400146484</ele>
        <time>2024-09-27T14:45:54.000Z</time>
      </trkpt>
      <trkpt lat="40.20981" lon="20.54197">
        <ele>1180.6400146484</ele>
        <time>2024-09-27T14:45:55.000Z</time>
      </trkpt>
      <trkpt lat="40.20978" lon="20.54202">
        <ele>1180.6400146484</ele>
        <time>2024-09-27T14:45:56.000Z</time>
      </trkpt>
      <trkpt lat="40.20975" lon="20.54206">
        <ele>1181.1199951172</ele>
        <time>2024-09-27T14:45:57.000Z</time>
      </trkpt>
      <trkpt lat="40.20972" lon="20.5421">
        <ele>1181.5999755859</ele>
        <time>2024-09-27T14:45:58.000Z</time>
      </trkpt>
      <trkpt lat="40.20953" lon="20.54228">
        <ele>1184.4799804688</ele>
        <time>2024-09-27T14:46:05.000Z</time>
      </trkpt>
      <trkpt lat="40.20947" lon="20.54202">
        <ele>1187.8499755859</ele>
        <time>2024-09-27T14:46:11.000Z</time>
      </trkpt>
      <trkpt lat="40.20947" lon="20.542">
        <ele>1187.8499755859</ele>
        <time>2024-09-27T14:46:12.000Z</time>
      </trkpt>
      <trkpt lat="40.20951" lon="20.5419">
        <ele>1188.3299560547</ele>
        <time>2024-09-27T14:46:14.000Z</time>
      </trkpt>
      <trkpt lat="40.20953" lon="20.54184">
        <ele>1188.3299560547</ele>
        <time>2024-09-27T14:46:15.000Z</time>
      </trkpt>
      <trkpt lat="40.20955" lon="20.54179">
        <ele>1188.3299560547</ele>
        <time>2024-09-27T14:46:16.000Z</time>
      </trkpt>
      <trkpt lat="40.20958" lon="20.54173">
        <ele>1188.3299560547</ele>
        <time>2024-09-27T14:46:17.000Z</time>
      </trkpt>
      <trkpt lat="40.20962" lon="20.54164">
        <ele>1188.8100585938</ele>
        <time>2024-09-27T14:46:18.000Z</time>
      </trkpt>
      <trkpt lat="40.20963" lon="20.5416">
        <ele>1188.8100585938</ele>
        <time>2024-09-27T14:46:19.000Z</time>
      </trkpt>
      <trkpt lat="40.20966" lon="20.54153">
        <ele>1189.2900390625</ele>
        <time>2024-09-27T14:46:20.000Z</time>
      </trkpt>
      <trkpt lat="40.2097" lon="20.54142">
        <ele>1190.25</ele>
        <time>2024-09-27T14:46:21.000Z</time>
      </trkpt>
      <trkpt lat="40.2097" lon="20.5414">
        <ele>1190.25</ele>
        <time>2024-09-27T14:46:22.000Z</time>
      </trkpt>
      <trkpt lat="40.20972" lon="20.54134">
        <ele>1190.7299804688</ele>
        <time>2024-09-27T14:46:23.000Z</time>
      </trkpt>
      <trkpt lat="40.20974" lon="20.54128">
        <ele>1191.6899414062</ele>
        <time>2024-09-27T14:46:24.000Z</time>
      </trkpt>
      <trkpt lat="40.20977" lon="20.54122">
        <ele>1192.1700439453</ele>
        <time>2024-09-27T14:46:25.000Z</time>
      </trkpt>
      <trkpt lat="40.2098" lon="20.54118">
        <ele>1193.1300048828</ele>
        <time>2024-09-27T14:46:26.000Z</time>
      </trkpt>
      <trkpt lat="40.20983" lon="20.54114">
        <ele>1194.0899658203</ele>
        <time>2024-09-27T14:46:27.000Z</time>
      </trkpt>
      <trkpt lat="40.20985" lon="20.5411">
        <ele>1195.0600585938</ele>
        <time>2024-09-27T14:46:28.000Z</time>
      </trkpt>
      <trkpt lat="40.20987" lon="20.54104">
        <ele>1196.0200195312</ele>
        <time>2024-09-27T14:46:29.000Z</time>
      </trkpt>
      <trkpt lat="40.20986" lon="20.54098">
        <ele>1196.9799804688</ele>
        <time>2024-09-27T14:46:30.000Z</time>
      </trkpt>
      <trkpt lat="40.20984" lon="20.54092">
        <ele>1198.4200439453</ele>
        <time>2024-09-27T14:46:31.000Z</time>
      </trkpt>
      <trkpt lat="40.20981" lon="20.54088">
        <ele>1199.8599853516</ele>
        <time>2024-09-27T14:46:32.000Z</time>
      </trkpt>
      <trkpt lat="40.20976" lon="20.54087">
        <ele>1201.3000488281</ele>
        <time>2024-09-27T14:46:33.000Z</time>
      </trkpt>
      <trkpt lat="40.20972" lon="20.54088">
        <ele>1202.2700195312</ele>
        <time>2024-09-27T14:46:34.000Z</time>
      </trkpt>
      <trkpt lat="40.20967" lon="20.54091">
        <ele>1202.75</ele>
        <time>2024-09-27T14:46:35.000Z</time>
      </trkpt>
      <trkpt lat="40.20962" lon="20.54094">
        <ele>1203.2299804688</ele>
        <time>2024-09-27T14:46:36.000Z</time>
      </trkpt>
      <trkpt lat="40.20956" lon="20.54098">
        <ele>1204.1899414062</ele>
        <time>2024-09-27T14:46:37.000Z</time>
      </trkpt>
      <trkpt lat="40.20952" lon="20.541">
        <ele>1205.1500244141</ele>
        <time>2024-09-27T14:46:38.000Z</time>
      </trkpt>
      <trkpt lat="40.20948" lon="20.54102">
        <ele>1205.6300048828</ele>
        <time>2024-09-27T14:46:39.000Z</time>
      </trkpt>
      <trkpt lat="40.20943" lon="20.54105">
        <ele>1205.6300048828</ele>
        <time>2024-09-27T14:46:40.000Z</time>
      </trkpt>
      <trkpt lat="40.20937" lon="20.5411">
        <ele>1207.0699462891</ele>
        <time>2024-09-27T14:46:41.000Z</time>
      </trkpt>
      <trkpt lat="40.20928" lon="20.54117">
        <ele>1208.5100097656</ele>
        <time>2024-09-27T14:46:43.000Z</time>
      </trkpt>
      <trkpt lat="40.20925" lon="20.54119">
        <ele>1209</ele>
        <time>2024-09-27T14:46:44.000Z</time>
      </trkpt>
      <trkpt lat="40.20921" lon="20.54122">
        <ele>1209.4799804688</ele>
        <time>2024-09-27T14:46:45.000Z</time>
      </trkpt>
      <trkpt lat="40.20919" lon="20.54125">
        <ele>1209.9599609375</ele>
        <time>2024-09-27T14:46:46.000Z</time>
      </trkpt>
      <trkpt lat="40.20897" lon="20.54153">
        <ele>1210.9200439453</ele>
        <time>2024-09-27T14:46:55.000Z</time>
      </trkpt>
      <trkpt lat="40.20888" lon="20.54173">
        <ele>1209.4799804688</ele>
        <time>2024-09-27T14:47:01.000Z</time>
      </trkpt>
      <trkpt lat="40.20887" lon="20.54175">
        <ele>1209.4799804688</ele>
        <time>2024-09-27T14:47:02.000Z</time>
      </trkpt>
      <trkpt lat="40.20885" lon="20.5418">
        <ele>1209</ele>
        <time>2024-09-27T14:47:03.000Z</time>
      </trkpt>
      <trkpt lat="40.20883" lon="20.54185">
        <ele>1209</ele>
        <time>2024-09-27T14:47:04.000Z</time>
      </trkpt>
      <trkpt lat="40.20881" lon="20.54189">
        <ele>1209</ele>
        <time>2024-09-27T14:47:05.000Z</time>
      </trkpt>
      <trkpt lat="40.20866" lon="20.54206">
        <ele>1208.5100097656</ele>
        <time>2024-09-27T14:47:10.000Z</time>
      </trkpt>
      <trkpt lat="40.20864" lon="20.54208">
        <ele>1208.0300292969</ele>
        <time>2024-09-27T14:47:11.000Z</time>
      </trkpt>
      <trkpt lat="40.2086" lon="20.54211">
        <ele>1207.5500488281</ele>
        <time>2024-09-27T14:47:12.000Z</time>
      </trkpt>
      <trkpt lat="40.20857" lon="20.54215">
        <ele>1207.5500488281</ele>
        <time>2024-09-27T14:47:13.000Z</time>
      </trkpt>
      <trkpt lat="40.20854" lon="20.5422">
        <ele>1207.0699462891</ele>
        <time>2024-09-27T14:47:14.000Z</time>
      </trkpt>
      <trkpt lat="40.20852" lon="20.54223">
        <ele>1207.0699462891</ele>
        <time>2024-09-27T14:47:15.000Z</time>
      </trkpt>
      <trkpt lat="40.20848" lon="20.54231">
        <ele>1207.5500488281</ele>
        <time>2024-09-27T14:47:16.000Z</time>
      </trkpt>
      <trkpt lat="40.20847" lon="20.54233">
        <ele>1207.5500488281</ele>
        <time>2024-09-27T14:47:17.000Z</time>
      </trkpt>
      <trkpt lat="40.20846" lon="20.54239">
        <ele>1208.0300292969</ele>
        <time>2024-09-27T14:47:18.000Z</time>
      </trkpt>
      <trkpt lat="40.20845" lon="20.54244">
        <ele>1208.0300292969</ele>
        <time>2024-09-27T14:47:19.000Z</time>
      </trkpt>
      <trkpt lat="40.20844" lon="20.54252">
        <ele>1208.5100097656</ele>
        <time>2024-09-27T14:47:20.000Z</time>
      </trkpt>
      <trkpt lat="40.20843" lon="20.54256">
        <ele>1209</ele>
        <time>2024-09-27T14:47:21.000Z</time>
      </trkpt>
      <trkpt lat="40.20842" lon="20.54262">
        <ele>1209.4799804688</ele>
        <time>2024-09-27T14:47:22.000Z</time>
      </trkpt>
      <trkpt lat="40.2084" lon="20.54269">
        <ele>1209.9599609375</ele>
        <time>2024-09-27T14:47:23.000Z</time>
      </trkpt>
      <trkpt lat="40.20838" lon="20.54276">
        <ele>1210.9200439453</ele>
        <time>2024-09-27T14:47:24.000Z</time>
      </trkpt>
      <trkpt lat="40.20834" lon="20.5428">
        <ele>1211.8800048828</ele>
        <time>2024-09-27T14:47:25.000Z</time>
      </trkpt>
      <trkpt lat="40.20824" lon="20.54287">
        <ele>1212.8399658203</ele>
        <time>2024-09-27T14:47:32.000Z</time>
      </trkpt>
      <trkpt lat="40.20807" lon="20.54295">
        <ele>1213.8000488281</ele>
        <time>2024-09-27T14:47:50.000Z</time>
      </trkpt>
      <trkpt lat="40.20793" lon="20.5432">
        <ele>1213.8000488281</ele>
        <time>2024-09-27T14:47:58.000Z</time>
      </trkpt>
      <trkpt lat="40.20784" lon="20.54352">
        <ele>1213.8000488281</ele>
        <time>2024-09-27T14:48:06.000Z</time>
      </trkpt>
      <trkpt lat="40.20777" lon="20.54382">
        <ele>1212.3599853516</ele>
        <time>2024-09-27T14:48:16.000Z</time>
      </trkpt>
      <trkpt lat="40.20769" lon="20.54411">
        <ele>1211.4000244141</ele>
        <time>2024-09-27T14:48:25.000Z</time>
      </trkpt>
      <trkpt lat="40.20767" lon="20.54445">
        <ele>1212.3599853516</ele>
        <time>2024-09-27T14:48:33.000Z</time>
      </trkpt>
      <trkpt lat="40.20769" lon="20.54456">
        <ele>1212.3599853516</ele>
        <time>2024-09-27T14:48:35.000Z</time>
      </trkpt>
      <trkpt lat="40.2077" lon="20.54459">
        <ele>1212.8399658203</ele>
        <time>2024-09-27T14:48:36.000Z</time>
      </trkpt>
      <trkpt lat="40.20773" lon="20.54484">
        <ele>1215.2399902344</ele>
        <time>2024-09-27T14:48:42.000Z</time>
      </trkpt>
      <trkpt lat="40.20773" lon="20.54484">
        <ele>1215.7199707031</ele>
        <time>2024-09-27T14:49:01.000Z</time>
      </trkpt>
      <trkpt lat="40.20771" lon="20.54494">
        <ele>1216.2099609375</ele>
        <time>2024-09-27T14:50:15.000Z</time>
      </trkpt>
      <trkpt lat="40.20771" lon="20.54495">
        <ele>1216.2099609375</ele>
        <time>2024-09-27T14:50:16.000Z</time>
      </trkpt>
      <trkpt lat="40.20769" lon="20.545">
        <ele>1216.6899414062</ele>
        <time>2024-09-27T14:50:17.000Z</time>
      </trkpt>
      <trkpt lat="40.20767" lon="20.54506">
        <ele>1216.6899414062</ele>
        <time>2024-09-27T14:50:18.000Z</time>
      </trkpt>
      <trkpt lat="40.20763" lon="20.54518">
        <ele>1217.1700439453</ele>
        <time>2024-09-27T14:50:20.000Z</time>
      </trkpt>
      <trkpt lat="40.20761" lon="20.54523">
        <ele>1217.1700439453</ele>
        <time>2024-09-27T14:50:21.000Z</time>
      </trkpt>
      <trkpt lat="40.20759" lon="20.54531">
        <ele>1217.6500244141</ele>
        <time>2024-09-27T14:50:22.000Z</time>
      </trkpt>
      <trkpt lat="40.20758" lon="20.54538">
        <ele>1217.6500244141</ele>
        <time>2024-09-27T14:50:23.000Z</time>
      </trkpt>
      <trkpt lat="40.20757" lon="20.54542">
        <ele>1218.1300048828</ele>
        <time>2024-09-27T14:50:24.000Z</time>
      </trkpt>
      <trkpt lat="40.20755" lon="20.54549">
        <ele>1218.1300048828</ele>
        <time>2024-09-27T14:50:25.000Z</time>
      </trkpt>
      <trkpt lat="40.20754" lon="20.54556">
        <ele>1219.0899658203</ele>
        <time>2024-09-27T14:50:26.000Z</time>
      </trkpt>
      <trkpt lat="40.20753" lon="20.54562">
        <ele>1219.0899658203</ele>
        <time>2024-09-27T14:50:27.000Z</time>
      </trkpt>
      <trkpt lat="40.20752" lon="20.54566">
        <ele>1219.5699462891</ele>
        <time>2024-09-27T14:50:28.000Z</time>
      </trkpt>
      <trkpt lat="40.20751" lon="20.54572">
        <ele>1220.0500488281</ele>
        <time>2024-09-27T14:50:29.000Z</time>
      </trkpt>
      <trkpt lat="40.20749" lon="20.54578">
        <ele>1220.5300292969</ele>
        <time>2024-09-27T14:50:30.000Z</time>
      </trkpt>
      <trkpt lat="40.20748" lon="20.54583">
        <ele>1221.0100097656</ele>
        <time>2024-09-27T14:50:31.000Z</time>
      </trkpt>
      <trkpt lat="40.20747" lon="20.54588">
        <ele>1221.4899902344</ele>
        <time>2024-09-27T14:50:32.000Z</time>
      </trkpt>
      <trkpt lat="40.20746" lon="20.54593">
        <ele>1221.9699707031</ele>
        <time>2024-09-27T14:50:33.000Z</time>
      </trkpt>
      <trkpt lat="40.20744" lon="20.54599">
        <ele>1221.9699707031</ele>
        <time>2024-09-27T14:50:34.000Z</time>
      </trkpt>
      <trkpt lat="40.20743" lon="20.54604">
        <ele>1222.9300537109</ele>
        <time>2024-09-27T14:50:35.000Z</time>
      </trkpt>
      <trkpt lat="40.20743" lon="20.54612">
        <ele>1223.4200439453</ele>
        <time>2024-09-27T14:50:36.000Z</time>
      </trkpt>
      <trkpt lat="40.20742" lon="20.54614">
        <ele>1223.4200439453</ele>
        <time>2024-09-27T14:50:37.000Z</time>
      </trkpt>
      <trkpt lat="40.20741" lon="20.5462">
        <ele>1223.9000244141</ele>
        <time>2024-09-27T14:50:38.000Z</time>
      </trkpt>
      <trkpt lat="40.20739" lon="20.54625">
        <ele>1224.3800048828</ele>
        <time>2024-09-27T14:50:39.000Z</time>
      </trkpt>
      <trkpt lat="40.20738" lon="20.54631">
        <ele>1224.8599853516</ele>
        <time>2024-09-27T14:50:40.000Z</time>
      </trkpt>
      <trkpt lat="40.20736" lon="20.54637">
        <ele>1225.3399658203</ele>
        <time>2024-09-27T14:50:41.000Z</time>
      </trkpt>
      <trkpt lat="40.20734" lon="20.54642">
        <ele>1225.8199462891</ele>
        <time>2024-09-27T14:50:42.000Z</time>
      </trkpt>
      <trkpt lat="40.20732" lon="20.54647">
        <ele>1226.3000488281</ele>
        <time>2024-09-27T14:50:43.000Z</time>
      </trkpt>
      <trkpt lat="40.20729" lon="20.54656">
        <ele>1226.7800292969</ele>
        <time>2024-09-27T14:50:44.000Z</time>
      </trkpt>
      <trkpt lat="40.20728" lon="20.54659">
        <ele>1226.7800292969</ele>
        <time>2024-09-27T14:50:45.000Z</time>
      </trkpt>
      <trkpt lat="40.20725" lon="20.54664">
        <ele>1227.2600097656</ele>
        <time>2024-09-27T14:50:46.000Z</time>
      </trkpt>
      <trkpt lat="40.20723" lon="20.54668">
        <ele>1227.7399902344</ele>
        <time>2024-09-27T14:50:47.000Z</time>
      </trkpt>
      <trkpt lat="40.20717" lon="20.54681">
        <ele>1227.7399902344</ele>
        <time>2024-09-27T14:50:50.000Z</time>
      </trkpt>
      <trkpt lat="40.20716" lon="20.54686">
        <ele>1227.2600097656</ele>
        <time>2024-09-27T14:50:51.000Z</time>
      </trkpt>
      <trkpt lat="40.20715" lon="20.54692">
        <ele>1227.2600097656</ele>
        <time>2024-09-27T14:50:52.000Z</time>
      </trkpt>
      <trkpt lat="40.20714" lon="20.54698">
        <ele>1227.7399902344</ele>
        <time>2024-09-27T14:50:53.000Z</time>
      </trkpt>
      <trkpt lat="40.20707" lon="20.54721">
        <ele>1228.2199707031</ele>
        <time>2024-09-27T14:50:59.000Z</time>
      </trkpt>
      <trkpt lat="40.20693" lon="20.5475">
        <ele>1226.7800292969</ele>
        <time>2024-09-27T14:51:09.000Z</time>
      </trkpt>
      <trkpt lat="40.20684" lon="20.54774">
        <ele>1226.7800292969</ele>
        <time>2024-09-27T14:51:18.000Z</time>
      </trkpt>
      <trkpt lat="40.20667" lon="20.54787">
        <ele>1225.8199462891</ele>
        <time>2024-09-27T14:51:27.000Z</time>
      </trkpt>
      <trkpt lat="40.20665" lon="20.54808">
        <ele>1224.3800048828</ele>
        <time>2024-09-27T14:51:32.000Z</time>
      </trkpt>
      <trkpt lat="40.20665" lon="20.54815">
        <ele>1223.4200439453</ele>
        <time>2024-09-27T14:51:33.000Z</time>
      </trkpt>
      <trkpt lat="40.20668" lon="20.54835">
        <ele>1223.4200439453</ele>
        <time>2024-09-27T14:51:41.000Z</time>
      </trkpt>
      <trkpt lat="40.20667" lon="20.54849">
        <ele>1222.9300537109</ele>
        <time>2024-09-27T14:51:53.000Z</time>
      </trkpt>
      <trkpt lat="40.20671" lon="20.54864">
        <ele>1222.4499511719</ele>
        <time>2024-09-27T14:52:02.000Z</time>
      </trkpt>
      <trkpt lat="40.2067" lon="20.54897">
        <ele>1221.9699707031</ele>
        <time>2024-09-27T14:52:10.000Z</time>
      </trkpt>
      <trkpt lat="40.20653" lon="20.54908">
        <ele>1222.4499511719</ele>
        <time>2024-09-27T14:52:15.000Z</time>
      </trkpt>
      <trkpt lat="40.20651" lon="20.54908">
        <ele>1222.4499511719</ele>
        <time>2024-09-27T14:52:16.000Z</time>
      </trkpt>
      <trkpt lat="40.20647" lon="20.54909">
        <ele>1222.4499511719</ele>
        <time>2024-09-27T14:52:17.000Z</time>
      </trkpt>
      <trkpt lat="40.20643" lon="20.54933">
        <ele>1223.9000244141</ele>
        <time>2024-09-27T14:52:23.000Z</time>
      </trkpt>
      <trkpt lat="40.20645" lon="20.54936">
        <ele>1224.3800048828</ele>
        <time>2024-09-27T14:52:30.000Z</time>
      </trkpt>
      <trkpt lat="40.20645" lon="20.54936">
        <ele>1224.3800048828</ele>
        <time>2024-09-27T14:53:09.000Z</time>
      </trkpt>
      <trkpt lat="40.20646" lon="20.54947">
        <ele>1223.4200439453</ele>
        <time>2024-09-27T14:53:12.000Z</time>
      </trkpt>
      <trkpt lat="40.20646" lon="20.54952">
        <ele>1222.9300537109</ele>
        <time>2024-09-27T14:53:13.000Z</time>
      </trkpt>
      <trkpt lat="40.20645" lon="20.54954">
        <ele>1222.4499511719</ele>
        <time>2024-09-27T14:53:14.000Z</time>
      </trkpt>
      <trkpt lat="40.20644" lon="20.54961">
        <ele>1221.9699707031</ele>
        <time>2024-09-27T14:53:15.000Z</time>
      </trkpt>
      <trkpt lat="40.20644" lon="20.54968">
        <ele>1222.4499511719</ele>
        <time>2024-09-27T14:53:16.000Z</time>
      </trkpt>
      <trkpt lat="40.20643" lon="20.54976">
        <ele>1222.4499511719</ele>
        <time>2024-09-27T14:53:17.000Z</time>
      </trkpt>
      <trkpt lat="40.20642" lon="20.54982">
        <ele>1222.9300537109</ele>
        <time>2024-09-27T14:53:18.000Z</time>
      </trkpt>
      <trkpt lat="40.2064" lon="20.54989">
        <ele>1222.9300537109</ele>
        <time>2024-09-27T14:53:19.000Z</time>
      </trkpt>
      <trkpt lat="40.2064" lon="20.54995">
        <ele>1223.4200439453</ele>
        <time>2024-09-27T14:53:20.000Z</time>
      </trkpt>
      <trkpt lat="40.2064" lon="20.55002">
        <ele>1223.4200439453</ele>
        <time>2024-09-27T14:53:21.000Z</time>
      </trkpt>
      <trkpt lat="40.20641" lon="20.55011">
        <ele>1224.8599853516</ele>
        <time>2024-09-27T14:53:22.000Z</time>
      </trkpt>
      <trkpt lat="40.20641" lon="20.55016">
        <ele>1225.3399658203</ele>
        <time>2024-09-27T14:53:23.000Z</time>
      </trkpt>
      <trkpt lat="40.2064" lon="20.55022">
        <ele>1225.8199462891</ele>
        <time>2024-09-27T14:53:24.000Z</time>
      </trkpt>
      <trkpt lat="40.20638" lon="20.55028">
        <ele>1226.3000488281</ele>
        <time>2024-09-27T14:53:25.000Z</time>
      </trkpt>
      <trkpt lat="40.20635" lon="20.55033">
        <ele>1226.3000488281</ele>
        <time>2024-09-27T14:53:26.000Z</time>
      </trkpt>
      <trkpt lat="40.20632" lon="20.55038">
        <ele>1227.2600097656</ele>
        <time>2024-09-27T14:53:27.000Z</time>
      </trkpt>
      <trkpt lat="40.20631" lon="20.55043">
        <ele>1227.7399902344</ele>
        <time>2024-09-27T14:53:28.000Z</time>
      </trkpt>
      <trkpt lat="40.20628" lon="20.55049">
        <ele>1228.2199707031</ele>
        <time>2024-09-27T14:53:29.000Z</time>
      </trkpt>
      <trkpt lat="40.20624" lon="20.55054">
        <ele>1229.1800537109</ele>
        <time>2024-09-27T14:53:30.000Z</time>
      </trkpt>
      <trkpt lat="40.20621" lon="20.55057">
        <ele>1229.6600341797</ele>
        <time>2024-09-27T14:53:31.000Z</time>
      </trkpt>
      <trkpt lat="40.20617" lon="20.55061">
        <ele>1230.6199951172</ele>
        <time>2024-09-27T14:53:32.000Z</time>
      </trkpt>
      <trkpt lat="40.20613" lon="20.55067">
        <ele>1231.5899658203</ele>
        <time>2024-09-27T14:53:33.000Z</time>
      </trkpt>
      <trkpt lat="40.20608" lon="20.55072">
        <ele>1232.5500488281</ele>
        <time>2024-09-27T14:53:34.000Z</time>
      </trkpt>
      <trkpt lat="40.20606" lon="20.55075">
        <ele>1232.5500488281</ele>
        <time>2024-09-27T14:53:35.000Z</time>
      </trkpt>
      <trkpt lat="40.20603" lon="20.5508">
        <ele>1233.0300292969</ele>
        <time>2024-09-27T14:53:36.000Z</time>
      </trkpt>
      <trkpt lat="40.20599" lon="20.55086">
        <ele>1233.0300292969</ele>
        <time>2024-09-27T14:53:37.000Z</time>
      </trkpt>
      <trkpt lat="40.20598" lon="20.55091">
        <ele>1232.5500488281</ele>
        <time>2024-09-27T14:53:38.000Z</time>
      </trkpt>
      <trkpt lat="40.20596" lon="20.55097">
        <ele>1233.0300292969</ele>
        <time>2024-09-27T14:53:39.000Z</time>
      </trkpt>
      <trkpt lat="40.20586" lon="20.55112">
        <ele>1233.9899902344</ele>
        <time>2024-09-27T14:53:43.000Z</time>
      </trkpt>
      <trkpt lat="40.20579" lon="20.55113">
        <ele>1233.5100097656</ele>
        <time>2024-09-27T14:53:44.000Z</time>
      </trkpt>
      <trkpt lat="40.20577" lon="20.55114">
        <ele>1233.5100097656</ele>
        <time>2024-09-27T14:53:45.000Z</time>
      </trkpt>
      <trkpt lat="40.20569" lon="20.55116">
        <ele>1233.0300292969</ele>
        <time>2024-09-27T14:53:46.000Z</time>
      </trkpt>
      <trkpt lat="40.20567" lon="20.55117">
        <ele>1233.0300292969</ele>
        <time>2024-09-27T14:53:47.000Z</time>
      </trkpt>
      <trkpt lat="40.20556" lon="20.55119">
        <ele>1233.0300292969</ele>
        <time>2024-09-27T14:53:49.000Z</time>
      </trkpt>
      <trkpt lat="40.20549" lon="20.5512">
        <ele>1233.0300292969</ele>
        <time>2024-09-27T14:53:50.000Z</time>
      </trkpt>
      <trkpt lat="40.20547" lon="20.5512">
        <ele>1233.0300292969</ele>
        <time>2024-09-27T14:53:51.000Z</time>
      </trkpt>
      <trkpt lat="40.20542" lon="20.55122">
        <ele>1232.5500488281</ele>
        <time>2024-09-27T14:53:52.000Z</time>
      </trkpt>
      <trkpt lat="40.20538" lon="20.55124">
        <ele>1232.5500488281</ele>
        <time>2024-09-27T14:53:53.000Z</time>
      </trkpt>
      <trkpt lat="40.20511" lon="20.55122">
        <ele>1231.1099853516</ele>
        <time>2024-09-27T14:54:00.000Z</time>
      </trkpt>
      <trkpt lat="40.20491" lon="20.55116">
        <ele>1228.2199707031</ele>
        <time>2024-09-27T14:54:08.000Z</time>
      </trkpt>
      <trkpt lat="40.20486" lon="20.55122">
        <ele>1227.2600097656</ele>
        <time>2024-09-27T14:54:09.000Z</time>
      </trkpt>
      <trkpt lat="40.20483" lon="20.55128">
        <ele>1226.7800292969</ele>
        <time>2024-09-27T14:54:11.000Z</time>
      </trkpt>
      <trkpt lat="40.2048" lon="20.55132">
        <ele>1226.7800292969</ele>
        <time>2024-09-27T14:54:12.000Z</time>
      </trkpt>
      <trkpt lat="40.20477" lon="20.55135">
        <ele>1226.3000488281</ele>
        <time>2024-09-27T14:54:13.000Z</time>
      </trkpt>
      <trkpt lat="40.20473" lon="20.55137">
        <ele>1226.3000488281</ele>
        <time>2024-09-27T14:54:14.000Z</time>
      </trkpt>
      <trkpt lat="40.20469" lon="20.5514">
        <ele>1226.3000488281</ele>
        <time>2024-09-27T14:54:15.000Z</time>
      </trkpt>
      <trkpt lat="40.20452" lon="20.55148">
        <ele>1225.3399658203</ele>
        <time>2024-09-27T14:54:20.000Z</time>
      </trkpt>
      <trkpt lat="40.2043" lon="20.55158">
        <ele>1223.9000244141</ele>
        <time>2024-09-27T14:54:26.000Z</time>
      </trkpt>
      <trkpt lat="40.20427" lon="20.55157">
        <ele>1222.9300537109</ele>
        <time>2024-09-27T14:54:27.000Z</time>
      </trkpt>
      <trkpt lat="40.20422" lon="20.55156">
        <ele>1222.4499511719</ele>
        <time>2024-09-27T14:54:28.000Z</time>
      </trkpt>
      <trkpt lat="40.20418" lon="20.55155">
        <ele>1221.9699707031</ele>
        <time>2024-09-27T14:54:29.000Z</time>
      </trkpt>
      <trkpt lat="40.20413" lon="20.55156">
        <ele>1221.4899902344</ele>
        <time>2024-09-27T14:54:30.000Z</time>
      </trkpt>
      <trkpt lat="40.20408" lon="20.55157">
        <ele>1221.0100097656</ele>
        <time>2024-09-27T14:54:31.000Z</time>
      </trkpt>
      <trkpt lat="40.20392" lon="20.55166">
        <ele>1220.5300292969</ele>
        <time>2024-09-27T14:54:35.000Z</time>
      </trkpt>
      <trkpt lat="40.20388" lon="20.55168">
        <ele>1220.0500488281</ele>
        <time>2024-09-27T14:54:36.000Z</time>
      </trkpt>
      <trkpt lat="40.20376" lon="20.55174">
        <ele>1218.6099853516</ele>
        <time>2024-09-27T14:54:39.000Z</time>
      </trkpt>
      <trkpt lat="40.20373" lon="20.55175">
        <ele>1218.1300048828</ele>
        <time>2024-09-27T14:54:40.000Z</time>
      </trkpt>
      <trkpt lat="40.20368" lon="20.55178">
        <ele>1217.1700439453</ele>
        <time>2024-09-27T14:54:41.000Z</time>
      </trkpt>
      <trkpt lat="40.20364" lon="20.55179">
        <ele>1216.6899414062</ele>
        <time>2024-09-27T14:54:42.000Z</time>
      </trkpt>
      <trkpt lat="40.2036" lon="20.55181">
        <ele>1215.7199707031</ele>
        <time>2024-09-27T14:54:43.000Z</time>
      </trkpt>
      <trkpt lat="40.20355" lon="20.55182">
        <ele>1214.2800292969</ele>
        <time>2024-09-27T14:54:44.000Z</time>
      </trkpt>
      <trkpt lat="40.2035" lon="20.55183">
        <ele>1213.8000488281</ele>
        <time>2024-09-27T14:54:45.000Z</time>
      </trkpt>
      <trkpt lat="40.20346" lon="20.55184">
        <ele>1213.3199462891</ele>
        <time>2024-09-27T14:54:46.000Z</time>
      </trkpt>
      <trkpt lat="40.20341" lon="20.55187">
        <ele>1212.8399658203</ele>
        <time>2024-09-27T14:54:47.000Z</time>
      </trkpt>
      <trkpt lat="40.20338" lon="20.55191">
        <ele>1212.3599853516</ele>
        <time>2024-09-27T14:54:48.000Z</time>
      </trkpt>
      <trkpt lat="40.20331" lon="20.55201">
        <ele>1211.8800048828</ele>
        <time>2024-09-27T14:54:49.000Z</time>
      </trkpt>
      <trkpt lat="40.2033" lon="20.55205">
        <ele>1211.8800048828</ele>
        <time>2024-09-27T14:54:50.000Z</time>
      </trkpt>
      <trkpt lat="40.20328" lon="20.55209">
        <ele>1211.8800048828</ele>
        <time>2024-09-27T14:54:51.000Z</time>
      </trkpt>
      <trkpt lat="40.2032" lon="20.55219">
        <ele>1209.9599609375</ele>
        <time>2024-09-27T14:54:54.000Z</time>
      </trkpt>
      <trkpt lat="40.20317" lon="20.55222">
        <ele>1209</ele>
        <time>2024-09-27T14:54:55.000Z</time>
      </trkpt>
      <trkpt lat="40.2031" lon="20.55228">
        <ele>1208.0300292969</ele>
        <time>2024-09-27T14:54:56.000Z</time>
      </trkpt>
      <trkpt lat="40.20307" lon="20.5523">
        <ele>1207.5500488281</ele>
        <time>2024-09-27T14:54:57.000Z</time>
      </trkpt>
      <trkpt lat="40.20304" lon="20.55234">
        <ele>1206.5899658203</ele>
        <time>2024-09-27T14:54:58.000Z</time>
      </trkpt>
      <trkpt lat="40.203" lon="20.55237">
        <ele>1206.1099853516</ele>
        <time>2024-09-27T14:54:59.000Z</time>
      </trkpt>
      <trkpt lat="40.20296" lon="20.5524">
        <ele>1205.6300048828</ele>
        <time>2024-09-27T14:55:00.000Z</time>
      </trkpt>
      <trkpt lat="40.20292" lon="20.55243">
        <ele>1205.1500244141</ele>
        <time>2024-09-27T14:55:01.000Z</time>
      </trkpt>
      <trkpt lat="40.20289" lon="20.55247">
        <ele>1204.1899414062</ele>
        <time>2024-09-27T14:55:02.000Z</time>
      </trkpt>
      <trkpt lat="40.20285" lon="20.55252">
        <ele>1203.2299804688</ele>
        <time>2024-09-27T14:55:03.000Z</time>
      </trkpt>
      <trkpt lat="40.20281" lon="20.55258">
        <ele>1202.2700195312</ele>
        <time>2024-09-27T14:55:04.000Z</time>
      </trkpt>
      <trkpt lat="40.20278" lon="20.55262">
        <ele>1201.7900390625</ele>
        <time>2024-09-27T14:55:05.000Z</time>
      </trkpt>
      <trkpt lat="40.20275" lon="20.55267">
        <ele>1200.8199462891</ele>
        <time>2024-09-27T14:55:06.000Z</time>
      </trkpt>
      <trkpt lat="40.20271" lon="20.5527">
        <ele>1200.3399658203</ele>
        <time>2024-09-27T14:55:07.000Z</time>
      </trkpt>
      <trkpt lat="40.20268" lon="20.55274">
        <ele>1199.3800048828</ele>
        <time>2024-09-27T14:55:08.000Z</time>
      </trkpt>
      <trkpt lat="40.20264" lon="20.55278">
        <ele>1198.4200439453</ele>
        <time>2024-09-27T14:55:09.000Z</time>
      </trkpt>
      <trkpt lat="40.20259" lon="20.55282">
        <ele>1197.4599609375</ele>
        <time>2024-09-27T14:55:10.000Z</time>
      </trkpt>
      <trkpt lat="40.20253" lon="20.55286">
        <ele>1196.5</ele>
        <time>2024-09-27T14:55:11.000Z</time>
      </trkpt>
      <trkpt lat="40.2025" lon="20.55289">
        <ele>1196.0200195312</ele>
        <time>2024-09-27T14:55:12.000Z</time>
      </trkpt>
      <trkpt lat="40.20246" lon="20.55294">
        <ele>1195.5400390625</ele>
        <time>2024-09-27T14:55:13.000Z</time>
      </trkpt>
      <trkpt lat="40.20243" lon="20.55299">
        <ele>1195.5400390625</ele>
        <time>2024-09-27T14:55:14.000Z</time>
      </trkpt>
      <trkpt lat="40.2024" lon="20.55302">
        <ele>1195.5400390625</ele>
        <time>2024-09-27T14:55:15.000Z</time>
      </trkpt>
      <trkpt lat="40.20234" lon="20.55308">
        <ele>1195.5400390625</ele>
        <time>2024-09-27T14:55:21.000Z</time>
      </trkpt>
      <trkpt lat="40.20217" lon="20.55319">
        <ele>1195.0600585938</ele>
        <time>2024-09-27T14:55:29.000Z</time>
      </trkpt>
      <trkpt lat="40.20208" lon="20.55326">
        <ele>1195.5400390625</ele>
        <time>2024-09-27T14:55:32.000Z</time>
      </trkpt>
      <trkpt lat="40.20205" lon="20.55328">
        <ele>1195.5400390625</ele>
        <time>2024-09-27T14:55:33.000Z</time>
      </trkpt>
      <trkpt lat="40.202" lon="20.55333">
        <ele>1195.5400390625</ele>
        <time>2024-09-27T14:55:34.000Z</time>
      </trkpt>
      <trkpt lat="40.20198" lon="20.55335">
        <ele>1195.5400390625</ele>
        <time>2024-09-27T14:55:35.000Z</time>
      </trkpt>
      <trkpt lat="40.20178" lon="20.55354">
        <ele>1196.0200195312</ele>
        <time>2024-09-27T14:55:42.000Z</time>
      </trkpt>
      <trkpt lat="40.20175" lon="20.55356">
        <ele>1195.5400390625</ele>
        <time>2024-09-27T14:55:43.000Z</time>
      </trkpt>
      <trkpt lat="40.20171" lon="20.5536">
        <ele>1195.5400390625</ele>
        <time>2024-09-27T14:55:44.000Z</time>
      </trkpt>
      <trkpt lat="40.20168" lon="20.55362">
        <ele>1195.5400390625</ele>
        <time>2024-09-27T14:55:45.000Z</time>
      </trkpt>
      <trkpt lat="40.20151" lon="20.55386">
        <ele>1195.0600585938</ele>
        <time>2024-09-27T14:55:52.000Z</time>
      </trkpt>
      <trkpt lat="40.20133" lon="20.55408">
        <ele>1194.0899658203</ele>
        <time>2024-09-27T14:56:00.000Z</time>
      </trkpt>
      <trkpt lat="40.20119" lon="20.55422">
        <ele>1191.2099609375</ele>
        <time>2024-09-27T14:56:07.000Z</time>
      </trkpt>
      <trkpt lat="40.20109" lon="20.55429">
        <ele>1191.2099609375</ele>
        <time>2024-09-27T14:56:37.000Z</time>
      </trkpt>
      <trkpt lat="40.2009" lon="20.55444">
        <ele>1189.7700195312</ele>
        <time>2024-09-27T14:56:44.000Z</time>
      </trkpt>
      <trkpt lat="40.20087" lon="20.55449">
        <ele>1188.8100585938</ele>
        <time>2024-09-27T14:56:45.000Z</time>
      </trkpt>
      <trkpt lat="40.20084" lon="20.55455">
        <ele>1188.3299560547</ele>
        <time>2024-09-27T14:56:46.000Z</time>
      </trkpt>
      <trkpt lat="40.20082" lon="20.5546">
        <ele>1188.3299560547</ele>
        <time>2024-09-27T14:56:47.000Z</time>
      </trkpt>
      <trkpt lat="40.20079" lon="20.55463">
        <ele>1187.8499755859</ele>
        <time>2024-09-27T14:56:48.000Z</time>
      </trkpt>
      <trkpt lat="40.20074" lon="20.55468">
        <ele>1186.8800048828</ele>
        <time>2024-09-27T14:56:49.000Z</time>
      </trkpt>
      <trkpt lat="40.20071" lon="20.55469">
        <ele>1186.8800048828</ele>
        <time>2024-09-27T14:56:50.000Z</time>
      </trkpt>
      <trkpt lat="40.20052" lon="20.55492">
        <ele>1184.4799804688</ele>
        <time>2024-09-27T14:56:56.000Z</time>
      </trkpt>
      <trkpt lat="40.20049" lon="20.55494">
        <ele>1184</ele>
        <time>2024-09-27T14:56:57.000Z</time>
      </trkpt>
      <trkpt lat="40.20047" lon="20.55496">
        <ele>1183.5200195312</ele>
        <time>2024-09-27T14:56:58.000Z</time>
      </trkpt>
      <trkpt lat="40.20044" lon="20.555">
        <ele>1183.5200195312</ele>
        <time>2024-09-27T14:56:59.000Z</time>
      </trkpt>
      <trkpt lat="40.20026" lon="20.55527">
        <ele>1179.6700439453</ele>
        <time>2024-09-27T14:57:08.000Z</time>
      </trkpt>
      <trkpt lat="40.20015" lon="20.55543">
        <ele>1179.6700439453</ele>
        <time>2024-09-27T14:57:16.000Z</time>
      </trkpt>
      <trkpt lat="40.20004" lon="20.55558">
        <ele>1181.1199951172</ele>
        <time>2024-09-27T14:57:23.000Z</time>
      </trkpt>
      <trkpt lat="40.19997" lon="20.55574">
        <ele>1180.6400146484</ele>
        <time>2024-09-27T14:58:22.000Z</time>
      </trkpt>
      <trkpt lat="40.19984" lon="20.55591">
        <ele>1178.7099609375</ele>
        <time>2024-09-27T14:58:27.000Z</time>
      </trkpt>
      <trkpt lat="40.19982" lon="20.55592">
        <ele>1178.2299804688</ele>
        <time>2024-09-27T14:58:28.000Z</time>
      </trkpt>
      <trkpt lat="40.19978" lon="20.55595">
        <ele>1176.7900390625</ele>
        <time>2024-09-27T14:58:29.000Z</time>
      </trkpt>
      <trkpt lat="40.19973" lon="20.55598">
        <ele>1175.8299560547</ele>
        <time>2024-09-27T14:58:30.000Z</time>
      </trkpt>
      <trkpt lat="40.19967" lon="20.55601">
        <ele>1174.3900146484</ele>
        <time>2024-09-27T14:58:31.000Z</time>
      </trkpt>
      <trkpt lat="40.19961" lon="20.55605">
        <ele>1172.9499511719</ele>
        <time>2024-09-27T14:58:32.000Z</time>
      </trkpt>
      <trkpt lat="40.19954" lon="20.5561">
        <ele>1171.5</ele>
        <time>2024-09-27T14:58:33.000Z</time>
      </trkpt>
      <trkpt lat="40.1995" lon="20.55613">
        <ele>1171.0200195312</ele>
        <time>2024-09-27T14:58:34.000Z</time>
      </trkpt>
      <trkpt lat="40.19945" lon="20.55616">
        <ele>1170.0600585938</ele>
        <time>2024-09-27T14:58:35.000Z</time>
      </trkpt>
      <trkpt lat="40.1994" lon="20.5562">
        <ele>1169.0999755859</ele>
        <time>2024-09-27T14:58:36.000Z</time>
      </trkpt>
      <trkpt lat="40.19936" lon="20.55625">
        <ele>1168.6199951172</ele>
        <time>2024-09-27T14:58:37.000Z</time>
      </trkpt>
      <trkpt lat="40.19933" lon="20.5563">
        <ele>1168.1400146484</ele>
        <time>2024-09-27T14:58:38.000Z</time>
      </trkpt>
      <trkpt lat="40.1993" lon="20.55635">
        <ele>1167.6600341797</ele>
        <time>2024-09-27T14:58:39.000Z</time>
      </trkpt>
      <trkpt lat="40.19926" lon="20.5564">
        <ele>1166.6999511719</ele>
        <time>2024-09-27T14:58:40.000Z</time>
      </trkpt>
      <trkpt lat="40.19912" lon="20.55653">
        <ele>1164.2900390625</ele>
        <time>2024-09-27T14:58:44.000Z</time>
      </trkpt>
      <trkpt lat="40.19908" lon="20.55657">
        <ele>1163.3299560547</ele>
        <time>2024-09-27T14:58:46.000Z</time>
      </trkpt>
      <trkpt lat="40.19904" lon="20.55661">
        <ele>1161.8900146484</ele>
        <time>2024-09-27T14:58:47.000Z</time>
      </trkpt>
      <trkpt lat="40.199" lon="20.55665">
        <ele>1160.9300537109</ele>
        <time>2024-09-27T14:58:48.000Z</time>
      </trkpt>
      <trkpt lat="40.19895" lon="20.5567">
        <ele>1159.4899902344</ele>
        <time>2024-09-27T14:58:49.000Z</time>
      </trkpt>
      <trkpt lat="40.19891" lon="20.55673">
        <ele>1158.5300292969</ele>
        <time>2024-09-27T14:58:50.000Z</time>
      </trkpt>
      <trkpt lat="40.19886" lon="20.55678">
        <ele>1157.5600585938</ele>
        <time>2024-09-27T14:58:51.000Z</time>
      </trkpt>
      <trkpt lat="40.19884" lon="20.55681">
        <ele>1157.0799560547</ele>
        <time>2024-09-27T14:58:52.000Z</time>
      </trkpt>
      <trkpt lat="40.19878" lon="20.55686">
        <ele>1155.6400146484</ele>
        <time>2024-09-27T14:58:53.000Z</time>
      </trkpt>
      <trkpt lat="40.19876" lon="20.55688">
        <ele>1155.1600341797</ele>
        <time>2024-09-27T14:58:54.000Z</time>
      </trkpt>
      <trkpt lat="40.19872" lon="20.55691">
        <ele>1154.6800537109</ele>
        <time>2024-09-27T14:58:55.000Z</time>
      </trkpt>
      <trkpt lat="40.19868" lon="20.55693">
        <ele>1153.7199707031</ele>
        <time>2024-09-27T14:58:56.000Z</time>
      </trkpt>
      <trkpt lat="40.19844" lon="20.55699">
        <ele>1146.0300292969</ele>
        <time>2024-09-27T14:59:03.000Z</time>
      </trkpt>
      <trkpt lat="40.19842" lon="20.557">
        <ele>1145.5500488281</ele>
        <time>2024-09-27T14:59:04.000Z</time>
      </trkpt>
      <trkpt lat="40.19824" lon="20.5572">
        <ele>1139.7800292969</ele>
        <time>2024-09-27T14:59:10.000Z</time>
      </trkpt>
      <trkpt lat="40.19821" lon="20.55722">
        <ele>1138.8199462891</ele>
        <time>2024-09-27T14:59:11.000Z</time>
      </trkpt>
      <trkpt lat="40.19817" lon="20.55725">
        <ele>1137.8599853516</ele>
        <time>2024-09-27T14:59:12.000Z</time>
      </trkpt>
      <trkpt lat="40.19812" lon="20.5573">
        <ele>1136.9000244141</ele>
        <time>2024-09-27T14:59:13.000Z</time>
      </trkpt>
      <trkpt lat="40.19808" lon="20.55734">
        <ele>1135.9399414062</ele>
        <time>2024-09-27T14:59:14.000Z</time>
      </trkpt>
      <trkpt lat="40.19804" lon="20.55738">
        <ele>1135.4499511719</ele>
        <time>2024-09-27T14:59:15.000Z</time>
      </trkpt>
      <trkpt lat="40.19799" lon="20.55742">
        <ele>1134.0100097656</ele>
        <time>2024-09-27T14:59:16.000Z</time>
      </trkpt>
      <trkpt lat="40.19794" lon="20.55746">
        <ele>1133.5300292969</ele>
        <time>2024-09-27T14:59:17.000Z</time>
      </trkpt>
      <trkpt lat="40.19788" lon="20.55752">
        <ele>1132.5699462891</ele>
        <time>2024-09-27T14:59:18.000Z</time>
      </trkpt>
      <trkpt lat="40.19785" lon="20.55754">
        <ele>1132.0899658203</ele>
        <time>2024-09-27T14:59:19.000Z</time>
      </trkpt>
      <trkpt lat="40.19782" lon="20.55757">
        <ele>1131.6099853516</ele>
        <time>2024-09-27T14:59:20.000Z</time>
      </trkpt>
      <trkpt lat="40.19777" lon="20.55761">
        <ele>1131.1300048828</ele>
        <time>2024-09-27T14:59:21.000Z</time>
      </trkpt>
      <trkpt lat="40.19774" lon="20.55766">
        <ele>1130.6500244141</ele>
        <time>2024-09-27T14:59:22.000Z</time>
      </trkpt>
      <trkpt lat="40.19758" lon="20.55786">
        <ele>1127.2800292969</ele>
        <time>2024-09-27T14:59:29.000Z</time>
      </trkpt>
      <trkpt lat="40.19742" lon="20.55808">
        <ele>1122.9599609375</ele>
        <time>2024-09-27T14:59:36.000Z</time>
      </trkpt>
      <trkpt lat="40.1974" lon="20.55834">
        <ele>1119.1099853516</ele>
        <time>2024-09-27T14:59:44.000Z</time>
      </trkpt>
      <trkpt lat="40.1974" lon="20.55835">
        <ele>1119.1099853516</ele>
        <time>2024-09-27T15:00:01.000Z</time>
      </trkpt>
      <trkpt lat="40.19744" lon="20.55837">
        <ele>1119.1099853516</ele>
        <time>2024-09-27T15:05:03.000Z</time>
      </trkpt>
      <trkpt lat="40.19745" lon="20.55837">
        <ele>1119.1099853516</ele>
        <time>2024-09-27T15:05:06.000Z</time>
      </trkpt>
      <trkpt lat="40.19757" lon="20.55842">
        <ele>1117.6700439453</ele>
        <time>2024-09-27T15:05:11.000Z</time>
      </trkpt>
      <trkpt lat="40.19761" lon="20.55844">
        <ele>1117.1899414062</ele>
        <time>2024-09-27T15:05:12.000Z</time>
      </trkpt>
      <trkpt lat="40.19767" lon="20.55846">
        <ele>1116.2299804688</ele>
        <time>2024-09-27T15:05:13.000Z</time>
      </trkpt>
      <trkpt lat="40.19777" lon="20.55856">
        <ele>1114.7900390625</ele>
        <time>2024-09-27T15:05:20.000Z</time>
      </trkpt>
      <trkpt lat="40.19772" lon="20.55871">
        <ele>1113.8199462891</ele>
        <time>2024-09-27T15:12:51.000Z</time>
      </trkpt>
      <trkpt lat="40.19749" lon="20.55871">
        <ele>1109.0200195312</ele>
        <time>2024-09-27T15:12:58.000Z</time>
      </trkpt>
      <trkpt lat="40.19736" lon="20.5588">
        <ele>1105.6500244141</ele>
        <time>2024-09-27T15:13:02.000Z</time>
      </trkpt>
      <trkpt lat="40.1973" lon="20.55884">
        <ele>1104.2099609375</ele>
        <time>2024-09-27T15:13:03.000Z</time>
      </trkpt>
      <trkpt lat="40.19728" lon="20.55885">
        <ele>1104.2099609375</ele>
        <time>2024-09-27T15:13:04.000Z</time>
      </trkpt>
      <trkpt lat="40.19724" lon="20.55886">
        <ele>1103.25</ele>
        <time>2024-09-27T15:13:05.000Z</time>
      </trkpt>
      <trkpt lat="40.1972" lon="20.55887">
        <ele>1102.2900390625</ele>
        <time>2024-09-27T15:13:06.000Z</time>
      </trkpt>
      <trkpt lat="40.19716" lon="20.55888">
        <ele>1101.3299560547</ele>
        <time>2024-09-27T15:13:07.000Z</time>
      </trkpt>
      <trkpt lat="40.19712" lon="20.55889">
        <ele>1100.3699951172</ele>
        <time>2024-09-27T15:13:08.000Z</time>
      </trkpt>
      <trkpt lat="40.19706" lon="20.5589">
        <ele>1099.8900146484</ele>
        <time>2024-09-27T15:13:09.000Z</time>
      </trkpt>
      <trkpt lat="40.19703" lon="20.55891">
        <ele>1098.9200439453</ele>
        <time>2024-09-27T15:13:10.000Z</time>
      </trkpt>
      <trkpt lat="40.19699" lon="20.55893">
        <ele>1098.4399414062</ele>
        <time>2024-09-27T15:13:11.000Z</time>
      </trkpt>
      <trkpt lat="40.19684" lon="20.5591">
        <ele>1095.5600585938</ele>
        <time>2024-09-27T15:13:16.000Z</time>
      </trkpt>
      <trkpt lat="40.19669" lon="20.55931">
        <ele>1092.6800537109</ele>
        <time>2024-09-27T15:13:24.000Z</time>
      </trkpt>
      <trkpt lat="40.19656" lon="20.55953">
        <ele>1089.7900390625</ele>
        <time>2024-09-27T15:13:33.000Z</time>
      </trkpt>
      <trkpt lat="40.19642" lon="20.55971">
        <ele>1086.9100341797</ele>
        <time>2024-09-27T15:13:42.000Z</time>
      </trkpt>
      <trkpt lat="40.19621" lon="20.5599">
        <ele>1084.5</ele>
        <time>2024-09-27T15:13:52.000Z</time>
      </trkpt>
      <trkpt lat="40.19595" lon="20.56009">
        <ele>1084.0200195312</ele>
        <time>2024-09-27T15:14:00.000Z</time>
      </trkpt>
      <trkpt lat="40.19593" lon="20.5601">
        <ele>1083.5400390625</ele>
        <time>2024-09-27T15:14:01.000Z</time>
      </trkpt>
      <trkpt lat="40.19589" lon="20.56014">
        <ele>1083.0600585938</ele>
        <time>2024-09-27T15:14:02.000Z</time>
      </trkpt>
      <trkpt lat="40.19585" lon="20.5602">
        <ele>1082.5799560547</ele>
        <time>2024-09-27T15:14:03.000Z</time>
      </trkpt>
      <trkpt lat="40.19581" lon="20.56025">
        <ele>1082.0999755859</ele>
        <time>2024-09-27T15:14:05.000Z</time>
      </trkpt>
      <trkpt lat="40.19577" lon="20.5603">
        <ele>1082.0999755859</ele>
        <time>2024-09-27T15:14:06.000Z</time>
      </trkpt>
      <trkpt lat="40.19574" lon="20.56034">
        <ele>1081.6199951172</ele>
        <time>2024-09-27T15:14:07.000Z</time>
      </trkpt>
      <trkpt lat="40.19571" lon="20.56039">
        <ele>1081.6199951172</ele>
        <time>2024-09-27T15:14:08.000Z</time>
      </trkpt>
      <trkpt lat="40.19567" lon="20.56043">
        <ele>1081.1400146484</ele>
        <time>2024-09-27T15:14:09.000Z</time>
      </trkpt>
      <trkpt lat="40.1956" lon="20.5605">
        <ele>1080.1800537109</ele>
        <time>2024-09-27T15:14:11.000Z</time>
      </trkpt>
      <trkpt lat="40.19557" lon="20.56053">
        <ele>1079.6999511719</ele>
        <time>2024-09-27T15:14:12.000Z</time>
      </trkpt>
      <trkpt lat="40.1955" lon="20.56058">
        <ele>1078.2600097656</ele>
        <time>2024-09-27T15:14:13.000Z</time>
      </trkpt>
      <trkpt lat="40.19549" lon="20.5606">
        <ele>1078.2600097656</ele>
        <time>2024-09-27T15:14:14.000Z</time>
      </trkpt>
      <trkpt lat="40.19547" lon="20.56061">
        <ele>1077.7800292969</ele>
        <time>2024-09-27T15:14:15.000Z</time>
      </trkpt>
      <trkpt lat="40.19543" lon="20.56065">
        <ele>1076.8100585938</ele>
        <time>2024-09-27T15:14:16.000Z</time>
      </trkpt>
      <trkpt lat="40.19538" lon="20.56069">
        <ele>1076.3299560547</ele>
        <time>2024-09-27T15:14:17.000Z</time>
      </trkpt>
      <trkpt lat="40.19535" lon="20.56072">
        <ele>1075.8499755859</ele>
        <time>2024-09-27T15:14:18.000Z</time>
      </trkpt>
      <trkpt lat="40.19532" lon="20.56075">
        <ele>1075.3699951172</ele>
        <time>2024-09-27T15:14:19.000Z</time>
      </trkpt>
      <trkpt lat="40.19528" lon="20.56079">
        <ele>1074.8900146484</ele>
        <time>2024-09-27T15:14:20.000Z</time>
      </trkpt>
      <trkpt lat="40.19525" lon="20.56081">
        <ele>1074.4100341797</ele>
        <time>2024-09-27T15:14:21.000Z</time>
      </trkpt>
      <trkpt lat="40.1952" lon="20.56085">
        <ele>1074.4100341797</ele>
        <time>2024-09-27T15:14:22.000Z</time>
      </trkpt>
      <trkpt lat="40.19518" lon="20.56085">
        <ele>1074.4100341797</ele>
        <time>2024-09-27T15:14:23.000Z</time>
      </trkpt>
      <trkpt lat="40.19514" lon="20.56087">
        <ele>1074.4100341797</ele>
        <time>2024-09-27T15:14:24.000Z</time>
      </trkpt>
      <trkpt lat="40.19508" lon="20.5609">
        <ele>1073.9300537109</ele>
        <time>2024-09-27T15:14:25.000Z</time>
      </trkpt>
      <trkpt lat="40.19505" lon="20.56091">
        <ele>1073.4499511719</ele>
        <time>2024-09-27T15:14:26.000Z</time>
      </trkpt>
      <trkpt lat="40.19499" lon="20.56094">
        <ele>1073.4499511719</ele>
        <time>2024-09-27T15:14:27.000Z</time>
      </trkpt>
      <trkpt lat="40.19496" lon="20.56096">
        <ele>1072.9699707031</ele>
        <time>2024-09-27T15:14:28.000Z</time>
      </trkpt>
      <trkpt lat="40.19493" lon="20.56098">
        <ele>1072.9699707031</ele>
        <time>2024-09-27T15:14:29.000Z</time>
      </trkpt>
      <trkpt lat="40.19489" lon="20.56102">
        <ele>1072.4899902344</ele>
        <time>2024-09-27T15:14:30.000Z</time>
      </trkpt>
      <trkpt lat="40.19486" lon="20.56106">
        <ele>1072.4899902344</ele>
        <time>2024-09-27T15:14:31.000Z</time>
      </trkpt>
      <trkpt lat="40.19483" lon="20.56109">
        <ele>1072.0100097656</ele>
        <time>2024-09-27T15:14:32.000Z</time>
      </trkpt>
      <trkpt lat="40.19479" lon="20.56115">
        <ele>1071.5300292969</ele>
        <time>2024-09-27T15:14:33.000Z</time>
      </trkpt>
      <trkpt lat="40.19476" lon="20.56119">
        <ele>1071.0500488281</ele>
        <time>2024-09-27T15:14:34.000Z</time>
      </trkpt>
      <trkpt lat="40.19472" lon="20.56125">
        <ele>1070.5699462891</ele>
        <time>2024-09-27T15:14:35.000Z</time>
      </trkpt>
      <trkpt lat="40.19471" lon="20.56127">
        <ele>1070.0799560547</ele>
        <time>2024-09-27T15:14:36.000Z</time>
      </trkpt>
      <trkpt lat="40.19468" lon="20.56132">
        <ele>1070.0799560547</ele>
        <time>2024-09-27T15:14:37.000Z</time>
      </trkpt>
      <trkpt lat="40.19465" lon="20.56139">
        <ele>1069.1199951172</ele>
        <time>2024-09-27T15:14:38.000Z</time>
      </trkpt>
      <trkpt lat="40.19462" lon="20.56144">
        <ele>1069.1199951172</ele>
        <time>2024-09-27T15:14:39.000Z</time>
      </trkpt>
      <trkpt lat="40.19461" lon="20.56146">
        <ele>1068.6400146484</ele>
        <time>2024-09-27T15:14:40.000Z</time>
      </trkpt>
      <trkpt lat="40.19454" lon="20.5616">
        <ele>1067.1999511719</ele>
        <time>2024-09-27T15:14:48.000Z</time>
      </trkpt>
      <trkpt lat="40.19447" lon="20.56172">
        <ele>1066.7199707031</ele>
        <time>2024-09-27T15:17:28.000Z</time>
      </trkpt>
      <trkpt lat="40.19444" lon="20.56177">
        <ele>1066.7199707031</ele>
        <time>2024-09-27T15:17:29.000Z</time>
      </trkpt>
      <trkpt lat="40.19442" lon="20.56181">
        <ele>1066.7199707031</ele>
        <time>2024-09-27T15:17:30.000Z</time>
      </trkpt>
      <trkpt lat="40.1944" lon="20.56186">
        <ele>1066.7199707031</ele>
        <time>2024-09-27T15:17:31.000Z</time>
      </trkpt>
      <trkpt lat="40.19438" lon="20.56193">
        <ele>1066.2399902344</ele>
        <time>2024-09-27T15:17:32.000Z</time>
      </trkpt>
      <trkpt lat="40.19437" lon="20.56195">
        <ele>1065.7600097656</ele>
        <time>2024-09-27T15:17:33.000Z</time>
      </trkpt>
      <trkpt lat="40.19433" lon="20.562">
        <ele>1065.2800292969</ele>
        <time>2024-09-27T15:17:34.000Z</time>
      </trkpt>
      <trkpt lat="40.1943" lon="20.56205">
        <ele>1064.8000488281</ele>
        <time>2024-09-27T15:17:35.000Z</time>
      </trkpt>
      <trkpt lat="40.19426" lon="20.56211">
        <ele>1064.3199462891</ele>
        <time>2024-09-27T15:17:36.000Z</time>
      </trkpt>
      <trkpt lat="40.19421" lon="20.56221">
        <ele>1063.8399658203</ele>
        <time>2024-09-27T15:17:38.000Z</time>
      </trkpt>
      <trkpt lat="40.19419" lon="20.56226">
        <ele>1063.8399658203</ele>
        <time>2024-09-27T15:17:39.000Z</time>
      </trkpt>
      <trkpt lat="40.194" lon="20.56251">
        <ele>1060.4699707031</ele>
        <time>2024-09-27T15:17:46.000Z</time>
      </trkpt>
      <trkpt lat="40.19397" lon="20.56255">
        <ele>1059.9899902344</ele>
        <time>2024-09-27T15:17:47.000Z</time>
      </trkpt>
      <trkpt lat="40.19394" lon="20.56258">
        <ele>1059.9899902344</ele>
        <time>2024-09-27T15:17:48.000Z</time>
      </trkpt>
      <trkpt lat="40.19389" lon="20.56263">
        <ele>1059.5100097656</ele>
        <time>2024-09-27T15:17:49.000Z</time>
      </trkpt>
      <trkpt lat="40.19385" lon="20.56266">
        <ele>1059.0300292969</ele>
        <time>2024-09-27T15:17:50.000Z</time>
      </trkpt>
      <trkpt lat="40.19377" lon="20.56274">
        <ele>1058.5500488281</ele>
        <time>2024-09-27T15:17:51.000Z</time>
      </trkpt>
      <trkpt lat="40.19376" lon="20.56275">
        <ele>1058.5500488281</ele>
        <time>2024-09-27T15:17:52.000Z</time>
      </trkpt>
      <trkpt lat="40.19372" lon="20.56279">
        <ele>1057.5899658203</ele>
        <time>2024-09-27T15:17:53.000Z</time>
      </trkpt>
      <trkpt lat="40.19368" lon="20.56283">
        <ele>1057.5899658203</ele>
        <time>2024-09-27T15:17:54.000Z</time>
      </trkpt>
      <trkpt lat="40.19365" lon="20.56289">
        <ele>1057.5899658203</ele>
        <time>2024-09-27T15:17:55.000Z</time>
      </trkpt>
      <trkpt lat="40.19362" lon="20.56294">
        <ele>1057.5899658203</ele>
        <time>2024-09-27T15:17:56.000Z</time>
      </trkpt>
      <trkpt lat="40.19359" lon="20.563">
        <ele>1057.1099853516</ele>
        <time>2024-09-27T15:17:57.000Z</time>
      </trkpt>
      <trkpt lat="40.19354" lon="20.56307">
        <ele>1056.6300048828</ele>
        <time>2024-09-27T15:17:58.000Z</time>
      </trkpt>
      <trkpt lat="40.19351" lon="20.5631">
        <ele>1056.1500244141</ele>
        <time>2024-09-27T15:17:59.000Z</time>
      </trkpt>
      <trkpt lat="40.19345" lon="20.56318">
        <ele>1055.6700439453</ele>
        <time>2024-09-27T15:18:00.000Z</time>
      </trkpt>
      <trkpt lat="40.19344" lon="20.56319">
        <ele>1055.6700439453</ele>
        <time>2024-09-27T15:18:01.000Z</time>
      </trkpt>
      <trkpt lat="40.1934" lon="20.56324">
        <ele>1056.1500244141</ele>
        <time>2024-09-27T15:18:02.000Z</time>
      </trkpt>
      <trkpt lat="40.19336" lon="20.56328">
        <ele>1057.1099853516</ele>
        <time>2024-09-27T15:18:03.000Z</time>
      </trkpt>
      <trkpt lat="40.19333" lon="20.56331">
        <ele>1056.6300048828</ele>
        <time>2024-09-27T15:18:04.000Z</time>
      </trkpt>
      <trkpt lat="40.19329" lon="20.56334">
        <ele>1056.1500244141</ele>
        <time>2024-09-27T15:18:05.000Z</time>
      </trkpt>
      <trkpt lat="40.19325" lon="20.56338">
        <ele>1056.1500244141</ele>
        <time>2024-09-27T15:18:06.000Z</time>
      </trkpt>
      <trkpt lat="40.19322" lon="20.56343">
        <ele>1056.1500244141</ele>
        <time>2024-09-27T15:18:07.000Z</time>
      </trkpt>
      <trkpt lat="40.1932" lon="20.56349">
        <ele>1056.1500244141</ele>
        <time>2024-09-27T15:18:08.000Z</time>
      </trkpt>
      <trkpt lat="40.19318" lon="20.56356">
        <ele>1056.1500244141</ele>
        <time>2024-09-27T15:18:09.000Z</time>
      </trkpt>
      <trkpt lat="40.19316" lon="20.56368">
        <ele>1055.6700439453</ele>
        <time>2024-09-27T15:18:10.000Z</time>
      </trkpt>
      <trkpt lat="40.19315" lon="20.5637">
        <ele>1055.6700439453</ele>
        <time>2024-09-27T15:18:11.000Z</time>
      </trkpt>
      <trkpt lat="40.19313" lon="20.56375">
        <ele>1055.1800537109</ele>
        <time>2024-09-27T15:18:12.000Z</time>
      </trkpt>
      <trkpt lat="40.19311" lon="20.5638">
        <ele>1054.6999511719</ele>
        <time>2024-09-27T15:18:13.000Z</time>
      </trkpt>
      <trkpt lat="40.19307" lon="20.56385">
        <ele>1054.2199707031</ele>
        <time>2024-09-27T15:18:14.000Z</time>
      </trkpt>
      <trkpt lat="40.19304" lon="20.5639">
        <ele>1053.7399902344</ele>
        <time>2024-09-27T15:18:15.000Z</time>
      </trkpt>
      <trkpt lat="40.19301" lon="20.56395">
        <ele>1053.2600097656</ele>
        <time>2024-09-27T15:18:16.000Z</time>
      </trkpt>
      <trkpt lat="40.19297" lon="20.564">
        <ele>1052.3000488281</ele>
        <time>2024-09-27T15:18:17.000Z</time>
      </trkpt>
      <trkpt lat="40.19295" lon="20.56404">
        <ele>1051.8199462891</ele>
        <time>2024-09-27T15:18:18.000Z</time>
      </trkpt>
      <trkpt lat="40.19292" lon="20.5641">
        <ele>1050.8599853516</ele>
        <time>2024-09-27T15:18:19.000Z</time>
      </trkpt>
      <trkpt lat="40.19286" lon="20.56418">
        <ele>1049.9000244141</ele>
        <time>2024-09-27T15:18:20.000Z</time>
      </trkpt>
      <trkpt lat="40.19285" lon="20.56421">
        <ele>1049.4200439453</ele>
        <time>2024-09-27T15:18:21.000Z</time>
      </trkpt>
      <trkpt lat="40.1928" lon="20.56429">
        <ele>1048.4499511719</ele>
        <time>2024-09-27T15:18:22.000Z</time>
      </trkpt>
      <trkpt lat="40.19279" lon="20.56432">
        <ele>1047.9699707031</ele>
        <time>2024-09-27T15:18:23.000Z</time>
      </trkpt>
      <trkpt lat="40.19276" lon="20.56437">
        <ele>1047.4899902344</ele>
        <time>2024-09-27T15:18:24.000Z</time>
      </trkpt>
      <trkpt lat="40.19273" lon="20.56443">
        <ele>1046.5300292969</ele>
        <time>2024-09-27T15:18:25.000Z</time>
      </trkpt>
      <trkpt lat="40.19271" lon="20.56448">
        <ele>1045.5699462891</ele>
        <time>2024-09-27T15:18:26.000Z</time>
      </trkpt>
      <trkpt lat="40.19268" lon="20.56452">
        <ele>1044.6099853516</ele>
        <time>2024-09-27T15:18:27.000Z</time>
      </trkpt>
      <trkpt lat="40.1926" lon="20.56462">
        <ele>1042.2099609375</ele>
        <time>2024-09-27T15:18:29.000Z</time>
      </trkpt>
      <trkpt lat="40.19259" lon="20.56463">
        <ele>1041.7299804688</ele>
        <time>2024-09-27T15:18:30.000Z</time>
      </trkpt>
      <trkpt lat="40.19255" lon="20.56465">
        <ele>1040.7600097656</ele>
        <time>2024-09-27T15:18:31.000Z</time>
      </trkpt>
      <trkpt lat="40.1925" lon="20.56465">
        <ele>1039.8000488281</ele>
        <time>2024-09-27T15:18:32.000Z</time>
      </trkpt>
      <trkpt lat="40.19245" lon="20.56465">
        <ele>1038.8399658203</ele>
        <time>2024-09-27T15:18:33.000Z</time>
      </trkpt>
      <trkpt lat="40.19238" lon="20.56466">
        <ele>1037.8800048828</ele>
        <time>2024-09-27T15:18:34.000Z</time>
      </trkpt>
      <trkpt lat="40.19231" lon="20.56467">
        <ele>1037.4000244141</ele>
        <time>2024-09-27T15:18:35.000Z</time>
      </trkpt>
      <trkpt lat="40.19227" lon="20.56468">
        <ele>1037.4000244141</ele>
        <time>2024-09-27T15:18:36.000Z</time>
      </trkpt>
      <trkpt lat="40.19217" lon="20.5647">
        <ele>1036.9200439453</ele>
        <time>2024-09-27T15:18:37.000Z</time>
      </trkpt>
      <trkpt lat="40.19212" lon="20.56471">
        <ele>1036.4399414062</ele>
        <time>2024-09-27T15:18:38.000Z</time>
      </trkpt>
      <trkpt lat="40.19208" lon="20.56472">
        <ele>1035.9599609375</ele>
        <time>2024-09-27T15:18:39.000Z</time>
      </trkpt>
      <trkpt lat="40.19204" lon="20.56473">
        <ele>1035.9599609375</ele>
        <time>2024-09-27T15:18:40.000Z</time>
      </trkpt>
      <trkpt lat="40.19197" lon="20.56475">
        <ele>1035.9599609375</ele>
        <time>2024-09-27T15:18:41.000Z</time>
      </trkpt>
      <trkpt lat="40.1919" lon="20.56478">
        <ele>1035.4799804688</ele>
        <time>2024-09-27T15:18:42.000Z</time>
      </trkpt>
      <trkpt lat="40.19187" lon="20.5648">
        <ele>1035.4799804688</ele>
        <time>2024-09-27T15:18:43.000Z</time>
      </trkpt>
      <trkpt lat="40.19183" lon="20.56482">
        <ele>1035.4799804688</ele>
        <time>2024-09-27T15:18:44.000Z</time>
      </trkpt>
      <trkpt lat="40.19176" lon="20.56486">
        <ele>1035</ele>
        <time>2024-09-27T15:18:45.000Z</time>
      </trkpt>
      <trkpt lat="40.19171" lon="20.56489">
        <ele>1035</ele>
        <time>2024-09-27T15:18:46.000Z</time>
      </trkpt>
      <trkpt lat="40.19161" lon="20.56496">
        <ele>1034.5200195312</ele>
        <time>2024-09-27T15:18:48.000Z</time>
      </trkpt>
      <trkpt lat="40.19155" lon="20.565">
        <ele>1034.0400390625</ele>
        <time>2024-09-27T15:18:49.000Z</time>
      </trkpt>
      <trkpt lat="40.19151" lon="20.56505">
        <ele>1034.0400390625</ele>
        <time>2024-09-27T15:18:50.000Z</time>
      </trkpt>
      <trkpt lat="40.19148" lon="20.56508">
        <ele>1033.5500488281</ele>
        <time>2024-09-27T15:18:51.000Z</time>
      </trkpt>
      <trkpt lat="40.1914" lon="20.56513">
        <ele>1033.0699462891</ele>
        <time>2024-09-27T15:18:53.000Z</time>
      </trkpt>
      <trkpt lat="40.19136" lon="20.56513">
        <ele>1033.0699462891</ele>
        <time>2024-09-27T15:18:54.000Z</time>
      </trkpt>
      <trkpt lat="40.19132" lon="20.56514">
        <ele>1033.0699462891</ele>
        <time>2024-09-27T15:18:55.000Z</time>
      </trkpt>
      <trkpt lat="40.19127" lon="20.56516">
        <ele>1033.0699462891</ele>
        <time>2024-09-27T15:18:56.000Z</time>
      </trkpt>
      <trkpt lat="40.19122" lon="20.56518">
        <ele>1033.0699462891</ele>
        <time>2024-09-27T15:18:57.000Z</time>
      </trkpt>
      <trkpt lat="40.19119" lon="20.56521">
        <ele>1033.0699462891</ele>
        <time>2024-09-27T15:18:58.000Z</time>
      </trkpt>
      <trkpt lat="40.19115" lon="20.56525">
        <ele>1033.0699462891</ele>
        <time>2024-09-27T15:18:59.000Z</time>
      </trkpt>
      <trkpt lat="40.19095" lon="20.56539">
        <ele>1030.6700439453</ele>
        <time>2024-09-27T15:19:05.000Z</time>
      </trkpt>
      <trkpt lat="40.19095" lon="20.56539">
        <ele>1030.1899414062</ele>
        <time>2024-09-27T15:19:06.000Z</time>
      </trkpt>
      <trkpt lat="40.1909" lon="20.56538">
        <ele>1029.7099609375</ele>
        <time>2024-09-27T15:19:07.000Z</time>
      </trkpt>
      <trkpt lat="40.19084" lon="20.56538">
        <ele>1029.2299804688</ele>
        <time>2024-09-27T15:19:08.000Z</time>
      </trkpt>
      <trkpt lat="40.19075" lon="20.56538">
        <ele>1027.7900390625</ele>
        <time>2024-09-27T15:19:10.000Z</time>
      </trkpt>
      <trkpt lat="40.19069" lon="20.56538">
        <ele>1025.8599853516</ele>
        <time>2024-09-27T15:19:11.000Z</time>
      </trkpt>
      <trkpt lat="40.19065" lon="20.56537">
        <ele>1024.9000244141</ele>
        <time>2024-09-27T15:19:12.000Z</time>
      </trkpt>
      <trkpt lat="40.19059" lon="20.56537">
        <ele>1023.4600219727</ele>
        <time>2024-09-27T15:19:13.000Z</time>
      </trkpt>
      <trkpt lat="40.19053" lon="20.56539">
        <ele>1022.9799804688</ele>
        <time>2024-09-27T15:19:14.000Z</time>
      </trkpt>
      <trkpt lat="40.1905" lon="20.56541">
        <ele>1022.5</ele>
        <time>2024-09-27T15:19:15.000Z</time>
      </trkpt>
      <trkpt lat="40.19044" lon="20.56545">
        <ele>1022.0200195312</ele>
        <time>2024-09-27T15:19:16.000Z</time>
      </trkpt>
      <trkpt lat="40.19039" lon="20.56549">
        <ele>1021.0599975586</ele>
        <time>2024-09-27T15:19:17.000Z</time>
      </trkpt>
      <trkpt lat="40.19034" lon="20.56553">
        <ele>1020.5800170898</ele>
        <time>2024-09-27T15:19:18.000Z</time>
      </trkpt>
      <trkpt lat="40.19023" lon="20.56558">
        <ele>1018.6500244141</ele>
        <time>2024-09-27T15:19:20.000Z</time>
      </trkpt>
      <trkpt lat="40.19018" lon="20.5656">
        <ele>1018.1699829102</ele>
        <time>2024-09-27T15:19:21.000Z</time>
      </trkpt>
      <trkpt lat="40.19009" lon="20.56562">
        <ele>1016.7299804688</ele>
        <time>2024-09-27T15:19:22.000Z</time>
      </trkpt>
      <trkpt lat="40.19004" lon="20.56564">
        <ele>1015.7700195312</ele>
        <time>2024-09-27T15:19:23.000Z</time>
      </trkpt>
      <trkpt lat="40.18998" lon="20.56566">
        <ele>1015.2899780273</ele>
        <time>2024-09-27T15:19:24.000Z</time>
      </trkpt>
      <trkpt lat="40.18994" lon="20.56567">
        <ele>1014.8099975586</ele>
        <time>2024-09-27T15:19:25.000Z</time>
      </trkpt>
      <trkpt lat="40.18988" lon="20.56568">
        <ele>1013.8499755859</ele>
        <time>2024-09-27T15:19:26.000Z</time>
      </trkpt>
      <trkpt lat="40.18984" lon="20.56569">
        <ele>1013.3699951172</ele>
        <time>2024-09-27T15:19:27.000Z</time>
      </trkpt>
      <trkpt lat="40.18978" lon="20.56571">
        <ele>1012.4099731445</ele>
        <time>2024-09-27T15:19:28.000Z</time>
      </trkpt>
      <trkpt lat="40.18975" lon="20.56573">
        <ele>1011.9299926758</ele>
        <time>2024-09-27T15:19:29.000Z</time>
      </trkpt>
      <trkpt lat="40.18971" lon="20.56575">
        <ele>1010.9600219727</ele>
        <time>2024-09-27T15:19:30.000Z</time>
      </trkpt>
      <trkpt lat="40.1896" lon="20.56589">
        <ele>1007.1199951172</ele>
        <time>2024-09-27T15:19:34.000Z</time>
      </trkpt>
      <trkpt lat="40.18952" lon="20.56601">
        <ele>1004.2299804688</ele>
        <time>2024-09-27T15:19:37.000Z</time>
      </trkpt>
      <trkpt lat="40.18949" lon="20.56605">
        <ele>1003.2700195312</ele>
        <time>2024-09-27T15:19:38.000Z</time>
      </trkpt>
      <trkpt lat="40.18946" lon="20.56609">
        <ele>1002.7899780273</ele>
        <time>2024-09-27T15:19:39.000Z</time>
      </trkpt>
      <trkpt lat="40.18942" lon="20.56613">
        <ele>1002.3099975586</ele>
        <time>2024-09-27T15:19:40.000Z</time>
      </trkpt>
      <trkpt lat="40.18938" lon="20.56615">
        <ele>1001.3499755859</ele>
        <time>2024-09-27T15:19:41.000Z</time>
      </trkpt>
      <trkpt lat="40.18928" lon="20.56613">
        <ele>999.42999267578</ele>
        <time>2024-09-27T15:19:43.000Z</time>
      </trkpt>
      <trkpt lat="40.18925" lon="20.56612">
        <ele>998.95001220703</ele>
        <time>2024-09-27T15:19:44.000Z</time>
      </trkpt>
      <trkpt lat="40.1892" lon="20.56611">
        <ele>997.98999023438</ele>
        <time>2024-09-27T15:19:45.000Z</time>
      </trkpt>
      <trkpt lat="40.18914" lon="20.56611">
        <ele>996.53997802734</ele>
        <time>2024-09-27T15:19:46.000Z</time>
      </trkpt>
      <trkpt lat="40.18905" lon="20.5661">
        <ele>994.61999511719</ele>
        <time>2024-09-27T15:19:47.000Z</time>
      </trkpt>
      <trkpt lat="40.18896" lon="20.56608">
        <ele>992.21997070312</ele>
        <time>2024-09-27T15:19:48.000Z</time>
      </trkpt>
      <trkpt lat="40.18894" lon="20.56608">
        <ele>991.73999023438</ele>
        <time>2024-09-27T15:19:49.000Z</time>
      </trkpt>
      <trkpt lat="40.18887" lon="20.56607">
        <ele>990.29998779297</ele>
        <time>2024-09-27T15:19:50.000Z</time>
      </trkpt>
      <trkpt lat="40.1888" lon="20.56605">
        <ele>988.84997558594</ele>
        <time>2024-09-27T15:19:51.000Z</time>
      </trkpt>
      <trkpt lat="40.18872" lon="20.56602">
        <ele>987.40997314453</ele>
        <time>2024-09-27T15:19:52.000Z</time>
      </trkpt>
      <trkpt lat="40.18867" lon="20.566">
        <ele>986.45001220703</ele>
        <time>2024-09-27T15:19:53.000Z</time>
      </trkpt>
      <trkpt lat="40.18861" lon="20.56598">
        <ele>985.96997070312</ele>
        <time>2024-09-27T15:19:54.000Z</time>
      </trkpt>
      <trkpt lat="40.18855" lon="20.56596">
        <ele>985.48999023438</ele>
        <time>2024-09-27T15:19:55.000Z</time>
      </trkpt>
      <trkpt lat="40.18849" lon="20.56596">
        <ele>985.48999023438</ele>
        <time>2024-09-27T15:19:56.000Z</time>
      </trkpt>
      <trkpt lat="40.18843" lon="20.56597">
        <ele>985.01000976562</ele>
        <time>2024-09-27T15:19:57.000Z</time>
      </trkpt>
      <trkpt lat="40.1883" lon="20.56601">
        <ele>984.04998779297</ele>
        <time>2024-09-27T15:19:59.000Z</time>
      </trkpt>
      <trkpt lat="40.18825" lon="20.56603">
        <ele>984.04998779297</ele>
        <time>2024-09-27T15:20:00.000Z</time>
      </trkpt>
      <trkpt lat="40.18817" lon="20.56604">
        <ele>983.57000732422</ele>
        <time>2024-09-27T15:20:01.000Z</time>
      </trkpt>
      <trkpt lat="40.1881" lon="20.56606">
        <ele>983.57000732422</ele>
        <time>2024-09-27T15:20:02.000Z</time>
      </trkpt>
      <trkpt lat="40.18807" lon="20.56607">
        <ele>983.57000732422</ele>
        <time>2024-09-27T15:20:03.000Z</time>
      </trkpt>
      <trkpt lat="40.18801" lon="20.56609">
        <ele>983.57000732422</ele>
        <time>2024-09-27T15:20:04.000Z</time>
      </trkpt>
      <trkpt lat="40.18799" lon="20.56609">
        <ele>983.57000732422</ele>
        <time>2024-09-27T15:20:05.000Z</time>
      </trkpt>
      <trkpt lat="40.18796" lon="20.5661">
        <ele>983.09002685547</ele>
        <time>2024-09-27T15:20:06.000Z</time>
      </trkpt>
      <trkpt lat="40.18792" lon="20.56611">
        <ele>983.09002685547</ele>
        <time>2024-09-27T15:20:07.000Z</time>
      </trkpt>
      <trkpt lat="40.18788" lon="20.56612">
        <ele>983.57000732422</ele>
        <time>2024-09-27T15:20:08.000Z</time>
      </trkpt>
      <trkpt lat="40.18765" lon="20.56616">
        <ele>984.04998779297</ele>
        <time>2024-09-27T15:20:15.000Z</time>
      </trkpt>
      <trkpt lat="40.18733" lon="20.56609">
        <ele>980.20001220703</ele>
        <time>2024-09-27T15:20:25.000Z</time>
      </trkpt>
      <trkpt lat="40.1871" lon="20.56618">
        <ele>977.32000732422</ele>
        <time>2024-09-27T15:20:33.000Z</time>
      </trkpt>
      <trkpt lat="40.18682" lon="20.56628">
        <ele>971.07000732422</ele>
        <time>2024-09-27T15:20:44.000Z</time>
      </trkpt>
      <trkpt lat="40.18662" lon="20.56634">
        <ele>969.63000488281</ele>
        <time>2024-09-27T15:20:52.000Z</time>
      </trkpt>
      <trkpt lat="40.18643" lon="20.56645">
        <ele>968.66998291016</ele>
        <time>2024-09-27T15:21:02.000Z</time>
      </trkpt>
      <trkpt lat="40.18631" lon="20.56649">
        <ele>968.17999267578</ele>
        <time>2024-09-27T15:21:09.000Z</time>
      </trkpt>
      <trkpt lat="40.18622" lon="20.56646">
        <ele>966.26000976562</ele>
        <time>2024-09-27T15:21:11.000Z</time>
      </trkpt>
      <trkpt lat="40.1862" lon="20.56645">
        <ele>965.78002929688</ele>
        <time>2024-09-27T15:21:12.000Z</time>
      </trkpt>
      <trkpt lat="40.18616" lon="20.56643">
        <ele>964.82000732422</ele>
        <time>2024-09-27T15:21:13.000Z</time>
      </trkpt>
      <trkpt lat="40.18612" lon="20.56643">
        <ele>964.34002685547</ele>
        <time>2024-09-27T15:21:14.000Z</time>
      </trkpt>
      <trkpt lat="40.18608" lon="20.56643">
        <ele>963.38000488281</ele>
        <time>2024-09-27T15:21:15.000Z</time>
      </trkpt>
      <trkpt lat="40.18602" lon="20.56644">
        <ele>962.90002441406</ele>
        <time>2024-09-27T15:21:16.000Z</time>
      </trkpt>
      <trkpt lat="40.18597" lon="20.56646">
        <ele>961.94000244141</ele>
        <time>2024-09-27T15:21:17.000Z</time>
      </trkpt>
      <trkpt lat="40.18594" lon="20.56647">
        <ele>961.46002197266</ele>
        <time>2024-09-27T15:21:18.000Z</time>
      </trkpt>
      <trkpt lat="40.1859" lon="20.56646">
        <ele>960.97998046875</ele>
        <time>2024-09-27T15:21:19.000Z</time>
      </trkpt>
      <trkpt lat="40.1858" lon="20.56643">
        <ele>959.04998779297</ele>
        <time>2024-09-27T15:21:21.000Z</time>
      </trkpt>
      <trkpt lat="40.18577" lon="20.56643">
        <ele>958.57000732422</ele>
        <time>2024-09-27T15:21:22.000Z</time>
      </trkpt>
      <trkpt lat="40.1857" lon="20.56642">
        <ele>957.60998535156</ele>
        <time>2024-09-27T15:21:23.000Z</time>
      </trkpt>
      <trkpt lat="40.18566" lon="20.56642">
        <ele>956.65002441406</ele>
        <time>2024-09-27T15:21:24.000Z</time>
      </trkpt>
      <trkpt lat="40.18561" lon="20.56641">
        <ele>955.69000244141</ele>
        <time>2024-09-27T15:21:25.000Z</time>
      </trkpt>
      <trkpt lat="40.18559" lon="20.56641">
        <ele>955.69000244141</ele>
        <time>2024-09-27T15:21:26.000Z</time>
      </trkpt>
      <trkpt lat="40.18555" lon="20.5664">
        <ele>955.21002197266</ele>
        <time>2024-09-27T15:21:27.000Z</time>
      </trkpt>
      <trkpt lat="40.1855" lon="20.5664">
        <ele>954.25</ele>
        <time>2024-09-27T15:21:28.000Z</time>
      </trkpt>
      <trkpt lat="40.18545" lon="20.56642">
        <ele>953.28002929688</ele>
        <time>2024-09-27T15:21:29.000Z</time>
      </trkpt>
      <trkpt lat="40.1854" lon="20.56645">
        <ele>952.32000732422</ele>
        <time>2024-09-27T15:21:30.000Z</time>
      </trkpt>
      <trkpt lat="40.18533" lon="20.56649">
        <ele>950.40002441406</ele>
        <time>2024-09-27T15:21:31.000Z</time>
      </trkpt>
      <trkpt lat="40.18532" lon="20.56649">
        <ele>950.40002441406</ele>
        <time>2024-09-27T15:21:32.000Z</time>
      </trkpt>
      <trkpt lat="40.18524" lon="20.56654">
        <ele>948.47998046875</ele>
        <time>2024-09-27T15:21:33.000Z</time>
      </trkpt>
      <trkpt lat="40.18521" lon="20.56656">
        <ele>948</ele>
        <time>2024-09-27T15:21:34.000Z</time>
      </trkpt>
      <trkpt lat="40.18511" lon="20.56663">
        <ele>946.55999755859</ele>
        <time>2024-09-27T15:21:36.000Z</time>
      </trkpt>
      <trkpt lat="40.18505" lon="20.56666">
        <ele>946.07000732422</ele>
        <time>2024-09-27T15:21:37.000Z</time>
      </trkpt>
      <trkpt lat="40.18499" lon="20.56667">
        <ele>945.59002685547</ele>
        <time>2024-09-27T15:21:38.000Z</time>
      </trkpt>
      <trkpt lat="40.18492" lon="20.56667">
        <ele>945.10998535156</ele>
        <time>2024-09-27T15:21:39.000Z</time>
      </trkpt>
      <trkpt lat="40.18487" lon="20.56666">
        <ele>944.63000488281</ele>
        <time>2024-09-27T15:21:40.000Z</time>
      </trkpt>
      <trkpt lat="40.18481" lon="20.56665">
        <ele>944.15002441406</ele>
        <time>2024-09-27T15:21:41.000Z</time>
      </trkpt>
      <trkpt lat="40.18475" lon="20.56663">
        <ele>943.19000244141</ele>
        <time>2024-09-27T15:21:42.000Z</time>
      </trkpt>
      <trkpt lat="40.18467" lon="20.56662">
        <ele>942.71002197266</ele>
        <time>2024-09-27T15:21:43.000Z</time>
      </trkpt>
      <trkpt lat="40.18465" lon="20.56662">
        <ele>942.71002197266</ele>
        <time>2024-09-27T15:21:44.000Z</time>
      </trkpt>
      <trkpt lat="40.18458" lon="20.56662">
        <ele>941.75</ele>
        <time>2024-09-27T15:21:45.000Z</time>
      </trkpt>
      <trkpt lat="40.18454" lon="20.56662">
        <ele>941.27001953125</ele>
        <time>2024-09-27T15:21:46.000Z</time>
      </trkpt>
      <trkpt lat="40.18446" lon="20.56663">
        <ele>940.78997802734</ele>
        <time>2024-09-27T15:21:47.000Z</time>
      </trkpt>
      <trkpt lat="40.18443" lon="20.56663">
        <ele>940.30999755859</ele>
        <time>2024-09-27T15:21:48.000Z</time>
      </trkpt>
      <trkpt lat="40.18439" lon="20.56664">
        <ele>939.83001708984</ele>
        <time>2024-09-27T15:21:49.000Z</time>
      </trkpt>
      <trkpt lat="40.18435" lon="20.56663">
        <ele>939.34997558594</ele>
        <time>2024-09-27T15:21:50.000Z</time>
      </trkpt>
      <trkpt lat="40.1843" lon="20.56663">
        <ele>938.85998535156</ele>
        <time>2024-09-27T15:21:51.000Z</time>
      </trkpt>
      <trkpt lat="40.18423" lon="20.56664">
        <ele>937.90002441406</ele>
        <time>2024-09-27T15:21:53.000Z</time>
      </trkpt>
      <trkpt lat="40.18418" lon="20.56665">
        <ele>936.94000244141</ele>
        <time>2024-09-27T15:21:54.000Z</time>
      </trkpt>
      <trkpt lat="40.18414" lon="20.56667">
        <ele>935.97998046875</ele>
        <time>2024-09-27T15:21:55.000Z</time>
      </trkpt>
      <trkpt lat="40.18407" lon="20.56672">
        <ele>935.02001953125</ele>
        <time>2024-09-27T15:21:56.000Z</time>
      </trkpt>
      <trkpt lat="40.18405" lon="20.56674">
        <ele>935.02001953125</ele>
        <time>2024-09-27T15:21:57.000Z</time>
      </trkpt>
      <trkpt lat="40.184" lon="20.56677">
        <ele>934.53997802734</ele>
        <time>2024-09-27T15:21:58.000Z</time>
      </trkpt>
      <trkpt lat="40.18395" lon="20.5668">
        <ele>934.53997802734</ele>
        <time>2024-09-27T15:21:59.000Z</time>
      </trkpt>
      <trkpt lat="40.18391" lon="20.56681">
        <ele>934.53997802734</ele>
        <time>2024-09-27T15:22:00.000Z</time>
      </trkpt>
      <trkpt lat="40.18386" lon="20.56683">
        <ele>934.05999755859</ele>
        <time>2024-09-27T15:22:01.000Z</time>
      </trkpt>
      <trkpt lat="40.18382" lon="20.56683">
        <ele>933.58001708984</ele>
        <time>2024-09-27T15:22:02.000Z</time>
      </trkpt>
      <trkpt lat="40.18376" lon="20.56684">
        <ele>932.61999511719</ele>
        <time>2024-09-27T15:22:03.000Z</time>
      </trkpt>
      <trkpt lat="40.1837" lon="20.56684">
        <ele>931.65002441406</ele>
        <time>2024-09-27T15:22:04.000Z</time>
      </trkpt>
      <trkpt lat="40.18363" lon="20.56684">
        <ele>930.21002197266</ele>
        <time>2024-09-27T15:22:05.000Z</time>
      </trkpt>
      <trkpt lat="40.18356" lon="20.56685">
        <ele>929.25</ele>
        <time>2024-09-27T15:22:06.000Z</time>
      </trkpt>
      <trkpt lat="40.18349" lon="20.56687">
        <ele>928.28997802734</ele>
        <time>2024-09-27T15:22:07.000Z</time>
      </trkpt>
      <trkpt lat="40.18343" lon="20.56688">
        <ele>927.80999755859</ele>
        <time>2024-09-27T15:22:08.000Z</time>
      </trkpt>
      <trkpt lat="40.18341" lon="20.56689">
        <ele>927.80999755859</ele>
        <time>2024-09-27T15:22:09.000Z</time>
      </trkpt>
      <trkpt lat="40.18335" lon="20.5669">
        <ele>927.33001708984</ele>
        <time>2024-09-27T15:22:10.000Z</time>
      </trkpt>
      <trkpt lat="40.18331" lon="20.56693">
        <ele>926.84997558594</ele>
        <time>2024-09-27T15:22:11.000Z</time>
      </trkpt>
      <trkpt lat="40.18327" lon="20.56695">
        <ele>926.84997558594</ele>
        <time>2024-09-27T15:22:12.000Z</time>
      </trkpt>
      <trkpt lat="40.18304" lon="20.56706">
        <ele>926.84997558594</ele>
        <time>2024-09-27T15:22:19.000Z</time>
      </trkpt>
      <trkpt lat="40.18298" lon="20.56711">
        <ele>926.36999511719</ele>
        <time>2024-09-27T15:22:21.000Z</time>
      </trkpt>
      <trkpt lat="40.18294" lon="20.56713">
        <ele>926.36999511719</ele>
        <time>2024-09-27T15:22:22.000Z</time>
      </trkpt>
      <trkpt lat="40.18289" lon="20.56716">
        <ele>926.36999511719</ele>
        <time>2024-09-27T15:22:23.000Z</time>
      </trkpt>
      <trkpt lat="40.1828" lon="20.56722">
        <ele>927.33001708984</ele>
        <time>2024-09-27T15:22:30.000Z</time>
      </trkpt>
      <trkpt lat="40.18275" lon="20.56727">
        <ele>926.36999511719</ele>
        <time>2024-09-27T15:22:43.000Z</time>
      </trkpt>
      <trkpt lat="40.18271" lon="20.56732">
        <ele>925.40997314453</ele>
        <time>2024-09-27T15:22:44.000Z</time>
      </trkpt>
      <trkpt lat="40.18262" lon="20.56739">
        <ele>923</ele>
        <time>2024-09-27T15:22:46.000Z</time>
      </trkpt>
      <trkpt lat="40.18259" lon="20.56742">
        <ele>922.03997802734</ele>
        <time>2024-09-27T15:22:47.000Z</time>
      </trkpt>
      <trkpt lat="40.18253" lon="20.56748">
        <ele>920.11999511719</ele>
        <time>2024-09-27T15:22:48.000Z</time>
      </trkpt>
      <trkpt lat="40.18248" lon="20.56752">
        <ele>918.67999267578</ele>
        <time>2024-09-27T15:22:49.000Z</time>
      </trkpt>
      <trkpt lat="40.18243" lon="20.56757">
        <ele>917.23999023438</ele>
        <time>2024-09-27T15:22:50.000Z</time>
      </trkpt>
      <trkpt lat="40.18239" lon="20.5676">
        <ele>916.27001953125</ele>
        <time>2024-09-27T15:22:51.000Z</time>
      </trkpt>
      <trkpt lat="40.18234" lon="20.56765">
        <ele>915.30999755859</ele>
        <time>2024-09-27T15:22:52.000Z</time>
      </trkpt>
      <trkpt lat="40.1823" lon="20.56768">
        <ele>914.34997558594</ele>
        <time>2024-09-27T15:22:53.000Z</time>
      </trkpt>
      <trkpt lat="40.18211" lon="20.56771">
        <ele>912.90997314453</ele>
        <time>2024-09-27T15:22:58.000Z</time>
      </trkpt>
      <trkpt lat="40.1821" lon="20.56771">
        <ele>912.90997314453</ele>
        <time>2024-09-27T15:22:59.000Z</time>
      </trkpt>
      <trkpt lat="40.18204" lon="20.5677">
        <ele>912.42999267578</ele>
        <time>2024-09-27T15:23:00.000Z</time>
      </trkpt>
      <trkpt lat="40.18202" lon="20.5677">
        <ele>911.95001220703</ele>
        <time>2024-09-27T15:23:01.000Z</time>
      </trkpt>
      <trkpt lat="40.18197" lon="20.56772">
        <ele>910.98999023438</ele>
        <time>2024-09-27T15:23:02.000Z</time>
      </trkpt>
      <trkpt lat="40.18193" lon="20.56775">
        <ele>910.03002929688</ele>
        <time>2024-09-27T15:23:03.000Z</time>
      </trkpt>
      <trkpt lat="40.18187" lon="20.5678">
        <ele>908.58001708984</ele>
        <time>2024-09-27T15:23:04.000Z</time>
      </trkpt>
      <trkpt lat="40.18183" lon="20.56783">
        <ele>908.58001708984</ele>
        <time>2024-09-27T15:23:05.000Z</time>
      </trkpt>
      <trkpt lat="40.18178" lon="20.56788">
        <ele>908.09997558594</ele>
        <time>2024-09-27T15:23:06.000Z</time>
      </trkpt>
      <trkpt lat="40.18174" lon="20.56792">
        <ele>907.61999511719</ele>
        <time>2024-09-27T15:23:07.000Z</time>
      </trkpt>
      <trkpt lat="40.18169" lon="20.56801">
        <ele>907.61999511719</ele>
        <time>2024-09-27T15:23:08.000Z</time>
      </trkpt>
      <trkpt lat="40.18166" lon="20.56805">
        <ele>907.61999511719</ele>
        <time>2024-09-27T15:23:09.000Z</time>
      </trkpt>
      <trkpt lat="40.18164" lon="20.56808">
        <ele>907.14001464844</ele>
        <time>2024-09-27T15:23:10.000Z</time>
      </trkpt>
      <trkpt lat="40.18161" lon="20.56812">
        <ele>906.65997314453</ele>
        <time>2024-09-27T15:23:11.000Z</time>
      </trkpt>
      <trkpt lat="40.18157" lon="20.56815">
        <ele>905.70001220703</ele>
        <time>2024-09-27T15:23:12.000Z</time>
      </trkpt>
      <trkpt lat="40.18153" lon="20.56818">
        <ele>904.73999023438</ele>
        <time>2024-09-27T15:23:13.000Z</time>
      </trkpt>
      <trkpt lat="40.18148" lon="20.5682">
        <ele>902.82000732422</ele>
        <time>2024-09-27T15:23:14.000Z</time>
      </trkpt>
      <trkpt lat="40.1814" lon="20.56822">
        <ele>901.36999511719</ele>
        <time>2024-09-27T15:23:15.000Z</time>
      </trkpt>
      <trkpt lat="40.1813" lon="20.56822">
        <ele>899.92999267578</ele>
        <time>2024-09-27T15:23:16.000Z</time>
      </trkpt>
      <trkpt lat="40.18128" lon="20.56823">
        <ele>899.92999267578</ele>
        <time>2024-09-27T15:23:17.000Z</time>
      </trkpt>
      <trkpt lat="40.18123" lon="20.56823">
        <ele>899.45001220703</ele>
        <time>2024-09-27T15:23:18.000Z</time>
      </trkpt>
      <trkpt lat="40.1812" lon="20.56839">
        <ele>897.53002929688</ele>
        <time>2024-09-27T15:23:22.000Z</time>
      </trkpt>
      <trkpt lat="40.18121" lon="20.56839">
        <ele>897.04998779297</ele>
        <time>2024-09-27T15:23:23.000Z</time>
      </trkpt>
      <trkpt lat="40.18125" lon="20.56841">
        <ele>896.57000732422</ele>
        <time>2024-09-27T15:23:24.000Z</time>
      </trkpt>
      <trkpt lat="40.18132" lon="20.56842">
        <ele>895.60998535156</ele>
        <time>2024-09-27T15:23:25.000Z</time>
      </trkpt>
      <trkpt lat="40.18136" lon="20.56843">
        <ele>895.11999511719</ele>
        <time>2024-09-27T15:23:26.000Z</time>
      </trkpt>
      <trkpt lat="40.1814" lon="20.56845">
        <ele>895.11999511719</ele>
        <time>2024-09-27T15:23:27.000Z</time>
      </trkpt>
      <trkpt lat="40.18145" lon="20.56848">
        <ele>894.64001464844</ele>
        <time>2024-09-27T15:23:28.000Z</time>
      </trkpt>
      <trkpt lat="40.18149" lon="20.5685">
        <ele>894.64001464844</ele>
        <time>2024-09-27T15:23:29.000Z</time>
      </trkpt>
      <trkpt lat="40.18159" lon="20.56855">
        <ele>894.64001464844</ele>
        <time>2024-09-27T15:23:31.000Z</time>
      </trkpt>
      <trkpt lat="40.18164" lon="20.56858">
        <ele>895.11999511719</ele>
        <time>2024-09-27T15:23:32.000Z</time>
      </trkpt>
      <trkpt lat="40.18169" lon="20.5686">
        <ele>895.11999511719</ele>
        <time>2024-09-27T15:23:33.000Z</time>
      </trkpt>
      <trkpt lat="40.18176" lon="20.56861">
        <ele>895.11999511719</ele>
        <time>2024-09-27T15:23:35.000Z</time>
      </trkpt>
      <trkpt lat="40.18181" lon="20.5686">
        <ele>895.11999511719</ele>
        <time>2024-09-27T15:23:36.000Z</time>
      </trkpt>
      <trkpt lat="40.18186" lon="20.56859">
        <ele>895.11999511719</ele>
        <time>2024-09-27T15:23:37.000Z</time>
      </trkpt>
      <trkpt lat="40.18192" lon="20.56858">
        <ele>895.60998535156</ele>
        <time>2024-09-27T15:23:38.000Z</time>
      </trkpt>
      <trkpt lat="40.18196" lon="20.56858">
        <ele>896.09002685547</ele>
        <time>2024-09-27T15:23:39.000Z</time>
      </trkpt>
      <trkpt lat="40.182" lon="20.56859">
        <ele>896.09002685547</ele>
        <time>2024-09-27T15:23:40.000Z</time>
      </trkpt>
      <trkpt lat="40.18213" lon="20.56861">
        <ele>896.09002685547</ele>
        <time>2024-09-27T15:23:48.000Z</time>
      </trkpt>
      <trkpt lat="40.18215" lon="20.5686">
        <ele>896.57000732422</ele>
        <time>2024-09-27T15:23:52.000Z</time>
      </trkpt>
      <trkpt lat="40.18224" lon="20.5686">
        <ele>896.09002685547</ele>
        <time>2024-09-27T15:23:55.000Z</time>
      </trkpt>
      <trkpt lat="40.18227" lon="20.5686">
        <ele>896.09002685547</ele>
        <time>2024-09-27T15:23:56.000Z</time>
      </trkpt>
      <trkpt lat="40.18232" lon="20.5686">
        <ele>896.09002685547</ele>
        <time>2024-09-27T15:23:57.000Z</time>
      </trkpt>
      <trkpt lat="40.18236" lon="20.56859">
        <ele>895.60998535156</ele>
        <time>2024-09-27T15:23:58.000Z</time>
      </trkpt>
      <trkpt lat="40.18241" lon="20.56858">
        <ele>895.11999511719</ele>
        <time>2024-09-27T15:23:59.000Z</time>
      </trkpt>
      <trkpt lat="40.18247" lon="20.56855">
        <ele>894.64001464844</ele>
        <time>2024-09-27T15:24:00.000Z</time>
      </trkpt>
      <trkpt lat="40.18255" lon="20.5685">
        <ele>893.67999267578</ele>
        <time>2024-09-27T15:24:01.000Z</time>
      </trkpt>
      <trkpt lat="40.18261" lon="20.56848">
        <ele>893.20001220703</ele>
        <time>2024-09-27T15:24:02.000Z</time>
      </trkpt>
      <trkpt lat="40.18264" lon="20.56846">
        <ele>892.71997070312</ele>
        <time>2024-09-27T15:24:03.000Z</time>
      </trkpt>
      <trkpt lat="40.18269" lon="20.56845">
        <ele>891.76000976562</ele>
        <time>2024-09-27T15:24:04.000Z</time>
      </trkpt>
      <trkpt lat="40.18275" lon="20.56844">
        <ele>890.79998779297</ele>
        <time>2024-09-27T15:24:05.000Z</time>
      </trkpt>
      <trkpt lat="40.1828" lon="20.56843">
        <ele>890.32000732422</ele>
        <time>2024-09-27T15:24:06.000Z</time>
      </trkpt>
      <trkpt lat="40.18284" lon="20.56841">
        <ele>889.84002685547</ele>
        <time>2024-09-27T15:24:07.000Z</time>
      </trkpt>
      <trkpt lat="40.1829" lon="20.56855">
        <ele>889.35998535156</ele>
        <time>2024-09-27T15:24:12.000Z</time>
      </trkpt>
      <trkpt lat="40.1828" lon="20.56867">
        <ele>889.35998535156</ele>
        <time>2024-09-27T15:24:16.000Z</time>
      </trkpt>
      <trkpt lat="40.18278" lon="20.5687">
        <ele>889.35998535156</ele>
        <time>2024-09-27T15:24:17.000Z</time>
      </trkpt>
      <trkpt lat="40.18275" lon="20.56875">
        <ele>889.35998535156</ele>
        <time>2024-09-27T15:24:18.000Z</time>
      </trkpt>
      <trkpt lat="40.18273" lon="20.5688">
        <ele>889.35998535156</ele>
        <time>2024-09-27T15:24:19.000Z</time>
      </trkpt>
      <trkpt lat="40.1827" lon="20.56885">
        <ele>889.84002685547</ele>
        <time>2024-09-27T15:24:20.000Z</time>
      </trkpt>
      <trkpt lat="40.18266" lon="20.5689">
        <ele>890.32000732422</ele>
        <time>2024-09-27T15:24:21.000Z</time>
      </trkpt>
      <trkpt lat="40.18262" lon="20.56893">
        <ele>890.79998779297</ele>
        <time>2024-09-27T15:24:22.000Z</time>
      </trkpt>
      <trkpt lat="40.18255" lon="20.56902">
        <ele>890.79998779297</ele>
        <time>2024-09-27T15:24:24.000Z</time>
      </trkpt>
      <trkpt lat="40.18251" lon="20.56906">
        <ele>890.32000732422</ele>
        <time>2024-09-27T15:24:25.000Z</time>
      </trkpt>
      <trkpt lat="40.18248" lon="20.56911">
        <ele>889.84002685547</ele>
        <time>2024-09-27T15:24:26.000Z</time>
      </trkpt>
      <trkpt lat="40.18244" lon="20.56916">
        <ele>890.32000732422</ele>
        <time>2024-09-27T15:24:27.000Z</time>
      </trkpt>
      <trkpt lat="40.1824" lon="20.56919">
        <ele>890.79998779297</ele>
        <time>2024-09-27T15:24:28.000Z</time>
      </trkpt>
      <trkpt lat="40.18236" lon="20.56921">
        <ele>891.28002929688</ele>
        <time>2024-09-27T15:24:29.000Z</time>
      </trkpt>
      <trkpt lat="40.18232" lon="20.56924">
        <ele>891.76000976562</ele>
        <time>2024-09-27T15:24:30.000Z</time>
      </trkpt>
      <trkpt lat="40.18226" lon="20.56934">
        <ele>892.23999023438</ele>
        <time>2024-09-27T15:24:32.000Z</time>
      </trkpt>
      <trkpt lat="40.18225" lon="20.56937">
        <ele>892.23999023438</ele>
        <time>2024-09-27T15:24:33.000Z</time>
      </trkpt>
      <trkpt lat="40.18223" lon="20.56941">
        <ele>892.23999023438</ele>
        <time>2024-09-27T15:24:34.000Z</time>
      </trkpt>
      <trkpt lat="40.18222" lon="20.56946">
        <ele>892.23999023438</ele>
        <time>2024-09-27T15:24:35.000Z</time>
      </trkpt>
      <trkpt lat="40.18218" lon="20.56951">
        <ele>892.23999023438</ele>
        <time>2024-09-27T15:24:36.000Z</time>
      </trkpt>
      <trkpt lat="40.18206" lon="20.56962">
        <ele>892.71997070312</ele>
        <time>2024-09-27T15:24:38.000Z</time>
      </trkpt>
      <trkpt lat="40.18203" lon="20.56966">
        <ele>892.71997070312</ele>
        <time>2024-09-27T15:24:39.000Z</time>
      </trkpt>
      <trkpt lat="40.182" lon="20.56969">
        <ele>892.71997070312</ele>
        <time>2024-09-27T15:24:40.000Z</time>
      </trkpt>
      <trkpt lat="40.18195" lon="20.56976">
        <ele>893.67999267578</ele>
        <time>2024-09-27T15:24:41.000Z</time>
      </trkpt>
      <trkpt lat="40.18191" lon="20.56981">
        <ele>894.15997314453</ele>
        <time>2024-09-27T15:24:42.000Z</time>
      </trkpt>
      <trkpt lat="40.18186" lon="20.56989">
        <ele>895.11999511719</ele>
        <time>2024-09-27T15:24:43.000Z</time>
      </trkpt>
      <trkpt lat="40.18183" lon="20.56994">
        <ele>896.09002685547</ele>
        <time>2024-09-27T15:24:44.000Z</time>
      </trkpt>
      <trkpt lat="40.1818" lon="20.56999">
        <ele>896.09002685547</ele>
        <time>2024-09-27T15:24:45.000Z</time>
      </trkpt>
      <trkpt lat="40.18174" lon="20.57006">
        <ele>896.57000732422</ele>
        <time>2024-09-27T15:24:46.000Z</time>
      </trkpt>
      <trkpt lat="40.1817" lon="20.57011">
        <ele>897.04998779297</ele>
        <time>2024-09-27T15:24:47.000Z</time>
      </trkpt>
      <trkpt lat="40.18166" lon="20.57015">
        <ele>897.04998779297</ele>
        <time>2024-09-27T15:24:48.000Z</time>
      </trkpt>
      <trkpt lat="40.1816" lon="20.57021">
        <ele>897.53002929688</ele>
        <time>2024-09-27T15:24:49.000Z</time>
      </trkpt>
      <trkpt lat="40.18156" lon="20.57024">
        <ele>897.53002929688</ele>
        <time>2024-09-27T15:24:50.000Z</time>
      </trkpt>
      <trkpt lat="40.1815" lon="20.5703">
        <ele>898.01000976562</ele>
        <time>2024-09-27T15:24:51.000Z</time>
      </trkpt>
      <trkpt lat="40.18146" lon="20.57033">
        <ele>898.96997070312</ele>
        <time>2024-09-27T15:24:52.000Z</time>
      </trkpt>
      <trkpt lat="40.1814" lon="20.57039">
        <ele>899.92999267578</ele>
        <time>2024-09-27T15:24:53.000Z</time>
      </trkpt>
      <trkpt lat="40.18137" lon="20.57045">
        <ele>900.40997314453</ele>
        <time>2024-09-27T15:24:54.000Z</time>
      </trkpt>
      <trkpt lat="40.18133" lon="20.57053">
        <ele>901.36999511719</ele>
        <time>2024-09-27T15:24:55.000Z</time>
      </trkpt>
      <trkpt lat="40.1813" lon="20.5706">
        <ele>902.33001708984</ele>
        <time>2024-09-27T15:24:56.000Z</time>
      </trkpt>
      <trkpt lat="40.18126" lon="20.57066">
        <ele>902.82000732422</ele>
        <time>2024-09-27T15:24:57.000Z</time>
      </trkpt>
      <trkpt lat="40.18119" lon="20.57077">
        <ele>904.73999023438</ele>
        <time>2024-09-27T15:24:58.000Z</time>
      </trkpt>
      <trkpt lat="40.18118" lon="20.57079">
        <ele>904.73999023438</ele>
        <time>2024-09-27T15:24:59.000Z</time>
      </trkpt>
      <trkpt lat="40.18115" lon="20.57083">
        <ele>905.70001220703</ele>
        <time>2024-09-27T15:25:00.000Z</time>
      </trkpt>
      <trkpt lat="40.1811" lon="20.57087">
        <ele>906.65997314453</ele>
        <time>2024-09-27T15:25:01.000Z</time>
      </trkpt>
      <trkpt lat="40.18105" lon="20.57089">
        <ele>908.58001708984</ele>
        <time>2024-09-27T15:25:02.000Z</time>
      </trkpt>
      <trkpt lat="40.18099" lon="20.5709">
        <ele>910.03002929688</ele>
        <time>2024-09-27T15:25:03.000Z</time>
      </trkpt>
      <trkpt lat="40.18095" lon="20.57092">
        <ele>910.98999023438</ele>
        <time>2024-09-27T15:25:04.000Z</time>
      </trkpt>
      <trkpt lat="40.1809" lon="20.57095">
        <ele>911.95001220703</ele>
        <time>2024-09-27T15:25:05.000Z</time>
      </trkpt>
      <trkpt lat="40.18087" lon="20.57098">
        <ele>912.42999267578</ele>
        <time>2024-09-27T15:25:06.000Z</time>
      </trkpt>
      <trkpt lat="40.18084" lon="20.57102">
        <ele>912.90997314453</ele>
        <time>2024-09-27T15:25:07.000Z</time>
      </trkpt>
      <trkpt lat="40.1808" lon="20.57108">
        <ele>912.90997314453</ele>
        <time>2024-09-27T15:25:08.000Z</time>
      </trkpt>
      <trkpt lat="40.18076" lon="20.57113">
        <ele>912.90997314453</ele>
        <time>2024-09-27T15:25:09.000Z</time>
      </trkpt>
      <trkpt lat="40.18074" lon="20.57116">
        <ele>912.42999267578</ele>
        <time>2024-09-27T15:25:10.000Z</time>
      </trkpt>
      <trkpt lat="40.18053" lon="20.57134">
        <ele>909.53997802734</ele>
        <time>2024-09-27T15:25:19.000Z</time>
      </trkpt>
      <trkpt lat="40.18025" lon="20.57128">
        <ele>910.03002929688</ele>
        <time>2024-09-27T15:25:27.000Z</time>
      </trkpt>
      <trkpt lat="40.18002" lon="20.57117">
        <ele>910.03002929688</ele>
        <time>2024-09-27T15:25:35.000Z</time>
      </trkpt>
      <trkpt lat="40.17977" lon="20.5713">
        <ele>907.61999511719</ele>
        <time>2024-09-27T15:25:43.000Z</time>
      </trkpt>
      <trkpt lat="40.17973" lon="20.57133">
        <ele>907.14001464844</ele>
        <time>2024-09-27T15:25:44.000Z</time>
      </trkpt>
      <trkpt lat="40.17969" lon="20.57134">
        <ele>906.65997314453</ele>
        <time>2024-09-27T15:25:45.000Z</time>
      </trkpt>
      <trkpt lat="40.1796" lon="20.57132">
        <ele>906.17999267578</ele>
        <time>2024-09-27T15:25:47.000Z</time>
      </trkpt>
      <trkpt lat="40.17957" lon="20.5713">
        <ele>905.70001220703</ele>
        <time>2024-09-27T15:25:48.000Z</time>
      </trkpt>
      <trkpt lat="40.17944" lon="20.57121">
        <ele>904.26000976562</ele>
        <time>2024-09-27T15:25:51.000Z</time>
      </trkpt>
      <trkpt lat="40.17939" lon="20.57117">
        <ele>904.26000976562</ele>
        <time>2024-09-27T15:25:53.000Z</time>
      </trkpt>
      <trkpt lat="40.17936" lon="20.57115">
        <ele>903.78002929688</ele>
        <time>2024-09-27T15:25:54.000Z</time>
      </trkpt>
      <trkpt lat="40.17918" lon="20.57082">
        <ele>902.82000732422</ele>
        <time>2024-09-27T15:26:02.000Z</time>
      </trkpt>
      <trkpt lat="40.17916" lon="20.57076">
        <ele>903.29998779297</ele>
        <time>2024-09-27T15:26:10.000Z</time>
      </trkpt>
      <trkpt lat="40.17914" lon="20.57073">
        <ele>903.78002929688</ele>
        <time>2024-09-27T15:26:44.000Z</time>
      </trkpt>
      <trkpt lat="40.17914" lon="20.57073">
        <ele>903.78002929688</ele>
        <time>2024-09-27T15:26:56.000Z</time>
      </trkpt>
      <trkpt lat="40.17914" lon="20.57076">
        <ele>903.29998779297</ele>
        <time>2024-09-27T15:27:10.000Z</time>
      </trkpt>
      <trkpt lat="40.17915" lon="20.57078">
        <ele>903.29998779297</ele>
        <time>2024-09-27T15:27:21.000Z</time>
      </trkpt>
      <trkpt lat="40.1792" lon="20.57089">
        <ele>903.78002929688</ele>
        <time>2024-09-27T15:27:44.000Z</time>
      </trkpt>
      <trkpt lat="40.1792" lon="20.57089">
        <ele>903.78002929688</ele>
        <time>2024-09-27T15:27:45.000Z</time>
      </trkpt>
      <trkpt lat="40.17924" lon="20.57099">
        <ele>903.78002929688</ele>
        <time>2024-09-27T15:27:46.000Z</time>
      </trkpt>
      <trkpt lat="40.17925" lon="20.57102">
        <ele>903.78002929688</ele>
        <time>2024-09-27T15:27:47.000Z</time>
      </trkpt>
      <trkpt lat="40.17927" lon="20.57105">
        <ele>903.78002929688</ele>
        <time>2024-09-27T15:27:48.000Z</time>
      </trkpt>
      <trkpt lat="40.1793" lon="20.5711">
        <ele>904.26000976562</ele>
        <time>2024-09-27T15:27:49.000Z</time>
      </trkpt>
      <trkpt lat="40.17931" lon="20.5714">
        <ele>905.70001220703</ele>
        <time>2024-09-27T15:27:57.000Z</time>
      </trkpt>
      <trkpt lat="40.17913" lon="20.57155">
        <ele>903.78002929688</ele>
        <time>2024-09-27T15:28:06.000Z</time>
      </trkpt>
      <trkpt lat="40.17913" lon="20.57169">
        <ele>903.29998779297</ele>
        <time>2024-09-27T15:28:17.000Z</time>
      </trkpt>
      <trkpt lat="40.17915" lon="20.57178">
        <ele>902.82000732422</ele>
        <time>2024-09-27T15:28:19.000Z</time>
      </trkpt>
      <trkpt lat="40.17918" lon="20.57181">
        <ele>902.33001708984</ele>
        <time>2024-09-27T15:28:20.000Z</time>
      </trkpt>
      <trkpt lat="40.17921" lon="20.57185">
        <ele>901.84997558594</ele>
        <time>2024-09-27T15:28:21.000Z</time>
      </trkpt>
      <trkpt lat="40.17925" lon="20.57188">
        <ele>901.84997558594</ele>
        <time>2024-09-27T15:28:22.000Z</time>
      </trkpt>
      <trkpt lat="40.17929" lon="20.5719">
        <ele>901.84997558594</ele>
        <time>2024-09-27T15:28:23.000Z</time>
      </trkpt>
      <trkpt lat="40.17939" lon="20.57197">
        <ele>901.36999511719</ele>
        <time>2024-09-27T15:28:25.000Z</time>
      </trkpt>
      <trkpt lat="40.17941" lon="20.57198">
        <ele>900.89001464844</ele>
        <time>2024-09-27T15:28:26.000Z</time>
      </trkpt>
      <trkpt lat="40.17945" lon="20.57199">
        <ele>900.40997314453</ele>
        <time>2024-09-27T15:28:27.000Z</time>
      </trkpt>
      <trkpt lat="40.17951" lon="20.572">
        <ele>899.92999267578</ele>
        <time>2024-09-27T15:28:28.000Z</time>
      </trkpt>
      <trkpt lat="40.17955" lon="20.572">
        <ele>899.92999267578</ele>
        <time>2024-09-27T15:28:29.000Z</time>
      </trkpt>
      <trkpt lat="40.17961" lon="20.57199">
        <ele>899.45001220703</ele>
        <time>2024-09-27T15:28:30.000Z</time>
      </trkpt>
      <trkpt lat="40.17966" lon="20.57197">
        <ele>899.45001220703</ele>
        <time>2024-09-27T15:28:31.000Z</time>
      </trkpt>
      <trkpt lat="40.17975" lon="20.57194">
        <ele>899.45001220703</ele>
        <time>2024-09-27T15:28:32.000Z</time>
      </trkpt>
      <trkpt lat="40.17976" lon="20.57194">
        <ele>899.45001220703</ele>
        <time>2024-09-27T15:28:33.000Z</time>
      </trkpt>
      <trkpt lat="40.1798" lon="20.57192">
        <ele>899.45001220703</ele>
        <time>2024-09-27T15:28:34.000Z</time>
      </trkpt>
      <trkpt lat="40.17987" lon="20.5719">
        <ele>898.96997070312</ele>
        <time>2024-09-27T15:28:35.000Z</time>
      </trkpt>
      <trkpt lat="40.1799" lon="20.57188">
        <ele>898.96997070312</ele>
        <time>2024-09-27T15:28:36.000Z</time>
      </trkpt>
      <trkpt lat="40.17994" lon="20.57187">
        <ele>898.01000976562</ele>
        <time>2024-09-27T15:28:37.000Z</time>
      </trkpt>
      <trkpt lat="40.17997" lon="20.57186">
        <ele>897.53002929688</ele>
        <time>2024-09-27T15:28:38.000Z</time>
      </trkpt>
      <trkpt lat="40.18012" lon="20.57193">
        <ele>894.15997314453</ele>
        <time>2024-09-27T15:28:44.000Z</time>
      </trkpt>
      <trkpt lat="40.18" lon="20.57215">
        <ele>890.79998779297</ele>
        <time>2024-09-27T15:28:51.000Z</time>
      </trkpt>
      <trkpt lat="40.17987" lon="20.57225">
        <ele>889.84002685547</ele>
        <time>2024-09-27T15:28:56.000Z</time>
      </trkpt>
      <trkpt lat="40.1798" lon="20.57227">
        <ele>889.35998535156</ele>
        <time>2024-09-27T15:28:57.000Z</time>
      </trkpt>
      <trkpt lat="40.17977" lon="20.57228">
        <ele>889.35998535156</ele>
        <time>2024-09-27T15:28:58.000Z</time>
      </trkpt>
      <trkpt lat="40.17973" lon="20.57228">
        <ele>888.88000488281</ele>
        <time>2024-09-27T15:28:59.000Z</time>
      </trkpt>
      <trkpt lat="40.17969" lon="20.57229">
        <ele>888.40002441406</ele>
        <time>2024-09-27T15:29:00.000Z</time>
      </trkpt>
      <trkpt lat="40.1796" lon="20.5723">
        <ele>888.40002441406</ele>
        <time>2024-09-27T15:29:02.000Z</time>
      </trkpt>
      <trkpt lat="40.17936" lon="20.57243">
        <ele>885.51000976562</ele>
        <time>2024-09-27T15:29:10.000Z</time>
      </trkpt>
      <trkpt lat="40.17929" lon="20.57246">
        <ele>885.03002929688</ele>
        <time>2024-09-27T15:29:18.000Z</time>
      </trkpt>
      <trkpt lat="40.17911" lon="20.5725">
        <ele>881.66998291016</ele>
        <time>2024-09-27T15:29:24.000Z</time>
      </trkpt>
      <trkpt lat="40.17904" lon="20.5727">
        <ele>879.26000976562</ele>
        <time>2024-09-27T15:29:31.000Z</time>
      </trkpt>
      <trkpt lat="40.17911" lon="20.57278">
        <ele>878.78002929688</ele>
        <time>2024-09-27T15:29:37.000Z</time>
      </trkpt>
      <trkpt lat="40.17929" lon="20.57281">
        <ele>875.90002441406</ele>
        <time>2024-09-27T15:29:48.000Z</time>
      </trkpt>
      <trkpt lat="40.17955" lon="20.57292">
        <ele>871.09002685547</ele>
        <time>2024-09-27T15:29:56.000Z</time>
      </trkpt>
      <trkpt lat="40.17969" lon="20.57285">
        <ele>868.69000244141</ele>
        <time>2024-09-27T15:30:00.000Z</time>
      </trkpt>
      <trkpt lat="40.1797" lon="20.57285">
        <ele>868.69000244141</ele>
        <time>2024-09-27T15:30:01.000Z</time>
      </trkpt>
      <trkpt lat="40.17995" lon="20.57277">
        <ele>866.28997802734</ele>
        <time>2024-09-27T15:30:08.000Z</time>
      </trkpt>
      <trkpt lat="40.18013" lon="20.57268">
        <ele>866.28997802734</ele>
        <time>2024-09-27T15:30:13.000Z</time>
      </trkpt>
      <trkpt lat="40.18014" lon="20.57268">
        <ele>866.28997802734</ele>
        <time>2024-09-27T15:30:14.000Z</time>
      </trkpt>
      <trkpt lat="40.18018" lon="20.57268">
        <ele>867.25</ele>
        <time>2024-09-27T15:30:15.000Z</time>
      </trkpt>
      <trkpt lat="40.18024" lon="20.57268">
        <ele>867.25</ele>
        <time>2024-09-27T15:30:16.000Z</time>
      </trkpt>
      <trkpt lat="40.18027" lon="20.57269">
        <ele>867.25</ele>
        <time>2024-09-27T15:30:17.000Z</time>
      </trkpt>
      <trkpt lat="40.18039" lon="20.57293">
        <ele>868.21002197266</ele>
        <time>2024-09-27T15:30:23.000Z</time>
      </trkpt>
      <trkpt lat="40.18055" lon="20.57308">
        <ele>867.72998046875</ele>
        <time>2024-09-27T15:30:31.000Z</time>
      </trkpt>
      <trkpt lat="40.18056" lon="20.57309">
        <ele>867.72998046875</ele>
        <time>2024-09-27T15:30:51.000Z</time>
      </trkpt>
      <trkpt lat="40.18074" lon="20.5731">
        <ele>866.77001953125</ele>
        <time>2024-09-27T15:32:12.000Z</time>
      </trkpt>
      <trkpt lat="40.18078" lon="20.5731">
        <ele>865.79998779297</ele>
        <time>2024-09-27T15:32:13.000Z</time>
      </trkpt>
      <trkpt lat="40.18084" lon="20.5731">
        <ele>865.32000732422</ele>
        <time>2024-09-27T15:32:14.000Z</time>
      </trkpt>
      <trkpt lat="40.18088" lon="20.57311">
        <ele>864.35998535156</ele>
        <time>2024-09-27T15:32:15.000Z</time>
      </trkpt>
      <trkpt lat="40.18092" lon="20.57313">
        <ele>863.88000488281</ele>
        <time>2024-09-27T15:32:16.000Z</time>
      </trkpt>
      <trkpt lat="40.18097" lon="20.57317">
        <ele>862.44000244141</ele>
        <time>2024-09-27T15:32:17.000Z</time>
      </trkpt>
      <trkpt lat="40.18098" lon="20.57319">
        <ele>862.44000244141</ele>
        <time>2024-09-27T15:32:18.000Z</time>
      </trkpt>
      <trkpt lat="40.18095" lon="20.57338">
        <ele>859.08001708984</ele>
        <time>2024-09-27T15:32:23.000Z</time>
      </trkpt>
      <trkpt lat="40.18065" lon="20.57344">
        <ele>858.59002685547</ele>
        <time>2024-09-27T15:32:32.000Z</time>
      </trkpt>
      <trkpt lat="40.18046" lon="20.57343">
        <ele>859.08001708984</ele>
        <time>2024-09-27T15:32:38.000Z</time>
      </trkpt>
      <trkpt lat="40.18026" lon="20.57329">
        <ele>858.59002685547</ele>
        <time>2024-09-27T15:32:44.000Z</time>
      </trkpt>
      <trkpt lat="40.18023" lon="20.57328">
        <ele>858.10998535156</ele>
        <time>2024-09-27T15:32:45.000Z</time>
      </trkpt>
      <trkpt lat="40.18016" lon="20.5734">
        <ele>858.10998535156</ele>
        <time>2024-09-27T15:32:50.000Z</time>
      </trkpt>
      <trkpt lat="40.1802" lon="20.57344">
        <ele>858.10998535156</ele>
        <time>2024-09-27T15:32:51.000Z</time>
      </trkpt>
      <trkpt lat="40.18023" lon="20.57347">
        <ele>858.10998535156</ele>
        <time>2024-09-27T15:32:52.000Z</time>
      </trkpt>
      <trkpt lat="40.18036" lon="20.57354">
        <ele>856.66998291016</ele>
        <time>2024-09-27T15:32:55.000Z</time>
      </trkpt>
      <trkpt lat="40.18038" lon="20.57356">
        <ele>856.66998291016</ele>
        <time>2024-09-27T15:32:56.000Z</time>
      </trkpt>
      <trkpt lat="40.18043" lon="20.57359">
        <ele>855.71002197266</ele>
        <time>2024-09-27T15:32:57.000Z</time>
      </trkpt>
      <trkpt lat="40.18046" lon="20.57361">
        <ele>855.22998046875</ele>
        <time>2024-09-27T15:32:58.000Z</time>
      </trkpt>
      <trkpt lat="40.1805" lon="20.57362">
        <ele>854.75</ele>
        <time>2024-09-27T15:32:59.000Z</time>
      </trkpt>
      <trkpt lat="40.18057" lon="20.57366">
        <ele>853.30999755859</ele>
        <time>2024-09-27T15:33:00.000Z</time>
      </trkpt>
      <trkpt lat="40.18061" lon="20.57368">
        <ele>852.83001708984</ele>
        <time>2024-09-27T15:33:01.000Z</time>
      </trkpt>
      <trkpt lat="40.18069" lon="20.57372">
        <ele>852.83001708984</ele>
        <time>2024-09-27T15:33:08.000Z</time>
      </trkpt>
      <trkpt lat="40.18084" lon="20.5738">
        <ele>851.86999511719</ele>
        <time>2024-09-27T15:33:23.000Z</time>
      </trkpt>
      <trkpt lat="40.18107" lon="20.57372">
        <ele>848.5</ele>
        <time>2024-09-27T15:33:31.000Z</time>
      </trkpt>
      <trkpt lat="40.18128" lon="20.57362">
        <ele>844.65997314453</ele>
        <time>2024-09-27T15:33:38.000Z</time>
      </trkpt>
      <trkpt lat="40.18153" lon="20.57365">
        <ele>842.72998046875</ele>
        <time>2024-09-27T15:33:45.000Z</time>
      </trkpt>
      <trkpt lat="40.18179" lon="20.57355">
        <ele>839.84997558594</ele>
        <time>2024-09-27T15:33:53.000Z</time>
      </trkpt>
      <trkpt lat="40.1819" lon="20.57358">
        <ele>836.96002197266</ele>
        <time>2024-09-27T15:33:57.000Z</time>
      </trkpt>
      <trkpt lat="40.18194" lon="20.57361">
        <ele>835.52001953125</ele>
        <time>2024-09-27T15:33:58.000Z</time>
      </trkpt>
      <trkpt lat="40.18199" lon="20.57363">
        <ele>834.55999755859</ele>
        <time>2024-09-27T15:33:59.000Z</time>
      </trkpt>
      <trkpt lat="40.18203" lon="20.57366">
        <ele>833.59997558594</ele>
        <time>2024-09-27T15:34:00.000Z</time>
      </trkpt>
      <trkpt lat="40.18207" lon="20.57369">
        <ele>832.64001464844</ele>
        <time>2024-09-27T15:34:01.000Z</time>
      </trkpt>
      <trkpt lat="40.18211" lon="20.57389">
        <ele>828.30999755859</ele>
        <time>2024-09-27T15:34:07.000Z</time>
      </trkpt>
      <trkpt lat="40.18185" lon="20.57388">
        <ele>824.95001220703</ele>
        <time>2024-09-27T15:34:14.000Z</time>
      </trkpt>
      <trkpt lat="40.18176" lon="20.57391">
        <ele>824.46997070312</ele>
        <time>2024-09-27T15:34:16.000Z</time>
      </trkpt>
      <trkpt lat="40.18172" lon="20.57392">
        <ele>824.46997070312</ele>
        <time>2024-09-27T15:34:17.000Z</time>
      </trkpt>
      <trkpt lat="40.1817" lon="20.57393">
        <ele>823.98999023438</ele>
        <time>2024-09-27T15:34:18.000Z</time>
      </trkpt>
      <trkpt lat="40.18143" lon="20.57409">
        <ele>821.58001708984</ele>
        <time>2024-09-27T15:34:26.000Z</time>
      </trkpt>
      <trkpt lat="40.18139" lon="20.57412">
        <ele>821.09997558594</ele>
        <time>2024-09-27T15:34:27.000Z</time>
      </trkpt>
      <trkpt lat="40.18134" lon="20.57416">
        <ele>820.14001464844</ele>
        <time>2024-09-27T15:34:28.000Z</time>
      </trkpt>
      <trkpt lat="40.18131" lon="20.57419">
        <ele>819.17999267578</ele>
        <time>2024-09-27T15:34:29.000Z</time>
      </trkpt>
      <trkpt lat="40.1811" lon="20.57433">
        <ele>816.29998779297</ele>
        <time>2024-09-27T15:34:37.000Z</time>
      </trkpt>
      <trkpt lat="40.18083" lon="20.57442">
        <ele>814.36999511719</ele>
        <time>2024-09-27T15:34:45.000Z</time>
      </trkpt>
      <trkpt lat="40.18067" lon="20.57464">
        <ele>811.96997070312</ele>
        <time>2024-09-27T15:34:51.000Z</time>
      </trkpt>
      <trkpt lat="40.18066" lon="20.57486">
        <ele>810.53002929688</ele>
        <time>2024-09-27T15:34:57.000Z</time>
      </trkpt>
      <trkpt lat="40.18089" lon="20.57487">
        <ele>807.64001464844</ele>
        <time>2024-09-27T15:35:05.000Z</time>
      </trkpt>
      <trkpt lat="40.18092" lon="20.57487">
        <ele>807.15997314453</ele>
        <time>2024-09-27T15:35:14.000Z</time>
      </trkpt>
      <trkpt lat="40.18108" lon="20.57491">
        <ele>807.15997314453</ele>
        <time>2024-09-27T15:35:43.000Z</time>
      </trkpt>
      <trkpt lat="40.18104" lon="20.57512">
        <ele>805.71997070312</ele>
        <time>2024-09-27T15:35:48.000Z</time>
      </trkpt>
      <trkpt lat="40.18102" lon="20.57513">
        <ele>805.23999023438</ele>
        <time>2024-09-27T15:35:49.000Z</time>
      </trkpt>
      <trkpt lat="40.18098" lon="20.57517">
        <ele>805.23999023438</ele>
        <time>2024-09-27T15:35:50.000Z</time>
      </trkpt>
      <trkpt lat="40.18084" lon="20.57528">
        <ele>801.88000488281</ele>
        <time>2024-09-27T15:35:57.000Z</time>
      </trkpt>
      <trkpt lat="40.18056" lon="20.57539">
        <ele>797.54998779297</ele>
        <time>2024-09-27T15:36:06.000Z</time>
      </trkpt>
      <trkpt lat="40.18033" lon="20.57528">
        <ele>792.26000976562</ele>
        <time>2024-09-27T15:36:14.000Z</time>
      </trkpt>
      <trkpt lat="40.18019" lon="20.57516">
        <ele>789.38000488281</ele>
        <time>2024-09-27T15:36:21.000Z</time>
      </trkpt>
      <trkpt lat="40.18006" lon="20.57511">
        <ele>786.5</ele>
        <time>2024-09-27T15:36:28.000Z</time>
      </trkpt>
      <trkpt lat="40.18" lon="20.57518">
        <ele>785.04998779297</ele>
        <time>2024-09-27T15:36:37.000Z</time>
      </trkpt>
      <trkpt lat="40.17988" lon="20.57534">
        <ele>784.09002685547</ele>
        <time>2024-09-27T15:36:47.000Z</time>
      </trkpt>
      <trkpt lat="40.17976" lon="20.57537">
        <ele>783.60998535156</ele>
        <time>2024-09-27T15:36:51.000Z</time>
      </trkpt>
      <trkpt lat="40.17973" lon="20.57536">
        <ele>783.60998535156</ele>
        <time>2024-09-27T15:36:52.000Z</time>
      </trkpt>
      <trkpt lat="40.17967" lon="20.57534">
        <ele>783.60998535156</ele>
        <time>2024-09-27T15:36:53.000Z</time>
      </trkpt>
      <trkpt lat="40.17963" lon="20.57534">
        <ele>784.09002685547</ele>
        <time>2024-09-27T15:36:54.000Z</time>
      </trkpt>
      <trkpt lat="40.17957" lon="20.57535">
        <ele>784.09002685547</ele>
        <time>2024-09-27T15:36:55.000Z</time>
      </trkpt>
      <trkpt lat="40.17952" lon="20.57536">
        <ele>784.57000732422</ele>
        <time>2024-09-27T15:36:56.000Z</time>
      </trkpt>
      <trkpt lat="40.17948" lon="20.57537">
        <ele>785.04998779297</ele>
        <time>2024-09-27T15:36:57.000Z</time>
      </trkpt>
      <trkpt lat="40.17937" lon="20.57538">
        <ele>785.04998779297</ele>
        <time>2024-09-27T15:37:00.000Z</time>
      </trkpt>
      <trkpt lat="40.17933" lon="20.57536">
        <ele>785.04998779297</ele>
        <time>2024-09-27T15:37:01.000Z</time>
      </trkpt>
      <trkpt lat="40.17927" lon="20.57535">
        <ele>785.04998779297</ele>
        <time>2024-09-27T15:37:02.000Z</time>
      </trkpt>
      <trkpt lat="40.17925" lon="20.57534">
        <ele>784.57000732422</ele>
        <time>2024-09-27T15:37:03.000Z</time>
      </trkpt>
      <trkpt lat="40.1792" lon="20.57534">
        <ele>784.57000732422</ele>
        <time>2024-09-27T15:37:04.000Z</time>
      </trkpt>
      <trkpt lat="40.17915" lon="20.57533">
        <ele>784.57000732422</ele>
        <time>2024-09-27T15:37:05.000Z</time>
      </trkpt>
      <trkpt lat="40.17911" lon="20.57532">
        <ele>784.09002685547</ele>
        <time>2024-09-27T15:37:06.000Z</time>
      </trkpt>
      <trkpt lat="40.1789" lon="20.57531">
        <ele>784.09002685547</ele>
        <time>2024-09-27T15:37:12.000Z</time>
      </trkpt>
      <trkpt lat="40.17871" lon="20.57532">
        <ele>783.60998535156</ele>
        <time>2024-09-27T15:37:18.000Z</time>
      </trkpt>
      <trkpt lat="40.17868" lon="20.57534">
        <ele>783.60998535156</ele>
        <time>2024-09-27T15:37:19.000Z</time>
      </trkpt>
      <trkpt lat="40.17852" lon="20.57535">
        <ele>783.13000488281</ele>
        <time>2024-09-27T15:37:22.000Z</time>
      </trkpt>
      <trkpt lat="40.17851" lon="20.57536">
        <ele>782.65002441406</ele>
        <time>2024-09-27T15:37:23.000Z</time>
      </trkpt>
      <trkpt lat="40.17847" lon="20.57538">
        <ele>782.16998291016</ele>
        <time>2024-09-27T15:37:24.000Z</time>
      </trkpt>
      <trkpt lat="40.17843" lon="20.5754">
        <ele>782.16998291016</ele>
        <time>2024-09-27T15:37:25.000Z</time>
      </trkpt>
      <trkpt lat="40.17826" lon="20.57563">
        <ele>780.25</ele>
        <time>2024-09-27T15:37:32.000Z</time>
      </trkpt>
      <trkpt lat="40.17804" lon="20.57572">
        <ele>777.35998535156</ele>
        <time>2024-09-27T15:37:40.000Z</time>
      </trkpt>
      <trkpt lat="40.1778" lon="20.57574">
        <ele>773.52001953125</ele>
        <time>2024-09-27T15:37:48.000Z</time>
      </trkpt>
      <trkpt lat="40.17761" lon="20.57568">
        <ele>770.63000488281</ele>
        <time>2024-09-27T15:37:55.000Z</time>
      </trkpt>
      <trkpt lat="40.17744" lon="20.57573">
        <ele>768.22998046875</ele>
        <time>2024-09-27T15:38:03.000Z</time>
      </trkpt>
      <trkpt lat="40.17743" lon="20.57574">
        <ele>768.22998046875</ele>
        <time>2024-09-27T15:38:04.000Z</time>
      </trkpt>
      <trkpt lat="40.1774" lon="20.57578">
        <ele>767.27001953125</ele>
        <time>2024-09-27T15:38:05.000Z</time>
      </trkpt>
      <trkpt lat="40.17737" lon="20.57582">
        <ele>766.78997802734</ele>
        <time>2024-09-27T15:38:06.000Z</time>
      </trkpt>
      <trkpt lat="40.17733" lon="20.57587">
        <ele>766.78997802734</ele>
        <time>2024-09-27T15:38:07.000Z</time>
      </trkpt>
      <trkpt lat="40.17729" lon="20.5759">
        <ele>766.78997802734</ele>
        <time>2024-09-27T15:38:08.000Z</time>
      </trkpt>
      <trkpt lat="40.17725" lon="20.57591">
        <ele>766.30999755859</ele>
        <time>2024-09-27T15:38:09.000Z</time>
      </trkpt>
      <trkpt lat="40.1772" lon="20.57591">
        <ele>765.34997558594</ele>
        <time>2024-09-27T15:38:10.000Z</time>
      </trkpt>
      <trkpt lat="40.17714" lon="20.57591">
        <ele>764.39001464844</ele>
        <time>2024-09-27T15:38:11.000Z</time>
      </trkpt>
      <trkpt lat="40.17711" lon="20.57591">
        <ele>763.90002441406</ele>
        <time>2024-09-27T15:38:12.000Z</time>
      </trkpt>
      <trkpt lat="40.17707" lon="20.57592">
        <ele>763.41998291016</ele>
        <time>2024-09-27T15:38:13.000Z</time>
      </trkpt>
      <trkpt lat="40.17691" lon="20.57599">
        <ele>761.97998046875</ele>
        <time>2024-09-27T15:38:17.000Z</time>
      </trkpt>
      <trkpt lat="40.17688" lon="20.57599">
        <ele>761.5</ele>
        <time>2024-09-27T15:38:18.000Z</time>
      </trkpt>
      <trkpt lat="40.17685" lon="20.57599">
        <ele>761.5</ele>
        <time>2024-09-27T15:38:19.000Z</time>
      </trkpt>
      <trkpt lat="40.1768" lon="20.57597">
        <ele>760.53997802734</ele>
        <time>2024-09-27T15:38:20.000Z</time>
      </trkpt>
      <trkpt lat="40.17676" lon="20.57595">
        <ele>760.05999755859</ele>
        <time>2024-09-27T15:38:21.000Z</time>
      </trkpt>
      <trkpt lat="40.1766" lon="20.57595">
        <ele>758.14001464844</ele>
        <time>2024-09-27T15:38:27.000Z</time>
      </trkpt>
      <trkpt lat="40.1764" lon="20.57613">
        <ele>755.72998046875</ele>
        <time>2024-09-27T15:38:36.000Z</time>
      </trkpt>
      <trkpt lat="40.17616" lon="20.57621">
        <ele>751.89001464844</ele>
        <time>2024-09-27T15:38:44.000Z</time>
      </trkpt>
      <trkpt lat="40.17609" lon="20.57619">
        <ele>750.45001220703</ele>
        <time>2024-09-27T15:38:46.000Z</time>
      </trkpt>
      <trkpt lat="40.17607" lon="20.57618">
        <ele>749.96997070312</ele>
        <time>2024-09-27T15:38:47.000Z</time>
      </trkpt>
      <trkpt lat="40.17596" lon="20.57628">
        <ele>748.52001953125</ele>
        <time>2024-09-27T15:38:53.000Z</time>
      </trkpt>
      <trkpt lat="40.17596" lon="20.5766">
        <ele>748.03997802734</ele>
        <time>2024-09-27T15:39:02.000Z</time>
      </trkpt>
      <trkpt lat="40.17585" lon="20.5769">
        <ele>745.15997314453</ele>
        <time>2024-09-27T15:39:11.000Z</time>
      </trkpt>
      <trkpt lat="40.17581" lon="20.57692">
        <ele>744.20001220703</ele>
        <time>2024-09-27T15:39:12.000Z</time>
      </trkpt>
      <trkpt lat="40.17577" lon="20.57694">
        <ele>744.20001220703</ele>
        <time>2024-09-27T15:39:13.000Z</time>
      </trkpt>
      <trkpt lat="40.17573" lon="20.57696">
        <ele>743.71997070312</ele>
        <time>2024-09-27T15:39:14.000Z</time>
      </trkpt>
      <trkpt lat="40.17569" lon="20.57697">
        <ele>743.23999023438</ele>
        <time>2024-09-27T15:39:15.000Z</time>
      </trkpt>
      <trkpt lat="40.17565" lon="20.57699">
        <ele>742.76000976562</ele>
        <time>2024-09-27T15:39:16.000Z</time>
      </trkpt>
      <trkpt lat="40.1756" lon="20.57702">
        <ele>741.78997802734</ele>
        <time>2024-09-27T15:39:17.000Z</time>
      </trkpt>
      <trkpt lat="40.17557" lon="20.57703">
        <ele>741.30999755859</ele>
        <time>2024-09-27T15:39:18.000Z</time>
      </trkpt>
      <trkpt lat="40.17554" lon="20.57706">
        <ele>741.30999755859</ele>
        <time>2024-09-27T15:39:19.000Z</time>
      </trkpt>
      <trkpt lat="40.17546" lon="20.57735">
        <ele>739.39001464844</ele>
        <time>2024-09-27T15:39:26.000Z</time>
      </trkpt>
      <trkpt lat="40.1756" lon="20.57744">
        <ele>736.03002929688</ele>
        <time>2024-09-27T15:39:31.000Z</time>
      </trkpt>
      <trkpt lat="40.17564" lon="20.57745">
        <ele>735.54998779297</ele>
        <time>2024-09-27T15:39:32.000Z</time>
      </trkpt>
      <trkpt lat="40.17567" lon="20.57745">
        <ele>734.58001708984</ele>
        <time>2024-09-27T15:39:33.000Z</time>
      </trkpt>
      <trkpt lat="40.17575" lon="20.57746">
        <ele>733.14001464844</ele>
        <time>2024-09-27T15:39:35.000Z</time>
      </trkpt>
      <trkpt lat="40.17581" lon="20.57766">
        <ele>731.21997070312</ele>
        <time>2024-09-27T15:39:41.000Z</time>
      </trkpt>
      <trkpt lat="40.17572" lon="20.5777">
        <ele>729.29998779297</ele>
        <time>2024-09-27T15:39:44.000Z</time>
      </trkpt>
      <trkpt lat="40.17558" lon="20.57769">
        <ele>726.89001464844</ele>
        <time>2024-09-27T15:39:47.000Z</time>
      </trkpt>
      <trkpt lat="40.17556" lon="20.57768">
        <ele>726.40997314453</ele>
        <time>2024-09-27T15:39:48.000Z</time>
      </trkpt>
      <trkpt lat="40.17552" lon="20.57768">
        <ele>724.96997070312</ele>
        <time>2024-09-27T15:39:49.000Z</time>
      </trkpt>
      <trkpt lat="40.17548" lon="20.57768">
        <ele>724.48999023438</ele>
        <time>2024-09-27T15:39:50.000Z</time>
      </trkpt>
      <trkpt lat="40.17524" lon="20.57772">
        <ele>722.09002685547</ele>
        <time>2024-09-27T15:39:58.000Z</time>
      </trkpt>
      <trkpt lat="40.17507" lon="20.57784">
        <ele>718.71997070312</ele>
        <time>2024-09-27T15:40:06.000Z</time>
      </trkpt>
      <trkpt lat="40.17511" lon="20.57805">
        <ele>716.79998779297</ele>
        <time>2024-09-27T15:40:13.000Z</time>
      </trkpt>
      <trkpt lat="40.17525" lon="20.57828">
        <ele>712.95001220703</ele>
        <time>2024-09-27T15:40:22.000Z</time>
      </trkpt>
      <trkpt lat="40.17541" lon="20.57847">
        <ele>708.15002441406</ele>
        <time>2024-09-27T15:40:31.000Z</time>
      </trkpt>
      <trkpt lat="40.17556" lon="20.57872">
        <ele>703.34002685547</ele>
        <time>2024-09-27T15:40:38.000Z</time>
      </trkpt>
      <trkpt lat="40.17557" lon="20.57877">
        <ele>702.85998535156</ele>
        <time>2024-09-27T15:40:39.000Z</time>
      </trkpt>
      <trkpt lat="40.17553" lon="20.5789">
        <ele>701.90002441406</ele>
        <time>2024-09-27T15:40:44.000Z</time>
      </trkpt>
      <trkpt lat="40.17538" lon="20.5789">
        <ele>699.5</ele>
        <time>2024-09-27T15:40:56.000Z</time>
      </trkpt>
      <trkpt lat="40.17522" lon="20.57888">
        <ele>698.04998779297</ele>
        <time>2024-09-27T15:41:02.000Z</time>
      </trkpt>
      <trkpt lat="40.17521" lon="20.57887">
        <ele>698.04998779297</ele>
        <time>2024-09-27T15:41:21.000Z</time>
      </trkpt>
      <trkpt lat="40.17504" lon="20.57875">
        <ele>696.60998535156</ele>
        <time>2024-09-27T15:41:28.000Z</time>
      </trkpt>
      <trkpt lat="40.17495" lon="20.57871">
        <ele>695.65002441406</ele>
        <time>2024-09-27T15:41:31.000Z</time>
      </trkpt>
      <trkpt lat="40.1749" lon="20.5787">
        <ele>695.16998291016</ele>
        <time>2024-09-27T15:41:32.000Z</time>
      </trkpt>
      <trkpt lat="40.17487" lon="20.57869">
        <ele>694.69000244141</ele>
        <time>2024-09-27T15:41:33.000Z</time>
      </trkpt>
      <trkpt lat="40.17483" lon="20.57867">
        <ele>693.72998046875</ele>
        <time>2024-09-27T15:41:34.000Z</time>
      </trkpt>
      <trkpt lat="40.17477" lon="20.57864">
        <ele>692.77001953125</ele>
        <time>2024-09-27T15:41:35.000Z</time>
      </trkpt>
      <trkpt lat="40.17475" lon="20.57863">
        <ele>692.77001953125</ele>
        <time>2024-09-27T15:41:36.000Z</time>
      </trkpt>
      <trkpt lat="40.17452" lon="20.57845">
        <ele>687.96002197266</ele>
        <time>2024-09-27T15:41:44.000Z</time>
      </trkpt>
      <trkpt lat="40.17434" lon="20.57844">
        <ele>683.63000488281</ele>
        <time>2024-09-27T15:41:50.000Z</time>
      </trkpt>
      <trkpt lat="40.17418" lon="20.57864">
        <ele>682.66998291016</ele>
        <time>2024-09-27T15:41:57.000Z</time>
      </trkpt>
      <trkpt lat="40.17414" lon="20.57866">
        <ele>682.66998291016</ele>
        <time>2024-09-27T15:41:58.000Z</time>
      </trkpt>
      <trkpt lat="40.17392" lon="20.57859">
        <ele>682.66998291016</ele>
        <time>2024-09-27T15:42:05.000Z</time>
      </trkpt>
      <trkpt lat="40.1739" lon="20.57859">
        <ele>682.66998291016</ele>
        <time>2024-09-27T15:42:06.000Z</time>
      </trkpt>
      <trkpt lat="40.17385" lon="20.5786">
        <ele>683.15002441406</ele>
        <time>2024-09-27T15:42:07.000Z</time>
      </trkpt>
      <trkpt lat="40.17357" lon="20.57869">
        <ele>682.19000244141</ele>
        <time>2024-09-27T15:42:16.000Z</time>
      </trkpt>
      <trkpt lat="40.17332" lon="20.57869">
        <ele>680.27001953125</ele>
        <time>2024-09-27T15:42:25.000Z</time>
      </trkpt>
      <trkpt lat="40.17316" lon="20.57856">
        <ele>678.83001708984</ele>
        <time>2024-09-27T15:42:33.000Z</time>
      </trkpt>
      <trkpt lat="40.17307" lon="20.57867">
        <ele>676.90997314453</ele>
        <time>2024-09-27T15:42:37.000Z</time>
      </trkpt>
      <trkpt lat="40.17305" lon="20.57869">
        <ele>676.41998291016</ele>
        <time>2024-09-27T15:42:38.000Z</time>
      </trkpt>
      <trkpt lat="40.173" lon="20.57873">
        <ele>675.94000244141</ele>
        <time>2024-09-27T15:42:39.000Z</time>
      </trkpt>
      <trkpt lat="40.17297" lon="20.57876">
        <ele>675.46002197266</ele>
        <time>2024-09-27T15:42:40.000Z</time>
      </trkpt>
      <trkpt lat="40.17293" lon="20.57878">
        <ele>674.97998046875</ele>
        <time>2024-09-27T15:42:41.000Z</time>
      </trkpt>
      <trkpt lat="40.17274" lon="20.57889">
        <ele>673.53997802734</ele>
        <time>2024-09-27T15:42:49.000Z</time>
      </trkpt>
      <trkpt lat="40.17251" lon="20.57901">
        <ele>670.17999267578</ele>
        <time>2024-09-27T15:42:57.000Z</time>
      </trkpt>
      <trkpt lat="40.17235" lon="20.57911">
        <ele>666.80999755859</ele>
        <time>2024-09-27T15:43:05.000Z</time>
      </trkpt>
      <trkpt lat="40.17211" lon="20.57903">
        <ele>662.01000976562</ele>
        <time>2024-09-27T15:43:14.000Z</time>
      </trkpt>
      <trkpt lat="40.17197" lon="20.57913">
        <ele>658.64001464844</ele>
        <time>2024-09-27T15:43:21.000Z</time>
      </trkpt>
      <trkpt lat="40.1719" lon="20.57919">
        <ele>656.71997070312</ele>
        <time>2024-09-27T15:43:23.000Z</time>
      </trkpt>
      <trkpt lat="40.17187" lon="20.57921">
        <ele>656.23999023438</ele>
        <time>2024-09-27T15:43:24.000Z</time>
      </trkpt>
      <trkpt lat="40.17183" lon="20.57923">
        <ele>656.23999023438</ele>
        <time>2024-09-27T15:43:25.000Z</time>
      </trkpt>
      <trkpt lat="40.1718" lon="20.57924">
        <ele>656.71997070312</ele>
        <time>2024-09-27T15:43:26.000Z</time>
      </trkpt>
      <trkpt lat="40.17174" lon="20.57926">
        <ele>657.67999267578</ele>
        <time>2024-09-27T15:43:27.000Z</time>
      </trkpt>
      <trkpt lat="40.17171" lon="20.57928">
        <ele>658.15997314453</ele>
        <time>2024-09-27T15:43:28.000Z</time>
      </trkpt>
      <trkpt lat="40.17168" lon="20.57931">
        <ele>658.64001464844</ele>
        <time>2024-09-27T15:43:29.000Z</time>
      </trkpt>
      <trkpt lat="40.17165" lon="20.57957">
        <ele>660.55999755859</ele>
        <time>2024-09-27T15:43:36.000Z</time>
      </trkpt>
      <trkpt lat="40.17169" lon="20.57963">
        <ele>660.55999755859</ele>
        <time>2024-09-27T15:43:44.000Z</time>
      </trkpt>
      <trkpt lat="40.17172" lon="20.57968">
        <ele>660.55999755859</ele>
        <time>2024-09-27T15:46:27.000Z</time>
      </trkpt>
      <trkpt lat="40.17173" lon="20.57971">
        <ele>660.55999755859</ele>
        <time>2024-09-27T15:46:28.000Z</time>
      </trkpt>
      <trkpt lat="40.17174" lon="20.57978">
        <ele>660.55999755859</ele>
        <time>2024-09-27T15:46:29.000Z</time>
      </trkpt>
      <trkpt lat="40.17173" lon="20.57985">
        <ele>661.03997802734</ele>
        <time>2024-09-27T15:46:30.000Z</time>
      </trkpt>
      <trkpt lat="40.17171" lon="20.57992">
        <ele>661.03997802734</ele>
        <time>2024-09-27T15:46:31.000Z</time>
      </trkpt>
      <trkpt lat="40.17168" lon="20.57999">
        <ele>661.52001953125</ele>
        <time>2024-09-27T15:46:32.000Z</time>
      </trkpt>
      <trkpt lat="40.17168" lon="20.58005">
        <ele>662.48999023438</ele>
        <time>2024-09-27T15:46:33.000Z</time>
      </trkpt>
      <trkpt lat="40.17169" lon="20.58009">
        <ele>662.96997070312</ele>
        <time>2024-09-27T15:46:34.000Z</time>
      </trkpt>
      <trkpt lat="40.17172" lon="20.58015">
        <ele>664.40997314453</ele>
        <time>2024-09-27T15:46:35.000Z</time>
      </trkpt>
      <trkpt lat="40.17174" lon="20.5802">
        <ele>665.36999511719</ele>
        <time>2024-09-27T15:46:36.000Z</time>
      </trkpt>
      <trkpt lat="40.17175" lon="20.58025">
        <ele>666.33001708984</ele>
        <time>2024-09-27T15:46:37.000Z</time>
      </trkpt>
      <trkpt lat="40.17174" lon="20.58029">
        <ele>667.28997802734</ele>
        <time>2024-09-27T15:46:38.000Z</time>
      </trkpt>
      <trkpt lat="40.17172" lon="20.58035">
        <ele>668.25</ele>
        <time>2024-09-27T15:46:39.000Z</time>
      </trkpt>
      <trkpt lat="40.17169" lon="20.58042">
        <ele>669.21997070312</ele>
        <time>2024-09-27T15:46:40.000Z</time>
      </trkpt>
      <trkpt lat="40.17167" lon="20.58048">
        <ele>670.17999267578</ele>
        <time>2024-09-27T15:46:41.000Z</time>
      </trkpt>
      <trkpt lat="40.17166" lon="20.58055">
        <ele>671.14001464844</ele>
        <time>2024-09-27T15:46:42.000Z</time>
      </trkpt>
      <trkpt lat="40.17167" lon="20.58061">
        <ele>671.61999511719</ele>
        <time>2024-09-27T15:46:43.000Z</time>
      </trkpt>
      <trkpt lat="40.17169" lon="20.58072">
        <ele>671.61999511719</ele>
        <time>2024-09-27T15:46:44.000Z</time>
      </trkpt>
      <trkpt lat="40.1717" lon="20.58078">
        <ele>672.09997558594</ele>
        <time>2024-09-27T15:46:45.000Z</time>
      </trkpt>
      <trkpt lat="40.1717" lon="20.5809">
        <ele>673.05999755859</ele>
        <time>2024-09-27T15:46:46.000Z</time>
      </trkpt>
      <trkpt lat="40.1717" lon="20.58094">
        <ele>673.05999755859</ele>
        <time>2024-09-27T15:46:47.000Z</time>
      </trkpt>
      <trkpt lat="40.1717" lon="20.58101">
        <ele>674.02001953125</ele>
        <time>2024-09-27T15:46:48.000Z</time>
      </trkpt>
      <trkpt lat="40.17169" lon="20.58107">
        <ele>675.46002197266</ele>
        <time>2024-09-27T15:46:49.000Z</time>
      </trkpt>
      <trkpt lat="40.17167" lon="20.58113">
        <ele>676.41998291016</ele>
        <time>2024-09-27T15:46:50.000Z</time>
      </trkpt>
      <trkpt lat="40.17164" lon="20.58118">
        <ele>676.90997314453</ele>
        <time>2024-09-27T15:46:51.000Z</time>
      </trkpt>
      <trkpt lat="40.17153" lon="20.58119">
        <ele>678.83001708984</ele>
        <time>2024-09-27T15:46:54.000Z</time>
      </trkpt>
      <trkpt lat="40.17151" lon="20.58116">
        <ele>678.34997558594</ele>
        <time>2024-09-27T15:46:55.000Z</time>
      </trkpt>
      <trkpt lat="40.17148" lon="20.5811">
        <ele>678.83001708984</ele>
        <time>2024-09-27T15:46:56.000Z</time>
      </trkpt>
      <trkpt lat="40.17145" lon="20.58103">
        <ele>679.30999755859</ele>
        <time>2024-09-27T15:46:57.000Z</time>
      </trkpt>
      <trkpt lat="40.17141" lon="20.58094">
        <ele>680.27001953125</ele>
        <time>2024-09-27T15:46:58.000Z</time>
      </trkpt>
      <trkpt lat="40.17138" lon="20.58088">
        <ele>680.75</ele>
        <time>2024-09-27T15:46:59.000Z</time>
      </trkpt>
      <trkpt lat="40.17136" lon="20.58083">
        <ele>681.22998046875</ele>
        <time>2024-09-27T15:47:00.000Z</time>
      </trkpt>
      <trkpt lat="40.17131" lon="20.58076">
        <ele>681.22998046875</ele>
        <time>2024-09-27T15:47:01.000Z</time>
      </trkpt>
      <trkpt lat="40.17127" lon="20.5807">
        <ele>681.22998046875</ele>
        <time>2024-09-27T15:47:02.000Z</time>
      </trkpt>
      <trkpt lat="40.17122" lon="20.58061">
        <ele>681.71002197266</ele>
        <time>2024-09-27T15:47:03.000Z</time>
      </trkpt>
      <trkpt lat="40.17118" lon="20.58051">
        <ele>682.19000244141</ele>
        <time>2024-09-27T15:47:04.000Z</time>
      </trkpt>
      <trkpt lat="40.17115" lon="20.58047">
        <ele>682.19000244141</ele>
        <time>2024-09-27T15:47:05.000Z</time>
      </trkpt>
      <trkpt lat="40.17112" lon="20.58042">
        <ele>681.71002197266</ele>
        <time>2024-09-27T15:47:06.000Z</time>
      </trkpt>
      <trkpt lat="40.17107" lon="20.58037">
        <ele>681.71002197266</ele>
        <time>2024-09-27T15:47:07.000Z</time>
      </trkpt>
      <trkpt lat="40.17102" lon="20.58033">
        <ele>681.71002197266</ele>
        <time>2024-09-27T15:47:08.000Z</time>
      </trkpt>
      <trkpt lat="40.17095" lon="20.58029">
        <ele>681.71002197266</ele>
        <time>2024-09-27T15:47:09.000Z</time>
      </trkpt>
      <trkpt lat="40.17089" lon="20.58026">
        <ele>681.71002197266</ele>
        <time>2024-09-27T15:47:10.000Z</time>
      </trkpt>
      <trkpt lat="40.17084" lon="20.58021">
        <ele>681.71002197266</ele>
        <time>2024-09-27T15:47:11.000Z</time>
      </trkpt>
      <trkpt lat="40.17079" lon="20.58016">
        <ele>681.22998046875</ele>
        <time>2024-09-27T15:47:12.000Z</time>
      </trkpt>
      <trkpt lat="40.17075" lon="20.58009">
        <ele>681.22998046875</ele>
        <time>2024-09-27T15:47:13.000Z</time>
      </trkpt>
      <trkpt lat="40.17071" lon="20.58001">
        <ele>681.71002197266</ele>
        <time>2024-09-27T15:47:14.000Z</time>
      </trkpt>
      <trkpt lat="40.17069" lon="20.57991">
        <ele>681.71002197266</ele>
        <time>2024-09-27T15:47:15.000Z</time>
      </trkpt>
      <trkpt lat="40.17066" lon="20.5798">
        <ele>682.66998291016</ele>
        <time>2024-09-27T15:47:16.000Z</time>
      </trkpt>
      <trkpt lat="40.17062" lon="20.57967">
        <ele>684.11999511719</ele>
        <time>2024-09-27T15:47:17.000Z</time>
      </trkpt>
      <trkpt lat="40.17059" lon="20.57961">
        <ele>684.59997558594</ele>
        <time>2024-09-27T15:47:18.000Z</time>
      </trkpt>
      <trkpt lat="40.17052" lon="20.57948">
        <ele>686.03997802734</ele>
        <time>2024-09-27T15:47:19.000Z</time>
      </trkpt>
      <trkpt lat="40.17044" lon="20.57937">
        <ele>687.47998046875</ele>
        <time>2024-09-27T15:47:20.000Z</time>
      </trkpt>
      <trkpt lat="40.17042" lon="20.57935">
        <ele>687.47998046875</ele>
        <time>2024-09-27T15:47:21.000Z</time>
      </trkpt>
      <trkpt lat="40.17036" lon="20.57926">
        <ele>689.40002441406</ele>
        <time>2024-09-27T15:47:22.000Z</time>
      </trkpt>
      <trkpt lat="40.1703" lon="20.57921">
        <ele>690.84002685547</ele>
        <time>2024-09-27T15:47:23.000Z</time>
      </trkpt>
      <trkpt lat="40.17024" lon="20.57917">
        <ele>691.80999755859</ele>
        <time>2024-09-27T15:47:24.000Z</time>
      </trkpt>
      <trkpt lat="40.17014" lon="20.57912">
        <ele>692.77001953125</ele>
        <time>2024-09-27T15:47:25.000Z</time>
      </trkpt>
      <trkpt lat="40.17004" lon="20.57909">
        <ele>693.72998046875</ele>
        <time>2024-09-27T15:47:26.000Z</time>
      </trkpt>
      <trkpt lat="40.16997" lon="20.57906">
        <ele>694.21002197266</ele>
        <time>2024-09-27T15:47:27.000Z</time>
      </trkpt>
      <trkpt lat="40.16989" lon="20.57901">
        <ele>694.69000244141</ele>
        <time>2024-09-27T15:47:28.000Z</time>
      </trkpt>
      <trkpt lat="40.16984" lon="20.57897">
        <ele>694.69000244141</ele>
        <time>2024-09-27T15:47:29.000Z</time>
      </trkpt>
      <trkpt lat="40.16978" lon="20.57891">
        <ele>695.16998291016</ele>
        <time>2024-09-27T15:47:30.000Z</time>
      </trkpt>
      <trkpt lat="40.16972" lon="20.57886">
        <ele>695.16998291016</ele>
        <time>2024-09-27T15:47:31.000Z</time>
      </trkpt>
      <trkpt lat="40.16966" lon="20.57879">
        <ele>695.16998291016</ele>
        <time>2024-09-27T15:47:32.000Z</time>
      </trkpt>
      <trkpt lat="40.16956" lon="20.57867">
        <ele>695.16998291016</ele>
        <time>2024-09-27T15:47:34.000Z</time>
      </trkpt>
      <trkpt lat="40.16953" lon="20.57862">
        <ele>695.16998291016</ele>
        <time>2024-09-27T15:47:35.000Z</time>
      </trkpt>
      <trkpt lat="40.1695" lon="20.57856">
        <ele>695.16998291016</ele>
        <time>2024-09-27T15:47:36.000Z</time>
      </trkpt>
      <trkpt lat="40.16949" lon="20.5785">
        <ele>695.65002441406</ele>
        <time>2024-09-27T15:47:37.000Z</time>
      </trkpt>
      <trkpt lat="40.1695" lon="20.57844">
        <ele>695.65002441406</ele>
        <time>2024-09-27T15:47:38.000Z</time>
      </trkpt>
      <trkpt lat="40.16951" lon="20.57837">
        <ele>695.65002441406</ele>
        <time>2024-09-27T15:47:39.000Z</time>
      </trkpt>
      <trkpt lat="40.16954" lon="20.5783">
        <ele>696.13000488281</ele>
        <time>2024-09-27T15:47:40.000Z</time>
      </trkpt>
      <trkpt lat="40.16957" lon="20.57823">
        <ele>697.09002685547</ele>
        <time>2024-09-27T15:47:41.000Z</time>
      </trkpt>
      <trkpt lat="40.16958" lon="20.57817">
        <ele>698.04998779297</ele>
        <time>2024-09-27T15:47:42.000Z</time>
      </trkpt>
      <trkpt lat="40.16957" lon="20.57812">
        <ele>698.53002929688</ele>
        <time>2024-09-27T15:47:43.000Z</time>
      </trkpt>
      <trkpt lat="40.16955" lon="20.57803">
        <ele>699.02001953125</ele>
        <time>2024-09-27T15:47:44.000Z</time>
      </trkpt>
      <trkpt lat="40.16953" lon="20.57793">
        <ele>699.5</ele>
        <time>2024-09-27T15:47:45.000Z</time>
      </trkpt>
      <trkpt lat="40.16951" lon="20.57788">
        <ele>699.97998046875</ele>
        <time>2024-09-27T15:47:46.000Z</time>
      </trkpt>
      <trkpt lat="40.16948" lon="20.57782">
        <ele>700.46002197266</ele>
        <time>2024-09-27T15:47:47.000Z</time>
      </trkpt>
      <trkpt lat="40.16944" lon="20.57776">
        <ele>700.94000244141</ele>
        <time>2024-09-27T15:47:48.000Z</time>
      </trkpt>
      <trkpt lat="40.16939" lon="20.57771">
        <ele>700.94000244141</ele>
        <time>2024-09-27T15:47:49.000Z</time>
      </trkpt>
      <trkpt lat="40.1693" lon="20.57763">
        <ele>701.90002441406</ele>
        <time>2024-09-27T15:47:50.000Z</time>
      </trkpt>
      <trkpt lat="40.16925" lon="20.57759">
        <ele>702.85998535156</ele>
        <time>2024-09-27T15:47:51.000Z</time>
      </trkpt>
      <trkpt lat="40.16921" lon="20.57756">
        <ele>704.29998779297</ele>
        <time>2024-09-27T15:47:52.000Z</time>
      </trkpt>
      <trkpt lat="40.16917" lon="20.57754">
        <ele>704.78002929688</ele>
        <time>2024-09-27T15:47:53.000Z</time>
      </trkpt>
      <trkpt lat="40.16904" lon="20.5777">
        <ele>707.66998291016</ele>
        <time>2024-09-27T15:47:59.000Z</time>
      </trkpt>
      <trkpt lat="40.16892" lon="20.57804">
        <ele>707.66998291016</ele>
        <time>2024-09-27T15:48:09.000Z</time>
      </trkpt>
      <trkpt lat="40.1688" lon="20.57849">
        <ele>710.54998779297</ele>
        <time>2024-09-27T15:48:20.000Z</time>
      </trkpt>
      <trkpt lat="40.1688" lon="20.57854">
        <ele>711.03002929688</ele>
        <time>2024-09-27T15:48:21.000Z</time>
      </trkpt>
      <trkpt lat="40.1688" lon="20.57857">
        <ele>711.03002929688</ele>
        <time>2024-09-27T15:48:22.000Z</time>
      </trkpt>
      <trkpt lat="40.16882" lon="20.57864">
        <ele>711.51000976562</ele>
        <time>2024-09-27T15:48:23.000Z</time>
      </trkpt>
      <trkpt lat="40.16885" lon="20.57885">
        <ele>712.46997070312</ele>
        <time>2024-09-27T15:48:25.000Z</time>
      </trkpt>
      <trkpt lat="40.16886" lon="20.57887">
        <ele>712.46997070312</ele>
        <time>2024-09-27T15:48:26.000Z</time>
      </trkpt>
      <trkpt lat="40.16888" lon="20.57895">
        <ele>712.95001220703</ele>
        <time>2024-09-27T15:48:27.000Z</time>
      </trkpt>
      <trkpt lat="40.1689" lon="20.57902">
        <ele>713.44000244141</ele>
        <time>2024-09-27T15:48:28.000Z</time>
      </trkpt>
      <trkpt lat="40.16894" lon="20.57909">
        <ele>713.91998291016</ele>
        <time>2024-09-27T15:48:29.000Z</time>
      </trkpt>
      <trkpt lat="40.169" lon="20.57918">
        <ele>714.88000488281</ele>
        <time>2024-09-27T15:48:30.000Z</time>
      </trkpt>
      <trkpt lat="40.16903" lon="20.57923">
        <ele>715.84002685547</ele>
        <time>2024-09-27T15:48:31.000Z</time>
      </trkpt>
      <trkpt lat="40.16908" lon="20.57928">
        <ele>716.32000732422</ele>
        <time>2024-09-27T15:48:32.000Z</time>
      </trkpt>
      <trkpt lat="40.1693" lon="20.57947">
        <ele>719.20001220703</ele>
        <time>2024-09-27T15:48:35.000Z</time>
      </trkpt>
      <trkpt lat="40.16943" lon="20.57957">
        <ele>720.65002441406</ele>
        <time>2024-09-27T15:48:37.000Z</time>
      </trkpt>
      <trkpt lat="40.16947" lon="20.57961">
        <ele>721.13000488281</ele>
        <time>2024-09-27T15:48:38.000Z</time>
      </trkpt>
      <trkpt lat="40.16949" lon="20.57963">
        <ele>721.60998535156</ele>
        <time>2024-09-27T15:48:39.000Z</time>
      </trkpt>
      <trkpt lat="40.16955" lon="20.5797">
        <ele>722.57000732422</ele>
        <time>2024-09-27T15:48:40.000Z</time>
      </trkpt>
      <trkpt lat="40.16958" lon="20.57977">
        <ele>723.04998779297</ele>
        <time>2024-09-27T15:48:41.000Z</time>
      </trkpt>
      <trkpt lat="40.16961" lon="20.57984">
        <ele>723.53002929688</ele>
        <time>2024-09-27T15:48:42.000Z</time>
      </trkpt>
      <trkpt lat="40.16962" lon="20.57993">
        <ele>724.01000976562</ele>
        <time>2024-09-27T15:48:43.000Z</time>
      </trkpt>
      <trkpt lat="40.16964" lon="20.58012">
        <ele>724.96997070312</ele>
        <time>2024-09-27T15:48:45.000Z</time>
      </trkpt>
      <trkpt lat="40.16964" lon="20.58024">
        <ele>724.96997070312</ele>
        <time>2024-09-27T15:48:46.000Z</time>
      </trkpt>
      <trkpt lat="40.16964" lon="20.58029">
        <ele>725.45001220703</ele>
        <time>2024-09-27T15:48:47.000Z</time>
      </trkpt>
      <trkpt lat="40.16965" lon="20.58038">
        <ele>725.45001220703</ele>
        <time>2024-09-27T15:48:48.000Z</time>
      </trkpt>
      <trkpt lat="40.16966" lon="20.58047">
        <ele>725.92999267578</ele>
        <time>2024-09-27T15:48:49.000Z</time>
      </trkpt>
      <trkpt lat="40.16965" lon="20.58055">
        <ele>726.40997314453</ele>
        <time>2024-09-27T15:48:50.000Z</time>
      </trkpt>
      <trkpt lat="40.16965" lon="20.58065">
        <ele>726.89001464844</ele>
        <time>2024-09-27T15:48:51.000Z</time>
      </trkpt>
      <trkpt lat="40.16964" lon="20.58073">
        <ele>727.36999511719</ele>
        <time>2024-09-27T15:48:52.000Z</time>
      </trkpt>
      <trkpt lat="40.16962" lon="20.58087">
        <ele>728.82000732422</ele>
        <time>2024-09-27T15:48:53.000Z</time>
      </trkpt>
      <trkpt lat="40.1696" lon="20.58093">
        <ele>728.82000732422</ele>
        <time>2024-09-27T15:48:54.000Z</time>
      </trkpt>
      <trkpt lat="40.16959" lon="20.58101">
        <ele>729.29998779297</ele>
        <time>2024-09-27T15:48:55.000Z</time>
      </trkpt>
      <trkpt lat="40.16956" lon="20.58111">
        <ele>729.78002929688</ele>
        <time>2024-09-27T15:48:56.000Z</time>
      </trkpt>
      <trkpt lat="40.16952" lon="20.58124">
        <ele>730.26000976562</ele>
        <time>2024-09-27T15:48:57.000Z</time>
      </trkpt>
      <trkpt lat="40.16951" lon="20.58128">
        <ele>730.26000976562</ele>
        <time>2024-09-27T15:48:58.000Z</time>
      </trkpt>
      <trkpt lat="40.16945" lon="20.58154">
        <ele>730.26000976562</ele>
        <time>2024-09-27T15:49:01.000Z</time>
      </trkpt>
      <trkpt lat="40.16943" lon="20.58164">
        <ele>729.78002929688</ele>
        <time>2024-09-27T15:49:02.000Z</time>
      </trkpt>
      <trkpt lat="40.16943" lon="20.58174">
        <ele>730.26000976562</ele>
        <time>2024-09-27T15:49:03.000Z</time>
      </trkpt>
      <trkpt lat="40.16945" lon="20.58184">
        <ele>730.26000976562</ele>
        <time>2024-09-27T15:49:04.000Z</time>
      </trkpt>
      <trkpt lat="40.16947" lon="20.58194">
        <ele>730.26000976562</ele>
        <time>2024-09-27T15:49:05.000Z</time>
      </trkpt>
      <trkpt lat="40.16949" lon="20.58206">
        <ele>730.26000976562</ele>
        <time>2024-09-27T15:49:06.000Z</time>
      </trkpt>
      <trkpt lat="40.16949" lon="20.58215">
        <ele>730.26000976562</ele>
        <time>2024-09-27T15:49:07.000Z</time>
      </trkpt>
      <trkpt lat="40.16949" lon="20.58227">
        <ele>730.26000976562</ele>
        <time>2024-09-27T15:49:08.000Z</time>
      </trkpt>
      <trkpt lat="40.16947" lon="20.58245">
        <ele>730.26000976562</ele>
        <time>2024-09-27T15:49:09.000Z</time>
      </trkpt>
      <trkpt lat="40.16947" lon="20.58248">
        <ele>730.26000976562</ele>
        <time>2024-09-27T15:49:10.000Z</time>
      </trkpt>
      <trkpt lat="40.16947" lon="20.58257">
        <ele>730.26000976562</ele>
        <time>2024-09-27T15:49:11.000Z</time>
      </trkpt>
      <trkpt lat="40.16948" lon="20.58267">
        <ele>729.78002929688</ele>
        <time>2024-09-27T15:49:12.000Z</time>
      </trkpt>
      <trkpt lat="40.16957" lon="20.58306">
        <ele>731.21997070312</ele>
        <time>2024-09-27T15:49:15.000Z</time>
      </trkpt>
      <trkpt lat="40.16959" lon="20.58315">
        <ele>732.17999267578</ele>
        <time>2024-09-27T15:49:16.000Z</time>
      </trkpt>
      <trkpt lat="40.1696" lon="20.58319">
        <ele>732.17999267578</ele>
        <time>2024-09-27T15:49:17.000Z</time>
      </trkpt>
      <trkpt lat="40.1696" lon="20.5833">
        <ele>733.14001464844</ele>
        <time>2024-09-27T15:49:18.000Z</time>
      </trkpt>
      <trkpt lat="40.16959" lon="20.5834">
        <ele>733.61999511719</ele>
        <time>2024-09-27T15:49:19.000Z</time>
      </trkpt>
      <trkpt lat="40.16956" lon="20.58349">
        <ele>734.09997558594</ele>
        <time>2024-09-27T15:49:20.000Z</time>
      </trkpt>
      <trkpt lat="40.1695" lon="20.58357">
        <ele>734.58001708984</ele>
        <time>2024-09-27T15:49:21.000Z</time>
      </trkpt>
      <trkpt lat="40.16943" lon="20.58363">
        <ele>735.07000732422</ele>
        <time>2024-09-27T15:49:22.000Z</time>
      </trkpt>
      <trkpt lat="40.16905" lon="20.58385">
        <ele>738.42999267578</ele>
        <time>2024-09-27T15:49:26.000Z</time>
      </trkpt>
      <trkpt lat="40.16882" lon="20.58394">
        <ele>739.86999511719</ele>
        <time>2024-09-27T15:49:28.000Z</time>
      </trkpt>
      <trkpt lat="40.16881" lon="20.58394">
        <ele>739.86999511719</ele>
        <time>2024-09-27T15:49:29.000Z</time>
      </trkpt>
      <trkpt lat="40.16872" lon="20.58399">
        <ele>740.83001708984</ele>
        <time>2024-09-27T15:49:30.000Z</time>
      </trkpt>
      <trkpt lat="40.16864" lon="20.58405">
        <ele>741.30999755859</ele>
        <time>2024-09-27T15:49:31.000Z</time>
      </trkpt>
      <trkpt lat="40.16855" lon="20.58415">
        <ele>741.78997802734</ele>
        <time>2024-09-27T15:49:32.000Z</time>
      </trkpt>
      <trkpt lat="40.1685" lon="20.5842">
        <ele>742.28002929688</ele>
        <time>2024-09-27T15:49:33.000Z</time>
      </trkpt>
      <trkpt lat="40.16843" lon="20.58423">
        <ele>743.23999023438</ele>
        <time>2024-09-27T15:49:34.000Z</time>
      </trkpt>
      <trkpt lat="40.16837" lon="20.58423">
        <ele>743.71997070312</ele>
        <time>2024-09-27T15:49:35.000Z</time>
      </trkpt>
      <trkpt lat="40.16832" lon="20.58418">
        <ele>744.67999267578</ele>
        <time>2024-09-27T15:49:36.000Z</time>
      </trkpt>
      <trkpt lat="40.16829" lon="20.58411">
        <ele>745.15997314453</ele>
        <time>2024-09-27T15:49:37.000Z</time>
      </trkpt>
      <trkpt lat="40.16829" lon="20.58403">
        <ele>745.64001464844</ele>
        <time>2024-09-27T15:49:38.000Z</time>
      </trkpt>
      <trkpt lat="40.16832" lon="20.58394">
        <ele>746.11999511719</ele>
        <time>2024-09-27T15:49:39.000Z</time>
      </trkpt>
      <trkpt lat="40.16836" lon="20.58388">
        <ele>746.59997558594</ele>
        <time>2024-09-27T15:49:40.000Z</time>
      </trkpt>
      <trkpt lat="40.16842" lon="20.58384">
        <ele>746.59997558594</ele>
        <time>2024-09-27T15:49:41.000Z</time>
      </trkpt>
      <trkpt lat="40.1685" lon="20.58381">
        <ele>747.55999755859</ele>
        <time>2024-09-27T15:49:42.000Z</time>
      </trkpt>
      <trkpt lat="40.16859" lon="20.58378">
        <ele>748.03997802734</ele>
        <time>2024-09-27T15:49:43.000Z</time>
      </trkpt>
      <trkpt lat="40.16864" lon="20.58376">
        <ele>748.52001953125</ele>
        <time>2024-09-27T15:49:44.000Z</time>
      </trkpt>
      <trkpt lat="40.16871" lon="20.58372">
        <ele>749.48999023438</ele>
        <time>2024-09-27T15:49:45.000Z</time>
      </trkpt>
      <trkpt lat="40.16876" lon="20.58365">
        <ele>749.96997070312</ele>
        <time>2024-09-27T15:49:46.000Z</time>
      </trkpt>
      <trkpt lat="40.16882" lon="20.58355">
        <ele>750.45001220703</ele>
        <time>2024-09-27T15:49:47.000Z</time>
      </trkpt>
      <trkpt lat="40.16885" lon="20.58345">
        <ele>750.92999267578</ele>
        <time>2024-09-27T15:49:48.000Z</time>
      </trkpt>
      <trkpt lat="40.16886" lon="20.58334">
        <ele>751.40997314453</ele>
        <time>2024-09-27T15:49:49.000Z</time>
      </trkpt>
      <trkpt lat="40.16886" lon="20.58324">
        <ele>751.89001464844</ele>
        <time>2024-09-27T15:49:50.000Z</time>
      </trkpt>
      <trkpt lat="40.16884" lon="20.58303">
        <ele>753.33001708984</ele>
        <time>2024-09-27T15:49:51.000Z</time>
      </trkpt>
      <trkpt lat="40.16884" lon="20.58301">
        <ele>753.33001708984</ele>
        <time>2024-09-27T15:49:52.000Z</time>
      </trkpt>
      <trkpt lat="40.1688" lon="20.58272">
        <ele>754.28997802734</ele>
        <time>2024-09-27T15:49:54.000Z</time>
      </trkpt>
      <trkpt lat="40.16878" lon="20.58263">
        <ele>754.77001953125</ele>
        <time>2024-09-27T15:49:55.000Z</time>
      </trkpt>
      <trkpt lat="40.16875" lon="20.58255">
        <ele>755.25</ele>
        <time>2024-09-27T15:49:56.000Z</time>
      </trkpt>
      <trkpt lat="40.1687" lon="20.58244">
        <ele>755.72998046875</ele>
        <time>2024-09-27T15:49:57.000Z</time>
      </trkpt>
      <trkpt lat="40.16865" lon="20.58235">
        <ele>756.21002197266</ele>
        <time>2024-09-27T15:49:58.000Z</time>
      </trkpt>
      <trkpt lat="40.16859" lon="20.58227">
        <ele>756.69000244141</ele>
        <time>2024-09-27T15:49:59.000Z</time>
      </trkpt>
      <trkpt lat="40.16838" lon="20.58205">
        <ele>758.14001464844</ele>
        <time>2024-09-27T15:50:01.000Z</time>
      </trkpt>
      <trkpt lat="40.16837" lon="20.58203">
        <ele>758.14001464844</ele>
        <time>2024-09-27T15:50:02.000Z</time>
      </trkpt>
      <trkpt lat="40.16831" lon="20.58194">
        <ele>758.61999511719</ele>
        <time>2024-09-27T15:50:03.000Z</time>
      </trkpt>
      <trkpt lat="40.16827" lon="20.58185">
        <ele>759.09997558594</ele>
        <time>2024-09-27T15:50:04.000Z</time>
      </trkpt>
      <trkpt lat="40.16822" lon="20.58172">
        <ele>759.58001708984</ele>
        <time>2024-09-27T15:50:05.000Z</time>
      </trkpt>
      <trkpt lat="40.16815" lon="20.58151">
        <ele>761.02001953125</ele>
        <time>2024-09-27T15:50:07.000Z</time>
      </trkpt>
      <trkpt lat="40.16812" lon="20.58142">
        <ele>761.02001953125</ele>
        <time>2024-09-27T15:50:08.000Z</time>
      </trkpt>
      <trkpt lat="40.16807" lon="20.58133">
        <ele>761.97998046875</ele>
        <time>2024-09-27T15:50:09.000Z</time>
      </trkpt>
      <trkpt lat="40.16799" lon="20.58125">
        <ele>762.46002197266</ele>
        <time>2024-09-27T15:50:10.000Z</time>
      </trkpt>
      <trkpt lat="40.16792" lon="20.58118">
        <ele>762.94000244141</ele>
        <time>2024-09-27T15:50:11.000Z</time>
      </trkpt>
      <trkpt lat="40.16786" lon="20.58113">
        <ele>763.41998291016</ele>
        <time>2024-09-27T15:50:12.000Z</time>
      </trkpt>
      <trkpt lat="40.16779" lon="20.58106">
        <ele>764.39001464844</ele>
        <time>2024-09-27T15:50:13.000Z</time>
      </trkpt>
      <trkpt lat="40.16773" lon="20.58097">
        <ele>765.34997558594</ele>
        <time>2024-09-27T15:50:14.000Z</time>
      </trkpt>
      <trkpt lat="40.16767" lon="20.58087">
        <ele>766.30999755859</ele>
        <time>2024-09-27T15:50:15.000Z</time>
      </trkpt>
      <trkpt lat="40.16765" lon="20.58081">
        <ele>766.78997802734</ele>
        <time>2024-09-27T15:50:16.000Z</time>
      </trkpt>
      <trkpt lat="40.16762" lon="20.58072">
        <ele>767.75</ele>
        <time>2024-09-27T15:50:17.000Z</time>
      </trkpt>
      <trkpt lat="40.16762" lon="20.58063">
        <ele>768.22998046875</ele>
        <time>2024-09-27T15:50:18.000Z</time>
      </trkpt>
      <trkpt lat="40.16764" lon="20.58056">
        <ele>768.71002197266</ele>
        <time>2024-09-27T15:50:19.000Z</time>
      </trkpt>
      <trkpt lat="40.16768" lon="20.5805">
        <ele>769.66998291016</ele>
        <time>2024-09-27T15:50:20.000Z</time>
      </trkpt>
      <trkpt lat="40.16774" lon="20.58045">
        <ele>770.15002441406</ele>
        <time>2024-09-27T15:50:21.000Z</time>
      </trkpt>
      <trkpt lat="40.16779" lon="20.58041">
        <ele>771.10998535156</ele>
        <time>2024-09-27T15:50:22.000Z</time>
      </trkpt>
      <trkpt lat="40.16783" lon="20.58035">
        <ele>771.59997558594</ele>
        <time>2024-09-27T15:50:23.000Z</time>
      </trkpt>
      <trkpt lat="40.16785" lon="20.58028">
        <ele>771.59997558594</ele>
        <time>2024-09-27T15:50:24.000Z</time>
      </trkpt>
      <trkpt lat="40.16784" lon="20.58021">
        <ele>771.59997558594</ele>
        <time>2024-09-27T15:50:25.000Z</time>
      </trkpt>
      <trkpt lat="40.16781" lon="20.58016">
        <ele>772.08001708984</ele>
        <time>2024-09-27T15:50:26.000Z</time>
      </trkpt>
      <trkpt lat="40.16775" lon="20.58013">
        <ele>772.08001708984</ele>
        <time>2024-09-27T15:50:27.000Z</time>
      </trkpt>
      <trkpt lat="40.16768" lon="20.58013">
        <ele>773.03997802734</ele>
        <time>2024-09-27T15:50:28.000Z</time>
      </trkpt>
      <trkpt lat="40.16761" lon="20.58016">
        <ele>773.03997802734</ele>
        <time>2024-09-27T15:50:29.000Z</time>
      </trkpt>
      <trkpt lat="40.16755" lon="20.58021">
        <ele>774</ele>
        <time>2024-09-27T15:50:30.000Z</time>
      </trkpt>
      <trkpt lat="40.16748" lon="20.58026">
        <ele>774</ele>
        <time>2024-09-27T15:50:31.000Z</time>
      </trkpt>
      <trkpt lat="40.16742" lon="20.5803">
        <ele>774.47998046875</ele>
        <time>2024-09-27T15:50:32.000Z</time>
      </trkpt>
      <trkpt lat="40.16734" lon="20.58034">
        <ele>774.96002197266</ele>
        <time>2024-09-27T15:50:33.000Z</time>
      </trkpt>
      <trkpt lat="40.16725" lon="20.58038">
        <ele>775.91998291016</ele>
        <time>2024-09-27T15:50:34.000Z</time>
      </trkpt>
      <trkpt lat="40.16721" lon="20.5804">
        <ele>776.40002441406</ele>
        <time>2024-09-27T15:50:35.000Z</time>
      </trkpt>
      <trkpt lat="40.16715" lon="20.58045">
        <ele>777.35998535156</ele>
        <time>2024-09-27T15:50:36.000Z</time>
      </trkpt>
      <trkpt lat="40.16709" lon="20.58052">
        <ele>777.84002685547</ele>
        <time>2024-09-27T15:50:37.000Z</time>
      </trkpt>
      <trkpt lat="40.16706" lon="20.58061">
        <ele>778.80999755859</ele>
        <time>2024-09-27T15:50:38.000Z</time>
      </trkpt>
      <trkpt lat="40.16705" lon="20.58071">
        <ele>779.77001953125</ele>
        <time>2024-09-27T15:50:39.000Z</time>
      </trkpt>
      <trkpt lat="40.16706" lon="20.58081">
        <ele>780.25</ele>
        <time>2024-09-27T15:50:40.000Z</time>
      </trkpt>
      <trkpt lat="40.1673" lon="20.5815">
        <ele>784.09002685547</ele>
        <time>2024-09-27T15:50:47.000Z</time>
      </trkpt>
      <trkpt lat="40.16732" lon="20.58156">
        <ele>784.57000732422</ele>
        <time>2024-09-27T15:50:48.000Z</time>
      </trkpt>
      <trkpt lat="40.1674" lon="20.58177">
        <ele>785.53002929688</ele>
        <time>2024-09-27T15:50:50.000Z</time>
      </trkpt>
      <trkpt lat="40.16741" lon="20.58181">
        <ele>786.02001953125</ele>
        <time>2024-09-27T15:50:51.000Z</time>
      </trkpt>
      <trkpt lat="40.16743" lon="20.58189">
        <ele>786.5</ele>
        <time>2024-09-27T15:50:52.000Z</time>
      </trkpt>
      <trkpt lat="40.16744" lon="20.58197">
        <ele>786.97998046875</ele>
        <time>2024-09-27T15:50:53.000Z</time>
      </trkpt>
      <trkpt lat="40.16745" lon="20.58204">
        <ele>787.46002197266</ele>
        <time>2024-09-27T15:50:54.000Z</time>
      </trkpt>
      <trkpt lat="40.16744" lon="20.58215">
        <ele>788.41998291016</ele>
        <time>2024-09-27T15:50:55.000Z</time>
      </trkpt>
      <trkpt lat="40.16742" lon="20.58225">
        <ele>788.90002441406</ele>
        <time>2024-09-27T15:50:56.000Z</time>
      </trkpt>
      <trkpt lat="40.16739" lon="20.58238">
        <ele>789.85998535156</ele>
        <time>2024-09-27T15:50:57.000Z</time>
      </trkpt>
      <trkpt lat="40.16736" lon="20.58249">
        <ele>790.34002685547</ele>
        <time>2024-09-27T15:50:58.000Z</time>
      </trkpt>
      <trkpt lat="40.16723" lon="20.58286">
        <ele>792.73999023438</ele>
        <time>2024-09-27T15:51:01.000Z</time>
      </trkpt>
      <trkpt lat="40.16721" lon="20.58291">
        <ele>793.21997070312</ele>
        <time>2024-09-27T15:51:02.000Z</time>
      </trkpt>
      <trkpt lat="40.16715" lon="20.58305">
        <ele>793.21997070312</ele>
        <time>2024-09-27T15:51:03.000Z</time>
      </trkpt>
      <trkpt lat="40.16695" lon="20.58345">
        <ele>794.66998291016</ele>
        <time>2024-09-27T15:51:08.000Z</time>
      </trkpt>
      <trkpt lat="40.16682" lon="20.58371">
        <ele>795.63000488281</ele>
        <time>2024-09-27T15:51:11.000Z</time>
      </trkpt>
      <trkpt lat="40.16679" lon="20.58375">
        <ele>795.63000488281</ele>
        <time>2024-09-27T15:51:12.000Z</time>
      </trkpt>
      <trkpt lat="40.16669" lon="20.5839">
        <ele>796.59002685547</ele>
        <time>2024-09-27T15:51:13.000Z</time>
      </trkpt>
      <trkpt lat="40.16665" lon="20.58397">
        <ele>796.59002685547</ele>
        <time>2024-09-27T15:51:14.000Z</time>
      </trkpt>
      <trkpt lat="40.16661" lon="20.58401">
        <ele>797.07000732422</ele>
        <time>2024-09-27T15:51:15.000Z</time>
      </trkpt>
      <trkpt lat="40.16654" lon="20.5841">
        <ele>797.54998779297</ele>
        <time>2024-09-27T15:51:16.000Z</time>
      </trkpt>
      <trkpt lat="40.1664" lon="20.58425">
        <ele>798.51000976562</ele>
        <time>2024-09-27T15:51:17.000Z</time>
      </trkpt>
      <trkpt lat="40.16604" lon="20.5846">
        <ele>799.95001220703</ele>
        <time>2024-09-27T15:51:22.000Z</time>
      </trkpt>
      <trkpt lat="40.16578" lon="20.58483">
        <ele>800.91998291016</ele>
        <time>2024-09-27T15:51:25.000Z</time>
      </trkpt>
      <trkpt lat="40.16574" lon="20.58488">
        <ele>801.40002441406</ele>
        <time>2024-09-27T15:51:26.000Z</time>
      </trkpt>
      <trkpt lat="40.16567" lon="20.58496">
        <ele>801.88000488281</ele>
        <time>2024-09-27T15:51:27.000Z</time>
      </trkpt>
      <trkpt lat="40.1656" lon="20.58506">
        <ele>802.84002685547</ele>
        <time>2024-09-27T15:51:28.000Z</time>
      </trkpt>
      <trkpt lat="40.16551" lon="20.5852">
        <ele>803.79998779297</ele>
        <time>2024-09-27T15:51:29.000Z</time>
      </trkpt>
      <trkpt lat="40.16548" lon="20.58527">
        <ele>804.28002929688</ele>
        <time>2024-09-27T15:51:30.000Z</time>
      </trkpt>
      <trkpt lat="40.16533" lon="20.58556">
        <ele>806.20001220703</ele>
        <time>2024-09-27T15:51:34.000Z</time>
      </trkpt>
      <trkpt lat="40.16529" lon="20.58564">
        <ele>806.20001220703</ele>
        <time>2024-09-27T15:51:35.000Z</time>
      </trkpt>
      <trkpt lat="40.16506" lon="20.58597">
        <ele>807.15997314453</ele>
        <time>2024-09-27T15:51:38.000Z</time>
      </trkpt>
      <trkpt lat="40.16505" lon="20.58598">
        <ele>807.15997314453</ele>
        <time>2024-09-27T15:51:39.000Z</time>
      </trkpt>
      <trkpt lat="40.16498" lon="20.58607">
        <ele>808.13000488281</ele>
        <time>2024-09-27T15:51:40.000Z</time>
      </trkpt>
      <trkpt lat="40.16491" lon="20.58613">
        <ele>808.60998535156</ele>
        <time>2024-09-27T15:51:41.000Z</time>
      </trkpt>
      <trkpt lat="40.16483" lon="20.58617">
        <ele>809.57000732422</ele>
        <time>2024-09-27T15:51:42.000Z</time>
      </trkpt>
      <trkpt lat="40.16472" lon="20.58622">
        <ele>811.01000976562</ele>
        <time>2024-09-27T15:51:43.000Z</time>
      </trkpt>
      <trkpt lat="40.16468" lon="20.58624">
        <ele>811.01000976562</ele>
        <time>2024-09-27T15:51:44.000Z</time>
      </trkpt>
      <trkpt lat="40.16461" lon="20.58629">
        <ele>811.96997070312</ele>
        <time>2024-09-27T15:51:45.000Z</time>
      </trkpt>
      <trkpt lat="40.16454" lon="20.58635">
        <ele>812.45001220703</ele>
        <time>2024-09-27T15:51:46.000Z</time>
      </trkpt>
      <trkpt lat="40.16445" lon="20.58646">
        <ele>812.92999267578</ele>
        <time>2024-09-27T15:51:47.000Z</time>
      </trkpt>
      <trkpt lat="40.16441" lon="20.58652">
        <ele>813.89001464844</ele>
        <time>2024-09-27T15:51:48.000Z</time>
      </trkpt>
      <trkpt lat="40.16436" lon="20.58662">
        <ele>814.84997558594</ele>
        <time>2024-09-27T15:51:49.000Z</time>
      </trkpt>
      <trkpt lat="40.1643" lon="20.58673">
        <ele>815.34002685547</ele>
        <time>2024-09-27T15:51:50.000Z</time>
      </trkpt>
      <trkpt lat="40.16427" lon="20.58678">
        <ele>815.82000732422</ele>
        <time>2024-09-27T15:51:51.000Z</time>
      </trkpt>
      <trkpt lat="40.16421" lon="20.58686">
        <ele>816.78002929688</ele>
        <time>2024-09-27T15:51:52.000Z</time>
      </trkpt>
      <trkpt lat="40.16413" lon="20.58693">
        <ele>817.26000976562</ele>
        <time>2024-09-27T15:51:53.000Z</time>
      </trkpt>
      <trkpt lat="40.16406" lon="20.58697">
        <ele>817.73999023438</ele>
        <time>2024-09-27T15:51:54.000Z</time>
      </trkpt>
      <trkpt lat="40.16396" lon="20.58702">
        <ele>818.21997070312</ele>
        <time>2024-09-27T15:51:55.000Z</time>
      </trkpt>
      <trkpt lat="40.16334" lon="20.58725">
        <ele>821.09997558594</ele>
        <time>2024-09-27T15:52:01.000Z</time>
      </trkpt>
      <trkpt lat="40.16329" lon="20.58727">
        <ele>821.58001708984</ele>
        <time>2024-09-27T15:52:02.000Z</time>
      </trkpt>
      <trkpt lat="40.1632" lon="20.58733">
        <ele>821.58001708984</ele>
        <time>2024-09-27T15:52:03.000Z</time>
      </trkpt>
      <trkpt lat="40.16312" lon="20.58739">
        <ele>822.05999755859</ele>
        <time>2024-09-27T15:52:04.000Z</time>
      </trkpt>
      <trkpt lat="40.16304" lon="20.58748">
        <ele>822.54998779297</ele>
        <time>2024-09-27T15:52:05.000Z</time>
      </trkpt>
      <trkpt lat="40.16299" lon="20.58755">
        <ele>823.03002929688</ele>
        <time>2024-09-27T15:52:06.000Z</time>
      </trkpt>
      <trkpt lat="40.16285" lon="20.58777">
        <ele>823.98999023438</ele>
        <time>2024-09-27T15:52:08.000Z</time>
      </trkpt>
      <trkpt lat="40.16233" lon="20.58876">
        <ele>827.83001708984</ele>
        <time>2024-09-27T15:52:16.000Z</time>
      </trkpt>
      <trkpt lat="40.1623" lon="20.58881">
        <ele>828.30999755859</ele>
        <time>2024-09-27T15:52:17.000Z</time>
      </trkpt>
      <trkpt lat="40.16225" lon="20.58888">
        <ele>828.78997802734</ele>
        <time>2024-09-27T15:52:18.000Z</time>
      </trkpt>
      <trkpt lat="40.16218" lon="20.58896">
        <ele>829.27001953125</ele>
        <time>2024-09-27T15:52:19.000Z</time>
      </trkpt>
      <trkpt lat="40.1621" lon="20.58902">
        <ele>829.76000976562</ele>
        <time>2024-09-27T15:52:20.000Z</time>
      </trkpt>
      <trkpt lat="40.16201" lon="20.58907">
        <ele>830.23999023438</ele>
        <time>2024-09-27T15:52:21.000Z</time>
      </trkpt>
      <trkpt lat="40.16191" lon="20.5891">
        <ele>830.23999023438</ele>
        <time>2024-09-27T15:52:22.000Z</time>
      </trkpt>
      <trkpt lat="40.16169" lon="20.58913">
        <ele>831.20001220703</ele>
        <time>2024-09-27T15:52:24.000Z</time>
      </trkpt>
      <trkpt lat="40.16158" lon="20.58915">
        <ele>831.67999267578</ele>
        <time>2024-09-27T15:52:25.000Z</time>
      </trkpt>
      <trkpt lat="40.16146" lon="20.5892">
        <ele>832.64001464844</ele>
        <time>2024-09-27T15:52:26.000Z</time>
      </trkpt>
      <trkpt lat="40.16138" lon="20.58924">
        <ele>833.11999511719</ele>
        <time>2024-09-27T15:52:27.000Z</time>
      </trkpt>
      <trkpt lat="40.16127" lon="20.5893">
        <ele>833.59997558594</ele>
        <time>2024-09-27T15:52:28.000Z</time>
      </trkpt>
      <trkpt lat="40.16079" lon="20.58965">
        <ele>837.45001220703</ele>
        <time>2024-09-27T15:52:33.000Z</time>
      </trkpt>
      <trkpt lat="40.16072" lon="20.58971">
        <ele>837.92999267578</ele>
        <time>2024-09-27T15:52:34.000Z</time>
      </trkpt>
      <trkpt lat="40.16066" lon="20.58979">
        <ele>838.89001464844</ele>
        <time>2024-09-27T15:52:35.000Z</time>
      </trkpt>
      <trkpt lat="40.16049" lon="20.59015">
        <ele>841.77001953125</ele>
        <time>2024-09-27T15:52:38.000Z</time>
      </trkpt>
      <trkpt lat="40.16048" lon="20.59018">
        <ele>841.77001953125</ele>
        <time>2024-09-27T15:52:39.000Z</time>
      </trkpt>
      <trkpt lat="40.16032" lon="20.59046">
        <ele>843.21002197266</ele>
        <time>2024-09-27T15:52:42.000Z</time>
      </trkpt>
      <trkpt lat="40.15973" lon="20.59126">
        <ele>844.65997314453</ele>
        <time>2024-09-27T15:52:50.000Z</time>
      </trkpt>
      <trkpt lat="40.1597" lon="20.5913">
        <ele>845.14001464844</ele>
        <time>2024-09-27T15:52:51.000Z</time>
      </trkpt>
      <trkpt lat="40.15957" lon="20.59152">
        <ele>847.05999755859</ele>
        <time>2024-09-27T15:52:53.000Z</time>
      </trkpt>
      <trkpt lat="40.15948" lon="20.59172">
        <ele>848.02001953125</ele>
        <time>2024-09-27T15:52:55.000Z</time>
      </trkpt>
      <trkpt lat="40.15924" lon="20.59214">
        <ele>849.94000244141</ele>
        <time>2024-09-27T15:52:59.000Z</time>
      </trkpt>
      <trkpt lat="40.15857" lon="20.59324">
        <ele>854.27001953125</ele>
        <time>2024-09-27T15:53:09.000Z</time>
      </trkpt>
      <trkpt lat="40.1583" lon="20.59364">
        <ele>855.22998046875</ele>
        <time>2024-09-27T15:53:12.000Z</time>
      </trkpt>
      <trkpt lat="40.15826" lon="20.5937">
        <ele>855.71002197266</ele>
        <time>2024-09-27T15:53:13.000Z</time>
      </trkpt>
      <trkpt lat="40.15821" lon="20.5938">
        <ele>856.19000244141</ele>
        <time>2024-09-27T15:53:14.000Z</time>
      </trkpt>
      <trkpt lat="40.15814" lon="20.59393">
        <ele>856.66998291016</ele>
        <time>2024-09-27T15:53:15.000Z</time>
      </trkpt>
      <trkpt lat="40.15784" lon="20.59449">
        <ele>859.55999755859</ele>
        <time>2024-09-27T15:53:20.000Z</time>
      </trkpt>
      <trkpt lat="40.15775" lon="20.59468">
        <ele>860.52001953125</ele>
        <time>2024-09-27T15:53:22.000Z</time>
      </trkpt>
      <trkpt lat="40.15771" lon="20.59477">
        <ele>861.47998046875</ele>
        <time>2024-09-27T15:53:23.000Z</time>
      </trkpt>
      <trkpt lat="40.15766" lon="20.59484">
        <ele>861.96002197266</ele>
        <time>2024-09-27T15:53:24.000Z</time>
      </trkpt>
      <trkpt lat="40.15757" lon="20.59492">
        <ele>863.40002441406</ele>
        <time>2024-09-27T15:53:25.000Z</time>
      </trkpt>
      <trkpt lat="40.15753" lon="20.59495">
        <ele>863.88000488281</ele>
        <time>2024-09-27T15:53:26.000Z</time>
      </trkpt>
      <trkpt lat="40.15741" lon="20.59504">
        <ele>864.84002685547</ele>
        <time>2024-09-27T15:53:27.000Z</time>
      </trkpt>
      <trkpt lat="40.15735" lon="20.59507">
        <ele>865.32000732422</ele>
        <time>2024-09-27T15:53:28.000Z</time>
      </trkpt>
      <trkpt lat="40.15726" lon="20.59511">
        <ele>866.28997802734</ele>
        <time>2024-09-27T15:53:29.000Z</time>
      </trkpt>
      <trkpt lat="40.15712" lon="20.59517">
        <ele>867.25</ele>
        <time>2024-09-27T15:53:30.000Z</time>
      </trkpt>
      <trkpt lat="40.15709" lon="20.59518">
        <ele>867.25</ele>
        <time>2024-09-27T15:53:31.000Z</time>
      </trkpt>
      <trkpt lat="40.15697" lon="20.59521">
        <ele>868.21002197266</ele>
        <time>2024-09-27T15:53:32.000Z</time>
      </trkpt>
      <trkpt lat="40.15691" lon="20.59522">
        <ele>868.69000244141</ele>
        <time>2024-09-27T15:53:33.000Z</time>
      </trkpt>
      <trkpt lat="40.15679" lon="20.59523">
        <ele>869.65002441406</ele>
        <time>2024-09-27T15:53:34.000Z</time>
      </trkpt>
      <trkpt lat="40.15676" lon="20.59523">
        <ele>869.65002441406</ele>
        <time>2024-09-27T15:53:35.000Z</time>
      </trkpt>
      <trkpt lat="40.15671" lon="20.59525">
        <ele>869.65002441406</ele>
        <time>2024-09-27T15:53:36.000Z</time>
      </trkpt>
      <trkpt lat="40.15668" lon="20.59529">
        <ele>870.13000488281</ele>
        <time>2024-09-27T15:53:37.000Z</time>
      </trkpt>
      <trkpt lat="40.15665" lon="20.59535">
        <ele>870.60998535156</ele>
        <time>2024-09-27T15:53:38.000Z</time>
      </trkpt>
      <trkpt lat="40.15665" lon="20.59542">
        <ele>870.60998535156</ele>
        <time>2024-09-27T15:53:39.000Z</time>
      </trkpt>
      <trkpt lat="40.15666" lon="20.5955">
        <ele>870.60998535156</ele>
        <time>2024-09-27T15:53:40.000Z</time>
      </trkpt>
      <trkpt lat="40.1567" lon="20.59558">
        <ele>871.09002685547</ele>
        <time>2024-09-27T15:53:41.000Z</time>
      </trkpt>
      <trkpt lat="40.15676" lon="20.59566">
        <ele>871.09002685547</ele>
        <time>2024-09-27T15:53:42.000Z</time>
      </trkpt>
      <trkpt lat="40.15687" lon="20.59579">
        <ele>872.04998779297</ele>
        <time>2024-09-27T15:53:43.000Z</time>
      </trkpt>
      <trkpt lat="40.15691" lon="20.59584">
        <ele>872.53002929688</ele>
        <time>2024-09-27T15:53:44.000Z</time>
      </trkpt>
      <trkpt lat="40.15705" lon="20.59603">
        <ele>873.97998046875</ele>
        <time>2024-09-27T15:53:46.000Z</time>
      </trkpt>
      <trkpt lat="40.15707" lon="20.59606">
        <ele>874.46002197266</ele>
        <time>2024-09-27T15:53:47.000Z</time>
      </trkpt>
      <trkpt lat="40.15713" lon="20.59616">
        <ele>874.94000244141</ele>
        <time>2024-09-27T15:53:48.000Z</time>
      </trkpt>
      <trkpt lat="40.1572" lon="20.59628">
        <ele>875.90002441406</ele>
        <time>2024-09-27T15:53:49.000Z</time>
      </trkpt>
      <trkpt lat="40.15724" lon="20.59636">
        <ele>876.38000488281</ele>
        <time>2024-09-27T15:53:50.000Z</time>
      </trkpt>
      <trkpt lat="40.15731" lon="20.59649">
        <ele>877.82000732422</ele>
        <time>2024-09-27T15:53:51.000Z</time>
      </trkpt>
      <trkpt lat="40.15732" lon="20.59651">
        <ele>877.82000732422</ele>
        <time>2024-09-27T15:53:52.000Z</time>
      </trkpt>
      <trkpt lat="40.15747" lon="20.59676">
        <ele>880.21997070312</ele>
        <time>2024-09-27T15:53:54.000Z</time>
      </trkpt>
      <trkpt lat="40.15749" lon="20.5968">
        <ele>880.71002197266</ele>
        <time>2024-09-27T15:53:55.000Z</time>
      </trkpt>
      <trkpt lat="40.15752" lon="20.59687">
        <ele>881.19000244141</ele>
        <time>2024-09-27T15:53:56.000Z</time>
      </trkpt>
      <trkpt lat="40.15759" lon="20.59708">
        <ele>882.63000488281</ele>
        <time>2024-09-27T15:53:58.000Z</time>
      </trkpt>
      <trkpt lat="40.15761" lon="20.59715">
        <ele>883.10998535156</ele>
        <time>2024-09-27T15:53:59.000Z</time>
      </trkpt>
      <trkpt lat="40.15762" lon="20.59724">
        <ele>884.07000732422</ele>
        <time>2024-09-27T15:54:00.000Z</time>
      </trkpt>
      <trkpt lat="40.15761" lon="20.59733">
        <ele>884.54998779297</ele>
        <time>2024-09-27T15:54:01.000Z</time>
      </trkpt>
      <trkpt lat="40.15757" lon="20.59741">
        <ele>885.51000976562</ele>
        <time>2024-09-27T15:54:02.000Z</time>
      </trkpt>
      <trkpt lat="40.15751" lon="20.59753">
        <ele>886.46997070312</ele>
        <time>2024-09-27T15:54:03.000Z</time>
      </trkpt>
      <trkpt lat="40.15745" lon="20.59762">
        <ele>887.42999267578</ele>
        <time>2024-09-27T15:54:04.000Z</time>
      </trkpt>
      <trkpt lat="40.15739" lon="20.59769">
        <ele>887.90997314453</ele>
        <time>2024-09-27T15:54:05.000Z</time>
      </trkpt>
      <trkpt lat="40.15732" lon="20.59777">
        <ele>888.88000488281</ele>
        <time>2024-09-27T15:54:06.000Z</time>
      </trkpt>
      <trkpt lat="40.15723" lon="20.59785">
        <ele>889.35998535156</ele>
        <time>2024-09-27T15:54:07.000Z</time>
      </trkpt>
      <trkpt lat="40.15714" lon="20.59792">
        <ele>889.84002685547</ele>
        <time>2024-09-27T15:54:08.000Z</time>
      </trkpt>
      <trkpt lat="40.15694" lon="20.59803">
        <ele>890.79998779297</ele>
        <time>2024-09-27T15:54:10.000Z</time>
      </trkpt>
      <trkpt lat="40.15682" lon="20.5981">
        <ele>891.28002929688</ele>
        <time>2024-09-27T15:54:11.000Z</time>
      </trkpt>
      <trkpt lat="40.15675" lon="20.59817">
        <ele>891.28002929688</ele>
        <time>2024-09-27T15:54:12.000Z</time>
      </trkpt>
      <trkpt lat="40.15667" lon="20.59826">
        <ele>891.76000976562</ele>
        <time>2024-09-27T15:54:13.000Z</time>
      </trkpt>
      <trkpt lat="40.15654" lon="20.59845">
        <ele>892.23999023438</ele>
        <time>2024-09-27T15:54:15.000Z</time>
      </trkpt>
      <trkpt lat="40.15648" lon="20.59854">
        <ele>892.23999023438</ele>
        <time>2024-09-27T15:54:16.000Z</time>
      </trkpt>
      <trkpt lat="40.15641" lon="20.59861">
        <ele>892.71997070312</ele>
        <time>2024-09-27T15:54:17.000Z</time>
      </trkpt>
      <trkpt lat="40.15634" lon="20.59868">
        <ele>892.71997070312</ele>
        <time>2024-09-27T15:54:18.000Z</time>
      </trkpt>
      <trkpt lat="40.15606" lon="20.5989">
        <ele>893.67999267578</ele>
        <time>2024-09-27T15:54:21.000Z</time>
      </trkpt>
      <trkpt lat="40.15603" lon="20.59893">
        <ele>894.15997314453</ele>
        <time>2024-09-27T15:54:22.000Z</time>
      </trkpt>
      <trkpt lat="40.15578" lon="20.59907">
        <ele>895.60998535156</ele>
        <time>2024-09-27T15:54:25.000Z</time>
      </trkpt>
      <trkpt lat="40.15566" lon="20.59915">
        <ele>896.09002685547</ele>
        <time>2024-09-27T15:54:26.000Z</time>
      </trkpt>
      <trkpt lat="40.15563" lon="20.59917">
        <ele>896.09002685547</ele>
        <time>2024-09-27T15:54:27.000Z</time>
      </trkpt>
      <trkpt lat="40.15556" lon="20.59923">
        <ele>896.09002685547</ele>
        <time>2024-09-27T15:54:28.000Z</time>
      </trkpt>
      <trkpt lat="40.1555" lon="20.5993">
        <ele>896.57000732422</ele>
        <time>2024-09-27T15:54:29.000Z</time>
      </trkpt>
      <trkpt lat="40.15545" lon="20.59938">
        <ele>896.57000732422</ele>
        <time>2024-09-27T15:54:30.000Z</time>
      </trkpt>
      <trkpt lat="40.15539" lon="20.59949">
        <ele>897.04998779297</ele>
        <time>2024-09-27T15:54:31.000Z</time>
      </trkpt>
      <trkpt lat="40.15532" lon="20.59962">
        <ele>897.53002929688</ele>
        <time>2024-09-27T15:54:32.000Z</time>
      </trkpt>
      <trkpt lat="40.15531" lon="20.59963">
        <ele>897.53002929688</ele>
        <time>2024-09-27T15:54:33.000Z</time>
      </trkpt>
      <trkpt lat="40.15527" lon="20.59971">
        <ele>897.53002929688</ele>
        <time>2024-09-27T15:54:34.000Z</time>
      </trkpt>
      <trkpt lat="40.15521" lon="20.59978">
        <ele>898.01000976562</ele>
        <time>2024-09-27T15:54:35.000Z</time>
      </trkpt>
      <trkpt lat="40.15514" lon="20.59986">
        <ele>898.01000976562</ele>
        <time>2024-09-27T15:54:36.000Z</time>
      </trkpt>
      <trkpt lat="40.15507" lon="20.59992">
        <ele>898.01000976562</ele>
        <time>2024-09-27T15:54:37.000Z</time>
      </trkpt>
      <trkpt lat="40.155" lon="20.59998">
        <ele>898.01000976562</ele>
        <time>2024-09-27T15:54:38.000Z</time>
      </trkpt>
      <trkpt lat="40.1549" lon="20.60004">
        <ele>898.01000976562</ele>
        <time>2024-09-27T15:54:39.000Z</time>
      </trkpt>
      <trkpt lat="40.15485" lon="20.60007">
        <ele>898.01000976562</ele>
        <time>2024-09-27T15:54:40.000Z</time>
      </trkpt>
      <trkpt lat="40.15476" lon="20.60011">
        <ele>898.01000976562</ele>
        <time>2024-09-27T15:54:41.000Z</time>
      </trkpt>
      <trkpt lat="40.15467" lon="20.60015">
        <ele>898.01000976562</ele>
        <time>2024-09-27T15:54:42.000Z</time>
      </trkpt>
      <trkpt lat="40.1545" lon="20.60022">
        <ele>898.01000976562</ele>
        <time>2024-09-27T15:54:44.000Z</time>
      </trkpt>
      <trkpt lat="40.15444" lon="20.60025">
        <ele>897.53002929688</ele>
        <time>2024-09-27T15:54:45.000Z</time>
      </trkpt>
      <trkpt lat="40.15434" lon="20.60028">
        <ele>897.53002929688</ele>
        <time>2024-09-27T15:54:46.000Z</time>
      </trkpt>
      <trkpt lat="40.15424" lon="20.60032">
        <ele>897.53002929688</ele>
        <time>2024-09-27T15:54:47.000Z</time>
      </trkpt>
      <trkpt lat="40.15421" lon="20.60033">
        <ele>897.53002929688</ele>
        <time>2024-09-27T15:54:48.000Z</time>
      </trkpt>
      <trkpt lat="40.15413" lon="20.60037">
        <ele>897.53002929688</ele>
        <time>2024-09-27T15:54:49.000Z</time>
      </trkpt>
      <trkpt lat="40.15407" lon="20.60041">
        <ele>897.53002929688</ele>
        <time>2024-09-27T15:54:50.000Z</time>
      </trkpt>
      <trkpt lat="40.154" lon="20.60047">
        <ele>897.53002929688</ele>
        <time>2024-09-27T15:54:51.000Z</time>
      </trkpt>
      <trkpt lat="40.15394" lon="20.60055">
        <ele>897.53002929688</ele>
        <time>2024-09-27T15:54:52.000Z</time>
      </trkpt>
      <trkpt lat="40.15388" lon="20.60064">
        <ele>897.53002929688</ele>
        <time>2024-09-27T15:54:53.000Z</time>
      </trkpt>
      <trkpt lat="40.15383" lon="20.60074">
        <ele>898.01000976562</ele>
        <time>2024-09-27T15:54:54.000Z</time>
      </trkpt>
      <trkpt lat="40.1538" lon="20.60081">
        <ele>898.01000976562</ele>
        <time>2024-09-27T15:54:55.000Z</time>
      </trkpt>
      <trkpt lat="40.15376" lon="20.60091">
        <ele>898.01000976562</ele>
        <time>2024-09-27T15:54:56.000Z</time>
      </trkpt>
      <trkpt lat="40.15373" lon="20.60097">
        <ele>898.48999023438</ele>
        <time>2024-09-27T15:54:57.000Z</time>
      </trkpt>
      <trkpt lat="40.15368" lon="20.60103">
        <ele>898.96997070312</ele>
        <time>2024-09-27T15:54:58.000Z</time>
      </trkpt>
      <trkpt lat="40.15362" lon="20.60108">
        <ele>899.45001220703</ele>
        <time>2024-09-27T15:54:59.000Z</time>
      </trkpt>
      <trkpt lat="40.15355" lon="20.60111">
        <ele>899.92999267578</ele>
        <time>2024-09-27T15:55:00.000Z</time>
      </trkpt>
      <trkpt lat="40.15348" lon="20.60112">
        <ele>899.92999267578</ele>
        <time>2024-09-27T15:55:01.000Z</time>
      </trkpt>
      <trkpt lat="40.15341" lon="20.6011">
        <ele>899.92999267578</ele>
        <time>2024-09-27T15:55:02.000Z</time>
      </trkpt>
      <trkpt lat="40.15335" lon="20.60106">
        <ele>899.92999267578</ele>
        <time>2024-09-27T15:55:03.000Z</time>
      </trkpt>
      <trkpt lat="40.15323" lon="20.60094">
        <ele>899.92999267578</ele>
        <time>2024-09-27T15:55:05.000Z</time>
      </trkpt>
      <trkpt lat="40.15318" lon="20.60089">
        <ele>899.92999267578</ele>
        <time>2024-09-27T15:55:06.000Z</time>
      </trkpt>
      <trkpt lat="40.15309" lon="20.60076">
        <ele>899.92999267578</ele>
        <time>2024-09-27T15:55:07.000Z</time>
      </trkpt>
      <trkpt lat="40.15306" lon="20.60071">
        <ele>899.92999267578</ele>
        <time>2024-09-27T15:55:08.000Z</time>
      </trkpt>
      <trkpt lat="40.15294" lon="20.60053">
        <ele>899.92999267578</ele>
        <time>2024-09-27T15:55:10.000Z</time>
      </trkpt>
      <trkpt lat="40.15289" lon="20.60045">
        <ele>899.92999267578</ele>
        <time>2024-09-27T15:55:12.000Z</time>
      </trkpt>
      <trkpt lat="40.15284" lon="20.60038">
        <ele>899.92999267578</ele>
        <time>2024-09-27T15:55:13.000Z</time>
      </trkpt>
      <trkpt lat="40.15281" lon="20.60031">
        <ele>899.92999267578</ele>
        <time>2024-09-27T15:55:14.000Z</time>
      </trkpt>
      <trkpt lat="40.15277" lon="20.60021">
        <ele>899.92999267578</ele>
        <time>2024-09-27T15:55:15.000Z</time>
      </trkpt>
      <trkpt lat="40.15275" lon="20.60012">
        <ele>899.92999267578</ele>
        <time>2024-09-27T15:55:16.000Z</time>
      </trkpt>
      <trkpt lat="40.15272" lon="20.59999">
        <ele>899.45001220703</ele>
        <time>2024-09-27T15:55:18.000Z</time>
      </trkpt>
      <trkpt lat="40.15271" lon="20.59991">
        <ele>899.92999267578</ele>
        <time>2024-09-27T15:55:19.000Z</time>
      </trkpt>
      <trkpt lat="40.15269" lon="20.59975">
        <ele>901.36999511719</ele>
        <time>2024-09-27T15:55:27.000Z</time>
      </trkpt>
      <trkpt lat="40.15268" lon="20.59955">
        <ele>901.84997558594</ele>
        <time>2024-09-27T15:55:34.000Z</time>
      </trkpt>
      <trkpt lat="40.15264" lon="20.59945">
        <ele>905.5390625</ele>
      </trkpt>
      <trkpt lat="40.15258" lon="20.59937">
        <ele>905.57421875</ele>
        <extensions>
          <visugpx:TrkExtension xmlns:visugpx="https://www.visugpx.com/editgpx/">
            <visugpx:node>1</visugpx:node>
            </visugpx:TrkExtension>
        </extensions>
      </trkpt>
    </trkseg>
  </trk>
</gpx>